<?xml version="1.0" encoding="UTF-8" standalone="no" ?>
<gpx xmlns="http://www.topografix.com/GPX/1/1" xmlns:xsi="http://www.w3.org/2001/XMLSchema-instance" xsi:schemaLocation="http://www.topografix.com/GPX/1/1 http://www.topografix.com/GPX/1/1/gpx.xsd" version="1.1" creator="VisuGPX - https://www.visugpx.com">
  <metadata>
    <name>2023-06-10_09-38_Sat Beauvais</name>
  </metadata>
  <trk>
    <name><![CDATA[2023-06-10_09-38_Sat Beauvais_1]]></name>
    <trkseg>
      <trkpt lat="49.43818" lon="2.07663">
        <ele>67.9</ele>
        <time>2023-06-10T07:38:28Z</time>
      </trkpt>
      <trkpt lat="49.43816" lon="2.07672">
        <ele>67.9</ele>
        <time>2023-06-10T07:38:33Z</time>
      </trkpt>
      <trkpt lat="49.43813" lon="2.07681">
        <ele>67.9</ele>
        <time>2023-06-10T07:38:38Z</time>
      </trkpt>
      <trkpt lat="49.43808" lon="2.07685">
        <ele>67.8</ele>
        <time>2023-06-10T07:38:43Z</time>
      </trkpt>
      <trkpt lat="49.43804" lon="2.0769">
        <ele>67.9</ele>
        <time>2023-06-10T07:38:48Z</time>
      </trkpt>
      <trkpt lat="49.43801" lon="2.07697">
        <ele>68.2</ele>
        <time>2023-06-10T07:38:54Z</time>
      </trkpt>
      <trkpt lat="49.43792" lon="2.07705">
        <ele>68.4</ele>
        <time>2023-06-10T07:39:00Z</time>
      </trkpt>
      <trkpt lat="49.43785" lon="2.07717">
        <ele>68.4</ele>
        <time>2023-06-10T07:39:06Z</time>
      </trkpt>
      <trkpt lat="49.4378" lon="2.07725">
        <ele>68.2</ele>
        <time>2023-06-10T07:39:12Z</time>
      </trkpt>
      <trkpt lat="49.43777" lon="2.07728">
        <ele>68</ele>
        <time>2023-06-10T07:39:18Z</time>
      </trkpt>
      <trkpt lat="49.43774" lon="2.07731">
        <ele>68.1</ele>
        <time>2023-06-10T07:39:23Z</time>
      </trkpt>
      <trkpt lat="49.43769" lon="2.07735">
        <ele>68.2</ele>
        <time>2023-06-10T07:39:29Z</time>
      </trkpt>
      <trkpt lat="49.43765" lon="2.07741">
        <ele>68.1</ele>
        <time>2023-06-10T07:39:35Z</time>
      </trkpt>
      <trkpt lat="49.43759" lon="2.07753">
        <ele>68</ele>
        <time>2023-06-10T07:39:40Z</time>
      </trkpt>
      <trkpt lat="49.43749" lon="2.07772">
        <ele>68.1</ele>
        <time>2023-06-10T07:39:46Z</time>
      </trkpt>
      <trkpt lat="49.43731" lon="2.07788">
        <ele>69.4</ele>
        <time>2023-06-10T07:40:00Z</time>
      </trkpt>
      <trkpt lat="49.43716" lon="2.07782">
        <ele>70</ele>
        <time>2023-06-10T07:40:06Z</time>
      </trkpt>
      <trkpt lat="49.43711" lon="2.07775">
        <ele>69.8</ele>
        <time>2023-06-10T07:40:11Z</time>
      </trkpt>
      <trkpt lat="49.43706" lon="2.0777">
        <ele>69.3</ele>
        <time>2023-06-10T07:40:17Z</time>
      </trkpt>
      <trkpt lat="49.43697" lon="2.07771">
        <ele>68.3</ele>
        <time>2023-06-10T07:40:22Z</time>
      </trkpt>
      <trkpt lat="49.4369" lon="2.07774">
        <ele>68</ele>
        <time>2023-06-10T07:40:28Z</time>
      </trkpt>
      <trkpt lat="49.43683" lon="2.07782">
        <ele>68</ele>
        <time>2023-06-10T07:40:34Z</time>
      </trkpt>
      <trkpt lat="49.43676" lon="2.07791">
        <ele>68</ele>
        <time>2023-06-10T07:40:40Z</time>
      </trkpt>
      <trkpt lat="49.43668" lon="2.078">
        <ele>68</ele>
        <time>2023-06-10T07:40:46Z</time>
      </trkpt>
      <trkpt lat="49.43661" lon="2.07808">
        <ele>68</ele>
        <time>2023-06-10T07:40:51Z</time>
      </trkpt>
      <trkpt lat="49.43655" lon="2.07817">
        <ele>68</ele>
        <time>2023-06-10T07:40:57Z</time>
      </trkpt>
      <trkpt lat="49.43651" lon="2.07825">
        <ele>68</ele>
        <time>2023-06-10T07:41:02Z</time>
      </trkpt>
      <trkpt lat="49.43642" lon="2.07835">
        <ele>68</ele>
        <time>2023-06-10T07:41:08Z</time>
      </trkpt>
      <trkpt lat="49.43635" lon="2.07845">
        <ele>67.9</ele>
        <time>2023-06-10T07:41:14Z</time>
      </trkpt>
      <trkpt lat="49.43629" lon="2.07854">
        <ele>67.7</ele>
        <time>2023-06-10T07:41:20Z</time>
      </trkpt>
      <trkpt lat="49.43628" lon="2.07856">
        <ele>67.7</ele>
        <time>2023-06-10T07:41:25Z</time>
      </trkpt>
      <trkpt lat="49.43624" lon="2.07861">
        <ele>67.5</ele>
        <time>2023-06-10T07:41:31Z</time>
      </trkpt>
      <trkpt lat="49.43619" lon="2.0787">
        <ele>67.5</ele>
        <time>2023-06-10T07:41:37Z</time>
      </trkpt>
      <trkpt lat="49.43614" lon="2.07879">
        <ele>67.7</ele>
        <time>2023-06-10T07:41:42Z</time>
      </trkpt>
      <trkpt lat="49.43608" lon="2.07888">
        <ele>68</ele>
        <time>2023-06-10T07:41:47Z</time>
      </trkpt>
      <trkpt lat="49.43602" lon="2.07897">
        <ele>67.9</ele>
        <time>2023-06-10T07:41:53Z</time>
      </trkpt>
      <trkpt lat="49.43597" lon="2.07905">
        <ele>67.7</ele>
        <time>2023-06-10T07:41:58Z</time>
      </trkpt>
      <trkpt lat="49.4359" lon="2.07915">
        <ele>67.3</ele>
        <time>2023-06-10T07:42:04Z</time>
      </trkpt>
      <trkpt lat="49.43586" lon="2.07923">
        <ele>67.3</ele>
        <time>2023-06-10T07:42:09Z</time>
      </trkpt>
      <trkpt lat="49.43581" lon="2.07935">
        <ele>67.7</ele>
        <time>2023-06-10T07:42:15Z</time>
      </trkpt>
      <trkpt lat="49.43577" lon="2.07949">
        <ele>68</ele>
        <time>2023-06-10T07:42:20Z</time>
      </trkpt>
      <trkpt lat="49.43574" lon="2.07962">
        <ele>68</ele>
        <time>2023-06-10T07:42:26Z</time>
      </trkpt>
      <trkpt lat="49.43571" lon="2.07973">
        <ele>68</ele>
        <time>2023-06-10T07:42:31Z</time>
      </trkpt>
      <trkpt lat="49.43567" lon="2.07988">
        <ele>67.7</ele>
        <time>2023-06-10T07:42:37Z</time>
      </trkpt>
      <trkpt lat="49.43566" lon="2.08001">
        <ele>67.4</ele>
        <time>2023-06-10T07:42:42Z</time>
      </trkpt>
      <trkpt lat="49.43564" lon="2.08012">
        <ele>67.6</ele>
        <time>2023-06-10T07:42:47Z</time>
      </trkpt>
      <trkpt lat="49.43561" lon="2.08023">
        <ele>67.9</ele>
        <time>2023-06-10T07:42:53Z</time>
      </trkpt>
      <trkpt lat="49.43559" lon="2.08033">
        <ele>68</ele>
        <time>2023-06-10T07:42:58Z</time>
      </trkpt>
      <trkpt lat="49.43554" lon="2.08047">
        <ele>68</ele>
        <time>2023-06-10T07:43:04Z</time>
      </trkpt>
      <trkpt lat="49.43549" lon="2.08059">
        <ele>68</ele>
        <time>2023-06-10T07:43:10Z</time>
      </trkpt>
      <trkpt lat="49.43546" lon="2.08069">
        <ele>68</ele>
        <time>2023-06-10T07:43:16Z</time>
      </trkpt>
      <trkpt lat="49.43544" lon="2.08081">
        <ele>68</ele>
        <time>2023-06-10T07:43:22Z</time>
      </trkpt>
      <trkpt lat="49.43541" lon="2.08092">
        <ele>68</ele>
        <time>2023-06-10T07:43:28Z</time>
      </trkpt>
      <trkpt lat="49.43537" lon="2.08099">
        <ele>67.8</ele>
        <time>2023-06-10T07:43:33Z</time>
      </trkpt>
      <trkpt lat="49.43533" lon="2.08108">
        <ele>67.4</ele>
        <time>2023-06-10T07:43:38Z</time>
      </trkpt>
      <trkpt lat="49.43529" lon="2.08119">
        <ele>67.7</ele>
        <time>2023-06-10T07:43:44Z</time>
      </trkpt>
      <trkpt lat="49.43525" lon="2.08131">
        <ele>68.5</ele>
        <time>2023-06-10T07:43:50Z</time>
      </trkpt>
      <trkpt lat="49.43521" lon="2.08143">
        <ele>69</ele>
        <time>2023-06-10T07:43:56Z</time>
      </trkpt>
      <trkpt lat="49.43516" lon="2.08149">
        <ele>68.8</ele>
        <time>2023-06-10T07:44:02Z</time>
      </trkpt>
      <trkpt lat="49.43511" lon="2.08146">
        <ele>68.9</ele>
        <time>2023-06-10T07:44:07Z</time>
      </trkpt>
      <trkpt lat="49.43506" lon="2.08135">
        <ele>68.9</ele>
        <time>2023-06-10T07:44:13Z</time>
      </trkpt>
      <trkpt lat="49.435" lon="2.08125">
        <ele>69</ele>
        <time>2023-06-10T07:44:19Z</time>
      </trkpt>
      <trkpt lat="49.43494" lon="2.08115">
        <ele>68.9</ele>
        <time>2023-06-10T07:44:25Z</time>
      </trkpt>
      <trkpt lat="49.43488" lon="2.08103">
        <ele>68.8</ele>
        <time>2023-06-10T07:44:31Z</time>
      </trkpt>
      <trkpt lat="49.43483" lon="2.08091">
        <ele>68.7</ele>
        <time>2023-06-10T07:44:37Z</time>
      </trkpt>
      <trkpt lat="49.43478" lon="2.08081">
        <ele>68.7</ele>
        <time>2023-06-10T07:44:43Z</time>
      </trkpt>
      <trkpt lat="49.43473" lon="2.08076">
        <ele>68.7</ele>
        <time>2023-06-10T07:44:48Z</time>
      </trkpt>
      <trkpt lat="49.43466" lon="2.08082">
        <ele>68.5</ele>
        <time>2023-06-10T07:44:54Z</time>
      </trkpt>
      <trkpt lat="49.4346" lon="2.0809">
        <ele>68.2</ele>
        <time>2023-06-10T07:44:59Z</time>
      </trkpt>
      <trkpt lat="49.43452" lon="2.081">
        <ele>68</ele>
        <time>2023-06-10T07:45:05Z</time>
      </trkpt>
      <trkpt lat="49.43444" lon="2.08109">
        <ele>67.9</ele>
        <time>2023-06-10T07:45:11Z</time>
      </trkpt>
      <trkpt lat="49.43439" lon="2.08116">
        <ele>68</ele>
        <time>2023-06-10T07:45:16Z</time>
      </trkpt>
      <trkpt lat="49.43433" lon="2.08121">
        <ele>68</ele>
        <time>2023-06-10T07:45:21Z</time>
      </trkpt>
      <trkpt lat="49.43426" lon="2.08131">
        <ele>68</ele>
        <time>2023-06-10T07:45:27Z</time>
      </trkpt>
      <trkpt lat="49.43418" lon="2.08135">
        <ele>68</ele>
        <time>2023-06-10T07:45:33Z</time>
      </trkpt>
      <trkpt lat="49.43413" lon="2.08132">
        <ele>68.1</ele>
        <time>2023-06-10T07:45:38Z</time>
      </trkpt>
      <trkpt lat="49.43407" lon="2.0812">
        <ele>68.1</ele>
        <time>2023-06-10T07:45:44Z</time>
      </trkpt>
      <trkpt lat="49.43403" lon="2.08111">
        <ele>68</ele>
        <time>2023-06-10T07:45:50Z</time>
      </trkpt>
      <trkpt lat="49.43401" lon="2.08096">
        <ele>68</ele>
        <time>2023-06-10T07:45:55Z</time>
      </trkpt>
      <trkpt lat="49.43397" lon="2.08087">
        <ele>68</ele>
        <time>2023-06-10T07:46:00Z</time>
      </trkpt>
      <trkpt lat="49.43394" lon="2.0808">
        <ele>68</ele>
        <time>2023-06-10T07:46:05Z</time>
      </trkpt>
      <trkpt lat="49.43389" lon="2.08068">
        <ele>68</ele>
        <time>2023-06-10T07:46:11Z</time>
      </trkpt>
      <trkpt lat="49.43386" lon="2.08056">
        <ele>68</ele>
        <time>2023-06-10T07:46:16Z</time>
      </trkpt>
      <trkpt lat="49.43381" lon="2.0805">
        <ele>68.1</ele>
        <time>2023-06-10T07:46:22Z</time>
      </trkpt>
      <trkpt lat="49.43374" lon="2.08053">
        <ele>68.1</ele>
        <time>2023-06-10T07:46:28Z</time>
      </trkpt>
      <trkpt lat="49.43369" lon="2.08065">
        <ele>68</ele>
        <time>2023-06-10T07:46:34Z</time>
      </trkpt>
      <trkpt lat="49.43365" lon="2.08075">
        <ele>68</ele>
        <time>2023-06-10T07:46:39Z</time>
      </trkpt>
      <trkpt lat="49.43362" lon="2.08082">
        <ele>68</ele>
        <time>2023-06-10T07:46:45Z</time>
      </trkpt>
      <trkpt lat="49.43361" lon="2.08076">
        <ele>68</ele>
        <time>2023-06-10T07:46:51Z</time>
      </trkpt>
      <trkpt lat="49.43356" lon="2.08068">
        <ele>68.4</ele>
        <time>2023-06-10T07:46:56Z</time>
      </trkpt>
      <trkpt lat="49.43349" lon="2.0806">
        <ele>68.9</ele>
        <time>2023-06-10T07:47:02Z</time>
      </trkpt>
      <trkpt lat="49.43341" lon="2.08057">
        <ele>69.4</ele>
        <time>2023-06-10T07:47:07Z</time>
      </trkpt>
      <trkpt lat="49.43335" lon="2.08061">
        <ele>69.9</ele>
        <time>2023-06-10T07:47:13Z</time>
      </trkpt>
      <trkpt lat="49.4333" lon="2.08069">
        <ele>69.9</ele>
        <time>2023-06-10T07:47:19Z</time>
      </trkpt>
      <trkpt lat="49.43322" lon="2.08073">
        <ele>69.7</ele>
        <time>2023-06-10T07:47:25Z</time>
      </trkpt>
      <trkpt lat="49.43313" lon="2.0807">
        <ele>69.6</ele>
        <time>2023-06-10T07:47:30Z</time>
      </trkpt>
      <trkpt lat="49.43303" lon="2.08067">
        <ele>69.5</ele>
        <time>2023-06-10T07:47:36Z</time>
      </trkpt>
      <trkpt lat="49.43295" lon="2.08066">
        <ele>69.4</ele>
        <time>2023-06-10T07:47:42Z</time>
      </trkpt>
      <trkpt lat="49.43288" lon="2.08065">
        <ele>69.2</ele>
        <time>2023-06-10T07:47:48Z</time>
      </trkpt>
      <trkpt lat="49.43279" lon="2.08061">
        <ele>69</ele>
        <time>2023-06-10T07:47:53Z</time>
      </trkpt>
      <trkpt lat="49.4327" lon="2.08059">
        <ele>69</ele>
        <time>2023-06-10T07:47:59Z</time>
      </trkpt>
      <trkpt lat="49.43262" lon="2.0806">
        <ele>69</ele>
        <time>2023-06-10T07:48:04Z</time>
      </trkpt>
      <trkpt lat="49.43255" lon="2.08062">
        <ele>69</ele>
        <time>2023-06-10T07:48:09Z</time>
      </trkpt>
      <trkpt lat="49.43247" lon="2.08065">
        <ele>69</ele>
        <time>2023-06-10T07:48:15Z</time>
      </trkpt>
      <trkpt lat="49.43241" lon="2.08066">
        <ele>69</ele>
        <time>2023-06-10T07:48:20Z</time>
      </trkpt>
      <trkpt lat="49.43236" lon="2.0807">
        <ele>69</ele>
        <time>2023-06-10T07:48:26Z</time>
      </trkpt>
      <trkpt lat="49.43233" lon="2.08075">
        <ele>69</ele>
        <time>2023-06-10T07:48:31Z</time>
      </trkpt>
      <trkpt lat="49.4323" lon="2.08084">
        <ele>69</ele>
        <time>2023-06-10T07:48:37Z</time>
      </trkpt>
      <trkpt lat="49.43228" lon="2.08093">
        <ele>69.1</ele>
        <time>2023-06-10T07:48:43Z</time>
      </trkpt>
      <trkpt lat="49.43225" lon="2.081">
        <ele>69.1</ele>
        <time>2023-06-10T07:48:49Z</time>
      </trkpt>
      <trkpt lat="49.43221" lon="2.08107">
        <ele>69</ele>
        <time>2023-06-10T07:48:54Z</time>
      </trkpt>
      <trkpt lat="49.4322" lon="2.08111">
        <ele>69</ele>
        <time>2023-06-10T07:48:59Z</time>
      </trkpt>
      <trkpt lat="49.43224" lon="2.08112">
        <ele>69.1</ele>
        <time>2023-06-10T07:49:05Z</time>
      </trkpt>
      <trkpt lat="49.43227" lon="2.08112">
        <ele>69.2</ele>
        <time>2023-06-10T07:49:10Z</time>
      </trkpt>
      <trkpt lat="49.43229" lon="2.08113">
        <ele>69.3</ele>
        <time>2023-06-10T07:49:17Z</time>
      </trkpt>
      <trkpt lat="49.4323" lon="2.08114">
        <ele>69.3</ele>
        <time>2023-06-10T07:49:23Z</time>
      </trkpt>
      <trkpt lat="49.43231" lon="2.08115">
        <ele>69.3</ele>
        <time>2023-06-10T07:49:28Z</time>
      </trkpt>
      <trkpt lat="49.43233" lon="2.08119">
        <ele>69.4</ele>
        <time>2023-06-10T07:49:33Z</time>
      </trkpt>
      <trkpt lat="49.43235" lon="2.08122">
        <ele>69.5</ele>
        <time>2023-06-10T07:49:39Z</time>
      </trkpt>
      <trkpt lat="49.43237" lon="2.08124">
        <ele>69.5</ele>
        <time>2023-06-10T07:49:45Z</time>
      </trkpt>
      <trkpt lat="49.4324" lon="2.08128">
        <ele>69.6</ele>
        <time>2023-06-10T07:49:50Z</time>
      </trkpt>
      <trkpt lat="49.4324" lon="2.08127">
        <ele>69.6</ele>
        <time>2023-06-10T07:49:56Z</time>
      </trkpt>
      <trkpt lat="49.43238" lon="2.08124">
        <ele>69.6</ele>
        <time>2023-06-10T07:50:06Z</time>
      </trkpt>
      <trkpt lat="49.43238" lon="2.08124">
        <ele>69.6</ele>
        <time>2023-06-10T07:50:15Z</time>
      </trkpt>
      <trkpt lat="49.43238" lon="2.08124">
        <ele>69.6</ele>
        <time>2023-06-10T07:50:20Z</time>
      </trkpt>
      <trkpt lat="49.43239" lon="2.08125">
        <ele>69.6</ele>
        <time>2023-06-10T07:50:25Z</time>
      </trkpt>
      <trkpt lat="49.43239" lon="2.08125">
        <ele>69.6</ele>
        <time>2023-06-10T07:50:31Z</time>
      </trkpt>
      <trkpt lat="49.43239" lon="2.08125">
        <ele>69.6</ele>
        <time>2023-06-10T07:50:37Z</time>
      </trkpt>
      <trkpt lat="49.43239" lon="2.08125">
        <ele>69.6</ele>
        <time>2023-06-10T07:50:42Z</time>
      </trkpt>
      <trkpt lat="49.43239" lon="2.08125">
        <ele>69.6</ele>
        <time>2023-06-10T07:50:47Z</time>
      </trkpt>
      <trkpt lat="49.43239" lon="2.08125">
        <ele>69.6</ele>
        <time>2023-06-10T07:50:53Z</time>
      </trkpt>
      <trkpt lat="49.43239" lon="2.08125">
        <ele>69.6</ele>
        <time>2023-06-10T07:50:58Z</time>
      </trkpt>
      <trkpt lat="49.4324" lon="2.08125">
        <ele>69.6</ele>
        <time>2023-06-10T07:51:04Z</time>
      </trkpt>
      <trkpt lat="49.43239" lon="2.08121">
        <ele>69.6</ele>
        <time>2023-06-10T07:51:10Z</time>
      </trkpt>
      <trkpt lat="49.4324" lon="2.08117">
        <ele>69.6</ele>
        <time>2023-06-10T07:51:15Z</time>
      </trkpt>
      <trkpt lat="49.43241" lon="2.08117">
        <ele>69.7</ele>
        <time>2023-06-10T07:51:20Z</time>
      </trkpt>
      <trkpt lat="49.43244" lon="2.0812">
        <ele>69.8</ele>
        <time>2023-06-10T07:51:27Z</time>
      </trkpt>
      <trkpt lat="49.43244" lon="2.0812">
        <ele>69.8</ele>
        <time>2023-06-10T07:51:33Z</time>
      </trkpt>
      <trkpt lat="49.43244" lon="2.0812">
        <ele>69.8</ele>
        <time>2023-06-10T07:51:38Z</time>
      </trkpt>
      <trkpt lat="49.43245" lon="2.08122">
        <ele>69.8</ele>
        <time>2023-06-10T07:51:43Z</time>
      </trkpt>
      <trkpt lat="49.43245" lon="2.08126">
        <ele>69.8</ele>
        <time>2023-06-10T07:51:49Z</time>
      </trkpt>
      <trkpt lat="49.43245" lon="2.08125">
        <ele>69.8</ele>
        <time>2023-06-10T07:51:54Z</time>
      </trkpt>
      <trkpt lat="49.43243" lon="2.08131">
        <ele>69.7</ele>
        <time>2023-06-10T07:52:00Z</time>
      </trkpt>
      <trkpt lat="49.43242" lon="2.08133">
        <ele>69.7</ele>
        <time>2023-06-10T07:52:06Z</time>
      </trkpt>
      <trkpt lat="49.43242" lon="2.08133">
        <ele>69.7</ele>
        <time>2023-06-10T07:52:12Z</time>
      </trkpt>
      <trkpt lat="49.43244" lon="2.08132">
        <ele>69.8</ele>
        <time>2023-06-10T07:52:17Z</time>
      </trkpt>
      <trkpt lat="49.43247" lon="2.08132">
        <ele>69.9</ele>
        <time>2023-06-10T07:52:22Z</time>
      </trkpt>
      <trkpt lat="49.43251" lon="2.08131">
        <ele>70</ele>
        <time>2023-06-10T07:52:28Z</time>
      </trkpt>
      <trkpt lat="49.43251" lon="2.08132">
        <ele>70</ele>
        <time>2023-06-10T07:52:34Z</time>
      </trkpt>
      <trkpt lat="49.4325" lon="2.08132">
        <ele>70</ele>
        <time>2023-06-10T07:52:40Z</time>
      </trkpt>
      <trkpt lat="49.43251" lon="2.08133">
        <ele>70</ele>
        <time>2023-06-10T07:52:46Z</time>
      </trkpt>
      <trkpt lat="49.43251" lon="2.08132">
        <ele>70</ele>
        <time>2023-06-10T07:52:52Z</time>
      </trkpt>
      <trkpt lat="49.43252" lon="2.08126">
        <ele>70</ele>
        <time>2023-06-10T07:52:57Z</time>
      </trkpt>
      <trkpt lat="49.4325" lon="2.08122">
        <ele>70</ele>
        <time>2023-06-10T07:53:03Z</time>
      </trkpt>
      <trkpt lat="49.43249" lon="2.0812">
        <ele>70</ele>
        <time>2023-06-10T07:53:09Z</time>
      </trkpt>
      <trkpt lat="49.4325" lon="2.0812">
        <ele>70</ele>
        <time>2023-06-10T07:53:14Z</time>
      </trkpt>
      <trkpt lat="49.4325" lon="2.0812">
        <ele>70</ele>
        <time>2023-06-10T07:53:20Z</time>
      </trkpt>
      <trkpt lat="49.43251" lon="2.08119">
        <ele>70</ele>
        <time>2023-06-10T07:53:26Z</time>
      </trkpt>
      <trkpt lat="49.43252" lon="2.08119">
        <ele>70</ele>
        <time>2023-06-10T07:53:31Z</time>
      </trkpt>
      <trkpt lat="49.43255" lon="2.08119">
        <ele>70.1</ele>
        <time>2023-06-10T07:53:37Z</time>
      </trkpt>
      <trkpt lat="49.43255" lon="2.08119">
        <ele>70</ele>
        <time>2023-06-10T07:53:43Z</time>
      </trkpt>
      <trkpt lat="49.43252" lon="2.08119">
        <ele>70</ele>
        <time>2023-06-10T07:53:49Z</time>
      </trkpt>
      <trkpt lat="49.4325" lon="2.0812">
        <ele>70</ele>
        <time>2023-06-10T07:53:55Z</time>
      </trkpt>
      <trkpt lat="49.43248" lon="2.08123">
        <ele>69.9</ele>
        <time>2023-06-10T07:54:00Z</time>
      </trkpt>
      <trkpt lat="49.43248" lon="2.08126">
        <ele>69.9</ele>
        <time>2023-06-10T07:54:05Z</time>
      </trkpt>
      <trkpt lat="49.43249" lon="2.08127">
        <ele>69.9</ele>
        <time>2023-06-10T07:54:11Z</time>
      </trkpt>
      <trkpt lat="49.43249" lon="2.08127">
        <ele>69.9</ele>
        <time>2023-06-10T07:54:17Z</time>
      </trkpt>
      <trkpt lat="49.43248" lon="2.08127">
        <ele>69.9</ele>
        <time>2023-06-10T07:54:22Z</time>
      </trkpt>
      <trkpt lat="49.43247" lon="2.08128">
        <ele>69.9</ele>
        <time>2023-06-10T07:54:28Z</time>
      </trkpt>
      <trkpt lat="49.43246" lon="2.08126">
        <ele>69.9</ele>
        <time>2023-06-10T07:54:34Z</time>
      </trkpt>
      <trkpt lat="49.43247" lon="2.08125">
        <ele>69.9</ele>
        <time>2023-06-10T07:54:39Z</time>
      </trkpt>
      <trkpt lat="49.43249" lon="2.08124">
        <ele>70</ele>
        <time>2023-06-10T07:54:44Z</time>
      </trkpt>
      <trkpt lat="49.43251" lon="2.08123">
        <ele>70</ele>
        <time>2023-06-10T07:54:49Z</time>
      </trkpt>
      <trkpt lat="49.43253" lon="2.08122">
        <ele>70</ele>
        <time>2023-06-10T07:54:54Z</time>
      </trkpt>
      <trkpt lat="49.43254" lon="2.08122">
        <ele>70.1</ele>
        <time>2023-06-10T07:55:00Z</time>
      </trkpt>
      <trkpt lat="49.43254" lon="2.08123">
        <ele>70.1</ele>
        <time>2023-06-10T07:55:06Z</time>
      </trkpt>
      <trkpt lat="49.43248" lon="2.08118">
        <ele>69.9</ele>
        <time>2023-06-10T07:55:19Z</time>
      </trkpt>
      <trkpt lat="49.43248" lon="2.08118">
        <ele>69.9</ele>
        <time>2023-06-10T07:55:29Z</time>
      </trkpt>
      <trkpt lat="49.43249" lon="2.0812">
        <ele>70</ele>
        <time>2023-06-10T07:55:35Z</time>
      </trkpt>
      <trkpt lat="49.43252" lon="2.08125">
        <ele>70</ele>
        <time>2023-06-10T07:55:40Z</time>
      </trkpt>
      <trkpt lat="49.43253" lon="2.0813">
        <ele>70.1</ele>
        <time>2023-06-10T07:55:46Z</time>
      </trkpt>
      <trkpt lat="49.43252" lon="2.08132">
        <ele>70.1</ele>
        <time>2023-06-10T07:55:51Z</time>
      </trkpt>
      <trkpt lat="49.43251" lon="2.08136">
        <ele>70</ele>
        <time>2023-06-10T07:55:57Z</time>
      </trkpt>
      <trkpt lat="49.4325" lon="2.08138">
        <ele>70</ele>
        <time>2023-06-10T07:56:03Z</time>
      </trkpt>
      <trkpt lat="49.43251" lon="2.08142">
        <ele>70.1</ele>
        <time>2023-06-10T07:56:08Z</time>
      </trkpt>
      <trkpt lat="49.43251" lon="2.08141">
        <ele>70.1</ele>
        <time>2023-06-10T07:56:14Z</time>
      </trkpt>
      <trkpt lat="49.43251" lon="2.08141">
        <ele>70.1</ele>
        <time>2023-06-10T07:56:19Z</time>
      </trkpt>
      <trkpt lat="49.43251" lon="2.08141">
        <ele>70.1</ele>
        <time>2023-06-10T07:56:24Z</time>
      </trkpt>
      <trkpt lat="49.43253" lon="2.08137">
        <ele>70.1</ele>
        <time>2023-06-10T07:56:30Z</time>
      </trkpt>
      <trkpt lat="49.43254" lon="2.08133">
        <ele>70.1</ele>
        <time>2023-06-10T07:56:36Z</time>
      </trkpt>
      <trkpt lat="49.43253" lon="2.08132">
        <ele>70.1</ele>
        <time>2023-06-10T07:56:41Z</time>
      </trkpt>
      <trkpt lat="49.43254" lon="2.08131">
        <ele>70.1</ele>
        <time>2023-06-10T07:56:47Z</time>
      </trkpt>
      <trkpt lat="49.43254" lon="2.08129">
        <ele>70.1</ele>
        <time>2023-06-10T07:56:53Z</time>
      </trkpt>
      <trkpt lat="49.43254" lon="2.08127">
        <ele>70.1</ele>
        <time>2023-06-10T07:56:59Z</time>
      </trkpt>
      <trkpt lat="49.43254" lon="2.08128">
        <ele>70.1</ele>
        <time>2023-06-10T07:57:04Z</time>
      </trkpt>
      <trkpt lat="49.43253" lon="2.08129">
        <ele>70.1</ele>
        <time>2023-06-10T07:57:10Z</time>
      </trkpt>
      <trkpt lat="49.43252" lon="2.08129">
        <ele>70</ele>
        <time>2023-06-10T07:57:15Z</time>
      </trkpt>
      <trkpt lat="49.43253" lon="2.08129">
        <ele>70.1</ele>
        <time>2023-06-10T07:57:21Z</time>
      </trkpt>
      <trkpt lat="49.43253" lon="2.08131">
        <ele>70.1</ele>
        <time>2023-06-10T07:57:26Z</time>
      </trkpt>
      <trkpt lat="49.43253" lon="2.08134">
        <ele>70.1</ele>
        <time>2023-06-10T07:57:32Z</time>
      </trkpt>
      <trkpt lat="49.43251" lon="2.08136">
        <ele>70</ele>
        <time>2023-06-10T07:57:38Z</time>
      </trkpt>
      <trkpt lat="49.43251" lon="2.08139">
        <ele>70</ele>
        <time>2023-06-10T07:57:44Z</time>
      </trkpt>
      <trkpt lat="49.43233" lon="2.08142">
        <ele>69.4</ele>
        <time>2023-06-10T08:05:43Z</time>
      </trkpt>
      <trkpt lat="49.43226" lon="2.08141">
        <ele>69.2</ele>
        <time>2023-06-10T08:05:49Z</time>
      </trkpt>
      <trkpt lat="49.43224" lon="2.08142">
        <ele>69.1</ele>
        <time>2023-06-10T08:05:54Z</time>
      </trkpt>
      <trkpt lat="49.43214" lon="2.08147">
        <ele>69</ele>
        <time>2023-06-10T08:06:00Z</time>
      </trkpt>
      <trkpt lat="49.43207" lon="2.08154">
        <ele>69</ele>
        <time>2023-06-10T08:06:06Z</time>
      </trkpt>
      <trkpt lat="49.43202" lon="2.0816">
        <ele>69</ele>
        <time>2023-06-10T08:06:11Z</time>
      </trkpt>
      <trkpt lat="49.43198" lon="2.08166">
        <ele>69</ele>
        <time>2023-06-10T08:06:16Z</time>
      </trkpt>
      <trkpt lat="49.43195" lon="2.08173">
        <ele>69</ele>
        <time>2023-06-10T08:06:22Z</time>
      </trkpt>
      <trkpt lat="49.43191" lon="2.0818">
        <ele>69</ele>
        <time>2023-06-10T08:06:27Z</time>
      </trkpt>
      <trkpt lat="49.43187" lon="2.08187">
        <ele>69</ele>
        <time>2023-06-10T08:06:33Z</time>
      </trkpt>
      <trkpt lat="49.43181" lon="2.08192">
        <ele>69</ele>
        <time>2023-06-10T08:06:38Z</time>
      </trkpt>
      <trkpt lat="49.43174" lon="2.08201">
        <ele>68.8</ele>
        <time>2023-06-10T08:06:44Z</time>
      </trkpt>
      <trkpt lat="49.43169" lon="2.08212">
        <ele>68.4</ele>
        <time>2023-06-10T08:06:50Z</time>
      </trkpt>
      <trkpt lat="49.43167" lon="2.08222">
        <ele>68</ele>
        <time>2023-06-10T08:06:55Z</time>
      </trkpt>
      <trkpt lat="49.43164" lon="2.08232">
        <ele>68</ele>
        <time>2023-06-10T08:07:00Z</time>
      </trkpt>
      <trkpt lat="49.43161" lon="2.08242">
        <ele>68</ele>
        <time>2023-06-10T08:07:06Z</time>
      </trkpt>
      <trkpt lat="49.43159" lon="2.08253">
        <ele>68</ele>
        <time>2023-06-10T08:07:12Z</time>
      </trkpt>
      <trkpt lat="49.43157" lon="2.0826">
        <ele>68</ele>
        <time>2023-06-10T08:07:17Z</time>
      </trkpt>
      <trkpt lat="49.43154" lon="2.08268">
        <ele>68</ele>
        <time>2023-06-10T08:07:23Z</time>
      </trkpt>
      <trkpt lat="49.43155" lon="2.08276">
        <ele>68</ele>
        <time>2023-06-10T08:07:29Z</time>
      </trkpt>
      <trkpt lat="49.43157" lon="2.08287">
        <ele>68</ele>
        <time>2023-06-10T08:07:35Z</time>
      </trkpt>
      <trkpt lat="49.43158" lon="2.08301">
        <ele>68</ele>
        <time>2023-06-10T08:07:41Z</time>
      </trkpt>
      <trkpt lat="49.43158" lon="2.08312">
        <ele>68</ele>
        <time>2023-06-10T08:07:46Z</time>
      </trkpt>
      <trkpt lat="49.4315" lon="2.08315">
        <ele>68</ele>
        <time>2023-06-10T08:07:52Z</time>
      </trkpt>
      <trkpt lat="49.43142" lon="2.08315">
        <ele>68</ele>
        <time>2023-06-10T08:07:58Z</time>
      </trkpt>
      <trkpt lat="49.43134" lon="2.08315">
        <ele>67.8</ele>
        <time>2023-06-10T08:08:04Z</time>
      </trkpt>
      <trkpt lat="49.43128" lon="2.08309">
        <ele>67.6</ele>
        <time>2023-06-10T08:08:10Z</time>
      </trkpt>
      <trkpt lat="49.43123" lon="2.08303">
        <ele>67.4</ele>
        <time>2023-06-10T08:08:16Z</time>
      </trkpt>
      <trkpt lat="49.43117" lon="2.08299">
        <ele>67.2</ele>
        <time>2023-06-10T08:08:22Z</time>
      </trkpt>
      <trkpt lat="49.43111" lon="2.08294">
        <ele>67</ele>
        <time>2023-06-10T08:08:28Z</time>
      </trkpt>
      <trkpt lat="49.43106" lon="2.0829">
        <ele>67</ele>
        <time>2023-06-10T08:08:34Z</time>
      </trkpt>
      <trkpt lat="49.43102" lon="2.08287">
        <ele>67</ele>
        <time>2023-06-10T08:08:39Z</time>
      </trkpt>
      <trkpt lat="49.43099" lon="2.08281">
        <ele>67</ele>
        <time>2023-06-10T08:08:45Z</time>
      </trkpt>
      <trkpt lat="49.43091" lon="2.08272">
        <ele>67</ele>
        <time>2023-06-10T08:08:51Z</time>
      </trkpt>
      <trkpt lat="49.43087" lon="2.08264">
        <ele>67</ele>
        <time>2023-06-10T08:08:57Z</time>
      </trkpt>
      <trkpt lat="49.43082" lon="2.08256">
        <ele>67</ele>
        <time>2023-06-10T08:09:03Z</time>
      </trkpt>
      <trkpt lat="49.43077" lon="2.08248">
        <ele>67</ele>
        <time>2023-06-10T08:09:09Z</time>
      </trkpt>
      <trkpt lat="49.43071" lon="2.08238">
        <ele>67.2</ele>
        <time>2023-06-10T08:09:15Z</time>
      </trkpt>
      <trkpt lat="49.43066" lon="2.08232">
        <ele>67.4</ele>
        <time>2023-06-10T08:09:20Z</time>
      </trkpt>
      <trkpt lat="49.43061" lon="2.08228">
        <ele>67.6</ele>
        <time>2023-06-10T08:09:25Z</time>
      </trkpt>
      <trkpt lat="49.43055" lon="2.08226">
        <ele>67.9</ele>
        <time>2023-06-10T08:09:31Z</time>
      </trkpt>
      <trkpt lat="49.43049" lon="2.08225">
        <ele>67.7</ele>
        <time>2023-06-10T08:09:37Z</time>
      </trkpt>
      <trkpt lat="49.43044" lon="2.08223">
        <ele>67.6</ele>
        <time>2023-06-10T08:09:42Z</time>
      </trkpt>
      <trkpt lat="49.4304" lon="2.08219">
        <ele>67.4</ele>
        <time>2023-06-10T08:09:48Z</time>
      </trkpt>
      <trkpt lat="49.43037" lon="2.08214">
        <ele>67.2</ele>
        <time>2023-06-10T08:09:53Z</time>
      </trkpt>
      <trkpt lat="49.43034" lon="2.08206">
        <ele>67.1</ele>
        <time>2023-06-10T08:09:58Z</time>
      </trkpt>
      <trkpt lat="49.43032" lon="2.08195">
        <ele>67</ele>
        <time>2023-06-10T08:10:04Z</time>
      </trkpt>
      <trkpt lat="49.43031" lon="2.08187">
        <ele>67</ele>
        <time>2023-06-10T08:10:09Z</time>
      </trkpt>
      <trkpt lat="49.43031" lon="2.08174">
        <ele>67</ele>
        <time>2023-06-10T08:10:14Z</time>
      </trkpt>
      <trkpt lat="49.43032" lon="2.08164">
        <ele>67.1</ele>
        <time>2023-06-10T08:10:19Z</time>
      </trkpt>
      <trkpt lat="49.43033" lon="2.08158">
        <ele>67.3</ele>
        <time>2023-06-10T08:10:25Z</time>
      </trkpt>
      <trkpt lat="49.43032" lon="2.08154">
        <ele>67.4</ele>
        <time>2023-06-10T08:10:30Z</time>
      </trkpt>
      <trkpt lat="49.43029" lon="2.08149">
        <ele>67.6</ele>
        <time>2023-06-10T08:10:36Z</time>
      </trkpt>
      <trkpt lat="49.43028" lon="2.08139">
        <ele>68</ele>
        <time>2023-06-10T08:10:42Z</time>
      </trkpt>
      <trkpt lat="49.43026" lon="2.08121">
        <ele>67.9</ele>
        <time>2023-06-10T08:10:48Z</time>
      </trkpt>
      <trkpt lat="49.43024" lon="2.08096">
        <ele>67.9</ele>
        <time>2023-06-10T08:10:54Z</time>
      </trkpt>
      <trkpt lat="49.43024" lon="2.0808">
        <ele>67.9</ele>
        <time>2023-06-10T08:10:59Z</time>
      </trkpt>
      <trkpt lat="49.43022" lon="2.08065">
        <ele>67.8</ele>
        <time>2023-06-10T08:11:05Z</time>
      </trkpt>
      <trkpt lat="49.4302" lon="2.08055">
        <ele>67.7</ele>
        <time>2023-06-10T08:11:11Z</time>
      </trkpt>
      <trkpt lat="49.43017" lon="2.08044">
        <ele>67.6</ele>
        <time>2023-06-10T08:11:17Z</time>
      </trkpt>
      <trkpt lat="49.43021" lon="2.08037">
        <ele>67.7</ele>
        <time>2023-06-10T08:11:22Z</time>
      </trkpt>
      <trkpt lat="49.43029" lon="2.08028">
        <ele>68</ele>
        <time>2023-06-10T08:11:28Z</time>
      </trkpt>
      <trkpt lat="49.43034" lon="2.08017">
        <ele>68.1</ele>
        <time>2023-06-10T08:11:34Z</time>
      </trkpt>
      <trkpt lat="49.43036" lon="2.08005">
        <ele>68.3</ele>
        <time>2023-06-10T08:11:40Z</time>
      </trkpt>
      <trkpt lat="49.43042" lon="2.07995">
        <ele>68.5</ele>
        <time>2023-06-10T08:11:45Z</time>
      </trkpt>
      <trkpt lat="49.43048" lon="2.07985">
        <ele>68.7</ele>
        <time>2023-06-10T08:11:50Z</time>
      </trkpt>
      <trkpt lat="49.43051" lon="2.07973">
        <ele>68.8</ele>
        <time>2023-06-10T08:11:56Z</time>
      </trkpt>
      <trkpt lat="49.43052" lon="2.07965">
        <ele>68.8</ele>
        <time>2023-06-10T08:12:02Z</time>
      </trkpt>
      <trkpt lat="49.43054" lon="2.07961">
        <ele>68.9</ele>
        <time>2023-06-10T08:12:07Z</time>
      </trkpt>
      <trkpt lat="49.43058" lon="2.07952">
        <ele>69</ele>
        <time>2023-06-10T08:12:13Z</time>
      </trkpt>
      <trkpt lat="49.43063" lon="2.07939">
        <ele>68.8</ele>
        <time>2023-06-10T08:12:19Z</time>
      </trkpt>
      <trkpt lat="49.43067" lon="2.07928">
        <ele>68.4</ele>
        <time>2023-06-10T08:12:24Z</time>
      </trkpt>
      <trkpt lat="49.43071" lon="2.07918">
        <ele>68</ele>
        <time>2023-06-10T08:12:29Z</time>
      </trkpt>
      <trkpt lat="49.43075" lon="2.07907">
        <ele>67.9</ele>
        <time>2023-06-10T08:12:35Z</time>
      </trkpt>
      <trkpt lat="49.43078" lon="2.07899">
        <ele>67.9</ele>
        <time>2023-06-10T08:12:40Z</time>
      </trkpt>
      <trkpt lat="49.43082" lon="2.07887">
        <ele>67.9</ele>
        <time>2023-06-10T08:12:46Z</time>
      </trkpt>
      <trkpt lat="49.43085" lon="2.07877">
        <ele>67.6</ele>
        <time>2023-06-10T08:12:51Z</time>
      </trkpt>
      <trkpt lat="49.4309" lon="2.07867">
        <ele>67.4</ele>
        <time>2023-06-10T08:12:57Z</time>
      </trkpt>
      <trkpt lat="49.43094" lon="2.07858">
        <ele>67.3</ele>
        <time>2023-06-10T08:13:02Z</time>
      </trkpt>
      <trkpt lat="49.43098" lon="2.07849">
        <ele>67.3</ele>
        <time>2023-06-10T08:13:08Z</time>
      </trkpt>
      <trkpt lat="49.43102" lon="2.07843">
        <ele>67.2</ele>
        <time>2023-06-10T08:13:13Z</time>
      </trkpt>
      <trkpt lat="49.43107" lon="2.07836">
        <ele>67.1</ele>
        <time>2023-06-10T08:13:19Z</time>
      </trkpt>
      <trkpt lat="49.43114" lon="2.07829">
        <ele>67</ele>
        <time>2023-06-10T08:13:25Z</time>
      </trkpt>
      <trkpt lat="49.4312" lon="2.07821">
        <ele>67</ele>
        <time>2023-06-10T08:13:31Z</time>
      </trkpt>
      <trkpt lat="49.43122" lon="2.07809">
        <ele>67</ele>
        <time>2023-06-10T08:13:36Z</time>
      </trkpt>
      <trkpt lat="49.43124" lon="2.07796">
        <ele>67</ele>
        <time>2023-06-10T08:13:42Z</time>
      </trkpt>
      <trkpt lat="49.43126" lon="2.07791">
        <ele>67</ele>
        <time>2023-06-10T08:13:48Z</time>
      </trkpt>
      <trkpt lat="49.43129" lon="2.07792">
        <ele>67</ele>
        <time>2023-06-10T08:13:53Z</time>
      </trkpt>
      <trkpt lat="49.43136" lon="2.07801">
        <ele>67</ele>
        <time>2023-06-10T08:13:59Z</time>
      </trkpt>
      <trkpt lat="49.43144" lon="2.07811">
        <ele>67</ele>
        <time>2023-06-10T08:14:05Z</time>
      </trkpt>
      <trkpt lat="49.4315" lon="2.07818">
        <ele>67.2</ele>
        <time>2023-06-10T08:14:10Z</time>
      </trkpt>
      <trkpt lat="49.4316" lon="2.0782">
        <ele>67.4</ele>
        <time>2023-06-10T08:14:16Z</time>
      </trkpt>
      <trkpt lat="49.43168" lon="2.07822">
        <ele>67.6</ele>
        <time>2023-06-10T08:14:21Z</time>
      </trkpt>
      <trkpt lat="49.43176" lon="2.07825">
        <ele>67.7</ele>
        <time>2023-06-10T08:14:27Z</time>
      </trkpt>
      <trkpt lat="49.4318" lon="2.07827">
        <ele>67.8</ele>
        <time>2023-06-10T08:14:32Z</time>
      </trkpt>
      <trkpt lat="49.43185" lon="2.07829">
        <ele>67.9</ele>
        <time>2023-06-10T08:14:37Z</time>
      </trkpt>
      <trkpt lat="49.43196" lon="2.07835">
        <ele>68</ele>
        <time>2023-06-10T08:14:43Z</time>
      </trkpt>
      <trkpt lat="49.43204" lon="2.07841">
        <ele>68.1</ele>
        <time>2023-06-10T08:14:48Z</time>
      </trkpt>
      <trkpt lat="49.43212" lon="2.07842">
        <ele>68.2</ele>
        <time>2023-06-10T08:14:54Z</time>
      </trkpt>
      <trkpt lat="49.43216" lon="2.07839">
        <ele>68.2</ele>
        <time>2023-06-10T08:15:00Z</time>
      </trkpt>
      <trkpt lat="49.43223" lon="2.07839">
        <ele>68.2</ele>
        <time>2023-06-10T08:15:06Z</time>
      </trkpt>
      <trkpt lat="49.43231" lon="2.07841">
        <ele>68.2</ele>
        <time>2023-06-10T08:15:11Z</time>
      </trkpt>
      <trkpt lat="49.43239" lon="2.07845">
        <ele>68.2</ele>
        <time>2023-06-10T08:15:17Z</time>
      </trkpt>
      <trkpt lat="49.43245" lon="2.07849">
        <ele>68.1</ele>
        <time>2023-06-10T08:15:23Z</time>
      </trkpt>
      <trkpt lat="49.43251" lon="2.07853">
        <ele>68</ele>
        <time>2023-06-10T08:15:28Z</time>
      </trkpt>
      <trkpt lat="49.4326" lon="2.07859">
        <ele>68</ele>
        <time>2023-06-10T08:15:34Z</time>
      </trkpt>
      <trkpt lat="49.43267" lon="2.07865">
        <ele>68.1</ele>
        <time>2023-06-10T08:15:40Z</time>
      </trkpt>
      <trkpt lat="49.43273" lon="2.07871">
        <ele>68.1</ele>
        <time>2023-06-10T08:15:46Z</time>
      </trkpt>
      <trkpt lat="49.43281" lon="2.07877">
        <ele>68</ele>
        <time>2023-06-10T08:15:51Z</time>
      </trkpt>
      <trkpt lat="49.43289" lon="2.07886">
        <ele>68</ele>
        <time>2023-06-10T08:15:56Z</time>
      </trkpt>
      <trkpt lat="49.43295" lon="2.07891">
        <ele>68.1</ele>
        <time>2023-06-10T08:16:02Z</time>
      </trkpt>
      <trkpt lat="49.43302" lon="2.07887">
        <ele>68</ele>
        <time>2023-06-10T08:16:08Z</time>
      </trkpt>
      <trkpt lat="49.43307" lon="2.0788">
        <ele>68</ele>
        <time>2023-06-10T08:16:13Z</time>
      </trkpt>
      <trkpt lat="49.43313" lon="2.07871">
        <ele>67.9</ele>
        <time>2023-06-10T08:16:19Z</time>
      </trkpt>
      <trkpt lat="49.43315" lon="2.07863">
        <ele>68</ele>
        <time>2023-06-10T08:16:25Z</time>
      </trkpt>
      <trkpt lat="49.43319" lon="2.07862">
        <ele>68</ele>
        <time>2023-06-10T08:16:30Z</time>
      </trkpt>
      <trkpt lat="49.43326" lon="2.07863">
        <ele>67.9</ele>
        <time>2023-06-10T08:16:35Z</time>
      </trkpt>
      <trkpt lat="49.43334" lon="2.07867">
        <ele>67.8</ele>
        <time>2023-06-10T08:16:41Z</time>
      </trkpt>
      <trkpt lat="49.43341" lon="2.07871">
        <ele>67.7</ele>
        <time>2023-06-10T08:16:47Z</time>
      </trkpt>
      <trkpt lat="49.43345" lon="2.07877">
        <ele>67.7</ele>
        <time>2023-06-10T08:16:52Z</time>
      </trkpt>
      <trkpt lat="49.43348" lon="2.07884">
        <ele>67.6</ele>
        <time>2023-06-10T08:16:57Z</time>
      </trkpt>
      <trkpt lat="49.43351" lon="2.07888">
        <ele>67.6</ele>
        <time>2023-06-10T08:17:03Z</time>
      </trkpt>
      <trkpt lat="49.43353" lon="2.07888">
        <ele>67.7</ele>
        <time>2023-06-10T08:17:08Z</time>
      </trkpt>
      <trkpt lat="49.43356" lon="2.07887">
        <ele>67.8</ele>
        <time>2023-06-10T08:17:14Z</time>
      </trkpt>
      <trkpt lat="49.43362" lon="2.07888">
        <ele>68</ele>
        <time>2023-06-10T08:17:19Z</time>
      </trkpt>
      <trkpt lat="49.43372" lon="2.07892">
        <ele>68</ele>
        <time>2023-06-10T08:17:24Z</time>
      </trkpt>
      <trkpt lat="49.43381" lon="2.079">
        <ele>68</ele>
        <time>2023-06-10T08:17:30Z</time>
      </trkpt>
      <trkpt lat="49.4339" lon="2.07909">
        <ele>68</ele>
        <time>2023-06-10T08:17:36Z</time>
      </trkpt>
      <trkpt lat="49.43397" lon="2.07916">
        <ele>68</ele>
        <time>2023-06-10T08:17:41Z</time>
      </trkpt>
      <trkpt lat="49.434" lon="2.07925">
        <ele>68.2</ele>
        <time>2023-06-10T08:17:46Z</time>
      </trkpt>
      <trkpt lat="49.43405" lon="2.07937">
        <ele>68.3</ele>
        <time>2023-06-10T08:17:52Z</time>
      </trkpt>
      <trkpt lat="49.43409" lon="2.07945">
        <ele>68.3</ele>
        <time>2023-06-10T08:17:58Z</time>
      </trkpt>
      <trkpt lat="49.43412" lon="2.07953">
        <ele>68.1</ele>
        <time>2023-06-10T08:18:04Z</time>
      </trkpt>
      <trkpt lat="49.43416" lon="2.07958">
        <ele>68</ele>
        <time>2023-06-10T08:18:10Z</time>
      </trkpt>
      <trkpt lat="49.43418" lon="2.07958">
        <ele>68</ele>
        <time>2023-06-10T08:18:16Z</time>
      </trkpt>
      <trkpt lat="49.43421" lon="2.07954">
        <ele>68.1</ele>
        <time>2023-06-10T08:18:22Z</time>
      </trkpt>
      <trkpt lat="49.43424" lon="2.07946">
        <ele>68</ele>
        <time>2023-06-10T08:18:28Z</time>
      </trkpt>
      <trkpt lat="49.43428" lon="2.07936">
        <ele>68</ele>
        <time>2023-06-10T08:18:34Z</time>
      </trkpt>
      <trkpt lat="49.43433" lon="2.07925">
        <ele>68</ele>
        <time>2023-06-10T08:18:40Z</time>
      </trkpt>
      <trkpt lat="49.43438" lon="2.07913">
        <ele>67.9</ele>
        <time>2023-06-10T08:18:46Z</time>
      </trkpt>
      <trkpt lat="49.43443" lon="2.07904">
        <ele>67.6</ele>
        <time>2023-06-10T08:18:51Z</time>
      </trkpt>
      <trkpt lat="49.43449" lon="2.07897">
        <ele>67.4</ele>
        <time>2023-06-10T08:18:56Z</time>
      </trkpt>
      <trkpt lat="49.43454" lon="2.07891">
        <ele>67.4</ele>
        <time>2023-06-10T08:19:01Z</time>
      </trkpt>
      <trkpt lat="49.43458" lon="2.07886">
        <ele>67.4</ele>
        <time>2023-06-10T08:19:06Z</time>
      </trkpt>
      <trkpt lat="49.43462" lon="2.0788">
        <ele>67.4</ele>
        <time>2023-06-10T08:19:11Z</time>
      </trkpt>
      <trkpt lat="49.43467" lon="2.07873">
        <ele>67.3</ele>
        <time>2023-06-10T08:19:17Z</time>
      </trkpt>
      <trkpt lat="49.43474" lon="2.07866">
        <ele>67.2</ele>
        <time>2023-06-10T08:19:22Z</time>
      </trkpt>
      <trkpt lat="49.43482" lon="2.07859">
        <ele>67.3</ele>
        <time>2023-06-10T08:19:28Z</time>
      </trkpt>
      <trkpt lat="49.43488" lon="2.07854">
        <ele>67.6</ele>
        <time>2023-06-10T08:19:33Z</time>
      </trkpt>
      <trkpt lat="49.43496" lon="2.07849">
        <ele>67.9</ele>
        <time>2023-06-10T08:19:39Z</time>
      </trkpt>
      <trkpt lat="49.43502" lon="2.07841">
        <ele>67.9</ele>
        <time>2023-06-10T08:19:45Z</time>
      </trkpt>
      <trkpt lat="49.43506" lon="2.07832">
        <ele>67.8</ele>
        <time>2023-06-10T08:19:50Z</time>
      </trkpt>
      <trkpt lat="49.43509" lon="2.07819">
        <ele>67.5</ele>
        <time>2023-06-10T08:19:56Z</time>
      </trkpt>
      <trkpt lat="49.43514" lon="2.07808">
        <ele>67.5</ele>
        <time>2023-06-10T08:20:02Z</time>
      </trkpt>
      <trkpt lat="49.43518" lon="2.07798">
        <ele>67.7</ele>
        <time>2023-06-10T08:20:07Z</time>
      </trkpt>
      <trkpt lat="49.43523" lon="2.07786">
        <ele>67.8</ele>
        <time>2023-06-10T08:20:13Z</time>
      </trkpt>
      <trkpt lat="49.43525" lon="2.07777">
        <ele>67.9</ele>
        <time>2023-06-10T08:20:18Z</time>
      </trkpt>
      <trkpt lat="49.43529" lon="2.07771">
        <ele>67.8</ele>
        <time>2023-06-10T08:20:24Z</time>
      </trkpt>
      <trkpt lat="49.43534" lon="2.07765">
        <ele>67.6</ele>
        <time>2023-06-10T08:20:29Z</time>
      </trkpt>
      <trkpt lat="49.4354" lon="2.07756">
        <ele>67.6</ele>
        <time>2023-06-10T08:20:35Z</time>
      </trkpt>
      <trkpt lat="49.43545" lon="2.07746">
        <ele>67.5</ele>
        <time>2023-06-10T08:20:41Z</time>
      </trkpt>
      <trkpt lat="49.43549" lon="2.07737">
        <ele>67.3</ele>
        <time>2023-06-10T08:20:46Z</time>
      </trkpt>
      <trkpt lat="49.43552" lon="2.07729">
        <ele>67.1</ele>
        <time>2023-06-10T08:20:51Z</time>
      </trkpt>
      <trkpt lat="49.43556" lon="2.07718">
        <ele>66.9</ele>
        <time>2023-06-10T08:20:57Z</time>
      </trkpt>
      <trkpt lat="49.43558" lon="2.0771">
        <ele>66.6</ele>
        <time>2023-06-10T08:21:02Z</time>
      </trkpt>
      <trkpt lat="49.43559" lon="2.077">
        <ele>66.3</ele>
        <time>2023-06-10T08:21:08Z</time>
      </trkpt>
      <trkpt lat="49.43562" lon="2.07691">
        <ele>66.2</ele>
        <time>2023-06-10T08:21:14Z</time>
      </trkpt>
      <trkpt lat="49.43565" lon="2.07681">
        <ele>66.3</ele>
        <time>2023-06-10T08:21:19Z</time>
      </trkpt>
      <trkpt lat="49.43569" lon="2.0767">
        <ele>66.5</ele>
        <time>2023-06-10T08:21:25Z</time>
      </trkpt>
      <trkpt lat="49.43575" lon="2.07662">
        <ele>66.7</ele>
        <time>2023-06-10T08:21:31Z</time>
      </trkpt>
      <trkpt lat="49.43578" lon="2.07657">
        <ele>66.8</ele>
        <time>2023-06-10T08:21:36Z</time>
      </trkpt>
      <trkpt lat="49.43583" lon="2.07652">
        <ele>67</ele>
        <time>2023-06-10T08:21:41Z</time>
      </trkpt>
      <trkpt lat="49.43588" lon="2.07642">
        <ele>67</ele>
        <time>2023-06-10T08:21:47Z</time>
      </trkpt>
      <trkpt lat="49.43591" lon="2.07631">
        <ele>66.8</ele>
        <time>2023-06-10T08:21:53Z</time>
      </trkpt>
      <trkpt lat="49.43593" lon="2.07619">
        <ele>66.5</ele>
        <time>2023-06-10T08:21:59Z</time>
      </trkpt>
      <trkpt lat="49.43593" lon="2.07611">
        <ele>66.3</ele>
        <time>2023-06-10T08:22:04Z</time>
      </trkpt>
      <trkpt lat="49.43592" lon="2.076">
        <ele>66.3</ele>
        <time>2023-06-10T08:22:10Z</time>
      </trkpt>
      <trkpt lat="49.43597" lon="2.07592">
        <ele>66.5</ele>
        <time>2023-06-10T08:22:15Z</time>
      </trkpt>
      <trkpt lat="49.43614" lon="2.07584">
        <ele>67</ele>
        <time>2023-06-10T08:22:21Z</time>
      </trkpt>
      <trkpt lat="49.43627" lon="2.0758">
        <ele>67</ele>
        <time>2023-06-10T08:22:27Z</time>
      </trkpt>
      <trkpt lat="49.43634" lon="2.07578">
        <ele>67</ele>
        <time>2023-06-10T08:22:33Z</time>
      </trkpt>
      <trkpt lat="49.43639" lon="2.07572">
        <ele>67</ele>
        <time>2023-06-10T08:22:41Z</time>
      </trkpt>
      <trkpt lat="49.43645" lon="2.0756">
        <ele>67</ele>
        <time>2023-06-10T08:22:46Z</time>
      </trkpt>
      <trkpt lat="49.43649" lon="2.07548">
        <ele>67</ele>
        <time>2023-06-10T08:22:52Z</time>
      </trkpt>
      <trkpt lat="49.43656" lon="2.07533">
        <ele>67</ele>
        <time>2023-06-10T08:22:58Z</time>
      </trkpt>
      <trkpt lat="49.43664" lon="2.07525">
        <ele>66.9</ele>
        <time>2023-06-10T08:23:03Z</time>
      </trkpt>
      <trkpt lat="49.43671" lon="2.07517">
        <ele>66.7</ele>
        <time>2023-06-10T08:23:08Z</time>
      </trkpt>
      <trkpt lat="49.43677" lon="2.07504">
        <ele>66.5</ele>
        <time>2023-06-10T08:23:14Z</time>
      </trkpt>
      <trkpt lat="49.43685" lon="2.07491">
        <ele>66.7</ele>
        <time>2023-06-10T08:23:20Z</time>
      </trkpt>
      <trkpt lat="49.43689" lon="2.07485">
        <ele>66.8</ele>
        <time>2023-06-10T08:23:25Z</time>
      </trkpt>
      <trkpt lat="49.43692" lon="2.07485">
        <ele>66.9</ele>
        <time>2023-06-10T08:23:31Z</time>
      </trkpt>
      <trkpt lat="49.43695" lon="2.07485">
        <ele>67</ele>
        <time>2023-06-10T08:23:36Z</time>
      </trkpt>
      <trkpt lat="49.437" lon="2.0749">
        <ele>67</ele>
        <time>2023-06-10T08:23:42Z</time>
      </trkpt>
      <trkpt lat="49.43704" lon="2.07489">
        <ele>67</ele>
        <time>2023-06-10T08:23:47Z</time>
      </trkpt>
      <trkpt lat="49.43706" lon="2.07481">
        <ele>67</ele>
        <time>2023-06-10T08:23:53Z</time>
      </trkpt>
      <trkpt lat="49.43707" lon="2.07475">
        <ele>67</ele>
        <time>2023-06-10T08:23:58Z</time>
      </trkpt>
      <trkpt lat="49.43713" lon="2.0747">
        <ele>67</ele>
        <time>2023-06-10T08:24:04Z</time>
      </trkpt>
      <trkpt lat="49.43721" lon="2.07466">
        <ele>67</ele>
        <time>2023-06-10T08:24:09Z</time>
      </trkpt>
      <trkpt lat="49.43727" lon="2.07461">
        <ele>67</ele>
        <time>2023-06-10T08:24:15Z</time>
      </trkpt>
      <trkpt lat="49.4373" lon="2.07453">
        <ele>67</ele>
        <time>2023-06-10T08:24:20Z</time>
      </trkpt>
      <trkpt lat="49.43731" lon="2.07439">
        <ele>67</ele>
        <time>2023-06-10T08:24:26Z</time>
      </trkpt>
      <trkpt lat="49.4373" lon="2.07427">
        <ele>67</ele>
        <time>2023-06-10T08:24:31Z</time>
      </trkpt>
      <trkpt lat="49.43729" lon="2.07413">
        <ele>67</ele>
        <time>2023-06-10T08:24:37Z</time>
      </trkpt>
      <trkpt lat="49.43727" lon="2.074">
        <ele>67</ele>
        <time>2023-06-10T08:24:43Z</time>
      </trkpt>
      <trkpt lat="49.43725" lon="2.07391">
        <ele>67</ele>
        <time>2023-06-10T08:24:48Z</time>
      </trkpt>
      <trkpt lat="49.43724" lon="2.07378">
        <ele>66.6</ele>
        <time>2023-06-10T08:24:54Z</time>
      </trkpt>
      <trkpt lat="49.43727" lon="2.07369">
        <ele>66.4</ele>
        <time>2023-06-10T08:25:00Z</time>
      </trkpt>
      <trkpt lat="49.43731" lon="2.07361">
        <ele>66.3</ele>
        <time>2023-06-10T08:25:05Z</time>
      </trkpt>
      <trkpt lat="49.43732" lon="2.07356">
        <ele>66.5</ele>
        <time>2023-06-10T08:25:11Z</time>
      </trkpt>
      <trkpt lat="49.43732" lon="2.07345">
        <ele>66.7</ele>
        <time>2023-06-10T08:25:16Z</time>
      </trkpt>
      <trkpt lat="49.43732" lon="2.07331">
        <ele>67</ele>
        <time>2023-06-10T08:25:21Z</time>
      </trkpt>
      <trkpt lat="49.43731" lon="2.07317">
        <ele>67</ele>
        <time>2023-06-10T08:25:27Z</time>
      </trkpt>
      <trkpt lat="49.43733" lon="2.07305">
        <ele>67</ele>
        <time>2023-06-10T08:25:33Z</time>
      </trkpt>
      <trkpt lat="49.43737" lon="2.07297">
        <ele>67</ele>
        <time>2023-06-10T08:25:39Z</time>
      </trkpt>
      <trkpt lat="49.43742" lon="2.07293">
        <ele>67</ele>
        <time>2023-06-10T08:25:44Z</time>
      </trkpt>
      <trkpt lat="49.43746" lon="2.0729">
        <ele>67</ele>
        <time>2023-06-10T08:25:49Z</time>
      </trkpt>
      <trkpt lat="49.43751" lon="2.07285">
        <ele>67</ele>
        <time>2023-06-10T08:25:55Z</time>
      </trkpt>
      <trkpt lat="49.43755" lon="2.07278">
        <ele>67</ele>
        <time>2023-06-10T08:26:00Z</time>
      </trkpt>
      <trkpt lat="49.43758" lon="2.0727">
        <ele>66.8</ele>
        <time>2023-06-10T08:26:06Z</time>
      </trkpt>
      <trkpt lat="49.43762" lon="2.07266">
        <ele>66.8</ele>
        <time>2023-06-10T08:26:11Z</time>
      </trkpt>
      <trkpt lat="49.43771" lon="2.07261">
        <ele>66.9</ele>
        <time>2023-06-10T08:26:17Z</time>
      </trkpt>
      <trkpt lat="49.43779" lon="2.07252">
        <ele>67</ele>
        <time>2023-06-10T08:26:23Z</time>
      </trkpt>
      <trkpt lat="49.43785" lon="2.07242">
        <ele>66.8</ele>
        <time>2023-06-10T08:26:29Z</time>
      </trkpt>
      <trkpt lat="49.43789" lon="2.07235">
        <ele>66.7</ele>
        <time>2023-06-10T08:26:34Z</time>
      </trkpt>
      <trkpt lat="49.43792" lon="2.07229">
        <ele>66.6</ele>
        <time>2023-06-10T08:26:40Z</time>
      </trkpt>
      <trkpt lat="49.43795" lon="2.07221">
        <ele>66.6</ele>
        <time>2023-06-10T08:26:45Z</time>
      </trkpt>
      <trkpt lat="49.43798" lon="2.07211">
        <ele>66.4</ele>
        <time>2023-06-10T08:26:51Z</time>
      </trkpt>
      <trkpt lat="49.438" lon="2.07205">
        <ele>66.3</ele>
        <time>2023-06-10T08:26:56Z</time>
      </trkpt>
      <trkpt lat="49.43805" lon="2.07201">
        <ele>66.2</ele>
        <time>2023-06-10T08:27:01Z</time>
      </trkpt>
      <trkpt lat="49.43814" lon="2.07201">
        <ele>66.5</ele>
        <time>2023-06-10T08:27:07Z</time>
      </trkpt>
      <trkpt lat="49.43827" lon="2.07201">
        <ele>66.8</ele>
        <time>2023-06-10T08:27:13Z</time>
      </trkpt>
      <trkpt lat="49.43837" lon="2.07203">
        <ele>67</ele>
        <time>2023-06-10T08:27:18Z</time>
      </trkpt>
      <trkpt lat="49.43848" lon="2.07204">
        <ele>67</ele>
        <time>2023-06-10T08:27:24Z</time>
      </trkpt>
      <trkpt lat="49.43854" lon="2.07204">
        <ele>67</ele>
        <time>2023-06-10T08:27:30Z</time>
      </trkpt>
      <trkpt lat="49.43861" lon="2.072">
        <ele>67</ele>
        <time>2023-06-10T08:27:36Z</time>
      </trkpt>
      <trkpt lat="49.43869" lon="2.07197">
        <ele>66.7</ele>
        <time>2023-06-10T08:27:41Z</time>
      </trkpt>
      <trkpt lat="49.43876" lon="2.07191">
        <ele>66.5</ele>
        <time>2023-06-10T08:27:46Z</time>
      </trkpt>
      <trkpt lat="49.43884" lon="2.07182">
        <ele>66.6</ele>
        <time>2023-06-10T08:27:52Z</time>
      </trkpt>
      <trkpt lat="49.43888" lon="2.07172">
        <ele>66.8</ele>
        <time>2023-06-10T08:27:58Z</time>
      </trkpt>
      <trkpt lat="49.43891" lon="2.07164">
        <ele>67.1</ele>
        <time>2023-06-10T08:28:03Z</time>
      </trkpt>
      <trkpt lat="49.43896" lon="2.07155">
        <ele>67.3</ele>
        <time>2023-06-10T08:28:08Z</time>
      </trkpt>
      <trkpt lat="49.43902" lon="2.07141">
        <ele>67.5</ele>
        <time>2023-06-10T08:28:14Z</time>
      </trkpt>
      <trkpt lat="49.43908" lon="2.07129">
        <ele>67.7</ele>
        <time>2023-06-10T08:28:19Z</time>
      </trkpt>
      <trkpt lat="49.43914" lon="2.07115">
        <ele>67.9</ele>
        <time>2023-06-10T08:28:25Z</time>
      </trkpt>
      <trkpt lat="49.4392" lon="2.07099">
        <ele>67.9</ele>
        <time>2023-06-10T08:28:31Z</time>
      </trkpt>
      <trkpt lat="49.43924" lon="2.07086">
        <ele>67.7</ele>
        <time>2023-06-10T08:28:36Z</time>
      </trkpt>
      <trkpt lat="49.43927" lon="2.07072">
        <ele>67.2</ele>
        <time>2023-06-10T08:28:42Z</time>
      </trkpt>
      <trkpt lat="49.4393" lon="2.07062">
        <ele>66.7</ele>
        <time>2023-06-10T08:28:47Z</time>
      </trkpt>
      <trkpt lat="49.43935" lon="2.0705">
        <ele>66.5</ele>
        <time>2023-06-10T08:28:53Z</time>
      </trkpt>
      <trkpt lat="49.4394" lon="2.07039">
        <ele>66.7</ele>
        <time>2023-06-10T08:28:59Z</time>
      </trkpt>
      <trkpt lat="49.43945" lon="2.07028">
        <ele>67</ele>
        <time>2023-06-10T08:29:05Z</time>
      </trkpt>
      <trkpt lat="49.43951" lon="2.07016">
        <ele>66.8</ele>
        <time>2023-06-10T08:29:11Z</time>
      </trkpt>
      <trkpt lat="49.43955" lon="2.07009">
        <ele>66.6</ele>
        <time>2023-06-10T08:29:16Z</time>
      </trkpt>
      <trkpt lat="49.43959" lon="2.06998">
        <ele>66.5</ele>
        <time>2023-06-10T08:29:22Z</time>
      </trkpt>
      <trkpt lat="49.43963" lon="2.06987">
        <ele>66.3</ele>
        <time>2023-06-10T08:29:27Z</time>
      </trkpt>
      <trkpt lat="49.43968" lon="2.06975">
        <ele>66.2</ele>
        <time>2023-06-10T08:29:33Z</time>
      </trkpt>
      <trkpt lat="49.4397" lon="2.06967">
        <ele>66.3</ele>
        <time>2023-06-10T08:29:38Z</time>
      </trkpt>
      <trkpt lat="49.43974" lon="2.06955">
        <ele>66.6</ele>
        <time>2023-06-10T08:29:44Z</time>
      </trkpt>
      <trkpt lat="49.43977" lon="2.06945">
        <ele>66.8</ele>
        <time>2023-06-10T08:29:49Z</time>
      </trkpt>
      <trkpt lat="49.43981" lon="2.06936">
        <ele>66.7</ele>
        <time>2023-06-10T08:29:55Z</time>
      </trkpt>
      <trkpt lat="49.43983" lon="2.06926">
        <ele>66.6</ele>
        <time>2023-06-10T08:30:01Z</time>
      </trkpt>
      <trkpt lat="49.43987" lon="2.06916">
        <ele>66.5</ele>
        <time>2023-06-10T08:30:06Z</time>
      </trkpt>
      <trkpt lat="49.43991" lon="2.06906">
        <ele>66.6</ele>
        <time>2023-06-10T08:30:12Z</time>
      </trkpt>
      <trkpt lat="49.43996" lon="2.06899">
        <ele>66.7</ele>
        <time>2023-06-10T08:30:17Z</time>
      </trkpt>
      <trkpt lat="49.44002" lon="2.06892">
        <ele>67</ele>
        <time>2023-06-10T08:30:23Z</time>
      </trkpt>
      <trkpt lat="49.44007" lon="2.06882">
        <ele>67.1</ele>
        <time>2023-06-10T08:30:29Z</time>
      </trkpt>
      <trkpt lat="49.44014" lon="2.06868">
        <ele>66.8</ele>
        <time>2023-06-10T08:30:35Z</time>
      </trkpt>
      <trkpt lat="49.4402" lon="2.06855">
        <ele>66.4</ele>
        <time>2023-06-10T08:30:41Z</time>
      </trkpt>
      <trkpt lat="49.44023" lon="2.06834">
        <ele>66.8</ele>
        <time>2023-06-10T08:30:47Z</time>
      </trkpt>
      <trkpt lat="49.44026" lon="2.06813">
        <ele>66.9</ele>
        <time>2023-06-10T08:30:52Z</time>
      </trkpt>
      <trkpt lat="49.44027" lon="2.06792">
        <ele>67</ele>
        <time>2023-06-10T08:30:58Z</time>
      </trkpt>
      <trkpt lat="49.44028" lon="2.06778">
        <ele>67</ele>
        <time>2023-06-10T08:31:03Z</time>
      </trkpt>
      <trkpt lat="49.44029" lon="2.06768">
        <ele>67</ele>
        <time>2023-06-10T08:31:08Z</time>
      </trkpt>
      <trkpt lat="49.44032" lon="2.06759">
        <ele>66.9</ele>
        <time>2023-06-10T08:31:14Z</time>
      </trkpt>
      <trkpt lat="49.44035" lon="2.0675">
        <ele>66.7</ele>
        <time>2023-06-10T08:31:19Z</time>
      </trkpt>
      <trkpt lat="49.44041" lon="2.06738">
        <ele>66.5</ele>
        <time>2023-06-10T08:31:25Z</time>
      </trkpt>
      <trkpt lat="49.44047" lon="2.06727">
        <ele>66.6</ele>
        <time>2023-06-10T08:31:31Z</time>
      </trkpt>
      <trkpt lat="49.44054" lon="2.06724">
        <ele>66.9</ele>
        <time>2023-06-10T08:31:37Z</time>
      </trkpt>
      <trkpt lat="49.44059" lon="2.06722">
        <ele>67</ele>
        <time>2023-06-10T08:31:42Z</time>
      </trkpt>
      <trkpt lat="49.44068" lon="2.06719">
        <ele>66.9</ele>
        <time>2023-06-10T08:31:48Z</time>
      </trkpt>
      <trkpt lat="49.44077" lon="2.06716">
        <ele>66.9</ele>
        <time>2023-06-10T08:31:54Z</time>
      </trkpt>
      <trkpt lat="49.44083" lon="2.06709">
        <ele>67</ele>
        <time>2023-06-10T08:31:59Z</time>
      </trkpt>
      <trkpt lat="49.44089" lon="2.06701">
        <ele>67.2</ele>
        <time>2023-06-10T08:32:04Z</time>
      </trkpt>
      <trkpt lat="49.44096" lon="2.06691">
        <ele>67.4</ele>
        <time>2023-06-10T08:32:10Z</time>
      </trkpt>
      <trkpt lat="49.44102" lon="2.06682">
        <ele>67.4</ele>
        <time>2023-06-10T08:32:16Z</time>
      </trkpt>
      <trkpt lat="49.44108" lon="2.06676">
        <ele>67.3</ele>
        <time>2023-06-10T08:32:21Z</time>
      </trkpt>
      <trkpt lat="49.44115" lon="2.06669">
        <ele>67.2</ele>
        <time>2023-06-10T08:32:27Z</time>
      </trkpt>
      <trkpt lat="49.44123" lon="2.06666">
        <ele>67.4</ele>
        <time>2023-06-10T08:32:33Z</time>
      </trkpt>
      <trkpt lat="49.44133" lon="2.06663">
        <ele>67.7</ele>
        <time>2023-06-10T08:32:39Z</time>
      </trkpt>
      <trkpt lat="49.4414" lon="2.06661">
        <ele>67.8</ele>
        <time>2023-06-10T08:32:44Z</time>
      </trkpt>
      <trkpt lat="49.44145" lon="2.06656">
        <ele>67.6</ele>
        <time>2023-06-10T08:32:50Z</time>
      </trkpt>
      <trkpt lat="49.44151" lon="2.06651">
        <ele>67.4</ele>
        <time>2023-06-10T08:32:55Z</time>
      </trkpt>
      <trkpt lat="49.44157" lon="2.06646">
        <ele>67.2</ele>
        <time>2023-06-10T08:33:00Z</time>
      </trkpt>
      <trkpt lat="49.44162" lon="2.06638">
        <ele>67</ele>
        <time>2023-06-10T08:33:06Z</time>
      </trkpt>
      <trkpt lat="49.44168" lon="2.06635">
        <ele>67.1</ele>
        <time>2023-06-10T08:33:12Z</time>
      </trkpt>
      <trkpt lat="49.44174" lon="2.06634">
        <ele>67.1</ele>
        <time>2023-06-10T08:33:17Z</time>
      </trkpt>
      <trkpt lat="49.44179" lon="2.0663">
        <ele>67.2</ele>
        <time>2023-06-10T08:33:22Z</time>
      </trkpt>
      <trkpt lat="49.44183" lon="2.06626">
        <ele>67.2</ele>
        <time>2023-06-10T08:33:28Z</time>
      </trkpt>
      <trkpt lat="49.44186" lon="2.06623">
        <ele>67.2</ele>
        <time>2023-06-10T08:33:33Z</time>
      </trkpt>
      <trkpt lat="49.44189" lon="2.06618">
        <ele>67.1</ele>
        <time>2023-06-10T08:33:39Z</time>
      </trkpt>
      <trkpt lat="49.44193" lon="2.06615">
        <ele>67.1</ele>
        <time>2023-06-10T08:33:44Z</time>
      </trkpt>
      <trkpt lat="49.442" lon="2.06611">
        <ele>67</ele>
        <time>2023-06-10T08:33:50Z</time>
      </trkpt>
      <trkpt lat="49.44207" lon="2.06608">
        <ele>67.1</ele>
        <time>2023-06-10T08:33:55Z</time>
      </trkpt>
      <trkpt lat="49.44217" lon="2.06604">
        <ele>67.3</ele>
        <time>2023-06-10T08:34:01Z</time>
      </trkpt>
      <trkpt lat="49.44228" lon="2.06601">
        <ele>67.4</ele>
        <time>2023-06-10T08:34:07Z</time>
      </trkpt>
      <trkpt lat="49.44235" lon="2.06599">
        <ele>67.4</ele>
        <time>2023-06-10T08:34:13Z</time>
      </trkpt>
      <trkpt lat="49.44242" lon="2.06595">
        <ele>67.6</ele>
        <time>2023-06-10T08:34:18Z</time>
      </trkpt>
      <trkpt lat="49.44252" lon="2.06591">
        <ele>67.7</ele>
        <time>2023-06-10T08:34:24Z</time>
      </trkpt>
      <trkpt lat="49.44264" lon="2.06588">
        <ele>67.4</ele>
        <time>2023-06-10T08:34:29Z</time>
      </trkpt>
      <trkpt lat="49.44276" lon="2.06585">
        <ele>67.1</ele>
        <time>2023-06-10T08:34:35Z</time>
      </trkpt>
      <trkpt lat="49.44284" lon="2.06581">
        <ele>67.2</ele>
        <time>2023-06-10T08:34:40Z</time>
      </trkpt>
      <trkpt lat="49.44292" lon="2.06577">
        <ele>67.4</ele>
        <time>2023-06-10T08:34:45Z</time>
      </trkpt>
      <trkpt lat="49.44299" lon="2.06574">
        <ele>67.5</ele>
        <time>2023-06-10T08:34:51Z</time>
      </trkpt>
      <trkpt lat="49.44305" lon="2.06571">
        <ele>67.5</ele>
        <time>2023-06-10T08:34:56Z</time>
      </trkpt>
      <trkpt lat="49.44311" lon="2.06568">
        <ele>67.5</ele>
        <time>2023-06-10T08:35:02Z</time>
      </trkpt>
      <trkpt lat="49.44315" lon="2.06566">
        <ele>67.5</ele>
        <time>2023-06-10T08:35:07Z</time>
      </trkpt>
      <trkpt lat="49.44321" lon="2.06563">
        <ele>67.5</ele>
        <time>2023-06-10T08:35:13Z</time>
      </trkpt>
      <trkpt lat="49.44327" lon="2.06559">
        <ele>67.7</ele>
        <time>2023-06-10T08:35:18Z</time>
      </trkpt>
      <trkpt lat="49.44336" lon="2.06555">
        <ele>67.9</ele>
        <time>2023-06-10T08:35:24Z</time>
      </trkpt>
      <trkpt lat="49.44348" lon="2.06553">
        <ele>67.4</ele>
        <time>2023-06-10T08:35:29Z</time>
      </trkpt>
      <trkpt lat="49.44361" lon="2.06547">
        <ele>67</ele>
        <time>2023-06-10T08:35:35Z</time>
      </trkpt>
      <trkpt lat="49.4437" lon="2.0654">
        <ele>67.2</ele>
        <time>2023-06-10T08:35:41Z</time>
      </trkpt>
      <trkpt lat="49.44378" lon="2.06538">
        <ele>67.4</ele>
        <time>2023-06-10T08:35:46Z</time>
      </trkpt>
      <trkpt lat="49.44387" lon="2.06536">
        <ele>67.7</ele>
        <time>2023-06-10T08:35:52Z</time>
      </trkpt>
      <trkpt lat="49.44391" lon="2.06536">
        <ele>67.7</ele>
        <time>2023-06-10T08:35:57Z</time>
      </trkpt>
      <trkpt lat="49.44396" lon="2.06536">
        <ele>67.6</ele>
        <time>2023-06-10T08:36:03Z</time>
      </trkpt>
      <trkpt lat="49.444" lon="2.06534">
        <ele>67.6</ele>
        <time>2023-06-10T08:36:08Z</time>
      </trkpt>
      <trkpt lat="49.44406" lon="2.06531">
        <ele>67.4</ele>
        <time>2023-06-10T08:36:14Z</time>
      </trkpt>
      <trkpt lat="49.44412" lon="2.06524">
        <ele>67.2</ele>
        <time>2023-06-10T08:36:20Z</time>
      </trkpt>
      <trkpt lat="49.44416" lon="2.06511">
        <ele>67</ele>
        <time>2023-06-10T08:36:25Z</time>
      </trkpt>
      <trkpt lat="49.44421" lon="2.06501">
        <ele>67.2</ele>
        <time>2023-06-10T08:36:30Z</time>
      </trkpt>
      <trkpt lat="49.44425" lon="2.06495">
        <ele>67.3</ele>
        <time>2023-06-10T08:36:35Z</time>
      </trkpt>
      <trkpt lat="49.44433" lon="2.06491">
        <ele>67.6</ele>
        <time>2023-06-10T08:36:41Z</time>
      </trkpt>
      <trkpt lat="49.44438" lon="2.06488">
        <ele>67.8</ele>
        <time>2023-06-10T08:36:47Z</time>
      </trkpt>
      <trkpt lat="49.44443" lon="2.06487">
        <ele>68</ele>
        <time>2023-06-10T08:36:53Z</time>
      </trkpt>
      <trkpt lat="49.44451" lon="2.06487">
        <ele>67.9</ele>
        <time>2023-06-10T08:36:59Z</time>
      </trkpt>
      <trkpt lat="49.44457" lon="2.06486">
        <ele>67.8</ele>
        <time>2023-06-10T08:37:04Z</time>
      </trkpt>
      <trkpt lat="49.44467" lon="2.06484">
        <ele>67.7</ele>
        <time>2023-06-10T08:37:10Z</time>
      </trkpt>
      <trkpt lat="49.44476" lon="2.06483">
        <ele>67.6</ele>
        <time>2023-06-10T08:37:16Z</time>
      </trkpt>
      <trkpt lat="49.44483" lon="2.0648">
        <ele>67.6</ele>
        <time>2023-06-10T08:37:21Z</time>
      </trkpt>
      <trkpt lat="49.44488" lon="2.06477">
        <ele>67.5</ele>
        <time>2023-06-10T08:37:27Z</time>
      </trkpt>
      <trkpt lat="49.44498" lon="2.06475">
        <ele>67.2</ele>
        <time>2023-06-10T08:37:32Z</time>
      </trkpt>
      <trkpt lat="49.44512" lon="2.06473">
        <ele>67</ele>
        <time>2023-06-10T08:37:38Z</time>
      </trkpt>
      <trkpt lat="49.44526" lon="2.06472">
        <ele>67</ele>
        <time>2023-06-10T08:37:43Z</time>
      </trkpt>
      <trkpt lat="49.44539" lon="2.06473">
        <ele>67</ele>
        <time>2023-06-10T08:37:49Z</time>
      </trkpt>
      <trkpt lat="49.44545" lon="2.06473">
        <ele>67</ele>
        <time>2023-06-10T08:37:54Z</time>
      </trkpt>
      <trkpt lat="49.44553" lon="2.06467">
        <ele>67</ele>
        <time>2023-06-10T08:38:00Z</time>
      </trkpt>
      <trkpt lat="49.4456" lon="2.0646">
        <ele>67.1</ele>
        <time>2023-06-10T08:38:06Z</time>
      </trkpt>
      <trkpt lat="49.44564" lon="2.06455">
        <ele>67.1</ele>
        <time>2023-06-10T08:38:11Z</time>
      </trkpt>
      <trkpt lat="49.44568" lon="2.0645">
        <ele>67.1</ele>
        <time>2023-06-10T08:38:17Z</time>
      </trkpt>
      <trkpt lat="49.44572" lon="2.06444">
        <ele>67</ele>
        <time>2023-06-10T08:38:22Z</time>
      </trkpt>
      <trkpt lat="49.44578" lon="2.06438">
        <ele>67</ele>
        <time>2023-06-10T08:38:28Z</time>
      </trkpt>
      <trkpt lat="49.44582" lon="2.06434">
        <ele>67</ele>
        <time>2023-06-10T08:38:33Z</time>
      </trkpt>
      <trkpt lat="49.44588" lon="2.06431">
        <ele>67</ele>
        <time>2023-06-10T08:38:39Z</time>
      </trkpt>
      <trkpt lat="49.44598" lon="2.06426">
        <ele>67</ele>
        <time>2023-06-10T08:38:44Z</time>
      </trkpt>
      <trkpt lat="49.4461" lon="2.0642">
        <ele>67</ele>
        <time>2023-06-10T08:38:50Z</time>
      </trkpt>
      <trkpt lat="49.44622" lon="2.06416">
        <ele>67</ele>
        <time>2023-06-10T08:38:56Z</time>
      </trkpt>
      <trkpt lat="49.44635" lon="2.06412">
        <ele>67</ele>
        <time>2023-06-10T08:39:02Z</time>
      </trkpt>
      <trkpt lat="49.44645" lon="2.06406">
        <ele>67</ele>
        <time>2023-06-10T08:39:08Z</time>
      </trkpt>
      <trkpt lat="49.44651" lon="2.064">
        <ele>67</ele>
        <time>2023-06-10T08:39:13Z</time>
      </trkpt>
      <trkpt lat="49.44658" lon="2.06393">
        <ele>67</ele>
        <time>2023-06-10T08:39:19Z</time>
      </trkpt>
      <trkpt lat="49.44663" lon="2.06388">
        <ele>67</ele>
        <time>2023-06-10T08:39:24Z</time>
      </trkpt>
      <trkpt lat="49.44668" lon="2.06386">
        <ele>67</ele>
        <time>2023-06-10T08:39:30Z</time>
      </trkpt>
      <trkpt lat="49.4467" lon="2.06387">
        <ele>67</ele>
        <time>2023-06-10T08:39:35Z</time>
      </trkpt>
      <trkpt lat="49.44672" lon="2.06386">
        <ele>67</ele>
        <time>2023-06-10T08:39:41Z</time>
      </trkpt>
      <trkpt lat="49.44675" lon="2.06377">
        <ele>67</ele>
        <time>2023-06-10T08:39:47Z</time>
      </trkpt>
      <trkpt lat="49.44679" lon="2.06368">
        <ele>67</ele>
        <time>2023-06-10T08:39:53Z</time>
      </trkpt>
      <trkpt lat="49.44689" lon="2.06362">
        <ele>67</ele>
        <time>2023-06-10T08:39:58Z</time>
      </trkpt>
      <trkpt lat="49.44701" lon="2.06357">
        <ele>67</ele>
        <time>2023-06-10T08:40:04Z</time>
      </trkpt>
      <trkpt lat="49.44706" lon="2.06353">
        <ele>67</ele>
        <time>2023-06-10T08:40:09Z</time>
      </trkpt>
      <trkpt lat="49.44709" lon="2.06346">
        <ele>67</ele>
        <time>2023-06-10T08:40:15Z</time>
      </trkpt>
      <trkpt lat="49.44711" lon="2.06342">
        <ele>67</ele>
        <time>2023-06-10T08:40:20Z</time>
      </trkpt>
      <trkpt lat="49.44713" lon="2.06337">
        <ele>67</ele>
        <time>2023-06-10T08:40:26Z</time>
      </trkpt>
      <trkpt lat="49.44717" lon="2.06333">
        <ele>67</ele>
        <time>2023-06-10T08:40:32Z</time>
      </trkpt>
      <trkpt lat="49.44719" lon="2.06322">
        <ele>67</ele>
        <time>2023-06-10T08:40:38Z</time>
      </trkpt>
      <trkpt lat="49.44722" lon="2.06306">
        <ele>67</ele>
        <time>2023-06-10T08:40:43Z</time>
      </trkpt>
      <trkpt lat="49.44727" lon="2.0629">
        <ele>67</ele>
        <time>2023-06-10T08:40:49Z</time>
      </trkpt>
      <trkpt lat="49.44732" lon="2.06281">
        <ele>67</ele>
        <time>2023-06-10T08:40:54Z</time>
      </trkpt>
      <trkpt lat="49.44736" lon="2.06271">
        <ele>67.1</ele>
        <time>2023-06-10T08:41:00Z</time>
      </trkpt>
      <trkpt lat="49.4474" lon="2.06256">
        <ele>67.5</ele>
        <time>2023-06-10T08:41:05Z</time>
      </trkpt>
      <trkpt lat="49.44743" lon="2.06244">
        <ele>67.8</ele>
        <time>2023-06-10T08:41:11Z</time>
      </trkpt>
      <trkpt lat="49.44748" lon="2.06237">
        <ele>67.9</ele>
        <time>2023-06-10T08:41:17Z</time>
      </trkpt>
      <trkpt lat="49.44753" lon="2.06232">
        <ele>68</ele>
        <time>2023-06-10T08:41:23Z</time>
      </trkpt>
      <trkpt lat="49.44758" lon="2.06224">
        <ele>68</ele>
        <time>2023-06-10T08:41:29Z</time>
      </trkpt>
      <trkpt lat="49.44762" lon="2.06217">
        <ele>67.8</ele>
        <time>2023-06-10T08:41:34Z</time>
      </trkpt>
      <trkpt lat="49.44765" lon="2.06207">
        <ele>67.5</ele>
        <time>2023-06-10T08:41:39Z</time>
      </trkpt>
      <trkpt lat="49.44772" lon="2.06197">
        <ele>67.1</ele>
        <time>2023-06-10T08:41:45Z</time>
      </trkpt>
      <trkpt lat="49.44777" lon="2.0619">
        <ele>67</ele>
        <time>2023-06-10T08:41:50Z</time>
      </trkpt>
      <trkpt lat="49.44782" lon="2.06182">
        <ele>67</ele>
        <time>2023-06-10T08:41:56Z</time>
      </trkpt>
      <trkpt lat="49.44787" lon="2.06178">
        <ele>67</ele>
        <time>2023-06-10T08:42:01Z</time>
      </trkpt>
      <trkpt lat="49.44794" lon="2.06175">
        <ele>67</ele>
        <time>2023-06-10T08:42:07Z</time>
      </trkpt>
      <trkpt lat="49.448" lon="2.06169">
        <ele>67</ele>
        <time>2023-06-10T08:42:12Z</time>
      </trkpt>
      <trkpt lat="49.44806" lon="2.06165">
        <ele>67</ele>
        <time>2023-06-10T08:42:18Z</time>
      </trkpt>
      <trkpt lat="49.44813" lon="2.06161">
        <ele>67</ele>
        <time>2023-06-10T08:42:23Z</time>
      </trkpt>
      <trkpt lat="49.44825" lon="2.06156">
        <ele>67</ele>
        <time>2023-06-10T08:42:29Z</time>
      </trkpt>
      <trkpt lat="49.44832" lon="2.06151">
        <ele>67</ele>
        <time>2023-06-10T08:42:34Z</time>
      </trkpt>
      <trkpt lat="49.44839" lon="2.06146">
        <ele>67.2</ele>
        <time>2023-06-10T08:42:40Z</time>
      </trkpt>
      <trkpt lat="49.44848" lon="2.06142">
        <ele>67.5</ele>
        <time>2023-06-10T08:42:45Z</time>
      </trkpt>
      <trkpt lat="49.44857" lon="2.06138">
        <ele>67.9</ele>
        <time>2023-06-10T08:42:50Z</time>
      </trkpt>
      <trkpt lat="49.44865" lon="2.06134">
        <ele>68</ele>
        <time>2023-06-10T08:42:56Z</time>
      </trkpt>
      <trkpt lat="49.44873" lon="2.06131">
        <ele>68</ele>
        <time>2023-06-10T08:43:02Z</time>
      </trkpt>
      <trkpt lat="49.44879" lon="2.06129">
        <ele>68</ele>
        <time>2023-06-10T08:43:07Z</time>
      </trkpt>
      <trkpt lat="49.44883" lon="2.06126">
        <ele>68</ele>
        <time>2023-06-10T08:43:12Z</time>
      </trkpt>
      <trkpt lat="49.44884" lon="2.0612">
        <ele>68</ele>
        <time>2023-06-10T08:43:18Z</time>
      </trkpt>
      <trkpt lat="49.44886" lon="2.06112">
        <ele>68</ele>
        <time>2023-06-10T08:43:23Z</time>
      </trkpt>
      <trkpt lat="49.44888" lon="2.06099">
        <ele>68</ele>
        <time>2023-06-10T08:43:28Z</time>
      </trkpt>
      <trkpt lat="49.44889" lon="2.06085">
        <ele>68</ele>
        <time>2023-06-10T08:43:34Z</time>
      </trkpt>
      <trkpt lat="49.44891" lon="2.06079">
        <ele>68</ele>
        <time>2023-06-10T08:43:39Z</time>
      </trkpt>
      <trkpt lat="49.44896" lon="2.06073">
        <ele>68</ele>
        <time>2023-06-10T08:43:44Z</time>
      </trkpt>
      <trkpt lat="49.44901" lon="2.06062">
        <ele>68</ele>
        <time>2023-06-10T08:43:50Z</time>
      </trkpt>
      <trkpt lat="49.44904" lon="2.06054">
        <ele>68</ele>
        <time>2023-06-10T08:43:55Z</time>
      </trkpt>
      <trkpt lat="49.44909" lon="2.06047">
        <ele>68</ele>
        <time>2023-06-10T08:44:01Z</time>
      </trkpt>
      <trkpt lat="49.44913" lon="2.06041">
        <ele>68</ele>
        <time>2023-06-10T08:44:06Z</time>
      </trkpt>
      <trkpt lat="49.44919" lon="2.06033">
        <ele>68</ele>
        <time>2023-06-10T08:44:12Z</time>
      </trkpt>
      <trkpt lat="49.44926" lon="2.06027">
        <ele>68</ele>
        <time>2023-06-10T08:44:17Z</time>
      </trkpt>
      <trkpt lat="49.44932" lon="2.06023">
        <ele>68</ele>
        <time>2023-06-10T08:44:22Z</time>
      </trkpt>
      <trkpt lat="49.4494" lon="2.06016">
        <ele>68</ele>
        <time>2023-06-10T08:44:28Z</time>
      </trkpt>
      <trkpt lat="49.44945" lon="2.06011">
        <ele>68</ele>
        <time>2023-06-10T08:44:33Z</time>
      </trkpt>
      <trkpt lat="49.44953" lon="2.06003">
        <ele>68</ele>
        <time>2023-06-10T08:44:39Z</time>
      </trkpt>
      <trkpt lat="49.44958" lon="2.05998">
        <ele>68</ele>
        <time>2023-06-10T08:44:44Z</time>
      </trkpt>
      <trkpt lat="49.44962" lon="2.05994">
        <ele>68</ele>
        <time>2023-06-10T08:44:50Z</time>
      </trkpt>
      <trkpt lat="49.44966" lon="2.05992">
        <ele>68</ele>
        <time>2023-06-10T08:44:55Z</time>
      </trkpt>
      <trkpt lat="49.44973" lon="2.05991">
        <ele>68</ele>
        <time>2023-06-10T08:45:01Z</time>
      </trkpt>
      <trkpt lat="49.4498" lon="2.05987">
        <ele>68</ele>
        <time>2023-06-10T08:45:06Z</time>
      </trkpt>
      <trkpt lat="49.44991" lon="2.05983">
        <ele>68</ele>
        <time>2023-06-10T08:45:12Z</time>
      </trkpt>
      <trkpt lat="49.45001" lon="2.05978">
        <ele>68</ele>
        <time>2023-06-10T08:45:17Z</time>
      </trkpt>
      <trkpt lat="49.4501" lon="2.05973">
        <ele>68</ele>
        <time>2023-06-10T08:45:22Z</time>
      </trkpt>
      <trkpt lat="49.4502" lon="2.05971">
        <ele>68</ele>
        <time>2023-06-10T08:45:28Z</time>
      </trkpt>
      <trkpt lat="49.45028" lon="2.05971">
        <ele>68</ele>
        <time>2023-06-10T08:45:34Z</time>
      </trkpt>
      <trkpt lat="49.45032" lon="2.05971">
        <ele>68</ele>
        <time>2023-06-10T08:45:39Z</time>
      </trkpt>
      <trkpt lat="49.45038" lon="2.05973">
        <ele>68</ele>
        <time>2023-06-10T08:45:45Z</time>
      </trkpt>
      <trkpt lat="49.45047" lon="2.05975">
        <ele>68</ele>
        <time>2023-06-10T08:45:50Z</time>
      </trkpt>
      <trkpt lat="49.45056" lon="2.05978">
        <ele>68</ele>
        <time>2023-06-10T08:45:55Z</time>
      </trkpt>
      <trkpt lat="49.45066" lon="2.05984">
        <ele>67.8</ele>
        <time>2023-06-10T08:46:01Z</time>
      </trkpt>
      <trkpt lat="49.45074" lon="2.05989">
        <ele>67.7</ele>
        <time>2023-06-10T08:46:06Z</time>
      </trkpt>
      <trkpt lat="49.45083" lon="2.05997">
        <ele>67.9</ele>
        <time>2023-06-10T08:46:12Z</time>
      </trkpt>
      <trkpt lat="49.45087" lon="2.06001">
        <ele>68</ele>
        <time>2023-06-10T08:46:18Z</time>
      </trkpt>
      <trkpt lat="49.45092" lon="2.06005">
        <ele>68.1</ele>
        <time>2023-06-10T08:46:23Z</time>
      </trkpt>
      <trkpt lat="49.45097" lon="2.06009">
        <ele>68.2</ele>
        <time>2023-06-10T08:46:29Z</time>
      </trkpt>
      <trkpt lat="49.45103" lon="2.06011">
        <ele>68.3</ele>
        <time>2023-06-10T08:46:34Z</time>
      </trkpt>
      <trkpt lat="49.45111" lon="2.06013">
        <ele>68.5</ele>
        <time>2023-06-10T08:46:40Z</time>
      </trkpt>
      <trkpt lat="49.45117" lon="2.06013">
        <ele>68.2</ele>
        <time>2023-06-10T08:46:46Z</time>
      </trkpt>
      <trkpt lat="49.4512" lon="2.06012">
        <ele>68.1</ele>
        <time>2023-06-10T08:46:51Z</time>
      </trkpt>
      <trkpt lat="49.45121" lon="2.06011">
        <ele>68</ele>
        <time>2023-06-10T08:46:57Z</time>
      </trkpt>
      <trkpt lat="49.45125" lon="2.0601">
        <ele>67.9</ele>
        <time>2023-06-10T08:47:03Z</time>
      </trkpt>
      <trkpt lat="49.45129" lon="2.0601">
        <ele>67.7</ele>
        <time>2023-06-10T08:47:08Z</time>
      </trkpt>
      <trkpt lat="49.45136" lon="2.0601">
        <ele>67.5</ele>
        <time>2023-06-10T08:47:14Z</time>
      </trkpt>
      <trkpt lat="49.45146" lon="2.06011">
        <ele>67.4</ele>
        <time>2023-06-10T08:47:19Z</time>
      </trkpt>
      <trkpt lat="49.45157" lon="2.06011">
        <ele>67.4</ele>
        <time>2023-06-10T08:47:25Z</time>
      </trkpt>
      <trkpt lat="49.45169" lon="2.06011">
        <ele>67.4</ele>
        <time>2023-06-10T08:47:30Z</time>
      </trkpt>
      <trkpt lat="49.45181" lon="2.0601">
        <ele>67.6</ele>
        <time>2023-06-10T08:47:35Z</time>
      </trkpt>
      <trkpt lat="49.45194" lon="2.06009">
        <ele>67.7</ele>
        <time>2023-06-10T08:47:41Z</time>
      </trkpt>
      <trkpt lat="49.45205" lon="2.06009">
        <ele>67.7</ele>
        <time>2023-06-10T08:47:46Z</time>
      </trkpt>
      <trkpt lat="49.45215" lon="2.0601">
        <ele>67.7</ele>
        <time>2023-06-10T08:47:53Z</time>
      </trkpt>
      <trkpt lat="49.45223" lon="2.0601">
        <ele>67.7</ele>
        <time>2023-06-10T08:47:58Z</time>
      </trkpt>
      <trkpt lat="49.4523" lon="2.06008">
        <ele>67.6</ele>
        <time>2023-06-10T08:48:04Z</time>
      </trkpt>
      <trkpt lat="49.45237" lon="2.06008">
        <ele>67.6</ele>
        <time>2023-06-10T08:48:09Z</time>
      </trkpt>
      <trkpt lat="49.45244" lon="2.06011">
        <ele>67.8</ele>
        <time>2023-06-10T08:48:15Z</time>
      </trkpt>
      <trkpt lat="49.45255" lon="2.06015">
        <ele>68.1</ele>
        <time>2023-06-10T08:48:20Z</time>
      </trkpt>
      <trkpt lat="49.45268" lon="2.06021">
        <ele>68.5</ele>
        <time>2023-06-10T08:48:26Z</time>
      </trkpt>
      <trkpt lat="49.45279" lon="2.06025">
        <ele>68.8</ele>
        <time>2023-06-10T08:48:31Z</time>
      </trkpt>
      <trkpt lat="49.45291" lon="2.0603">
        <ele>68.6</ele>
        <time>2023-06-10T08:48:37Z</time>
      </trkpt>
      <trkpt lat="49.45299" lon="2.06034">
        <ele>68.4</ele>
        <time>2023-06-10T08:48:42Z</time>
      </trkpt>
      <trkpt lat="49.45308" lon="2.06037">
        <ele>68.3</ele>
        <time>2023-06-10T08:48:48Z</time>
      </trkpt>
      <trkpt lat="49.45316" lon="2.06038">
        <ele>68.1</ele>
        <time>2023-06-10T08:48:53Z</time>
      </trkpt>
      <trkpt lat="49.45324" lon="2.06039">
        <ele>68</ele>
        <time>2023-06-10T08:48:58Z</time>
      </trkpt>
      <trkpt lat="49.45334" lon="2.06042">
        <ele>68</ele>
        <time>2023-06-10T08:49:03Z</time>
      </trkpt>
      <trkpt lat="49.45345" lon="2.06045">
        <ele>68</ele>
        <time>2023-06-10T08:49:09Z</time>
      </trkpt>
      <trkpt lat="49.45353" lon="2.06049">
        <ele>68</ele>
        <time>2023-06-10T08:49:14Z</time>
      </trkpt>
      <trkpt lat="49.4536" lon="2.06054">
        <ele>68</ele>
        <time>2023-06-10T08:49:20Z</time>
      </trkpt>
      <trkpt lat="49.45367" lon="2.06059">
        <ele>67.9</ele>
        <time>2023-06-10T08:49:26Z</time>
      </trkpt>
      <trkpt lat="49.45372" lon="2.06063">
        <ele>68</ele>
        <time>2023-06-10T08:49:31Z</time>
      </trkpt>
      <trkpt lat="49.45376" lon="2.06065">
        <ele>68</ele>
        <time>2023-06-10T08:49:37Z</time>
      </trkpt>
      <trkpt lat="49.45381" lon="2.06067">
        <ele>68</ele>
        <time>2023-06-10T08:49:43Z</time>
      </trkpt>
      <trkpt lat="49.45387" lon="2.0607">
        <ele>68.1</ele>
        <time>2023-06-10T08:49:49Z</time>
      </trkpt>
      <trkpt lat="49.45395" lon="2.0607">
        <ele>68.1</ele>
        <time>2023-06-10T08:49:54Z</time>
      </trkpt>
      <trkpt lat="49.45404" lon="2.06069">
        <ele>68.2</ele>
        <time>2023-06-10T08:50:00Z</time>
      </trkpt>
      <trkpt lat="49.45413" lon="2.06066">
        <ele>68.3</ele>
        <time>2023-06-10T08:50:05Z</time>
      </trkpt>
      <trkpt lat="49.45422" lon="2.06064">
        <ele>68.4</ele>
        <time>2023-06-10T08:50:10Z</time>
      </trkpt>
      <trkpt lat="49.45432" lon="2.06062">
        <ele>68.7</ele>
        <time>2023-06-10T08:50:16Z</time>
      </trkpt>
      <trkpt lat="49.45439" lon="2.06061">
        <ele>68.9</ele>
        <time>2023-06-10T08:50:22Z</time>
      </trkpt>
      <trkpt lat="49.45445" lon="2.06062">
        <ele>69</ele>
        <time>2023-06-10T08:50:27Z</time>
      </trkpt>
      <trkpt lat="49.45452" lon="2.06061">
        <ele>69</ele>
        <time>2023-06-10T08:50:33Z</time>
      </trkpt>
      <trkpt lat="49.45462" lon="2.06062">
        <ele>69</ele>
        <time>2023-06-10T08:50:39Z</time>
      </trkpt>
      <trkpt lat="49.45472" lon="2.06063">
        <ele>69</ele>
        <time>2023-06-10T08:50:45Z</time>
      </trkpt>
      <trkpt lat="49.45478" lon="2.06065">
        <ele>69</ele>
        <time>2023-06-10T08:50:51Z</time>
      </trkpt>
      <trkpt lat="49.45485" lon="2.06065">
        <ele>69</ele>
        <time>2023-06-10T08:50:57Z</time>
      </trkpt>
      <trkpt lat="49.45491" lon="2.06062">
        <ele>69</ele>
        <time>2023-06-10T08:51:03Z</time>
      </trkpt>
      <trkpt lat="49.45496" lon="2.06058">
        <ele>69</ele>
        <time>2023-06-10T08:51:09Z</time>
      </trkpt>
      <trkpt lat="49.45504" lon="2.06057">
        <ele>69</ele>
        <time>2023-06-10T08:51:15Z</time>
      </trkpt>
      <trkpt lat="49.45512" lon="2.06054">
        <ele>69</ele>
        <time>2023-06-10T08:51:21Z</time>
      </trkpt>
      <trkpt lat="49.45519" lon="2.06051">
        <ele>69</ele>
        <time>2023-06-10T08:51:27Z</time>
      </trkpt>
      <trkpt lat="49.45529" lon="2.06049">
        <ele>69</ele>
        <time>2023-06-10T08:51:33Z</time>
      </trkpt>
      <trkpt lat="49.45537" lon="2.06048">
        <ele>69</ele>
        <time>2023-06-10T08:51:38Z</time>
      </trkpt>
      <trkpt lat="49.45548" lon="2.06048">
        <ele>69</ele>
        <time>2023-06-10T08:51:44Z</time>
      </trkpt>
      <trkpt lat="49.45559" lon="2.06045">
        <ele>69.1</ele>
        <time>2023-06-10T08:51:49Z</time>
      </trkpt>
      <trkpt lat="49.4557" lon="2.06036">
        <ele>69.1</ele>
        <time>2023-06-10T08:51:54Z</time>
      </trkpt>
      <trkpt lat="49.45581" lon="2.06023">
        <ele>69</ele>
        <time>2023-06-10T08:52:00Z</time>
      </trkpt>
      <trkpt lat="49.45585" lon="2.06013">
        <ele>69</ele>
        <time>2023-06-10T08:52:05Z</time>
      </trkpt>
      <trkpt lat="49.45583" lon="2.06002">
        <ele>69</ele>
        <time>2023-06-10T08:52:11Z</time>
      </trkpt>
      <trkpt lat="49.45576" lon="2.05994">
        <ele>68.9</ele>
        <time>2023-06-10T08:52:17Z</time>
      </trkpt>
      <trkpt lat="49.45581" lon="2.05991">
        <ele>68.9</ele>
        <time>2023-06-10T08:53:28Z</time>
      </trkpt>
      <trkpt lat="49.45583" lon="2.05992">
        <ele>69</ele>
        <time>2023-06-10T08:53:34Z</time>
      </trkpt>
      <trkpt lat="49.45586" lon="2.05992">
        <ele>69</ele>
        <time>2023-06-10T08:53:39Z</time>
      </trkpt>
      <trkpt lat="49.45591" lon="2.05993">
        <ele>68.9</ele>
        <time>2023-06-10T08:53:45Z</time>
      </trkpt>
      <trkpt lat="49.45595" lon="2.05995">
        <ele>68.9</ele>
        <time>2023-06-10T08:53:51Z</time>
      </trkpt>
      <trkpt lat="49.45596" lon="2.05995">
        <ele>68.9</ele>
        <time>2023-06-10T08:53:57Z</time>
      </trkpt>
      <trkpt lat="49.45597" lon="2.05995">
        <ele>68.9</ele>
        <time>2023-06-10T08:54:02Z</time>
      </trkpt>
      <trkpt lat="49.45599" lon="2.05995">
        <ele>68.9</ele>
        <time>2023-06-10T08:54:07Z</time>
      </trkpt>
      <trkpt lat="49.45602" lon="2.05994">
        <ele>68.9</ele>
        <time>2023-06-10T08:54:13Z</time>
      </trkpt>
      <trkpt lat="49.45602" lon="2.05993">
        <ele>68.8</ele>
        <time>2023-06-10T08:54:18Z</time>
      </trkpt>
      <trkpt lat="49.45601" lon="2.05993">
        <ele>68.8</ele>
        <time>2023-06-10T08:54:24Z</time>
      </trkpt>
      <trkpt lat="49.45601" lon="2.05994">
        <ele>68.9</ele>
        <time>2023-06-10T08:54:29Z</time>
      </trkpt>
      <trkpt lat="49.45602" lon="2.05993">
        <ele>68.8</ele>
        <time>2023-06-10T08:54:34Z</time>
      </trkpt>
      <trkpt lat="49.45603" lon="2.05992">
        <ele>68.8</ele>
        <time>2023-06-10T08:54:40Z</time>
      </trkpt>
      <trkpt lat="49.45603" lon="2.0599">
        <ele>68.7</ele>
        <time>2023-06-10T08:54:45Z</time>
      </trkpt>
      <trkpt lat="49.45601" lon="2.05989">
        <ele>68.8</ele>
        <time>2023-06-10T08:54:51Z</time>
      </trkpt>
      <trkpt lat="49.45598" lon="2.0599">
        <ele>68.8</ele>
        <time>2023-06-10T08:54:57Z</time>
      </trkpt>
      <trkpt lat="49.45598" lon="2.05989">
        <ele>68.8</ele>
        <time>2023-06-10T08:55:02Z</time>
      </trkpt>
      <trkpt lat="49.45601" lon="2.05989">
        <ele>68.8</ele>
        <time>2023-06-10T08:55:08Z</time>
      </trkpt>
      <trkpt lat="49.456" lon="2.05991">
        <ele>68.8</ele>
        <time>2023-06-10T08:55:14Z</time>
      </trkpt>
      <trkpt lat="49.45601" lon="2.05993">
        <ele>68.8</ele>
        <time>2023-06-10T08:55:19Z</time>
      </trkpt>
      <trkpt lat="49.45602" lon="2.05992">
        <ele>68.8</ele>
        <time>2023-06-10T08:55:24Z</time>
      </trkpt>
      <trkpt lat="49.45603" lon="2.05989">
        <ele>68.7</ele>
        <time>2023-06-10T08:55:30Z</time>
      </trkpt>
      <trkpt lat="49.45606" lon="2.05983">
        <ele>68.5</ele>
        <time>2023-06-10T08:55:35Z</time>
      </trkpt>
      <trkpt lat="49.45612" lon="2.05976">
        <ele>68.2</ele>
        <time>2023-06-10T08:55:41Z</time>
      </trkpt>
      <trkpt lat="49.45619" lon="2.05974">
        <ele>68.3</ele>
        <time>2023-06-10T08:55:47Z</time>
      </trkpt>
      <trkpt lat="49.45626" lon="2.05972">
        <ele>68.6</ele>
        <time>2023-06-10T08:55:52Z</time>
      </trkpt>
      <trkpt lat="49.45637" lon="2.05969">
        <ele>68.7</ele>
        <time>2023-06-10T08:55:58Z</time>
      </trkpt>
      <trkpt lat="49.45644" lon="2.05966">
        <ele>68.6</ele>
        <time>2023-06-10T08:56:03Z</time>
      </trkpt>
      <trkpt lat="49.4565" lon="2.05964">
        <ele>68.4</ele>
        <time>2023-06-10T08:56:09Z</time>
      </trkpt>
      <trkpt lat="49.45659" lon="2.05961">
        <ele>68.2</ele>
        <time>2023-06-10T08:56:15Z</time>
      </trkpt>
      <trkpt lat="49.45669" lon="2.05957">
        <ele>67.9</ele>
        <time>2023-06-10T08:56:21Z</time>
      </trkpt>
      <trkpt lat="49.45676" lon="2.05955">
        <ele>67.9</ele>
        <time>2023-06-10T08:56:26Z</time>
      </trkpt>
      <trkpt lat="49.45683" lon="2.05952">
        <ele>67.8</ele>
        <time>2023-06-10T08:56:32Z</time>
      </trkpt>
      <trkpt lat="49.45691" lon="2.05945">
        <ele>67.9</ele>
        <time>2023-06-10T08:56:38Z</time>
      </trkpt>
      <trkpt lat="49.45697" lon="2.05939">
        <ele>67.9</ele>
        <time>2023-06-10T08:56:43Z</time>
      </trkpt>
      <trkpt lat="49.45704" lon="2.05931">
        <ele>68</ele>
        <time>2023-06-10T08:56:49Z</time>
      </trkpt>
      <trkpt lat="49.4571" lon="2.05923">
        <ele>68.2</ele>
        <time>2023-06-10T08:56:55Z</time>
      </trkpt>
      <trkpt lat="49.45715" lon="2.05913">
        <ele>68.5</ele>
        <time>2023-06-10T08:57:01Z</time>
      </trkpt>
      <trkpt lat="49.45718" lon="2.05904">
        <ele>68.7</ele>
        <time>2023-06-10T08:57:07Z</time>
      </trkpt>
      <trkpt lat="49.45718" lon="2.05896">
        <ele>68.7</ele>
        <time>2023-06-10T08:57:12Z</time>
      </trkpt>
      <trkpt lat="49.45717" lon="2.05887">
        <ele>68.7</ele>
        <time>2023-06-10T08:57:18Z</time>
      </trkpt>
      <trkpt lat="49.45718" lon="2.05876">
        <ele>68.7</ele>
        <time>2023-06-10T08:57:23Z</time>
      </trkpt>
      <trkpt lat="49.45718" lon="2.05865">
        <ele>68.7</ele>
        <time>2023-06-10T08:57:28Z</time>
      </trkpt>
      <trkpt lat="49.45717" lon="2.05852">
        <ele>68.6</ele>
        <time>2023-06-10T08:57:34Z</time>
      </trkpt>
      <trkpt lat="49.45714" lon="2.05845">
        <ele>68.4</ele>
        <time>2023-06-10T08:57:40Z</time>
      </trkpt>
      <trkpt lat="49.45711" lon="2.05835">
        <ele>68.2</ele>
        <time>2023-06-10T08:57:46Z</time>
      </trkpt>
      <trkpt lat="49.45706" lon="2.05824">
        <ele>68</ele>
        <time>2023-06-10T08:57:52Z</time>
      </trkpt>
      <trkpt lat="49.45703" lon="2.05814">
        <ele>68.1</ele>
        <time>2023-06-10T08:57:57Z</time>
      </trkpt>
      <trkpt lat="49.45699" lon="2.05798">
        <ele>68.3</ele>
        <time>2023-06-10T08:58:03Z</time>
      </trkpt>
      <trkpt lat="49.45694" lon="2.05787">
        <ele>68.7</ele>
        <time>2023-06-10T08:58:08Z</time>
      </trkpt>
      <trkpt lat="49.45689" lon="2.05775">
        <ele>68.6</ele>
        <time>2023-06-10T08:58:14Z</time>
      </trkpt>
      <trkpt lat="49.45688" lon="2.05759">
        <ele>68.5</ele>
        <time>2023-06-10T08:58:20Z</time>
      </trkpt>
      <trkpt lat="49.45687" lon="2.05745">
        <ele>68.5</ele>
        <time>2023-06-10T08:58:26Z</time>
      </trkpt>
      <trkpt lat="49.45684" lon="2.05732">
        <ele>68.5</ele>
        <time>2023-06-10T08:58:31Z</time>
      </trkpt>
      <trkpt lat="49.45683" lon="2.0572">
        <ele>68.6</ele>
        <time>2023-06-10T08:58:37Z</time>
      </trkpt>
      <trkpt lat="49.45683" lon="2.05709">
        <ele>68.6</ele>
        <time>2023-06-10T08:58:43Z</time>
      </trkpt>
      <trkpt lat="49.45685" lon="2.05697">
        <ele>68.6</ele>
        <time>2023-06-10T08:58:49Z</time>
      </trkpt>
      <trkpt lat="49.45687" lon="2.05681">
        <ele>68.9</ele>
        <time>2023-06-10T08:58:55Z</time>
      </trkpt>
      <trkpt lat="49.45688" lon="2.05674">
        <ele>68.9</ele>
        <time>2023-06-10T08:59:00Z</time>
      </trkpt>
      <trkpt lat="49.45689" lon="2.05666">
        <ele>69</ele>
        <time>2023-06-10T08:59:06Z</time>
      </trkpt>
      <trkpt lat="49.45691" lon="2.05655">
        <ele>69</ele>
        <time>2023-06-10T08:59:11Z</time>
      </trkpt>
      <trkpt lat="49.45693" lon="2.0564">
        <ele>69</ele>
        <time>2023-06-10T08:59:17Z</time>
      </trkpt>
      <trkpt lat="49.45694" lon="2.05628">
        <ele>69</ele>
        <time>2023-06-10T08:59:22Z</time>
      </trkpt>
      <trkpt lat="49.45697" lon="2.05613">
        <ele>69</ele>
        <time>2023-06-10T08:59:28Z</time>
      </trkpt>
      <trkpt lat="49.45699" lon="2.05599">
        <ele>69</ele>
        <time>2023-06-10T08:59:33Z</time>
      </trkpt>
      <trkpt lat="49.45702" lon="2.05584">
        <ele>69</ele>
        <time>2023-06-10T08:59:39Z</time>
      </trkpt>
      <trkpt lat="49.45705" lon="2.0557">
        <ele>69</ele>
        <time>2023-06-10T08:59:45Z</time>
      </trkpt>
      <trkpt lat="49.45706" lon="2.05558">
        <ele>69</ele>
        <time>2023-06-10T08:59:50Z</time>
      </trkpt>
      <trkpt lat="49.45708" lon="2.05544">
        <ele>69</ele>
        <time>2023-06-10T08:59:56Z</time>
      </trkpt>
      <trkpt lat="49.45709" lon="2.05531">
        <ele>69</ele>
        <time>2023-06-10T09:00:02Z</time>
      </trkpt>
      <trkpt lat="49.45708" lon="2.0552">
        <ele>68.9</ele>
        <time>2023-06-10T09:00:07Z</time>
      </trkpt>
      <trkpt lat="49.45708" lon="2.05506">
        <ele>68.6</ele>
        <time>2023-06-10T09:00:13Z</time>
      </trkpt>
      <trkpt lat="49.45707" lon="2.05491">
        <ele>68.5</ele>
        <time>2023-06-10T09:00:19Z</time>
      </trkpt>
      <trkpt lat="49.45705" lon="2.05481">
        <ele>68.6</ele>
        <time>2023-06-10T09:00:24Z</time>
      </trkpt>
      <trkpt lat="49.45703" lon="2.0547">
        <ele>68.7</ele>
        <time>2023-06-10T09:00:30Z</time>
      </trkpt>
      <trkpt lat="49.45701" lon="2.05459">
        <ele>68.8</ele>
        <time>2023-06-10T09:00:35Z</time>
      </trkpt>
      <trkpt lat="49.45698" lon="2.05445">
        <ele>68.9</ele>
        <time>2023-06-10T09:00:41Z</time>
      </trkpt>
      <trkpt lat="49.45695" lon="2.05432">
        <ele>69</ele>
        <time>2023-06-10T09:00:47Z</time>
      </trkpt>
      <trkpt lat="49.45693" lon="2.05419">
        <ele>68.9</ele>
        <time>2023-06-10T09:00:53Z</time>
      </trkpt>
      <trkpt lat="49.4569" lon="2.05406">
        <ele>68.9</ele>
        <time>2023-06-10T09:00:59Z</time>
      </trkpt>
      <trkpt lat="49.45688" lon="2.05396">
        <ele>68.9</ele>
        <time>2023-06-10T09:01:04Z</time>
      </trkpt>
      <trkpt lat="49.45685" lon="2.05384">
        <ele>69</ele>
        <time>2023-06-10T09:01:10Z</time>
      </trkpt>
      <trkpt lat="49.45685" lon="2.05376">
        <ele>69</ele>
        <time>2023-06-10T09:01:15Z</time>
      </trkpt>
      <trkpt lat="49.45683" lon="2.05369">
        <ele>69</ele>
        <time>2023-06-10T09:01:21Z</time>
      </trkpt>
      <trkpt lat="49.45681" lon="2.05361">
        <ele>69</ele>
        <time>2023-06-10T09:01:26Z</time>
      </trkpt>
      <trkpt lat="49.45677" lon="2.05351">
        <ele>69</ele>
        <time>2023-06-10T09:01:32Z</time>
      </trkpt>
      <trkpt lat="49.45674" lon="2.05342">
        <ele>69</ele>
        <time>2023-06-10T09:01:37Z</time>
      </trkpt>
      <trkpt lat="49.45671" lon="2.05334">
        <ele>69</ele>
        <time>2023-06-10T09:01:42Z</time>
      </trkpt>
      <trkpt lat="49.45667" lon="2.05324">
        <ele>69.3</ele>
        <time>2023-06-10T09:01:48Z</time>
      </trkpt>
      <trkpt lat="49.45661" lon="2.05317">
        <ele>69.5</ele>
        <time>2023-06-10T09:01:54Z</time>
      </trkpt>
      <trkpt lat="49.45655" lon="2.05312">
        <ele>69.4</ele>
        <time>2023-06-10T09:01:59Z</time>
      </trkpt>
      <trkpt lat="49.45648" lon="2.05308">
        <ele>69.3</ele>
        <time>2023-06-10T09:02:04Z</time>
      </trkpt>
      <trkpt lat="49.45639" lon="2.05304">
        <ele>69.1</ele>
        <time>2023-06-10T09:02:10Z</time>
      </trkpt>
      <trkpt lat="49.45631" lon="2.05303">
        <ele>69.2</ele>
        <time>2023-06-10T09:02:15Z</time>
      </trkpt>
      <trkpt lat="49.45623" lon="2.05301">
        <ele>69.2</ele>
        <time>2023-06-10T09:02:21Z</time>
      </trkpt>
      <trkpt lat="49.45617" lon="2.05301">
        <ele>69.2</ele>
        <time>2023-06-10T09:02:26Z</time>
      </trkpt>
      <trkpt lat="49.45608" lon="2.05302">
        <ele>69.1</ele>
        <time>2023-06-10T09:02:32Z</time>
      </trkpt>
      <trkpt lat="49.45604" lon="2.05302">
        <ele>69.1</ele>
        <time>2023-06-10T09:02:37Z</time>
      </trkpt>
      <trkpt lat="49.456" lon="2.05302">
        <ele>69.1</ele>
        <time>2023-06-10T09:02:43Z</time>
      </trkpt>
      <trkpt lat="49.45594" lon="2.05303">
        <ele>69</ele>
        <time>2023-06-10T09:02:48Z</time>
      </trkpt>
      <trkpt lat="49.45585" lon="2.05305">
        <ele>69</ele>
        <time>2023-06-10T09:02:53Z</time>
      </trkpt>
      <trkpt lat="49.45577" lon="2.05306">
        <ele>69</ele>
        <time>2023-06-10T09:02:59Z</time>
      </trkpt>
      <trkpt lat="49.45566" lon="2.05312">
        <ele>69</ele>
        <time>2023-06-10T09:03:05Z</time>
      </trkpt>
      <trkpt lat="49.45557" lon="2.0532">
        <ele>69</ele>
        <time>2023-06-10T09:03:10Z</time>
      </trkpt>
      <trkpt lat="49.45548" lon="2.05327">
        <ele>69.1</ele>
        <time>2023-06-10T09:03:16Z</time>
      </trkpt>
      <trkpt lat="49.45542" lon="2.05332">
        <ele>69</ele>
        <time>2023-06-10T09:03:22Z</time>
      </trkpt>
      <trkpt lat="49.45535" lon="2.05337">
        <ele>69</ele>
        <time>2023-06-10T09:03:28Z</time>
      </trkpt>
      <trkpt lat="49.45525" lon="2.05344">
        <ele>69.1</ele>
        <time>2023-06-10T09:03:34Z</time>
      </trkpt>
      <trkpt lat="49.45513" lon="2.05351">
        <ele>69.4</ele>
        <time>2023-06-10T09:03:40Z</time>
      </trkpt>
      <trkpt lat="49.45503" lon="2.05358">
        <ele>69.2</ele>
        <time>2023-06-10T09:03:45Z</time>
      </trkpt>
      <trkpt lat="49.4549" lon="2.05367">
        <ele>69.6</ele>
        <time>2023-06-10T09:03:51Z</time>
      </trkpt>
      <trkpt lat="49.45484" lon="2.05373">
        <ele>69.9</ele>
        <time>2023-06-10T09:03:56Z</time>
      </trkpt>
      <trkpt lat="49.45477" lon="2.05375">
        <ele>70.2</ele>
        <time>2023-06-10T09:04:02Z</time>
      </trkpt>
      <trkpt lat="49.45472" lon="2.05375">
        <ele>70.5</ele>
        <time>2023-06-10T09:04:07Z</time>
      </trkpt>
      <trkpt lat="49.45467" lon="2.05376">
        <ele>70.5</ele>
        <time>2023-06-10T09:04:13Z</time>
      </trkpt>
      <trkpt lat="49.45464" lon="2.05373">
        <ele>70.6</ele>
        <time>2023-06-10T09:04:18Z</time>
      </trkpt>
      <trkpt lat="49.45462" lon="2.05367">
        <ele>70.8</ele>
        <time>2023-06-10T09:04:24Z</time>
      </trkpt>
      <trkpt lat="49.45465" lon="2.0536">
        <ele>71.1</ele>
        <time>2023-06-10T09:04:30Z</time>
      </trkpt>
      <trkpt lat="49.45469" lon="2.05355">
        <ele>71.4</ele>
        <time>2023-06-10T09:04:35Z</time>
      </trkpt>
      <trkpt lat="49.45472" lon="2.05347">
        <ele>72</ele>
        <time>2023-06-10T09:04:40Z</time>
      </trkpt>
      <trkpt lat="49.45479" lon="2.0534">
        <ele>72.1</ele>
        <time>2023-06-10T09:04:46Z</time>
      </trkpt>
      <trkpt lat="49.45486" lon="2.05334">
        <ele>71.9</ele>
        <time>2023-06-10T09:04:51Z</time>
      </trkpt>
      <trkpt lat="49.45493" lon="2.05329">
        <ele>71.5</ele>
        <time>2023-06-10T09:04:57Z</time>
      </trkpt>
      <trkpt lat="49.45499" lon="2.05322">
        <ele>71.1</ele>
        <time>2023-06-10T09:05:03Z</time>
      </trkpt>
      <trkpt lat="49.45505" lon="2.05317">
        <ele>70.7</ele>
        <time>2023-06-10T09:05:08Z</time>
      </trkpt>
      <trkpt lat="49.45511" lon="2.0531">
        <ele>70.5</ele>
        <time>2023-06-10T09:05:13Z</time>
      </trkpt>
      <trkpt lat="49.4552" lon="2.05304">
        <ele>70.4</ele>
        <time>2023-06-10T09:05:19Z</time>
      </trkpt>
      <trkpt lat="49.45527" lon="2.05302">
        <ele>70.3</ele>
        <time>2023-06-10T09:05:24Z</time>
      </trkpt>
      <trkpt lat="49.45534" lon="2.053">
        <ele>70.1</ele>
        <time>2023-06-10T09:05:30Z</time>
      </trkpt>
      <trkpt lat="49.45539" lon="2.053">
        <ele>70</ele>
        <time>2023-06-10T09:05:35Z</time>
      </trkpt>
      <trkpt lat="49.45545" lon="2.05298">
        <ele>69.9</ele>
        <time>2023-06-10T09:05:40Z</time>
      </trkpt>
      <trkpt lat="49.45547" lon="2.05294">
        <ele>70.1</ele>
        <time>2023-06-10T09:05:45Z</time>
      </trkpt>
      <trkpt lat="49.45549" lon="2.05293">
        <ele>70.1</ele>
        <time>2023-06-10T09:05:51Z</time>
      </trkpt>
      <trkpt lat="49.45557" lon="2.0529">
        <ele>70.1</ele>
        <time>2023-06-10T09:05:57Z</time>
      </trkpt>
      <trkpt lat="49.45566" lon="2.0529">
        <ele>69.7</ele>
        <time>2023-06-10T09:06:03Z</time>
      </trkpt>
      <trkpt lat="49.45575" lon="2.05293">
        <ele>69.3</ele>
        <time>2023-06-10T09:06:08Z</time>
      </trkpt>
      <trkpt lat="49.45587" lon="2.05296">
        <ele>69</ele>
        <time>2023-06-10T09:06:14Z</time>
      </trkpt>
      <trkpt lat="49.45593" lon="2.05294">
        <ele>69.2</ele>
        <time>2023-06-10T09:06:19Z</time>
      </trkpt>
      <trkpt lat="49.45603" lon="2.05287">
        <ele>69.5</ele>
        <time>2023-06-10T09:06:24Z</time>
      </trkpt>
      <trkpt lat="49.45615" lon="2.05281">
        <ele>70</ele>
        <time>2023-06-10T09:06:30Z</time>
      </trkpt>
      <trkpt lat="49.45626" lon="2.05276">
        <ele>70.6</ele>
        <time>2023-06-10T09:06:35Z</time>
      </trkpt>
      <trkpt lat="49.45638" lon="2.05271">
        <ele>70.7</ele>
        <time>2023-06-10T09:06:40Z</time>
      </trkpt>
      <trkpt lat="49.45646" lon="2.05267">
        <ele>70.2</ele>
        <time>2023-06-10T09:06:45Z</time>
      </trkpt>
      <trkpt lat="49.45651" lon="2.05264">
        <ele>69.8</ele>
        <time>2023-06-10T09:06:51Z</time>
      </trkpt>
      <trkpt lat="49.45654" lon="2.05265">
        <ele>69.7</ele>
        <time>2023-06-10T09:06:57Z</time>
      </trkpt>
      <trkpt lat="49.45657" lon="2.05274">
        <ele>69.6</ele>
        <time>2023-06-10T09:07:03Z</time>
      </trkpt>
      <trkpt lat="49.45661" lon="2.05287">
        <ele>69.6</ele>
        <time>2023-06-10T09:07:09Z</time>
      </trkpt>
      <trkpt lat="49.45662" lon="2.05295">
        <ele>69.7</ele>
        <time>2023-06-10T09:07:14Z</time>
      </trkpt>
      <trkpt lat="49.45661" lon="2.05307">
        <ele>69.8</ele>
        <time>2023-06-10T09:07:20Z</time>
      </trkpt>
      <trkpt lat="49.45662" lon="2.05319">
        <ele>69.4</ele>
        <time>2023-06-10T09:07:25Z</time>
      </trkpt>
      <trkpt lat="49.45666" lon="2.05329">
        <ele>69.2</ele>
        <time>2023-06-10T09:07:30Z</time>
      </trkpt>
      <trkpt lat="49.45677" lon="2.05341">
        <ele>69</ele>
        <time>2023-06-10T09:07:36Z</time>
      </trkpt>
      <trkpt lat="49.45687" lon="2.05352">
        <ele>69</ele>
        <time>2023-06-10T09:07:42Z</time>
      </trkpt>
      <trkpt lat="49.45694" lon="2.05358">
        <ele>69</ele>
        <time>2023-06-10T09:07:48Z</time>
      </trkpt>
      <trkpt lat="49.45702" lon="2.05359">
        <ele>69</ele>
        <time>2023-06-10T09:07:53Z</time>
      </trkpt>
      <trkpt lat="49.45711" lon="2.05361">
        <ele>69</ele>
        <time>2023-06-10T09:07:58Z</time>
      </trkpt>
      <trkpt lat="49.45718" lon="2.05362">
        <ele>69</ele>
        <time>2023-06-10T09:08:03Z</time>
      </trkpt>
      <trkpt lat="49.45724" lon="2.05361">
        <ele>69</ele>
        <time>2023-06-10T09:08:09Z</time>
      </trkpt>
      <trkpt lat="49.4573" lon="2.05359">
        <ele>69</ele>
        <time>2023-06-10T09:08:15Z</time>
      </trkpt>
      <trkpt lat="49.45736" lon="2.05356">
        <ele>69</ele>
        <time>2023-06-10T09:08:20Z</time>
      </trkpt>
      <trkpt lat="49.45745" lon="2.05351">
        <ele>69</ele>
        <time>2023-06-10T09:08:26Z</time>
      </trkpt>
      <trkpt lat="49.45753" lon="2.05347">
        <ele>69</ele>
        <time>2023-06-10T09:08:31Z</time>
      </trkpt>
      <trkpt lat="49.45762" lon="2.05344">
        <ele>69</ele>
        <time>2023-06-10T09:08:37Z</time>
      </trkpt>
      <trkpt lat="49.45771" lon="2.05343">
        <ele>69</ele>
        <time>2023-06-10T09:08:43Z</time>
      </trkpt>
      <trkpt lat="49.45778" lon="2.05342">
        <ele>69</ele>
        <time>2023-06-10T09:08:48Z</time>
      </trkpt>
      <trkpt lat="49.45786" lon="2.05339">
        <ele>69</ele>
        <time>2023-06-10T09:08:53Z</time>
      </trkpt>
      <trkpt lat="49.45794" lon="2.05336">
        <ele>69</ele>
        <time>2023-06-10T09:08:58Z</time>
      </trkpt>
      <trkpt lat="49.45805" lon="2.05334">
        <ele>69</ele>
        <time>2023-06-10T09:09:04Z</time>
      </trkpt>
      <trkpt lat="49.45812" lon="2.05332">
        <ele>69</ele>
        <time>2023-06-10T09:09:09Z</time>
      </trkpt>
      <trkpt lat="49.45821" lon="2.05332">
        <ele>69</ele>
        <time>2023-06-10T09:09:15Z</time>
      </trkpt>
      <trkpt lat="49.4583" lon="2.05332">
        <ele>69</ele>
        <time>2023-06-10T09:09:20Z</time>
      </trkpt>
      <trkpt lat="49.45838" lon="2.05329">
        <ele>69.2</ele>
        <time>2023-06-10T09:09:26Z</time>
      </trkpt>
      <trkpt lat="49.45847" lon="2.05329">
        <ele>69.5</ele>
        <time>2023-06-10T09:09:32Z</time>
      </trkpt>
      <trkpt lat="49.45853" lon="2.05331">
        <ele>69.7</ele>
        <time>2023-06-10T09:09:37Z</time>
      </trkpt>
      <trkpt lat="49.45861" lon="2.05331">
        <ele>70</ele>
        <time>2023-06-10T09:09:43Z</time>
      </trkpt>
      <trkpt lat="49.45866" lon="2.05332">
        <ele>70</ele>
        <time>2023-06-10T09:09:48Z</time>
      </trkpt>
      <trkpt lat="49.45869" lon="2.05334">
        <ele>70</ele>
        <time>2023-06-10T09:09:53Z</time>
      </trkpt>
      <trkpt lat="49.45876" lon="2.05334">
        <ele>70</ele>
        <time>2023-06-10T09:09:59Z</time>
      </trkpt>
      <trkpt lat="49.45884" lon="2.05332">
        <ele>70</ele>
        <time>2023-06-10T09:10:04Z</time>
      </trkpt>
      <trkpt lat="49.45888" lon="2.05329">
        <ele>70</ele>
        <time>2023-06-10T09:10:10Z</time>
      </trkpt>
      <trkpt lat="49.45891" lon="2.05326">
        <ele>70</ele>
        <time>2023-06-10T09:10:15Z</time>
      </trkpt>
      <trkpt lat="49.45897" lon="2.05318">
        <ele>70</ele>
        <time>2023-06-10T09:10:21Z</time>
      </trkpt>
      <trkpt lat="49.45905" lon="2.05312">
        <ele>70</ele>
        <time>2023-06-10T09:10:27Z</time>
      </trkpt>
      <trkpt lat="49.45911" lon="2.05311">
        <ele>70</ele>
        <time>2023-06-10T09:10:32Z</time>
      </trkpt>
      <trkpt lat="49.45918" lon="2.05308">
        <ele>70</ele>
        <time>2023-06-10T09:10:38Z</time>
      </trkpt>
      <trkpt lat="49.45923" lon="2.05304">
        <ele>70</ele>
        <time>2023-06-10T09:10:43Z</time>
      </trkpt>
      <trkpt lat="49.45925" lon="2.05298">
        <ele>70</ele>
        <time>2023-06-10T09:10:49Z</time>
      </trkpt>
      <trkpt lat="49.45925" lon="2.05296">
        <ele>70</ele>
        <time>2023-06-10T09:10:55Z</time>
      </trkpt>
      <trkpt lat="49.45925" lon="2.05296">
        <ele>70</ele>
        <time>2023-06-10T09:11:00Z</time>
      </trkpt>
      <trkpt lat="49.45925" lon="2.05295">
        <ele>70</ele>
        <time>2023-06-10T09:11:05Z</time>
      </trkpt>
      <trkpt lat="49.45925" lon="2.05295">
        <ele>70</ele>
        <time>2023-06-10T09:11:11Z</time>
      </trkpt>
      <trkpt lat="49.45926" lon="2.05295">
        <ele>70</ele>
        <time>2023-06-10T09:11:17Z</time>
      </trkpt>
      <trkpt lat="49.4593" lon="2.05295">
        <ele>70</ele>
        <time>2023-06-10T09:11:23Z</time>
      </trkpt>
      <trkpt lat="49.45931" lon="2.05294">
        <ele>70</ele>
        <time>2023-06-10T09:11:28Z</time>
      </trkpt>
      <trkpt lat="49.45935" lon="2.05293">
        <ele>70</ele>
        <time>2023-06-10T09:11:34Z</time>
      </trkpt>
      <trkpt lat="49.4594" lon="2.05291">
        <ele>70</ele>
        <time>2023-06-10T09:11:39Z</time>
      </trkpt>
      <trkpt lat="49.45946" lon="2.05291">
        <ele>70</ele>
        <time>2023-06-10T09:11:45Z</time>
      </trkpt>
      <trkpt lat="49.4595" lon="2.05287">
        <ele>70</ele>
        <time>2023-06-10T09:11:50Z</time>
      </trkpt>
      <trkpt lat="49.45952" lon="2.05284">
        <ele>70</ele>
        <time>2023-06-10T09:11:55Z</time>
      </trkpt>
      <trkpt lat="49.45958" lon="2.05283">
        <ele>70</ele>
        <time>2023-06-10T09:12:01Z</time>
      </trkpt>
      <trkpt lat="49.45966" lon="2.05286">
        <ele>70</ele>
        <time>2023-06-10T09:12:06Z</time>
      </trkpt>
      <trkpt lat="49.45976" lon="2.05284">
        <ele>70</ele>
        <time>2023-06-10T09:12:12Z</time>
      </trkpt>
      <trkpt lat="49.45986" lon="2.0528">
        <ele>70</ele>
        <time>2023-06-10T09:12:17Z</time>
      </trkpt>
      <trkpt lat="49.45998" lon="2.05275">
        <ele>70</ele>
        <time>2023-06-10T09:12:23Z</time>
      </trkpt>
      <trkpt lat="49.46011" lon="2.05271">
        <ele>70</ele>
        <time>2023-06-10T09:12:29Z</time>
      </trkpt>
      <trkpt lat="49.46021" lon="2.05266">
        <ele>70</ele>
        <time>2023-06-10T09:12:34Z</time>
      </trkpt>
      <trkpt lat="49.46032" lon="2.0526">
        <ele>70.1</ele>
        <time>2023-06-10T09:12:40Z</time>
      </trkpt>
      <trkpt lat="49.46038" lon="2.05256">
        <ele>70.1</ele>
        <time>2023-06-10T09:12:45Z</time>
      </trkpt>
      <trkpt lat="49.46045" lon="2.05249">
        <ele>70</ele>
        <time>2023-06-10T09:12:51Z</time>
      </trkpt>
      <trkpt lat="49.46052" lon="2.05243">
        <ele>70</ele>
        <time>2023-06-10T09:12:56Z</time>
      </trkpt>
      <trkpt lat="49.46064" lon="2.05235">
        <ele>70</ele>
        <time>2023-06-10T09:13:02Z</time>
      </trkpt>
      <trkpt lat="49.46071" lon="2.05229">
        <ele>70</ele>
        <time>2023-06-10T09:13:07Z</time>
      </trkpt>
      <trkpt lat="49.4608" lon="2.05216">
        <ele>70</ele>
        <time>2023-06-10T09:13:13Z</time>
      </trkpt>
      <trkpt lat="49.46087" lon="2.05208">
        <ele>70</ele>
        <time>2023-06-10T09:13:18Z</time>
      </trkpt>
      <trkpt lat="49.46091" lon="2.05204">
        <ele>70</ele>
        <time>2023-06-10T09:13:23Z</time>
      </trkpt>
      <trkpt lat="49.46095" lon="2.05196">
        <ele>70</ele>
        <time>2023-06-10T09:13:29Z</time>
      </trkpt>
      <trkpt lat="49.46101" lon="2.05181">
        <ele>70</ele>
        <time>2023-06-10T09:13:35Z</time>
      </trkpt>
      <trkpt lat="49.46108" lon="2.05171">
        <ele>70</ele>
        <time>2023-06-10T09:13:40Z</time>
      </trkpt>
      <trkpt lat="49.46115" lon="2.0516">
        <ele>70.3</ele>
        <time>2023-06-10T09:13:46Z</time>
      </trkpt>
      <trkpt lat="49.46121" lon="2.05153">
        <ele>70.5</ele>
        <time>2023-06-10T09:13:52Z</time>
      </trkpt>
      <trkpt lat="49.46125" lon="2.0515">
        <ele>70.5</ele>
        <time>2023-06-10T09:13:57Z</time>
      </trkpt>
      <trkpt lat="49.46131" lon="2.05148">
        <ele>70.4</ele>
        <time>2023-06-10T09:14:03Z</time>
      </trkpt>
      <trkpt lat="49.46135" lon="2.05143">
        <ele>70.2</ele>
        <time>2023-06-10T09:14:08Z</time>
      </trkpt>
      <trkpt lat="49.46141" lon="2.05131">
        <ele>70</ele>
        <time>2023-06-10T09:14:14Z</time>
      </trkpt>
      <trkpt lat="49.46146" lon="2.05122">
        <ele>70</ele>
        <time>2023-06-10T09:14:19Z</time>
      </trkpt>
      <trkpt lat="49.4615" lon="2.05116">
        <ele>70</ele>
        <time>2023-06-10T09:14:24Z</time>
      </trkpt>
      <trkpt lat="49.46157" lon="2.0511">
        <ele>70</ele>
        <time>2023-06-10T09:14:30Z</time>
      </trkpt>
      <trkpt lat="49.46163" lon="2.05104">
        <ele>70.1</ele>
        <time>2023-06-10T09:14:35Z</time>
      </trkpt>
      <trkpt lat="49.46169" lon="2.05097">
        <ele>70</ele>
        <time>2023-06-10T09:14:40Z</time>
      </trkpt>
      <trkpt lat="49.46173" lon="2.05086">
        <ele>70</ele>
        <time>2023-06-10T09:14:46Z</time>
      </trkpt>
      <trkpt lat="49.46177" lon="2.05077">
        <ele>70</ele>
        <time>2023-06-10T09:14:52Z</time>
      </trkpt>
      <trkpt lat="49.46179" lon="2.05069">
        <ele>70</ele>
        <time>2023-06-10T09:14:57Z</time>
      </trkpt>
      <trkpt lat="49.46181" lon="2.05057">
        <ele>70</ele>
        <time>2023-06-10T09:15:03Z</time>
      </trkpt>
      <trkpt lat="49.46185" lon="2.05054">
        <ele>70.2</ele>
        <time>2023-06-10T09:15:08Z</time>
      </trkpt>
      <trkpt lat="49.46191" lon="2.05048">
        <ele>70.6</ele>
        <time>2023-06-10T09:15:14Z</time>
      </trkpt>
      <trkpt lat="49.46197" lon="2.05044">
        <ele>70.8</ele>
        <time>2023-06-10T09:15:19Z</time>
      </trkpt>
      <trkpt lat="49.46204" lon="2.05039">
        <ele>71.2</ele>
        <time>2023-06-10T09:15:24Z</time>
      </trkpt>
      <trkpt lat="49.46213" lon="2.05035">
        <ele>71.5</ele>
        <time>2023-06-10T09:15:30Z</time>
      </trkpt>
      <trkpt lat="49.46221" lon="2.05032">
        <ele>71.7</ele>
        <time>2023-06-10T09:15:36Z</time>
      </trkpt>
      <trkpt lat="49.46229" lon="2.05031">
        <ele>71.8</ele>
        <time>2023-06-10T09:15:42Z</time>
      </trkpt>
      <trkpt lat="49.46236" lon="2.05033">
        <ele>71.7</ele>
        <time>2023-06-10T09:15:47Z</time>
      </trkpt>
      <trkpt lat="49.46242" lon="2.05033">
        <ele>71.6</ele>
        <time>2023-06-10T09:15:52Z</time>
      </trkpt>
      <trkpt lat="49.46246" lon="2.05032">
        <ele>71.7</ele>
        <time>2023-06-10T09:15:57Z</time>
      </trkpt>
      <trkpt lat="49.46251" lon="2.05037">
        <ele>71.3</ele>
        <time>2023-06-10T09:16:03Z</time>
      </trkpt>
      <trkpt lat="49.46254" lon="2.05047">
        <ele>70.6</ele>
        <time>2023-06-10T09:16:09Z</time>
      </trkpt>
      <trkpt lat="49.46259" lon="2.05057">
        <ele>70.3</ele>
        <time>2023-06-10T09:16:14Z</time>
      </trkpt>
      <trkpt lat="49.46264" lon="2.0506">
        <ele>70.5</ele>
        <time>2023-06-10T09:16:20Z</time>
      </trkpt>
      <trkpt lat="49.46271" lon="2.05057">
        <ele>70.7</ele>
        <time>2023-06-10T09:16:26Z</time>
      </trkpt>
      <trkpt lat="49.46277" lon="2.05052">
        <ele>70.9</ele>
        <time>2023-06-10T09:16:31Z</time>
      </trkpt>
      <trkpt lat="49.46285" lon="2.05046">
        <ele>70.7</ele>
        <time>2023-06-10T09:16:37Z</time>
      </trkpt>
      <trkpt lat="49.46291" lon="2.05041">
        <ele>70.5</ele>
        <time>2023-06-10T09:16:43Z</time>
      </trkpt>
      <trkpt lat="49.46298" lon="2.05036">
        <ele>70.3</ele>
        <time>2023-06-10T09:16:49Z</time>
      </trkpt>
      <trkpt lat="49.46305" lon="2.05031">
        <ele>70.1</ele>
        <time>2023-06-10T09:16:54Z</time>
      </trkpt>
      <trkpt lat="49.46314" lon="2.05024">
        <ele>70</ele>
        <time>2023-06-10T09:17:00Z</time>
      </trkpt>
      <trkpt lat="49.46321" lon="2.05018">
        <ele>70</ele>
        <time>2023-06-10T09:17:05Z</time>
      </trkpt>
      <trkpt lat="49.46329" lon="2.05012">
        <ele>70</ele>
        <time>2023-06-10T09:17:11Z</time>
      </trkpt>
      <trkpt lat="49.46338" lon="2.05005">
        <ele>70.2</ele>
        <time>2023-06-10T09:17:16Z</time>
      </trkpt>
      <trkpt lat="49.46346" lon="2.04999">
        <ele>70.5</ele>
        <time>2023-06-10T09:17:21Z</time>
      </trkpt>
      <trkpt lat="49.46356" lon="2.04998">
        <ele>70.8</ele>
        <time>2023-06-10T09:17:27Z</time>
      </trkpt>
      <trkpt lat="49.46364" lon="2.04998">
        <ele>70.9</ele>
        <time>2023-06-10T09:17:32Z</time>
      </trkpt>
      <trkpt lat="49.46372" lon="2.04996">
        <ele>70.9</ele>
        <time>2023-06-10T09:17:37Z</time>
      </trkpt>
      <trkpt lat="49.46381" lon="2.04996">
        <ele>71</ele>
        <time>2023-06-10T09:17:43Z</time>
      </trkpt>
      <trkpt lat="49.46388" lon="2.04996">
        <ele>71</ele>
        <time>2023-06-10T09:17:48Z</time>
      </trkpt>
      <trkpt lat="49.46396" lon="2.04995">
        <ele>71.2</ele>
        <time>2023-06-10T09:17:54Z</time>
      </trkpt>
      <trkpt lat="49.46403" lon="2.04997">
        <ele>71.4</ele>
        <time>2023-06-10T09:17:59Z</time>
      </trkpt>
      <trkpt lat="49.46407" lon="2.05004">
        <ele>71.6</ele>
        <time>2023-06-10T09:18:04Z</time>
      </trkpt>
      <trkpt lat="49.4641" lon="2.0502">
        <ele>71.2</ele>
        <time>2023-06-10T09:18:10Z</time>
      </trkpt>
      <trkpt lat="49.46408" lon="2.05034">
        <ele>71</ele>
        <time>2023-06-10T09:18:15Z</time>
      </trkpt>
      <trkpt lat="49.46406" lon="2.05048">
        <ele>71</ele>
        <time>2023-06-10T09:18:21Z</time>
      </trkpt>
      <trkpt lat="49.46404" lon="2.05056">
        <ele>71</ele>
        <time>2023-06-10T09:18:26Z</time>
      </trkpt>
      <trkpt lat="49.46402" lon="2.05066">
        <ele>70.8</ele>
        <time>2023-06-10T09:18:32Z</time>
      </trkpt>
      <trkpt lat="49.46401" lon="2.05074">
        <ele>70.7</ele>
        <time>2023-06-10T09:18:37Z</time>
      </trkpt>
      <trkpt lat="49.46401" lon="2.05079">
        <ele>70.6</ele>
        <time>2023-06-10T09:18:42Z</time>
      </trkpt>
      <trkpt lat="49.46402" lon="2.05084">
        <ele>70.5</ele>
        <time>2023-06-10T09:18:48Z</time>
      </trkpt>
      <trkpt lat="49.46405" lon="2.05095">
        <ele>70.4</ele>
        <time>2023-06-10T09:18:54Z</time>
      </trkpt>
      <trkpt lat="49.46409" lon="2.05105">
        <ele>70.3</ele>
        <time>2023-06-10T09:18:59Z</time>
      </trkpt>
      <trkpt lat="49.46413" lon="2.05113">
        <ele>70.1</ele>
        <time>2023-06-10T09:19:05Z</time>
      </trkpt>
      <trkpt lat="49.46416" lon="2.05128">
        <ele>70</ele>
        <time>2023-06-10T09:19:11Z</time>
      </trkpt>
      <trkpt lat="49.46418" lon="2.05149">
        <ele>70</ele>
        <time>2023-06-10T09:19:17Z</time>
      </trkpt>
      <trkpt lat="49.46419" lon="2.05164">
        <ele>70</ele>
        <time>2023-06-10T09:19:23Z</time>
      </trkpt>
      <trkpt lat="49.46422" lon="2.05174">
        <ele>70.2</ele>
        <time>2023-06-10T09:19:29Z</time>
      </trkpt>
      <trkpt lat="49.46423" lon="2.05185">
        <ele>70.5</ele>
        <time>2023-06-10T09:19:34Z</time>
      </trkpt>
      <trkpt lat="49.46427" lon="2.05198">
        <ele>70.7</ele>
        <time>2023-06-10T09:19:40Z</time>
      </trkpt>
      <trkpt lat="49.46428" lon="2.05204">
        <ele>70.7</ele>
        <time>2023-06-10T09:19:45Z</time>
      </trkpt>
      <trkpt lat="49.46426" lon="2.05207">
        <ele>70.8</ele>
        <time>2023-06-10T09:19:50Z</time>
      </trkpt>
      <trkpt lat="49.46426" lon="2.0522">
        <ele>71</ele>
        <time>2023-06-10T09:19:56Z</time>
      </trkpt>
      <trkpt lat="49.4643" lon="2.05236">
        <ele>70.8</ele>
        <time>2023-06-10T09:20:02Z</time>
      </trkpt>
      <trkpt lat="49.46435" lon="2.05247">
        <ele>70.4</ele>
        <time>2023-06-10T09:20:07Z</time>
      </trkpt>
      <trkpt lat="49.46436" lon="2.05261">
        <ele>70.3</ele>
        <time>2023-06-10T09:20:13Z</time>
      </trkpt>
      <trkpt lat="49.46437" lon="2.05277">
        <ele>70.3</ele>
        <time>2023-06-10T09:20:19Z</time>
      </trkpt>
      <trkpt lat="49.46436" lon="2.05297">
        <ele>70.3</ele>
        <time>2023-06-10T09:20:24Z</time>
      </trkpt>
      <trkpt lat="49.46436" lon="2.05313">
        <ele>70.2</ele>
        <time>2023-06-10T09:20:29Z</time>
      </trkpt>
      <trkpt lat="49.46434" lon="2.05329">
        <ele>70.1</ele>
        <time>2023-06-10T09:20:35Z</time>
      </trkpt>
      <trkpt lat="49.46433" lon="2.05339">
        <ele>70</ele>
        <time>2023-06-10T09:20:40Z</time>
      </trkpt>
      <trkpt lat="49.46435" lon="2.0535">
        <ele>70</ele>
        <time>2023-06-10T09:20:46Z</time>
      </trkpt>
      <trkpt lat="49.46436" lon="2.05364">
        <ele>70</ele>
        <time>2023-06-10T09:20:52Z</time>
      </trkpt>
      <trkpt lat="49.46437" lon="2.05376">
        <ele>70</ele>
        <time>2023-06-10T09:20:57Z</time>
      </trkpt>
      <trkpt lat="49.46437" lon="2.05388">
        <ele>70</ele>
        <time>2023-06-10T09:21:03Z</time>
      </trkpt>
      <trkpt lat="49.46437" lon="2.05399">
        <ele>70.1</ele>
        <time>2023-06-10T09:21:08Z</time>
      </trkpt>
      <trkpt lat="49.46437" lon="2.05407">
        <ele>70.2</ele>
        <time>2023-06-10T09:21:13Z</time>
      </trkpt>
      <trkpt lat="49.4644" lon="2.05421">
        <ele>70.2</ele>
        <time>2023-06-10T09:21:19Z</time>
      </trkpt>
      <trkpt lat="49.46441" lon="2.05435">
        <ele>70.1</ele>
        <time>2023-06-10T09:21:25Z</time>
      </trkpt>
      <trkpt lat="49.46441" lon="2.05448">
        <ele>70.1</ele>
        <time>2023-06-10T09:21:31Z</time>
      </trkpt>
      <trkpt lat="49.46438" lon="2.05455">
        <ele>70.2</ele>
        <time>2023-06-10T09:21:36Z</time>
      </trkpt>
      <trkpt lat="49.46438" lon="2.05466">
        <ele>70.2</ele>
        <time>2023-06-10T09:21:42Z</time>
      </trkpt>
      <trkpt lat="49.46438" lon="2.05478">
        <ele>70.2</ele>
        <time>2023-06-10T09:21:48Z</time>
      </trkpt>
      <trkpt lat="49.46437" lon="2.05488">
        <ele>70.3</ele>
        <time>2023-06-10T09:21:53Z</time>
      </trkpt>
      <trkpt lat="49.46439" lon="2.05496">
        <ele>70.2</ele>
        <time>2023-06-10T09:21:59Z</time>
      </trkpt>
      <trkpt lat="49.46443" lon="2.05505">
        <ele>70.1</ele>
        <time>2023-06-10T09:22:04Z</time>
      </trkpt>
      <trkpt lat="49.46444" lon="2.05515">
        <ele>70</ele>
        <time>2023-06-10T09:22:10Z</time>
      </trkpt>
      <trkpt lat="49.46444" lon="2.05527">
        <ele>70</ele>
        <time>2023-06-10T09:22:15Z</time>
      </trkpt>
      <trkpt lat="49.46446" lon="2.05542">
        <ele>70</ele>
        <time>2023-06-10T09:22:21Z</time>
      </trkpt>
      <trkpt lat="49.46445" lon="2.05553">
        <ele>70</ele>
        <time>2023-06-10T09:22:26Z</time>
      </trkpt>
      <trkpt lat="49.46443" lon="2.05571">
        <ele>70</ele>
        <time>2023-06-10T09:22:32Z</time>
      </trkpt>
      <trkpt lat="49.46441" lon="2.05594">
        <ele>70</ele>
        <time>2023-06-10T09:22:38Z</time>
      </trkpt>
      <trkpt lat="49.4644" lon="2.05612">
        <ele>70</ele>
        <time>2023-06-10T09:22:43Z</time>
      </trkpt>
      <trkpt lat="49.46441" lon="2.05631">
        <ele>70</ele>
        <time>2023-06-10T09:22:49Z</time>
      </trkpt>
      <trkpt lat="49.46445" lon="2.05641">
        <ele>70</ele>
        <time>2023-06-10T09:22:55Z</time>
      </trkpt>
      <trkpt lat="49.46451" lon="2.05645">
        <ele>70</ele>
        <time>2023-06-10T09:23:01Z</time>
      </trkpt>
      <trkpt lat="49.46455" lon="2.05645">
        <ele>70</ele>
        <time>2023-06-10T09:23:06Z</time>
      </trkpt>
      <trkpt lat="49.4646" lon="2.05647">
        <ele>70</ele>
        <time>2023-06-10T09:23:12Z</time>
      </trkpt>
      <trkpt lat="49.46463" lon="2.05648">
        <ele>70</ele>
        <time>2023-06-10T09:23:17Z</time>
      </trkpt>
      <trkpt lat="49.46463" lon="2.05647">
        <ele>70</ele>
        <time>2023-06-10T09:23:23Z</time>
      </trkpt>
      <trkpt lat="49.46467" lon="2.05646">
        <ele>70</ele>
        <time>2023-06-10T09:23:29Z</time>
      </trkpt>
      <trkpt lat="49.46476" lon="2.05644">
        <ele>70</ele>
        <time>2023-06-10T09:23:34Z</time>
      </trkpt>
      <trkpt lat="49.4648" lon="2.05641">
        <ele>70</ele>
        <time>2023-06-10T09:23:40Z</time>
      </trkpt>
      <trkpt lat="49.46482" lon="2.05637">
        <ele>70</ele>
        <time>2023-06-10T09:23:45Z</time>
      </trkpt>
      <trkpt lat="49.46485" lon="2.05631">
        <ele>70</ele>
        <time>2023-06-10T09:23:51Z</time>
      </trkpt>
      <trkpt lat="49.46488" lon="2.05629">
        <ele>70</ele>
        <time>2023-06-10T09:23:57Z</time>
      </trkpt>
      <trkpt lat="49.46495" lon="2.05624">
        <ele>70</ele>
        <time>2023-06-10T09:24:02Z</time>
      </trkpt>
      <trkpt lat="49.46505" lon="2.05617">
        <ele>70</ele>
        <time>2023-06-10T09:24:07Z</time>
      </trkpt>
      <trkpt lat="49.46517" lon="2.05604">
        <ele>70</ele>
        <time>2023-06-10T09:24:13Z</time>
      </trkpt>
      <trkpt lat="49.4653" lon="2.05592">
        <ele>70</ele>
        <time>2023-06-10T09:24:19Z</time>
      </trkpt>
      <trkpt lat="49.46542" lon="2.05582">
        <ele>70</ele>
        <time>2023-06-10T09:24:25Z</time>
      </trkpt>
      <trkpt lat="49.46552" lon="2.05575">
        <ele>70</ele>
        <time>2023-06-10T09:24:30Z</time>
      </trkpt>
      <trkpt lat="49.4656" lon="2.05564">
        <ele>70</ele>
        <time>2023-06-10T09:24:36Z</time>
      </trkpt>
      <trkpt lat="49.46567" lon="2.05554">
        <ele>70</ele>
        <time>2023-06-10T09:24:42Z</time>
      </trkpt>
      <trkpt lat="49.46573" lon="2.05543">
        <ele>70</ele>
        <time>2023-06-10T09:24:48Z</time>
      </trkpt>
      <trkpt lat="49.46576" lon="2.05533">
        <ele>70</ele>
        <time>2023-06-10T09:24:54Z</time>
      </trkpt>
      <trkpt lat="49.4658" lon="2.05521">
        <ele>70</ele>
        <time>2023-06-10T09:25:00Z</time>
      </trkpt>
      <trkpt lat="49.46584" lon="2.05507">
        <ele>70</ele>
        <time>2023-06-10T09:25:06Z</time>
      </trkpt>
      <trkpt lat="49.46587" lon="2.05496">
        <ele>70.1</ele>
        <time>2023-06-10T09:25:11Z</time>
      </trkpt>
      <trkpt lat="49.46592" lon="2.05485">
        <ele>70.1</ele>
        <time>2023-06-10T09:25:17Z</time>
      </trkpt>
      <trkpt lat="49.46597" lon="2.05475">
        <ele>70</ele>
        <time>2023-06-10T09:25:22Z</time>
      </trkpt>
      <trkpt lat="49.46601" lon="2.05467">
        <ele>70</ele>
        <time>2023-06-10T09:25:27Z</time>
      </trkpt>
      <trkpt lat="49.46604" lon="2.05459">
        <ele>70</ele>
        <time>2023-06-10T09:25:32Z</time>
      </trkpt>
      <trkpt lat="49.46606" lon="2.05451">
        <ele>70</ele>
        <time>2023-06-10T09:25:38Z</time>
      </trkpt>
      <trkpt lat="49.46606" lon="2.05438">
        <ele>70.2</ele>
        <time>2023-06-10T09:25:44Z</time>
      </trkpt>
      <trkpt lat="49.46606" lon="2.05424">
        <ele>70.6</ele>
        <time>2023-06-10T09:25:50Z</time>
      </trkpt>
      <trkpt lat="49.46606" lon="2.05414">
        <ele>70.8</ele>
        <time>2023-06-10T09:25:55Z</time>
      </trkpt>
      <trkpt lat="49.46605" lon="2.05406">
        <ele>70.8</ele>
        <time>2023-06-10T09:26:00Z</time>
      </trkpt>
      <trkpt lat="49.46601" lon="2.05392">
        <ele>70.6</ele>
        <time>2023-06-10T09:26:06Z</time>
      </trkpt>
      <trkpt lat="49.46598" lon="2.05383">
        <ele>70.7</ele>
        <time>2023-06-10T09:26:11Z</time>
      </trkpt>
      <trkpt lat="49.46595" lon="2.05376">
        <ele>70.9</ele>
        <time>2023-06-10T09:26:17Z</time>
      </trkpt>
      <trkpt lat="49.46593" lon="2.05369">
        <ele>71.1</ele>
        <time>2023-06-10T09:26:22Z</time>
      </trkpt>
      <trkpt lat="49.46593" lon="2.05355">
        <ele>71.4</ele>
        <time>2023-06-10T09:26:28Z</time>
      </trkpt>
      <trkpt lat="49.46594" lon="2.05342">
        <ele>71.4</ele>
        <time>2023-06-10T09:26:33Z</time>
      </trkpt>
      <trkpt lat="49.46596" lon="2.05326">
        <ele>71.2</ele>
        <time>2023-06-10T09:26:39Z</time>
      </trkpt>
      <trkpt lat="49.46601" lon="2.05314">
        <ele>70.9</ele>
        <time>2023-06-10T09:26:44Z</time>
      </trkpt>
      <trkpt lat="49.46607" lon="2.05302">
        <ele>70.7</ele>
        <time>2023-06-10T09:26:50Z</time>
      </trkpt>
      <trkpt lat="49.46611" lon="2.05291">
        <ele>70.5</ele>
        <time>2023-06-10T09:26:55Z</time>
      </trkpt>
      <trkpt lat="49.46616" lon="2.05279">
        <ele>70.2</ele>
        <time>2023-06-10T09:27:01Z</time>
      </trkpt>
      <trkpt lat="49.46618" lon="2.0527">
        <ele>70.2</ele>
        <time>2023-06-10T09:27:06Z</time>
      </trkpt>
      <trkpt lat="49.46622" lon="2.0526">
        <ele>70.2</ele>
        <time>2023-06-10T09:27:12Z</time>
      </trkpt>
      <trkpt lat="49.46629" lon="2.05253">
        <ele>70.1</ele>
        <time>2023-06-10T09:27:17Z</time>
      </trkpt>
      <trkpt lat="49.46635" lon="2.05243">
        <ele>70</ele>
        <time>2023-06-10T09:27:22Z</time>
      </trkpt>
      <trkpt lat="49.46642" lon="2.05235">
        <ele>70.1</ele>
        <time>2023-06-10T09:27:27Z</time>
      </trkpt>
      <trkpt lat="49.46652" lon="2.05228">
        <ele>70.5</ele>
        <time>2023-06-10T09:27:33Z</time>
      </trkpt>
      <trkpt lat="49.46659" lon="2.0522">
        <ele>70.7</ele>
        <time>2023-06-10T09:27:39Z</time>
      </trkpt>
      <trkpt lat="49.46663" lon="2.05214">
        <ele>70.6</ele>
        <time>2023-06-10T09:27:44Z</time>
      </trkpt>
      <trkpt lat="49.46669" lon="2.05205">
        <ele>70.4</ele>
        <time>2023-06-10T09:27:50Z</time>
      </trkpt>
      <trkpt lat="49.46678" lon="2.05201">
        <ele>70.5</ele>
        <time>2023-06-10T09:27:56Z</time>
      </trkpt>
      <trkpt lat="49.46685" lon="2.05196">
        <ele>70.7</ele>
        <time>2023-06-10T09:28:02Z</time>
      </trkpt>
      <trkpt lat="49.4669" lon="2.05191">
        <ele>70.8</ele>
        <time>2023-06-10T09:28:07Z</time>
      </trkpt>
      <trkpt lat="49.46695" lon="2.05186">
        <ele>71</ele>
        <time>2023-06-10T09:28:12Z</time>
      </trkpt>
      <trkpt lat="49.467" lon="2.0518">
        <ele>71</ele>
        <time>2023-06-10T09:28:17Z</time>
      </trkpt>
      <trkpt lat="49.46705" lon="2.05175">
        <ele>71</ele>
        <time>2023-06-10T09:28:22Z</time>
      </trkpt>
      <trkpt lat="49.46712" lon="2.05168">
        <ele>71</ele>
        <time>2023-06-10T09:28:28Z</time>
      </trkpt>
      <trkpt lat="49.46716" lon="2.05164">
        <ele>71</ele>
        <time>2023-06-10T09:28:34Z</time>
      </trkpt>
      <trkpt lat="49.46723" lon="2.05159">
        <ele>71</ele>
        <time>2023-06-10T09:28:40Z</time>
      </trkpt>
      <trkpt lat="49.46729" lon="2.05154">
        <ele>71</ele>
        <time>2023-06-10T09:28:45Z</time>
      </trkpt>
      <trkpt lat="49.46736" lon="2.05149">
        <ele>71</ele>
        <time>2023-06-10T09:28:50Z</time>
      </trkpt>
      <trkpt lat="49.46749" lon="2.05141">
        <ele>71</ele>
        <time>2023-06-10T09:28:56Z</time>
      </trkpt>
      <trkpt lat="49.4676" lon="2.05131">
        <ele>71</ele>
        <time>2023-06-10T09:29:02Z</time>
      </trkpt>
      <trkpt lat="49.46766" lon="2.05124">
        <ele>71</ele>
        <time>2023-06-10T09:29:08Z</time>
      </trkpt>
      <trkpt lat="49.46771" lon="2.05118">
        <ele>71</ele>
        <time>2023-06-10T09:29:14Z</time>
      </trkpt>
      <trkpt lat="49.46775" lon="2.05114">
        <ele>71</ele>
        <time>2023-06-10T09:29:19Z</time>
      </trkpt>
      <trkpt lat="49.46777" lon="2.0511">
        <ele>71</ele>
        <time>2023-06-10T09:29:24Z</time>
      </trkpt>
      <trkpt lat="49.46783" lon="2.05101">
        <ele>71</ele>
        <time>2023-06-10T09:29:30Z</time>
      </trkpt>
      <trkpt lat="49.46796" lon="2.0509">
        <ele>71</ele>
        <time>2023-06-10T09:29:36Z</time>
      </trkpt>
      <trkpt lat="49.46804" lon="2.05078">
        <ele>71</ele>
        <time>2023-06-10T09:29:41Z</time>
      </trkpt>
      <trkpt lat="49.46813" lon="2.05064">
        <ele>71</ele>
        <time>2023-06-10T09:29:46Z</time>
      </trkpt>
      <trkpt lat="49.46823" lon="2.05051">
        <ele>70.9</ele>
        <time>2023-06-10T09:29:52Z</time>
      </trkpt>
      <trkpt lat="49.4683" lon="2.05044">
        <ele>71</ele>
        <time>2023-06-10T09:29:57Z</time>
      </trkpt>
      <trkpt lat="49.46836" lon="2.05038">
        <ele>71</ele>
        <time>2023-06-10T09:30:02Z</time>
      </trkpt>
      <trkpt lat="49.46842" lon="2.05033">
        <ele>71</ele>
        <time>2023-06-10T09:30:07Z</time>
      </trkpt>
      <trkpt lat="49.46844" lon="2.05022">
        <ele>71.1</ele>
        <time>2023-06-10T09:30:13Z</time>
      </trkpt>
      <trkpt lat="49.46845" lon="2.0501">
        <ele>71.3</ele>
        <time>2023-06-10T09:30:18Z</time>
      </trkpt>
      <trkpt lat="49.46846" lon="2.04991">
        <ele>71.3</ele>
        <time>2023-06-10T09:30:24Z</time>
      </trkpt>
      <trkpt lat="49.46849" lon="2.04972">
        <ele>71</ele>
        <time>2023-06-10T09:30:30Z</time>
      </trkpt>
      <trkpt lat="49.46849" lon="2.04957">
        <ele>71</ele>
        <time>2023-06-10T09:30:35Z</time>
      </trkpt>
      <trkpt lat="49.46848" lon="2.04941">
        <ele>71</ele>
        <time>2023-06-10T09:30:41Z</time>
      </trkpt>
      <trkpt lat="49.46848" lon="2.04927">
        <ele>71</ele>
        <time>2023-06-10T09:30:47Z</time>
      </trkpt>
      <trkpt lat="49.46849" lon="2.04914">
        <ele>71</ele>
        <time>2023-06-10T09:30:52Z</time>
      </trkpt>
      <trkpt lat="49.46849" lon="2.04898">
        <ele>71</ele>
        <time>2023-06-10T09:30:58Z</time>
      </trkpt>
      <trkpt lat="49.4685" lon="2.0488">
        <ele>71.3</ele>
        <time>2023-06-10T09:31:04Z</time>
      </trkpt>
      <trkpt lat="49.46854" lon="2.0487">
        <ele>71.7</ele>
        <time>2023-06-10T09:31:09Z</time>
      </trkpt>
      <trkpt lat="49.46861" lon="2.04862">
        <ele>72</ele>
        <time>2023-06-10T09:31:15Z</time>
      </trkpt>
      <trkpt lat="49.46866" lon="2.04854">
        <ele>71.7</ele>
        <time>2023-06-10T09:31:21Z</time>
      </trkpt>
      <trkpt lat="49.46873" lon="2.04846">
        <ele>71.5</ele>
        <time>2023-06-10T09:31:27Z</time>
      </trkpt>
      <trkpt lat="49.46881" lon="2.04841">
        <ele>71.6</ele>
        <time>2023-06-10T09:31:32Z</time>
      </trkpt>
      <trkpt lat="49.4689" lon="2.04835">
        <ele>71.9</ele>
        <time>2023-06-10T09:31:38Z</time>
      </trkpt>
      <trkpt lat="49.46899" lon="2.04827">
        <ele>71.8</ele>
        <time>2023-06-10T09:31:44Z</time>
      </trkpt>
      <trkpt lat="49.46906" lon="2.04819">
        <ele>71.5</ele>
        <time>2023-06-10T09:31:49Z</time>
      </trkpt>
      <trkpt lat="49.46913" lon="2.04811">
        <ele>71.2</ele>
        <time>2023-06-10T09:31:54Z</time>
      </trkpt>
      <trkpt lat="49.4692" lon="2.04799">
        <ele>71.1</ele>
        <time>2023-06-10T09:32:00Z</time>
      </trkpt>
      <trkpt lat="49.46926" lon="2.0479">
        <ele>71.3</ele>
        <time>2023-06-10T09:32:05Z</time>
      </trkpt>
      <trkpt lat="49.46931" lon="2.04778">
        <ele>71.5</ele>
        <time>2023-06-10T09:32:11Z</time>
      </trkpt>
      <trkpt lat="49.46938" lon="2.04766">
        <ele>71.8</ele>
        <time>2023-06-10T09:32:17Z</time>
      </trkpt>
      <trkpt lat="49.46943" lon="2.04757">
        <ele>72</ele>
        <time>2023-06-10T09:32:22Z</time>
      </trkpt>
      <trkpt lat="49.4695" lon="2.0475">
        <ele>72</ele>
        <time>2023-06-10T09:32:27Z</time>
      </trkpt>
      <trkpt lat="49.46957" lon="2.04739">
        <ele>72</ele>
        <time>2023-06-10T09:32:33Z</time>
      </trkpt>
      <trkpt lat="49.46962" lon="2.04728">
        <ele>72</ele>
        <time>2023-06-10T09:32:39Z</time>
      </trkpt>
      <trkpt lat="49.46969" lon="2.04716">
        <ele>72</ele>
        <time>2023-06-10T09:32:45Z</time>
      </trkpt>
      <trkpt lat="49.46973" lon="2.04707">
        <ele>72</ele>
        <time>2023-06-10T09:32:50Z</time>
      </trkpt>
      <trkpt lat="49.46978" lon="2.04694">
        <ele>72</ele>
        <time>2023-06-10T09:32:56Z</time>
      </trkpt>
      <trkpt lat="49.46981" lon="2.0468">
        <ele>72</ele>
        <time>2023-06-10T09:33:02Z</time>
      </trkpt>
      <trkpt lat="49.46984" lon="2.04667">
        <ele>72</ele>
        <time>2023-06-10T09:33:07Z</time>
      </trkpt>
      <trkpt lat="49.46986" lon="2.04653">
        <ele>71.8</ele>
        <time>2023-06-10T09:33:13Z</time>
      </trkpt>
      <trkpt lat="49.46988" lon="2.04643">
        <ele>71.6</ele>
        <time>2023-06-10T09:33:18Z</time>
      </trkpt>
      <trkpt lat="49.46991" lon="2.0463">
        <ele>71.7</ele>
        <time>2023-06-10T09:33:24Z</time>
      </trkpt>
      <trkpt lat="49.46994" lon="2.04619">
        <ele>71.8</ele>
        <time>2023-06-10T09:33:29Z</time>
      </trkpt>
      <trkpt lat="49.46998" lon="2.04609">
        <ele>71.9</ele>
        <time>2023-06-10T09:33:34Z</time>
      </trkpt>
      <trkpt lat="49.47002" lon="2.04599">
        <ele>72</ele>
        <time>2023-06-10T09:33:40Z</time>
      </trkpt>
      <trkpt lat="49.47007" lon="2.0459">
        <ele>72</ele>
        <time>2023-06-10T09:33:45Z</time>
      </trkpt>
      <trkpt lat="49.47014" lon="2.0458">
        <ele>71.9</ele>
        <time>2023-06-10T09:33:51Z</time>
      </trkpt>
      <trkpt lat="49.4702" lon="2.04573">
        <ele>71.9</ele>
        <time>2023-06-10T09:33:56Z</time>
      </trkpt>
      <trkpt lat="49.47028" lon="2.04561">
        <ele>72</ele>
        <time>2023-06-10T09:34:02Z</time>
      </trkpt>
      <trkpt lat="49.47034" lon="2.0455">
        <ele>72</ele>
        <time>2023-06-10T09:34:07Z</time>
      </trkpt>
      <trkpt lat="49.47038" lon="2.04538">
        <ele>72</ele>
        <time>2023-06-10T09:34:12Z</time>
      </trkpt>
      <trkpt lat="49.47042" lon="2.04527">
        <ele>72</ele>
        <time>2023-06-10T09:34:17Z</time>
      </trkpt>
      <trkpt lat="49.47047" lon="2.04517">
        <ele>72</ele>
        <time>2023-06-10T09:34:23Z</time>
      </trkpt>
      <trkpt lat="49.47051" lon="2.04509">
        <ele>72</ele>
        <time>2023-06-10T09:34:28Z</time>
      </trkpt>
      <trkpt lat="49.47056" lon="2.04499">
        <ele>72</ele>
        <time>2023-06-10T09:34:34Z</time>
      </trkpt>
      <trkpt lat="49.4706" lon="2.04492">
        <ele>72</ele>
        <time>2023-06-10T09:34:39Z</time>
      </trkpt>
      <trkpt lat="49.47064" lon="2.04484">
        <ele>72</ele>
        <time>2023-06-10T09:34:44Z</time>
      </trkpt>
      <trkpt lat="49.4707" lon="2.04473">
        <ele>72</ele>
        <time>2023-06-10T09:34:50Z</time>
      </trkpt>
      <trkpt lat="49.47074" lon="2.04461">
        <ele>71.9</ele>
        <time>2023-06-10T09:34:55Z</time>
      </trkpt>
      <trkpt lat="49.47079" lon="2.04451">
        <ele>71.9</ele>
        <time>2023-06-10T09:35:00Z</time>
      </trkpt>
      <trkpt lat="49.47084" lon="2.04441">
        <ele>72</ele>
        <time>2023-06-10T09:35:06Z</time>
      </trkpt>
      <trkpt lat="49.4709" lon="2.04431">
        <ele>72</ele>
        <time>2023-06-10T09:35:12Z</time>
      </trkpt>
      <trkpt lat="49.47094" lon="2.04422">
        <ele>72</ele>
        <time>2023-06-10T09:35:17Z</time>
      </trkpt>
      <trkpt lat="49.47098" lon="2.04411">
        <ele>72</ele>
        <time>2023-06-10T09:35:23Z</time>
      </trkpt>
      <trkpt lat="49.47102" lon="2.04401">
        <ele>72</ele>
        <time>2023-06-10T09:35:28Z</time>
      </trkpt>
      <trkpt lat="49.47107" lon="2.04389">
        <ele>72</ele>
        <time>2023-06-10T09:35:34Z</time>
      </trkpt>
      <trkpt lat="49.47111" lon="2.04381">
        <ele>72.3</ele>
        <time>2023-06-10T09:35:39Z</time>
      </trkpt>
      <trkpt lat="49.47117" lon="2.04369">
        <ele>72.6</ele>
        <time>2023-06-10T09:35:45Z</time>
      </trkpt>
      <trkpt lat="49.47121" lon="2.04358">
        <ele>72.6</ele>
        <time>2023-06-10T09:35:51Z</time>
      </trkpt>
      <trkpt lat="49.47126" lon="2.04346">
        <ele>72.5</ele>
        <time>2023-06-10T09:35:57Z</time>
      </trkpt>
      <trkpt lat="49.47133" lon="2.04336">
        <ele>72.2</ele>
        <time>2023-06-10T09:36:03Z</time>
      </trkpt>
      <trkpt lat="49.4714" lon="2.04327">
        <ele>72</ele>
        <time>2023-06-10T09:36:08Z</time>
      </trkpt>
      <trkpt lat="49.47148" lon="2.04318">
        <ele>72</ele>
        <time>2023-06-10T09:36:14Z</time>
      </trkpt>
      <trkpt lat="49.47155" lon="2.0431">
        <ele>72</ele>
        <time>2023-06-10T09:36:20Z</time>
      </trkpt>
      <trkpt lat="49.47162" lon="2.04301">
        <ele>72</ele>
        <time>2023-06-10T09:36:26Z</time>
      </trkpt>
      <trkpt lat="49.47169" lon="2.04293">
        <ele>72</ele>
        <time>2023-06-10T09:36:32Z</time>
      </trkpt>
      <trkpt lat="49.47175" lon="2.04287">
        <ele>72.1</ele>
        <time>2023-06-10T09:36:37Z</time>
      </trkpt>
      <trkpt lat="49.47181" lon="2.04281">
        <ele>72.1</ele>
        <time>2023-06-10T09:36:43Z</time>
      </trkpt>
      <trkpt lat="49.47188" lon="2.04278">
        <ele>72</ele>
        <time>2023-06-10T09:36:48Z</time>
      </trkpt>
      <trkpt lat="49.47197" lon="2.0427">
        <ele>72.1</ele>
        <time>2023-06-10T09:36:54Z</time>
      </trkpt>
      <trkpt lat="49.47206" lon="2.04259">
        <ele>72.4</ele>
        <time>2023-06-10T09:37:00Z</time>
      </trkpt>
      <trkpt lat="49.4721" lon="2.04253">
        <ele>72.6</ele>
        <time>2023-06-10T09:37:05Z</time>
      </trkpt>
      <trkpt lat="49.47214" lon="2.04246">
        <ele>72.7</ele>
        <time>2023-06-10T09:37:10Z</time>
      </trkpt>
      <trkpt lat="49.47218" lon="2.04236">
        <ele>72.9</ele>
        <time>2023-06-10T09:37:16Z</time>
      </trkpt>
      <trkpt lat="49.47222" lon="2.04224">
        <ele>73</ele>
        <time>2023-06-10T09:37:22Z</time>
      </trkpt>
      <trkpt lat="49.47226" lon="2.04215">
        <ele>73</ele>
        <time>2023-06-10T09:37:27Z</time>
      </trkpt>
      <trkpt lat="49.4723" lon="2.04205">
        <ele>73</ele>
        <time>2023-06-10T09:37:32Z</time>
      </trkpt>
      <trkpt lat="49.47234" lon="2.04192">
        <ele>72.9</ele>
        <time>2023-06-10T09:37:37Z</time>
      </trkpt>
      <trkpt lat="49.47237" lon="2.04178">
        <ele>72.7</ele>
        <time>2023-06-10T09:37:42Z</time>
      </trkpt>
      <trkpt lat="49.47242" lon="2.04163">
        <ele>72.7</ele>
        <time>2023-06-10T09:37:48Z</time>
      </trkpt>
      <trkpt lat="49.47246" lon="2.04152">
        <ele>72.9</ele>
        <time>2023-06-10T09:37:53Z</time>
      </trkpt>
      <trkpt lat="49.47251" lon="2.04141">
        <ele>73</ele>
        <time>2023-06-10T09:37:58Z</time>
      </trkpt>
      <trkpt lat="49.47255" lon="2.04131">
        <ele>72.8</ele>
        <time>2023-06-10T09:38:03Z</time>
      </trkpt>
      <trkpt lat="49.47259" lon="2.04119">
        <ele>72.5</ele>
        <time>2023-06-10T09:38:09Z</time>
      </trkpt>
      <trkpt lat="49.47264" lon="2.04109">
        <ele>72.5</ele>
        <time>2023-06-10T09:38:14Z</time>
      </trkpt>
      <trkpt lat="49.47268" lon="2.04098">
        <ele>72.8</ele>
        <time>2023-06-10T09:38:20Z</time>
      </trkpt>
      <trkpt lat="49.47272" lon="2.04089">
        <ele>73</ele>
        <time>2023-06-10T09:38:26Z</time>
      </trkpt>
      <trkpt lat="49.47275" lon="2.04082">
        <ele>72.9</ele>
        <time>2023-06-10T09:38:32Z</time>
      </trkpt>
      <trkpt lat="49.47279" lon="2.04074">
        <ele>72.6</ele>
        <time>2023-06-10T09:38:37Z</time>
      </trkpt>
      <trkpt lat="49.47282" lon="2.04065">
        <ele>72.3</ele>
        <time>2023-06-10T09:38:43Z</time>
      </trkpt>
      <trkpt lat="49.47285" lon="2.04054">
        <ele>72</ele>
        <time>2023-06-10T09:38:49Z</time>
      </trkpt>
      <trkpt lat="49.4729" lon="2.04045">
        <ele>72</ele>
        <time>2023-06-10T09:38:54Z</time>
      </trkpt>
      <trkpt lat="49.47294" lon="2.04032">
        <ele>72</ele>
        <time>2023-06-10T09:39:00Z</time>
      </trkpt>
      <trkpt lat="49.47296" lon="2.0402">
        <ele>72.2</ele>
        <time>2023-06-10T09:39:06Z</time>
      </trkpt>
      <trkpt lat="49.47298" lon="2.04009">
        <ele>72.5</ele>
        <time>2023-06-10T09:39:11Z</time>
      </trkpt>
      <trkpt lat="49.47301" lon="2.03999">
        <ele>72.8</ele>
        <time>2023-06-10T09:39:16Z</time>
      </trkpt>
      <trkpt lat="49.47305" lon="2.03988">
        <ele>72.6</ele>
        <time>2023-06-10T09:39:22Z</time>
      </trkpt>
      <trkpt lat="49.47307" lon="2.03976">
        <ele>72.1</ele>
        <time>2023-06-10T09:39:27Z</time>
      </trkpt>
      <trkpt lat="49.47308" lon="2.03963">
        <ele>72</ele>
        <time>2023-06-10T09:39:32Z</time>
      </trkpt>
      <trkpt lat="49.47309" lon="2.03949">
        <ele>72</ele>
        <time>2023-06-10T09:39:38Z</time>
      </trkpt>
      <trkpt lat="49.47312" lon="2.03935">
        <ele>72</ele>
        <time>2023-06-10T09:39:44Z</time>
      </trkpt>
      <trkpt lat="49.47316" lon="2.03923">
        <ele>72</ele>
        <time>2023-06-10T09:39:50Z</time>
      </trkpt>
      <trkpt lat="49.4732" lon="2.03912">
        <ele>72.1</ele>
        <time>2023-06-10T09:39:55Z</time>
      </trkpt>
      <trkpt lat="49.47325" lon="2.03898">
        <ele>72.5</ele>
        <time>2023-06-10T09:40:01Z</time>
      </trkpt>
      <trkpt lat="49.47328" lon="2.03886">
        <ele>72.7</ele>
        <time>2023-06-10T09:40:06Z</time>
      </trkpt>
      <trkpt lat="49.47331" lon="2.03873">
        <ele>72.4</ele>
        <time>2023-06-10T09:40:12Z</time>
      </trkpt>
      <trkpt lat="49.47333" lon="2.03862">
        <ele>72</ele>
        <time>2023-06-10T09:40:17Z</time>
      </trkpt>
      <trkpt lat="49.47335" lon="2.03852">
        <ele>72.3</ele>
        <time>2023-06-10T09:40:22Z</time>
      </trkpt>
      <trkpt lat="49.47336" lon="2.03842">
        <ele>72.6</ele>
        <time>2023-06-10T09:40:28Z</time>
      </trkpt>
      <trkpt lat="49.47335" lon="2.03835">
        <ele>72.9</ele>
        <time>2023-06-10T09:40:33Z</time>
      </trkpt>
      <trkpt lat="49.47334" lon="2.0383">
        <ele>72.9</ele>
        <time>2023-06-10T09:40:39Z</time>
      </trkpt>
      <trkpt lat="49.47331" lon="2.03824">
        <ele>72.6</ele>
        <time>2023-06-10T09:40:44Z</time>
      </trkpt>
      <trkpt lat="49.47326" lon="2.03817">
        <ele>72.3</ele>
        <time>2023-06-10T09:40:50Z</time>
      </trkpt>
      <trkpt lat="49.47318" lon="2.03807">
        <ele>72</ele>
        <time>2023-06-10T09:40:55Z</time>
      </trkpt>
      <trkpt lat="49.47308" lon="2.03792">
        <ele>72</ele>
        <time>2023-06-10T09:41:01Z</time>
      </trkpt>
      <trkpt lat="49.47299" lon="2.0378">
        <ele>72</ele>
        <time>2023-06-10T09:41:06Z</time>
      </trkpt>
      <trkpt lat="49.47292" lon="2.0377">
        <ele>72</ele>
        <time>2023-06-10T09:41:11Z</time>
      </trkpt>
      <trkpt lat="49.47285" lon="2.03761">
        <ele>72</ele>
        <time>2023-06-10T09:41:17Z</time>
      </trkpt>
      <trkpt lat="49.4728" lon="2.03753">
        <ele>72</ele>
        <time>2023-06-10T09:41:22Z</time>
      </trkpt>
      <trkpt lat="49.47274" lon="2.03742">
        <ele>72</ele>
        <time>2023-06-10T09:41:27Z</time>
      </trkpt>
      <trkpt lat="49.47268" lon="2.03731">
        <ele>72</ele>
        <time>2023-06-10T09:41:33Z</time>
      </trkpt>
      <trkpt lat="49.47264" lon="2.03724">
        <ele>72</ele>
        <time>2023-06-10T09:41:38Z</time>
      </trkpt>
      <trkpt lat="49.47259" lon="2.03714">
        <ele>72</ele>
        <time>2023-06-10T09:41:44Z</time>
      </trkpt>
      <trkpt lat="49.47254" lon="2.03705">
        <ele>72</ele>
        <time>2023-06-10T09:41:49Z</time>
      </trkpt>
      <trkpt lat="49.47248" lon="2.03696">
        <ele>71.9</ele>
        <time>2023-06-10T09:41:55Z</time>
      </trkpt>
      <trkpt lat="49.47244" lon="2.03695">
        <ele>71.8</ele>
        <time>2023-06-10T09:42:00Z</time>
      </trkpt>
      <trkpt lat="49.47242" lon="2.03694">
        <ele>71.7</ele>
        <time>2023-06-10T09:42:05Z</time>
      </trkpt>
      <trkpt lat="49.47236" lon="2.03684">
        <ele>71.7</ele>
        <time>2023-06-10T09:42:11Z</time>
      </trkpt>
      <trkpt lat="49.47229" lon="2.03671">
        <ele>71.9</ele>
        <time>2023-06-10T09:42:17Z</time>
      </trkpt>
      <trkpt lat="49.47224" lon="2.03663">
        <ele>72</ele>
        <time>2023-06-10T09:42:22Z</time>
      </trkpt>
      <trkpt lat="49.47219" lon="2.03651">
        <ele>72</ele>
        <time>2023-06-10T09:42:27Z</time>
      </trkpt>
      <trkpt lat="49.47216" lon="2.03645">
        <ele>72</ele>
        <time>2023-06-10T09:42:32Z</time>
      </trkpt>
      <trkpt lat="49.47212" lon="2.03637">
        <ele>72</ele>
        <time>2023-06-10T09:42:37Z</time>
      </trkpt>
      <trkpt lat="49.47207" lon="2.03629">
        <ele>72</ele>
        <time>2023-06-10T09:42:42Z</time>
      </trkpt>
      <trkpt lat="49.47199" lon="2.03619">
        <ele>72</ele>
        <time>2023-06-10T09:42:48Z</time>
      </trkpt>
      <trkpt lat="49.4719" lon="2.03608">
        <ele>72</ele>
        <time>2023-06-10T09:42:53Z</time>
      </trkpt>
      <trkpt lat="49.47182" lon="2.03599">
        <ele>72.2</ele>
        <time>2023-06-10T09:42:58Z</time>
      </trkpt>
      <trkpt lat="49.47171" lon="2.03587">
        <ele>72.7</ele>
        <time>2023-06-10T09:43:04Z</time>
      </trkpt>
      <trkpt lat="49.47161" lon="2.03576">
        <ele>73.4</ele>
        <time>2023-06-10T09:43:10Z</time>
      </trkpt>
      <trkpt lat="49.47157" lon="2.03567">
        <ele>73.7</ele>
        <time>2023-06-10T09:43:15Z</time>
      </trkpt>
      <trkpt lat="49.47154" lon="2.03556">
        <ele>74</ele>
        <time>2023-06-10T09:43:21Z</time>
      </trkpt>
      <trkpt lat="49.47148" lon="2.03548">
        <ele>74.2</ele>
        <time>2023-06-10T09:43:26Z</time>
      </trkpt>
      <trkpt lat="49.47139" lon="2.0354">
        <ele>74.5</ele>
        <time>2023-06-10T09:43:32Z</time>
      </trkpt>
      <trkpt lat="49.47132" lon="2.0354">
        <ele>77</ele>
        <time>2023-06-10T09:43:37Z</time>
      </trkpt>
      <trkpt lat="49.47129" lon="2.03544">
        <ele>77.5</ele>
        <time>2023-06-10T09:43:43Z</time>
      </trkpt>
      <trkpt lat="49.47126" lon="2.03544">
        <ele>78.4</ele>
        <time>2023-06-10T09:43:49Z</time>
      </trkpt>
      <trkpt lat="49.47123" lon="2.03543">
        <ele>79.5</ele>
        <time>2023-06-10T09:43:54Z</time>
      </trkpt>
      <trkpt lat="49.47119" lon="2.03542">
        <ele>81.1</ele>
        <time>2023-06-10T09:44:00Z</time>
      </trkpt>
      <trkpt lat="49.47116" lon="2.03544">
        <ele>81.4</ele>
        <time>2023-06-10T09:44:05Z</time>
      </trkpt>
      <trkpt lat="49.47109" lon="2.03546">
        <ele>82.7</ele>
        <time>2023-06-10T09:44:11Z</time>
      </trkpt>
      <trkpt lat="49.47102" lon="2.03547">
        <ele>84.4</ele>
        <time>2023-06-10T09:44:17Z</time>
      </trkpt>
      <trkpt lat="49.47098" lon="2.03548">
        <ele>85.3</ele>
        <time>2023-06-10T09:44:23Z</time>
      </trkpt>
      <trkpt lat="49.47094" lon="2.03547">
        <ele>86.7</ele>
        <time>2023-06-10T09:44:28Z</time>
      </trkpt>
      <trkpt lat="49.4709" lon="2.03547">
        <ele>87.8</ele>
        <time>2023-06-10T09:44:33Z</time>
      </trkpt>
      <trkpt lat="49.47085" lon="2.03548">
        <ele>88.8</ele>
        <time>2023-06-10T09:44:39Z</time>
      </trkpt>
      <trkpt lat="49.47083" lon="2.03553">
        <ele>87.3</ele>
        <time>2023-06-10T09:44:45Z</time>
      </trkpt>
      <trkpt lat="49.4708" lon="2.03558">
        <ele>86</ele>
        <time>2023-06-10T09:44:51Z</time>
      </trkpt>
      <trkpt lat="49.47075" lon="2.03557">
        <ele>88</ele>
        <time>2023-06-10T09:44:57Z</time>
      </trkpt>
      <trkpt lat="49.47071" lon="2.03557">
        <ele>89.5</ele>
        <time>2023-06-10T09:45:03Z</time>
      </trkpt>
      <trkpt lat="49.47068" lon="2.03559">
        <ele>89.7</ele>
        <time>2023-06-10T09:45:08Z</time>
      </trkpt>
      <trkpt lat="49.47065" lon="2.03561">
        <ele>89.6</ele>
        <time>2023-06-10T09:45:14Z</time>
      </trkpt>
      <trkpt lat="49.47062" lon="2.03564">
        <ele>89.5</ele>
        <time>2023-06-10T09:45:20Z</time>
      </trkpt>
      <trkpt lat="49.47059" lon="2.03565">
        <ele>89.6</ele>
        <time>2023-06-10T09:45:25Z</time>
      </trkpt>
      <trkpt lat="49.47057" lon="2.03567">
        <ele>89.8</ele>
        <time>2023-06-10T09:45:31Z</time>
      </trkpt>
      <trkpt lat="49.47054" lon="2.0357">
        <ele>89.2</ele>
        <time>2023-06-10T09:45:37Z</time>
      </trkpt>
      <trkpt lat="49.47049" lon="2.03572">
        <ele>89.3</ele>
        <time>2023-06-10T09:45:42Z</time>
      </trkpt>
      <trkpt lat="49.47045" lon="2.03571">
        <ele>91.1</ele>
        <time>2023-06-10T09:45:47Z</time>
      </trkpt>
      <trkpt lat="49.47038" lon="2.03568">
        <ele>94</ele>
        <time>2023-06-10T09:45:53Z</time>
      </trkpt>
      <trkpt lat="49.47033" lon="2.03568">
        <ele>95.6</ele>
        <time>2023-06-10T09:45:58Z</time>
      </trkpt>
      <trkpt lat="49.47029" lon="2.03566">
        <ele>97.5</ele>
        <time>2023-06-10T09:46:03Z</time>
      </trkpt>
      <trkpt lat="49.47026" lon="2.03564">
        <ele>99.2</ele>
        <time>2023-06-10T09:46:09Z</time>
      </trkpt>
      <trkpt lat="49.47023" lon="2.03565">
        <ele>99.8</ele>
        <time>2023-06-10T09:46:14Z</time>
      </trkpt>
      <trkpt lat="49.47019" lon="2.03567">
        <ele>99.8</ele>
        <time>2023-06-10T09:46:19Z</time>
      </trkpt>
      <trkpt lat="49.47014" lon="2.03565">
        <ele>102</ele>
        <time>2023-06-10T09:46:25Z</time>
      </trkpt>
      <trkpt lat="49.47008" lon="2.03564">
        <ele>104.2</ele>
        <time>2023-06-10T09:46:30Z</time>
      </trkpt>
      <trkpt lat="49.47" lon="2.03564">
        <ele>106.2</ele>
        <time>2023-06-10T09:46:36Z</time>
      </trkpt>
      <trkpt lat="49.46994" lon="2.03564">
        <ele>108.8</ele>
        <time>2023-06-10T09:46:42Z</time>
      </trkpt>
      <trkpt lat="49.4699" lon="2.03566">
        <ele>109.3</ele>
        <time>2023-06-10T09:46:47Z</time>
      </trkpt>
      <trkpt lat="49.46988" lon="2.03568">
        <ele>109.8</ele>
        <time>2023-06-10T09:46:52Z</time>
      </trkpt>
      <trkpt lat="49.46986" lon="2.03568">
        <ele>110.4</ele>
        <time>2023-06-10T09:46:57Z</time>
      </trkpt>
      <trkpt lat="49.46983" lon="2.03569">
        <ele>111.5</ele>
        <time>2023-06-10T09:47:03Z</time>
      </trkpt>
      <trkpt lat="49.46978" lon="2.03571">
        <ele>112.4</ele>
        <time>2023-06-10T09:47:08Z</time>
      </trkpt>
      <trkpt lat="49.46973" lon="2.03575">
        <ele>113.3</ele>
        <time>2023-06-10T09:47:14Z</time>
      </trkpt>
      <trkpt lat="49.46966" lon="2.03581">
        <ele>113.2</ele>
        <time>2023-06-10T09:47:20Z</time>
      </trkpt>
      <trkpt lat="49.46961" lon="2.03588">
        <ele>112.8</ele>
        <time>2023-06-10T09:47:26Z</time>
      </trkpt>
      <trkpt lat="49.46956" lon="2.03593">
        <ele>112.6</ele>
        <time>2023-06-10T09:47:31Z</time>
      </trkpt>
      <trkpt lat="49.46951" lon="2.03596">
        <ele>113.2</ele>
        <time>2023-06-10T09:47:37Z</time>
      </trkpt>
      <trkpt lat="49.46948" lon="2.03597">
        <ele>113.8</ele>
        <time>2023-06-10T09:47:42Z</time>
      </trkpt>
      <trkpt lat="49.46943" lon="2.03601">
        <ele>114</ele>
        <time>2023-06-10T09:47:47Z</time>
      </trkpt>
      <trkpt lat="49.46938" lon="2.03604">
        <ele>114.6</ele>
        <time>2023-06-10T09:47:53Z</time>
      </trkpt>
      <trkpt lat="49.46933" lon="2.03602">
        <ele>115.9</ele>
        <time>2023-06-10T09:47:58Z</time>
      </trkpt>
      <trkpt lat="49.4693" lon="2.03601">
        <ele>116.7</ele>
        <time>2023-06-10T09:48:03Z</time>
      </trkpt>
      <trkpt lat="49.46929" lon="2.036">
        <ele>117.1</ele>
        <time>2023-06-10T09:48:08Z</time>
      </trkpt>
      <trkpt lat="49.46926" lon="2.03599">
        <ele>117.8</ele>
        <time>2023-06-10T09:48:14Z</time>
      </trkpt>
      <trkpt lat="49.46926" lon="2.036">
        <ele>117.7</ele>
        <time>2023-06-10T09:48:20Z</time>
      </trkpt>
      <trkpt lat="49.46926" lon="2.03601">
        <ele>117.4</ele>
        <time>2023-06-10T09:48:26Z</time>
      </trkpt>
      <trkpt lat="49.46927" lon="2.03602">
        <ele>117.2</ele>
        <time>2023-06-10T09:48:32Z</time>
      </trkpt>
      <trkpt lat="49.46929" lon="2.03601">
        <ele>117</ele>
        <time>2023-06-10T09:48:38Z</time>
      </trkpt>
      <trkpt lat="49.4693" lon="2.03601">
        <ele>116.7</ele>
        <time>2023-06-10T09:48:43Z</time>
      </trkpt>
      <trkpt lat="49.4693" lon="2.03602">
        <ele>116.6</ele>
        <time>2023-06-10T09:48:48Z</time>
      </trkpt>
      <trkpt lat="49.4693" lon="2.03604">
        <ele>116.3</ele>
        <time>2023-06-10T09:48:54Z</time>
      </trkpt>
      <trkpt lat="49.4693" lon="2.03605">
        <ele>116.1</ele>
        <time>2023-06-10T09:48:59Z</time>
      </trkpt>
      <trkpt lat="49.4693" lon="2.03606">
        <ele>116</ele>
        <time>2023-06-10T09:49:04Z</time>
      </trkpt>
      <trkpt lat="49.4693" lon="2.03606">
        <ele>115.8</ele>
        <time>2023-06-10T09:49:10Z</time>
      </trkpt>
      <trkpt lat="49.4693" lon="2.03607">
        <ele>115.8</ele>
        <time>2023-06-10T09:49:15Z</time>
      </trkpt>
      <trkpt lat="49.4693" lon="2.03607">
        <ele>115.8</ele>
        <time>2023-06-10T09:49:21Z</time>
      </trkpt>
      <trkpt lat="49.46931" lon="2.03607">
        <ele>115.7</ele>
        <time>2023-06-10T09:49:26Z</time>
      </trkpt>
      <trkpt lat="49.46931" lon="2.03607">
        <ele>115.6</ele>
        <time>2023-06-10T09:49:32Z</time>
      </trkpt>
      <trkpt lat="49.46932" lon="2.03608">
        <ele>115.2</ele>
        <time>2023-06-10T09:49:37Z</time>
      </trkpt>
      <trkpt lat="49.4693" lon="2.03606">
        <ele>115.9</ele>
        <time>2023-06-10T09:49:43Z</time>
      </trkpt>
      <trkpt lat="49.46929" lon="2.03605">
        <ele>116.4</ele>
        <time>2023-06-10T09:49:48Z</time>
      </trkpt>
      <trkpt lat="49.46929" lon="2.03604">
        <ele>116.5</ele>
        <time>2023-06-10T09:49:54Z</time>
      </trkpt>
      <trkpt lat="49.4693" lon="2.03604">
        <ele>116.2</ele>
        <time>2023-06-10T09:49:59Z</time>
      </trkpt>
      <trkpt lat="49.46928" lon="2.03604">
        <ele>116.8</ele>
        <time>2023-06-10T09:50:05Z</time>
      </trkpt>
      <trkpt lat="49.46926" lon="2.03605">
        <ele>117</ele>
        <time>2023-06-10T09:50:11Z</time>
      </trkpt>
      <trkpt lat="49.46926" lon="2.03604">
        <ele>117.2</ele>
        <time>2023-06-10T09:50:16Z</time>
      </trkpt>
      <trkpt lat="49.46926" lon="2.03601">
        <ele>117.6</ele>
        <time>2023-06-10T09:50:22Z</time>
      </trkpt>
      <trkpt lat="49.46927" lon="2.03602">
        <ele>117.1</ele>
        <time>2023-06-10T09:50:28Z</time>
      </trkpt>
      <trkpt lat="49.46931" lon="2.03608">
        <ele>115.4</ele>
        <time>2023-06-10T09:50:33Z</time>
      </trkpt>
      <trkpt lat="49.46935" lon="2.03613">
        <ele>113.1</ele>
        <time>2023-06-10T09:50:39Z</time>
      </trkpt>
      <trkpt lat="49.46938" lon="2.03618">
        <ele>110.3</ele>
        <time>2023-06-10T09:50:45Z</time>
      </trkpt>
      <trkpt lat="49.46939" lon="2.03619">
        <ele>109.7</ele>
        <time>2023-06-10T09:50:50Z</time>
      </trkpt>
      <trkpt lat="49.46938" lon="2.03617">
        <ele>110.7</ele>
        <time>2023-06-10T09:50:56Z</time>
      </trkpt>
      <trkpt lat="49.4693" lon="2.03616">
        <ele>113.4</ele>
        <time>2023-06-10T09:51:01Z</time>
      </trkpt>
      <trkpt lat="49.4692" lon="2.03616">
        <ele>116.8</ele>
        <time>2023-06-10T09:51:07Z</time>
      </trkpt>
      <trkpt lat="49.46911" lon="2.03619">
        <ele>117.8</ele>
        <time>2023-06-10T09:51:13Z</time>
      </trkpt>
      <trkpt lat="49.46906" lon="2.03623">
        <ele>117.7</ele>
        <time>2023-06-10T09:51:19Z</time>
      </trkpt>
      <trkpt lat="49.46901" lon="2.03629">
        <ele>117.6</ele>
        <time>2023-06-10T09:51:25Z</time>
      </trkpt>
      <trkpt lat="49.46895" lon="2.03634">
        <ele>118.1</ele>
        <time>2023-06-10T09:51:30Z</time>
      </trkpt>
      <trkpt lat="49.46889" lon="2.03641">
        <ele>118.5</ele>
        <time>2023-06-10T09:51:36Z</time>
      </trkpt>
      <trkpt lat="49.46883" lon="2.0365">
        <ele>117.1</ele>
        <time>2023-06-10T09:51:42Z</time>
      </trkpt>
      <trkpt lat="49.46876" lon="2.03659">
        <ele>116.7</ele>
        <time>2023-06-10T09:51:48Z</time>
      </trkpt>
      <trkpt lat="49.46869" lon="2.03668">
        <ele>117.2</ele>
        <time>2023-06-10T09:51:54Z</time>
      </trkpt>
      <trkpt lat="49.4686" lon="2.03678">
        <ele>118.2</ele>
        <time>2023-06-10T09:52:00Z</time>
      </trkpt>
      <trkpt lat="49.46853" lon="2.03688">
        <ele>118</ele>
        <time>2023-06-10T09:52:06Z</time>
      </trkpt>
      <trkpt lat="49.46847" lon="2.03695">
        <ele>117.9</ele>
        <time>2023-06-10T09:52:11Z</time>
      </trkpt>
      <trkpt lat="49.46842" lon="2.03706">
        <ele>117.6</ele>
        <time>2023-06-10T09:52:17Z</time>
      </trkpt>
      <trkpt lat="49.46838" lon="2.03714">
        <ele>117.6</ele>
        <time>2023-06-10T09:52:22Z</time>
      </trkpt>
      <trkpt lat="49.46832" lon="2.03726">
        <ele>117.9</ele>
        <time>2023-06-10T09:52:28Z</time>
      </trkpt>
      <trkpt lat="49.46828" lon="2.03734">
        <ele>117.6</ele>
        <time>2023-06-10T09:52:33Z</time>
      </trkpt>
      <trkpt lat="49.46823" lon="2.03746">
        <ele>117.4</ele>
        <time>2023-06-10T09:52:39Z</time>
      </trkpt>
      <trkpt lat="49.46819" lon="2.03756">
        <ele>117.1</ele>
        <time>2023-06-10T09:52:44Z</time>
      </trkpt>
      <trkpt lat="49.46813" lon="2.03767">
        <ele>116.8</ele>
        <time>2023-06-10T09:52:50Z</time>
      </trkpt>
      <trkpt lat="49.46806" lon="2.03779">
        <ele>116.8</ele>
        <time>2023-06-10T09:52:56Z</time>
      </trkpt>
      <trkpt lat="49.46802" lon="2.03788">
        <ele>116.7</ele>
        <time>2023-06-10T09:53:01Z</time>
      </trkpt>
      <trkpt lat="49.46798" lon="2.03795">
        <ele>116.5</ele>
        <time>2023-06-10T09:53:06Z</time>
      </trkpt>
      <trkpt lat="49.46793" lon="2.03801">
        <ele>116.5</ele>
        <time>2023-06-10T09:53:11Z</time>
      </trkpt>
      <trkpt lat="49.46788" lon="2.03808">
        <ele>116.6</ele>
        <time>2023-06-10T09:53:16Z</time>
      </trkpt>
      <trkpt lat="49.46781" lon="2.03818">
        <ele>116.7</ele>
        <time>2023-06-10T09:53:22Z</time>
      </trkpt>
      <trkpt lat="49.46776" lon="2.03827">
        <ele>117</ele>
        <time>2023-06-10T09:53:27Z</time>
      </trkpt>
      <trkpt lat="49.46769" lon="2.03837">
        <ele>117</ele>
        <time>2023-06-10T09:53:33Z</time>
      </trkpt>
      <trkpt lat="49.46764" lon="2.03845">
        <ele>117</ele>
        <time>2023-06-10T09:53:38Z</time>
      </trkpt>
      <trkpt lat="49.46759" lon="2.03854">
        <ele>117</ele>
        <time>2023-06-10T09:53:44Z</time>
      </trkpt>
      <trkpt lat="49.46753" lon="2.03862">
        <ele>117</ele>
        <time>2023-06-10T09:53:49Z</time>
      </trkpt>
      <trkpt lat="49.46749" lon="2.03871">
        <ele>117</ele>
        <time>2023-06-10T09:53:54Z</time>
      </trkpt>
      <trkpt lat="49.46744" lon="2.03882">
        <ele>116.9</ele>
        <time>2023-06-10T09:54:00Z</time>
      </trkpt>
      <trkpt lat="49.46741" lon="2.03889">
        <ele>117</ele>
        <time>2023-06-10T09:54:05Z</time>
      </trkpt>
      <trkpt lat="49.46738" lon="2.03896">
        <ele>117</ele>
        <time>2023-06-10T09:54:10Z</time>
      </trkpt>
      <trkpt lat="49.46732" lon="2.03905">
        <ele>117</ele>
        <time>2023-06-10T09:54:16Z</time>
      </trkpt>
      <trkpt lat="49.46726" lon="2.03915">
        <ele>117</ele>
        <time>2023-06-10T09:54:22Z</time>
      </trkpt>
      <trkpt lat="49.46722" lon="2.03924">
        <ele>117</ele>
        <time>2023-06-10T09:54:27Z</time>
      </trkpt>
      <trkpt lat="49.46716" lon="2.03936">
        <ele>116.9</ele>
        <time>2023-06-10T09:54:33Z</time>
      </trkpt>
      <trkpt lat="49.46712" lon="2.03946">
        <ele>117</ele>
        <time>2023-06-10T09:54:39Z</time>
      </trkpt>
      <trkpt lat="49.46708" lon="2.03953">
        <ele>116.8</ele>
        <time>2023-06-10T09:54:44Z</time>
      </trkpt>
      <trkpt lat="49.46704" lon="2.03961">
        <ele>116.6</ele>
        <time>2023-06-10T09:54:49Z</time>
      </trkpt>
      <trkpt lat="49.46697" lon="2.03971">
        <ele>116.1</ele>
        <time>2023-06-10T09:54:55Z</time>
      </trkpt>
      <trkpt lat="49.46691" lon="2.03979">
        <ele>115.7</ele>
        <time>2023-06-10T09:55:00Z</time>
      </trkpt>
      <trkpt lat="49.46685" lon="2.03989">
        <ele>115.2</ele>
        <time>2023-06-10T09:55:06Z</time>
      </trkpt>
      <trkpt lat="49.46677" lon="2.03999">
        <ele>115</ele>
        <time>2023-06-10T09:55:12Z</time>
      </trkpt>
      <trkpt lat="49.4667" lon="2.04008">
        <ele>115</ele>
        <time>2023-06-10T09:55:17Z</time>
      </trkpt>
      <trkpt lat="49.46663" lon="2.04017">
        <ele>115</ele>
        <time>2023-06-10T09:55:23Z</time>
      </trkpt>
      <trkpt lat="49.46658" lon="2.04025">
        <ele>115</ele>
        <time>2023-06-10T09:55:28Z</time>
      </trkpt>
      <trkpt lat="49.46652" lon="2.04034">
        <ele>115</ele>
        <time>2023-06-10T09:55:34Z</time>
      </trkpt>
      <trkpt lat="49.46646" lon="2.04042">
        <ele>115</ele>
        <time>2023-06-10T09:55:39Z</time>
      </trkpt>
      <trkpt lat="49.4664" lon="2.04055">
        <ele>115</ele>
        <time>2023-06-10T09:55:45Z</time>
      </trkpt>
      <trkpt lat="49.46636" lon="2.04064">
        <ele>114.7</ele>
        <time>2023-06-10T09:55:50Z</time>
      </trkpt>
      <trkpt lat="49.46635" lon="2.04068">
        <ele>114.6</ele>
        <time>2023-06-10T09:55:56Z</time>
      </trkpt>
      <trkpt lat="49.4663" lon="2.04076">
        <ele>114.1</ele>
        <time>2023-06-10T09:56:02Z</time>
      </trkpt>
      <trkpt lat="49.46625" lon="2.04085">
        <ele>113.4</ele>
        <time>2023-06-10T09:56:07Z</time>
      </trkpt>
      <trkpt lat="49.46621" lon="2.04095">
        <ele>112.9</ele>
        <time>2023-06-10T09:56:12Z</time>
      </trkpt>
      <trkpt lat="49.46616" lon="2.04105">
        <ele>112.4</ele>
        <time>2023-06-10T09:56:18Z</time>
      </trkpt>
      <trkpt lat="49.46612" lon="2.04113">
        <ele>112</ele>
        <time>2023-06-10T09:56:23Z</time>
      </trkpt>
      <trkpt lat="49.46609" lon="2.04123">
        <ele>111.8</ele>
        <time>2023-06-10T09:56:28Z</time>
      </trkpt>
      <trkpt lat="49.46609" lon="2.04134">
        <ele>111.8</ele>
        <time>2023-06-10T09:56:34Z</time>
      </trkpt>
      <trkpt lat="49.46608" lon="2.0414">
        <ele>111.7</ele>
        <time>2023-06-10T09:56:39Z</time>
      </trkpt>
      <trkpt lat="49.46605" lon="2.04145">
        <ele>111.2</ele>
        <time>2023-06-10T09:56:44Z</time>
      </trkpt>
      <trkpt lat="49.46602" lon="2.04153">
        <ele>110.5</ele>
        <time>2023-06-10T09:56:50Z</time>
      </trkpt>
      <trkpt lat="49.46598" lon="2.04159">
        <ele>110</ele>
        <time>2023-06-10T09:56:55Z</time>
      </trkpt>
      <trkpt lat="49.46594" lon="2.04166">
        <ele>109.4</ele>
        <time>2023-06-10T09:57:00Z</time>
      </trkpt>
      <trkpt lat="49.46593" lon="2.04168">
        <ele>109.3</ele>
        <time>2023-06-10T09:57:06Z</time>
      </trkpt>
      <trkpt lat="49.46593" lon="2.04168">
        <ele>109.2</ele>
        <time>2023-06-10T09:57:11Z</time>
      </trkpt>
      <trkpt lat="49.46593" lon="2.04167">
        <ele>109.3</ele>
        <time>2023-06-10T09:57:17Z</time>
      </trkpt>
      <trkpt lat="49.46592" lon="2.04167">
        <ele>109.3</ele>
        <time>2023-06-10T09:57:23Z</time>
      </trkpt>
      <trkpt lat="49.46594" lon="2.0417">
        <ele>109.1</ele>
        <time>2023-06-10T09:57:28Z</time>
      </trkpt>
      <trkpt lat="49.46595" lon="2.04171">
        <ele>109</ele>
        <time>2023-06-10T09:57:34Z</time>
      </trkpt>
      <trkpt lat="49.46595" lon="2.04172">
        <ele>108.9</ele>
        <time>2023-06-10T09:57:40Z</time>
      </trkpt>
      <trkpt lat="49.46595" lon="2.04173">
        <ele>108.8</ele>
        <time>2023-06-10T09:57:46Z</time>
      </trkpt>
      <trkpt lat="49.46595" lon="2.04173">
        <ele>108.8</ele>
        <time>2023-06-10T09:57:52Z</time>
      </trkpt>
      <trkpt lat="49.46595" lon="2.04173">
        <ele>108.8</ele>
        <time>2023-06-10T09:57:58Z</time>
      </trkpt>
      <trkpt lat="49.46595" lon="2.04174">
        <ele>108.7</ele>
        <time>2023-06-10T09:58:04Z</time>
      </trkpt>
      <trkpt lat="49.46595" lon="2.04178">
        <ele>108.4</ele>
        <time>2023-06-10T09:58:09Z</time>
      </trkpt>
      <trkpt lat="49.46597" lon="2.04183">
        <ele>107.7</ele>
        <time>2023-06-10T09:58:15Z</time>
      </trkpt>
      <trkpt lat="49.46596" lon="2.04185">
        <ele>107.6</ele>
        <time>2023-06-10T09:58:21Z</time>
      </trkpt>
      <trkpt lat="49.46595" lon="2.04183">
        <ele>107.9</ele>
        <time>2023-06-10T09:58:26Z</time>
      </trkpt>
      <trkpt lat="49.46594" lon="2.0418">
        <ele>108.2</ele>
        <time>2023-06-10T09:58:32Z</time>
      </trkpt>
      <trkpt lat="49.46594" lon="2.04179">
        <ele>108.2</ele>
        <time>2023-06-10T09:58:37Z</time>
      </trkpt>
      <trkpt lat="49.46594" lon="2.04179">
        <ele>108.3</ele>
        <time>2023-06-10T09:58:42Z</time>
      </trkpt>
      <trkpt lat="49.46593" lon="2.04179">
        <ele>108.3</ele>
        <time>2023-06-10T09:58:47Z</time>
      </trkpt>
      <trkpt lat="49.46592" lon="2.04179">
        <ele>108.3</ele>
        <time>2023-06-10T09:58:52Z</time>
      </trkpt>
      <trkpt lat="49.46592" lon="2.04179">
        <ele>108.4</ele>
        <time>2023-06-10T09:58:58Z</time>
      </trkpt>
      <trkpt lat="49.46592" lon="2.04178">
        <ele>108.4</ele>
        <time>2023-06-10T09:59:04Z</time>
      </trkpt>
      <trkpt lat="49.46592" lon="2.04178">
        <ele>108.4</ele>
        <time>2023-06-10T09:59:09Z</time>
      </trkpt>
      <trkpt lat="49.46592" lon="2.04178">
        <ele>108.4</ele>
        <time>2023-06-10T09:59:15Z</time>
      </trkpt>
      <trkpt lat="49.46592" lon="2.04177">
        <ele>108.4</ele>
        <time>2023-06-10T09:59:21Z</time>
      </trkpt>
      <trkpt lat="49.46592" lon="2.04177">
        <ele>108.5</ele>
        <time>2023-06-10T09:59:27Z</time>
      </trkpt>
      <trkpt lat="49.46592" lon="2.04177">
        <ele>108.5</ele>
        <time>2023-06-10T09:59:33Z</time>
      </trkpt>
      <trkpt lat="49.46593" lon="2.04177">
        <ele>108.5</ele>
        <time>2023-06-10T09:59:38Z</time>
      </trkpt>
      <trkpt lat="49.46593" lon="2.04177">
        <ele>108.5</ele>
        <time>2023-06-10T09:59:43Z</time>
      </trkpt>
      <trkpt lat="49.46593" lon="2.04176">
        <ele>108.5</ele>
        <time>2023-06-10T09:59:49Z</time>
      </trkpt>
      <trkpt lat="49.46593" lon="2.04176">
        <ele>108.6</ele>
        <time>2023-06-10T09:59:55Z</time>
      </trkpt>
      <trkpt lat="49.46593" lon="2.04176">
        <ele>108.6</ele>
        <time>2023-06-10T10:00:00Z</time>
      </trkpt>
      <trkpt lat="49.46593" lon="2.04176">
        <ele>108.6</ele>
        <time>2023-06-10T10:00:06Z</time>
      </trkpt>
      <trkpt lat="49.46593" lon="2.04175">
        <ele>108.6</ele>
        <time>2023-06-10T10:00:12Z</time>
      </trkpt>
      <trkpt lat="49.46593" lon="2.04175">
        <ele>108.6</ele>
        <time>2023-06-10T10:00:18Z</time>
      </trkpt>
      <trkpt lat="49.46593" lon="2.04175">
        <ele>108.6</ele>
        <time>2023-06-10T10:00:24Z</time>
      </trkpt>
      <trkpt lat="49.46593" lon="2.04175">
        <ele>108.6</ele>
        <time>2023-06-10T10:00:30Z</time>
      </trkpt>
      <trkpt lat="49.46593" lon="2.04175">
        <ele>108.6</ele>
        <time>2023-06-10T10:00:36Z</time>
      </trkpt>
      <trkpt lat="49.46593" lon="2.04176">
        <ele>108.6</ele>
        <time>2023-06-10T10:00:41Z</time>
      </trkpt>
      <trkpt lat="49.46592" lon="2.04178">
        <ele>108.4</ele>
        <time>2023-06-10T10:00:47Z</time>
      </trkpt>
      <trkpt lat="49.46588" lon="2.04179">
        <ele>108.4</ele>
        <time>2023-06-10T10:00:52Z</time>
      </trkpt>
      <trkpt lat="49.46583" lon="2.04187">
        <ele>108.3</ele>
        <time>2023-06-10T10:00:58Z</time>
      </trkpt>
      <trkpt lat="49.46578" lon="2.04195">
        <ele>107.5</ele>
        <time>2023-06-10T10:01:04Z</time>
      </trkpt>
      <trkpt lat="49.46572" lon="2.04205">
        <ele>106.7</ele>
        <time>2023-06-10T10:01:09Z</time>
      </trkpt>
      <trkpt lat="49.46569" lon="2.04214">
        <ele>106.3</ele>
        <time>2023-06-10T10:01:14Z</time>
      </trkpt>
      <trkpt lat="49.46566" lon="2.04223">
        <ele>106</ele>
        <time>2023-06-10T10:01:20Z</time>
      </trkpt>
      <trkpt lat="49.46563" lon="2.04231">
        <ele>105.1</ele>
        <time>2023-06-10T10:01:25Z</time>
      </trkpt>
      <trkpt lat="49.46558" lon="2.04243">
        <ele>104.3</ele>
        <time>2023-06-10T10:01:31Z</time>
      </trkpt>
      <trkpt lat="49.46555" lon="2.0425">
        <ele>104</ele>
        <time>2023-06-10T10:01:36Z</time>
      </trkpt>
      <trkpt lat="49.46551" lon="2.0426">
        <ele>103.1</ele>
        <time>2023-06-10T10:01:42Z</time>
      </trkpt>
      <trkpt lat="49.46547" lon="2.04271">
        <ele>102.4</ele>
        <time>2023-06-10T10:01:48Z</time>
      </trkpt>
      <trkpt lat="49.46543" lon="2.04284">
        <ele>101.3</ele>
        <time>2023-06-10T10:01:53Z</time>
      </trkpt>
      <trkpt lat="49.46541" lon="2.04292">
        <ele>100.6</ele>
        <time>2023-06-10T10:01:58Z</time>
      </trkpt>
      <trkpt lat="49.46536" lon="2.04303">
        <ele>100</ele>
        <time>2023-06-10T10:02:04Z</time>
      </trkpt>
      <trkpt lat="49.46531" lon="2.04315">
        <ele>99.6</ele>
        <time>2023-06-10T10:02:10Z</time>
      </trkpt>
      <trkpt lat="49.46528" lon="2.04325">
        <ele>99.6</ele>
        <time>2023-06-10T10:02:16Z</time>
      </trkpt>
      <trkpt lat="49.46524" lon="2.04332">
        <ele>99.1</ele>
        <time>2023-06-10T10:02:21Z</time>
      </trkpt>
      <trkpt lat="49.46518" lon="2.04338">
        <ele>98.5</ele>
        <time>2023-06-10T10:02:26Z</time>
      </trkpt>
      <trkpt lat="49.46514" lon="2.04346">
        <ele>97.9</ele>
        <time>2023-06-10T10:02:32Z</time>
      </trkpt>
      <trkpt lat="49.46509" lon="2.04353">
        <ele>97.6</ele>
        <time>2023-06-10T10:02:38Z</time>
      </trkpt>
      <trkpt lat="49.46503" lon="2.04359">
        <ele>97.8</ele>
        <time>2023-06-10T10:02:43Z</time>
      </trkpt>
      <trkpt lat="49.46498" lon="2.04363">
        <ele>97.8</ele>
        <time>2023-06-10T10:02:48Z</time>
      </trkpt>
      <trkpt lat="49.46492" lon="2.04368">
        <ele>97.3</ele>
        <time>2023-06-10T10:02:53Z</time>
      </trkpt>
      <trkpt lat="49.46485" lon="2.04374">
        <ele>96.7</ele>
        <time>2023-06-10T10:02:59Z</time>
      </trkpt>
      <trkpt lat="49.46477" lon="2.04382">
        <ele>96.2</ele>
        <time>2023-06-10T10:03:05Z</time>
      </trkpt>
      <trkpt lat="49.46473" lon="2.04387">
        <ele>96</ele>
        <time>2023-06-10T10:03:10Z</time>
      </trkpt>
      <trkpt lat="49.46466" lon="2.04395">
        <ele>95.2</ele>
        <time>2023-06-10T10:03:16Z</time>
      </trkpt>
      <trkpt lat="49.4646" lon="2.04402">
        <ele>94.4</ele>
        <time>2023-06-10T10:03:22Z</time>
      </trkpt>
      <trkpt lat="49.46454" lon="2.04408">
        <ele>93.8</ele>
        <time>2023-06-10T10:03:27Z</time>
      </trkpt>
      <trkpt lat="49.46448" lon="2.04413">
        <ele>93.3</ele>
        <time>2023-06-10T10:03:32Z</time>
      </trkpt>
      <trkpt lat="49.46442" lon="2.04422">
        <ele>92.5</ele>
        <time>2023-06-10T10:03:38Z</time>
      </trkpt>
      <trkpt lat="49.46436" lon="2.04428">
        <ele>91.6</ele>
        <time>2023-06-10T10:03:43Z</time>
      </trkpt>
      <trkpt lat="49.4643" lon="2.04435">
        <ele>90.4</ele>
        <time>2023-06-10T10:03:49Z</time>
      </trkpt>
      <trkpt lat="49.46424" lon="2.04442">
        <ele>89.2</ele>
        <time>2023-06-10T10:03:54Z</time>
      </trkpt>
      <trkpt lat="49.46418" lon="2.0445">
        <ele>88.4</ele>
        <time>2023-06-10T10:04:00Z</time>
      </trkpt>
      <trkpt lat="49.46412" lon="2.04457">
        <ele>87.8</ele>
        <time>2023-06-10T10:04:06Z</time>
      </trkpt>
      <trkpt lat="49.46408" lon="2.04466">
        <ele>87.3</ele>
        <time>2023-06-10T10:04:12Z</time>
      </trkpt>
      <trkpt lat="49.46406" lon="2.04472">
        <ele>87</ele>
        <time>2023-06-10T10:04:17Z</time>
      </trkpt>
      <trkpt lat="49.46403" lon="2.04477">
        <ele>86.5</ele>
        <time>2023-06-10T10:04:22Z</time>
      </trkpt>
      <trkpt lat="49.46402" lon="2.04466">
        <ele>86.3</ele>
        <time>2023-06-10T10:04:28Z</time>
      </trkpt>
      <trkpt lat="49.46404" lon="2.04452">
        <ele>86.6</ele>
        <time>2023-06-10T10:04:33Z</time>
      </trkpt>
      <trkpt lat="49.46404" lon="2.04438">
        <ele>86.9</ele>
        <time>2023-06-10T10:04:39Z</time>
      </trkpt>
      <trkpt lat="49.46405" lon="2.04421">
        <ele>87.7</ele>
        <time>2023-06-10T10:04:45Z</time>
      </trkpt>
      <trkpt lat="49.46406" lon="2.04408">
        <ele>88.2</ele>
        <time>2023-06-10T10:04:50Z</time>
      </trkpt>
      <trkpt lat="49.46407" lon="2.044">
        <ele>88.2</ele>
        <time>2023-06-10T10:04:55Z</time>
      </trkpt>
      <trkpt lat="49.46409" lon="2.04391">
        <ele>88.7</ele>
        <time>2023-06-10T10:05:01Z</time>
      </trkpt>
      <trkpt lat="49.46414" lon="2.04381">
        <ele>89.7</ele>
        <time>2023-06-10T10:05:07Z</time>
      </trkpt>
      <trkpt lat="49.46414" lon="2.04371">
        <ele>90.2</ele>
        <time>2023-06-10T10:05:12Z</time>
      </trkpt>
      <trkpt lat="49.46414" lon="2.04354">
        <ele>90.4</ele>
        <time>2023-06-10T10:05:18Z</time>
      </trkpt>
      <trkpt lat="49.46414" lon="2.04342">
        <ele>90.5</ele>
        <time>2023-06-10T10:05:23Z</time>
      </trkpt>
      <trkpt lat="49.46415" lon="2.04329">
        <ele>90.6</ele>
        <time>2023-06-10T10:05:29Z</time>
      </trkpt>
      <trkpt lat="49.46416" lon="2.04317">
        <ele>90.2</ele>
        <time>2023-06-10T10:05:34Z</time>
      </trkpt>
      <trkpt lat="49.46415" lon="2.04303">
        <ele>89.7</ele>
        <time>2023-06-10T10:05:40Z</time>
      </trkpt>
      <trkpt lat="49.46416" lon="2.04292">
        <ele>89.8</ele>
        <time>2023-06-10T10:05:45Z</time>
      </trkpt>
      <trkpt lat="49.46414" lon="2.04278">
        <ele>89.6</ele>
        <time>2023-06-10T10:05:51Z</time>
      </trkpt>
      <trkpt lat="49.46414" lon="2.04265">
        <ele>89.4</ele>
        <time>2023-06-10T10:05:56Z</time>
      </trkpt>
      <trkpt lat="49.46413" lon="2.04251">
        <ele>89.4</ele>
        <time>2023-06-10T10:06:02Z</time>
      </trkpt>
      <trkpt lat="49.46413" lon="2.04238">
        <ele>89.3</ele>
        <time>2023-06-10T10:06:07Z</time>
      </trkpt>
      <trkpt lat="49.46412" lon="2.04222">
        <ele>89.2</ele>
        <time>2023-06-10T10:06:13Z</time>
      </trkpt>
      <trkpt lat="49.46412" lon="2.04207">
        <ele>89.1</ele>
        <time>2023-06-10T10:06:19Z</time>
      </trkpt>
      <trkpt lat="49.46411" lon="2.04197">
        <ele>89</ele>
        <time>2023-06-10T10:06:24Z</time>
      </trkpt>
      <trkpt lat="49.46411" lon="2.04183">
        <ele>88.9</ele>
        <time>2023-06-10T10:06:30Z</time>
      </trkpt>
      <trkpt lat="49.46411" lon="2.04168">
        <ele>88.9</ele>
        <time>2023-06-10T10:06:36Z</time>
      </trkpt>
      <trkpt lat="49.46411" lon="2.04158">
        <ele>89</ele>
        <time>2023-06-10T10:06:41Z</time>
      </trkpt>
      <trkpt lat="49.46411" lon="2.04146">
        <ele>88.9</ele>
        <time>2023-06-10T10:06:47Z</time>
      </trkpt>
      <trkpt lat="49.46412" lon="2.04136">
        <ele>89.3</ele>
        <time>2023-06-10T10:06:53Z</time>
      </trkpt>
      <trkpt lat="49.46413" lon="2.04128">
        <ele>89.8</ele>
        <time>2023-06-10T10:06:58Z</time>
      </trkpt>
      <trkpt lat="49.46415" lon="2.04118">
        <ele>90.5</ele>
        <time>2023-06-10T10:07:04Z</time>
      </trkpt>
      <trkpt lat="49.46417" lon="2.04108">
        <ele>91.1</ele>
        <time>2023-06-10T10:07:09Z</time>
      </trkpt>
      <trkpt lat="49.46417" lon="2.04097">
        <ele>91.6</ele>
        <time>2023-06-10T10:07:15Z</time>
      </trkpt>
      <trkpt lat="49.46416" lon="2.04086">
        <ele>91.9</ele>
        <time>2023-06-10T10:07:20Z</time>
      </trkpt>
      <trkpt lat="49.46415" lon="2.04072">
        <ele>91.7</ele>
        <time>2023-06-10T10:07:26Z</time>
      </trkpt>
      <trkpt lat="49.46414" lon="2.04059">
        <ele>91.5</ele>
        <time>2023-06-10T10:07:31Z</time>
      </trkpt>
      <trkpt lat="49.46413" lon="2.04045">
        <ele>91.2</ele>
        <time>2023-06-10T10:07:37Z</time>
      </trkpt>
      <trkpt lat="49.46413" lon="2.04034">
        <ele>91.2</ele>
        <time>2023-06-10T10:07:43Z</time>
      </trkpt>
      <trkpt lat="49.46413" lon="2.04022">
        <ele>91</ele>
        <time>2023-06-10T10:07:49Z</time>
      </trkpt>
      <trkpt lat="49.46413" lon="2.04009">
        <ele>90.6</ele>
        <time>2023-06-10T10:07:55Z</time>
      </trkpt>
      <trkpt lat="49.46412" lon="2.03998">
        <ele>90.2</ele>
        <time>2023-06-10T10:08:00Z</time>
      </trkpt>
      <trkpt lat="49.46411" lon="2.03985">
        <ele>90.2</ele>
        <time>2023-06-10T10:08:06Z</time>
      </trkpt>
      <trkpt lat="49.46412" lon="2.03977">
        <ele>90.2</ele>
        <time>2023-06-10T10:08:11Z</time>
      </trkpt>
      <trkpt lat="49.46409" lon="2.03964">
        <ele>90.2</ele>
        <time>2023-06-10T10:08:17Z</time>
      </trkpt>
      <trkpt lat="49.46408" lon="2.03953">
        <ele>90.2</ele>
        <time>2023-06-10T10:08:22Z</time>
      </trkpt>
      <trkpt lat="49.46404" lon="2.03938">
        <ele>89.8</ele>
        <time>2023-06-10T10:08:28Z</time>
      </trkpt>
      <trkpt lat="49.46401" lon="2.03926">
        <ele>89.6</ele>
        <time>2023-06-10T10:08:33Z</time>
      </trkpt>
      <trkpt lat="49.46397" lon="2.03913">
        <ele>89.4</ele>
        <time>2023-06-10T10:08:39Z</time>
      </trkpt>
      <trkpt lat="49.46393" lon="2.03903">
        <ele>89.5</ele>
        <time>2023-06-10T10:08:44Z</time>
      </trkpt>
      <trkpt lat="49.4639" lon="2.03894">
        <ele>89.8</ele>
        <time>2023-06-10T10:08:49Z</time>
      </trkpt>
      <trkpt lat="49.46387" lon="2.03883">
        <ele>90.4</ele>
        <time>2023-06-10T10:08:55Z</time>
      </trkpt>
      <trkpt lat="49.46383" lon="2.03871">
        <ele>90.9</ele>
        <time>2023-06-10T10:09:00Z</time>
      </trkpt>
      <trkpt lat="49.4638" lon="2.03858">
        <ele>91.5</ele>
        <time>2023-06-10T10:09:06Z</time>
      </trkpt>
      <trkpt lat="49.46376" lon="2.03847">
        <ele>91.6</ele>
        <time>2023-06-10T10:09:11Z</time>
      </trkpt>
      <trkpt lat="49.46372" lon="2.03838">
        <ele>91.7</ele>
        <time>2023-06-10T10:09:16Z</time>
      </trkpt>
      <trkpt lat="49.46369" lon="2.03825">
        <ele>91.8</ele>
        <time>2023-06-10T10:09:22Z</time>
      </trkpt>
      <trkpt lat="49.46365" lon="2.03815">
        <ele>91.9</ele>
        <time>2023-06-10T10:09:28Z</time>
      </trkpt>
      <trkpt lat="49.46363" lon="2.03807">
        <ele>92.1</ele>
        <time>2023-06-10T10:09:33Z</time>
      </trkpt>
      <trkpt lat="49.4636" lon="2.03797">
        <ele>93.1</ele>
        <time>2023-06-10T10:09:39Z</time>
      </trkpt>
      <trkpt lat="49.46357" lon="2.0379">
        <ele>93.6</ele>
        <time>2023-06-10T10:09:44Z</time>
      </trkpt>
      <trkpt lat="49.46353" lon="2.03781">
        <ele>94.2</ele>
        <time>2023-06-10T10:09:49Z</time>
      </trkpt>
      <trkpt lat="49.46347" lon="2.0377">
        <ele>93.8</ele>
        <time>2023-06-10T10:09:55Z</time>
      </trkpt>
      <trkpt lat="49.4634" lon="2.03759">
        <ele>93.3</ele>
        <time>2023-06-10T10:10:01Z</time>
      </trkpt>
      <trkpt lat="49.46334" lon="2.03748">
        <ele>93.2</ele>
        <time>2023-06-10T10:10:06Z</time>
      </trkpt>
      <trkpt lat="49.4633" lon="2.0374">
        <ele>92.9</ele>
        <time>2023-06-10T10:10:11Z</time>
      </trkpt>
      <trkpt lat="49.46327" lon="2.03734">
        <ele>92.8</ele>
        <time>2023-06-10T10:10:16Z</time>
      </trkpt>
      <trkpt lat="49.46323" lon="2.03726">
        <ele>92.7</ele>
        <time>2023-06-10T10:10:21Z</time>
      </trkpt>
      <trkpt lat="49.46316" lon="2.03715">
        <ele>91.9</ele>
        <time>2023-06-10T10:10:27Z</time>
      </trkpt>
      <trkpt lat="49.46311" lon="2.03706">
        <ele>91.1</ele>
        <time>2023-06-10T10:10:32Z</time>
      </trkpt>
      <trkpt lat="49.46307" lon="2.03694">
        <ele>90.2</ele>
        <time>2023-06-10T10:10:38Z</time>
      </trkpt>
      <trkpt lat="49.46304" lon="2.03685">
        <ele>89.8</ele>
        <time>2023-06-10T10:10:43Z</time>
      </trkpt>
      <trkpt lat="49.46302" lon="2.03674">
        <ele>89.3</ele>
        <time>2023-06-10T10:10:49Z</time>
      </trkpt>
      <trkpt lat="49.46302" lon="2.03665">
        <ele>89.3</ele>
        <time>2023-06-10T10:10:55Z</time>
      </trkpt>
      <trkpt lat="49.463" lon="2.03652">
        <ele>88.9</ele>
        <time>2023-06-10T10:11:01Z</time>
      </trkpt>
      <trkpt lat="49.46298" lon="2.03637">
        <ele>88.3</ele>
        <time>2023-06-10T10:11:07Z</time>
      </trkpt>
      <trkpt lat="49.46296" lon="2.03624">
        <ele>87.5</ele>
        <time>2023-06-10T10:11:12Z</time>
      </trkpt>
      <trkpt lat="49.46297" lon="2.03611">
        <ele>87.1</ele>
        <time>2023-06-10T10:11:17Z</time>
      </trkpt>
      <trkpt lat="49.46296" lon="2.03597">
        <ele>86.2</ele>
        <time>2023-06-10T10:11:23Z</time>
      </trkpt>
      <trkpt lat="49.46297" lon="2.03587">
        <ele>85.7</ele>
        <time>2023-06-10T10:11:28Z</time>
      </trkpt>
      <trkpt lat="49.46299" lon="2.03576">
        <ele>85.4</ele>
        <time>2023-06-10T10:11:34Z</time>
      </trkpt>
      <trkpt lat="49.463" lon="2.03563">
        <ele>84.8</ele>
        <time>2023-06-10T10:11:40Z</time>
      </trkpt>
      <trkpt lat="49.46302" lon="2.03553">
        <ele>84.3</ele>
        <time>2023-06-10T10:11:45Z</time>
      </trkpt>
      <trkpt lat="49.46304" lon="2.03541">
        <ele>83.9</ele>
        <time>2023-06-10T10:11:51Z</time>
      </trkpt>
      <trkpt lat="49.46304" lon="2.0353">
        <ele>83.1</ele>
        <time>2023-06-10T10:11:56Z</time>
      </trkpt>
      <trkpt lat="49.46303" lon="2.03517">
        <ele>82.4</ele>
        <time>2023-06-10T10:12:01Z</time>
      </trkpt>
      <trkpt lat="49.46304" lon="2.03505">
        <ele>82.1</ele>
        <time>2023-06-10T10:12:06Z</time>
      </trkpt>
      <trkpt lat="49.46305" lon="2.03495">
        <ele>82</ele>
        <time>2023-06-10T10:12:11Z</time>
      </trkpt>
      <trkpt lat="49.46309" lon="2.03481">
        <ele>82.3</ele>
        <time>2023-06-10T10:12:17Z</time>
      </trkpt>
      <trkpt lat="49.46312" lon="2.03471">
        <ele>82.4</ele>
        <time>2023-06-10T10:12:22Z</time>
      </trkpt>
      <trkpt lat="49.46313" lon="2.03456">
        <ele>82.6</ele>
        <time>2023-06-10T10:12:28Z</time>
      </trkpt>
      <trkpt lat="49.46308" lon="2.03445">
        <ele>82.2</ele>
        <time>2023-06-10T10:12:34Z</time>
      </trkpt>
      <trkpt lat="49.46301" lon="2.03443">
        <ele>81.8</ele>
        <time>2023-06-10T10:12:39Z</time>
      </trkpt>
      <trkpt lat="49.46294" lon="2.03442">
        <ele>81.5</ele>
        <time>2023-06-10T10:12:44Z</time>
      </trkpt>
      <trkpt lat="49.46287" lon="2.0344">
        <ele>81.3</ele>
        <time>2023-06-10T10:12:49Z</time>
      </trkpt>
      <trkpt lat="49.46281" lon="2.03438">
        <ele>81.1</ele>
        <time>2023-06-10T10:12:55Z</time>
      </trkpt>
      <trkpt lat="49.46272" lon="2.03435">
        <ele>81</ele>
        <time>2023-06-10T10:13:01Z</time>
      </trkpt>
      <trkpt lat="49.46266" lon="2.03433">
        <ele>81</ele>
        <time>2023-06-10T10:13:06Z</time>
      </trkpt>
      <trkpt lat="49.46256" lon="2.0343">
        <ele>81</ele>
        <time>2023-06-10T10:13:12Z</time>
      </trkpt>
      <trkpt lat="49.46247" lon="2.03427">
        <ele>81.2</ele>
        <time>2023-06-10T10:13:17Z</time>
      </trkpt>
      <trkpt lat="49.4624" lon="2.03422">
        <ele>81.7</ele>
        <time>2023-06-10T10:13:23Z</time>
      </trkpt>
      <trkpt lat="49.46232" lon="2.0342">
        <ele>82.3</ele>
        <time>2023-06-10T10:13:28Z</time>
      </trkpt>
      <trkpt lat="49.46225" lon="2.03416">
        <ele>82.8</ele>
        <time>2023-06-10T10:13:33Z</time>
      </trkpt>
      <trkpt lat="49.46222" lon="2.03411">
        <ele>83.5</ele>
        <time>2023-06-10T10:13:38Z</time>
      </trkpt>
      <trkpt lat="49.46219" lon="2.03402">
        <ele>84.4</ele>
        <time>2023-06-10T10:13:44Z</time>
      </trkpt>
      <trkpt lat="49.46217" lon="2.03397">
        <ele>84.9</ele>
        <time>2023-06-10T10:13:50Z</time>
      </trkpt>
      <trkpt lat="49.46218" lon="2.03396">
        <ele>84.9</ele>
        <time>2023-06-10T10:13:55Z</time>
      </trkpt>
      <trkpt lat="49.46219" lon="2.03392">
        <ele>85.1</ele>
        <time>2023-06-10T10:14:01Z</time>
      </trkpt>
      <trkpt lat="49.46221" lon="2.03388">
        <ele>85.2</ele>
        <time>2023-06-10T10:14:06Z</time>
      </trkpt>
      <trkpt lat="49.46221" lon="2.03385">
        <ele>85.4</ele>
        <time>2023-06-10T10:14:12Z</time>
      </trkpt>
      <trkpt lat="49.4622" lon="2.03386">
        <ele>85.5</ele>
        <time>2023-06-10T10:14:18Z</time>
      </trkpt>
      <trkpt lat="49.4622" lon="2.03388">
        <ele>85.3</ele>
        <time>2023-06-10T10:14:23Z</time>
      </trkpt>
      <trkpt lat="49.4622" lon="2.03388">
        <ele>85.3</ele>
        <time>2023-06-10T10:14:28Z</time>
      </trkpt>
      <trkpt lat="49.4622" lon="2.03388">
        <ele>85.3</ele>
        <time>2023-06-10T10:14:34Z</time>
      </trkpt>
      <trkpt lat="49.46221" lon="2.03389">
        <ele>85.1</ele>
        <time>2023-06-10T10:14:40Z</time>
      </trkpt>
      <trkpt lat="49.46222" lon="2.03389">
        <ele>85</ele>
        <time>2023-06-10T10:14:46Z</time>
      </trkpt>
      <trkpt lat="49.46222" lon="2.03389">
        <ele>85</ele>
        <time>2023-06-10T10:14:53Z</time>
      </trkpt>
      <trkpt lat="49.46222" lon="2.03388">
        <ele>85.1</ele>
        <time>2023-06-10T10:14:58Z</time>
      </trkpt>
      <trkpt lat="49.46222" lon="2.03388">
        <ele>85.1</ele>
        <time>2023-06-10T10:15:04Z</time>
      </trkpt>
      <trkpt lat="49.4622" lon="2.03387">
        <ele>85.4</ele>
        <time>2023-06-10T10:15:09Z</time>
      </trkpt>
      <trkpt lat="49.46219" lon="2.03381">
        <ele>85.9</ele>
        <time>2023-06-10T10:15:15Z</time>
      </trkpt>
      <trkpt lat="49.46219" lon="2.03381">
        <ele>85.9</ele>
        <time>2023-06-10T10:15:20Z</time>
      </trkpt>
      <trkpt lat="49.4622" lon="2.0338">
        <ele>85.9</ele>
        <time>2023-06-10T10:15:26Z</time>
      </trkpt>
      <trkpt lat="49.46219" lon="2.0338">
        <ele>85.9</ele>
        <time>2023-06-10T10:15:32Z</time>
      </trkpt>
      <trkpt lat="49.46222" lon="2.03379">
        <ele>85.7</ele>
        <time>2023-06-10T10:15:38Z</time>
      </trkpt>
      <trkpt lat="49.46222" lon="2.03376">
        <ele>85.9</ele>
        <time>2023-06-10T10:15:43Z</time>
      </trkpt>
      <trkpt lat="49.46217" lon="2.0338">
        <ele>86.2</ele>
        <time>2023-06-10T10:15:49Z</time>
      </trkpt>
      <trkpt lat="49.46216" lon="2.03383">
        <ele>86.1</ele>
        <time>2023-06-10T10:15:55Z</time>
      </trkpt>
      <trkpt lat="49.46208" lon="2.0338">
        <ele>87.2</ele>
        <time>2023-06-10T10:16:01Z</time>
      </trkpt>
      <trkpt lat="49.46205" lon="2.03381">
        <ele>87.5</ele>
        <time>2023-06-10T10:16:06Z</time>
      </trkpt>
      <trkpt lat="49.46202" lon="2.03379">
        <ele>87.9</ele>
        <time>2023-06-10T10:16:12Z</time>
      </trkpt>
      <trkpt lat="49.462" lon="2.03374">
        <ele>88.5</ele>
        <time>2023-06-10T10:16:18Z</time>
      </trkpt>
      <trkpt lat="49.46192" lon="2.03371">
        <ele>89.6</ele>
        <time>2023-06-10T10:16:23Z</time>
      </trkpt>
      <trkpt lat="49.46184" lon="2.03372">
        <ele>90.4</ele>
        <time>2023-06-10T10:16:29Z</time>
      </trkpt>
      <trkpt lat="49.46177" lon="2.03376">
        <ele>90.8</ele>
        <time>2023-06-10T10:16:34Z</time>
      </trkpt>
      <trkpt lat="49.46172" lon="2.0338">
        <ele>91</ele>
        <time>2023-06-10T10:16:39Z</time>
      </trkpt>
      <trkpt lat="49.46168" lon="2.03382">
        <ele>91.4</ele>
        <time>2023-06-10T10:16:44Z</time>
      </trkpt>
      <trkpt lat="49.4616" lon="2.03382">
        <ele>92.6</ele>
        <time>2023-06-10T10:16:50Z</time>
      </trkpt>
      <trkpt lat="49.46155" lon="2.03385">
        <ele>93.3</ele>
        <time>2023-06-10T10:16:55Z</time>
      </trkpt>
      <trkpt lat="49.4615" lon="2.03387">
        <ele>94.1</ele>
        <time>2023-06-10T10:17:01Z</time>
      </trkpt>
      <trkpt lat="49.46147" lon="2.03389">
        <ele>94.6</ele>
        <time>2023-06-10T10:17:06Z</time>
      </trkpt>
      <trkpt lat="49.46144" lon="2.03389">
        <ele>95</ele>
        <time>2023-06-10T10:17:11Z</time>
      </trkpt>
      <trkpt lat="49.46142" lon="2.03388">
        <ele>95.4</ele>
        <time>2023-06-10T10:17:16Z</time>
      </trkpt>
      <trkpt lat="49.46137" lon="2.0339">
        <ele>96.2</ele>
        <time>2023-06-10T10:17:22Z</time>
      </trkpt>
      <trkpt lat="49.46134" lon="2.03391">
        <ele>96.7</ele>
        <time>2023-06-10T10:17:27Z</time>
      </trkpt>
      <trkpt lat="49.46131" lon="2.03389">
        <ele>97.4</ele>
        <time>2023-06-10T10:17:33Z</time>
      </trkpt>
      <trkpt lat="49.46128" lon="2.03391">
        <ele>97.8</ele>
        <time>2023-06-10T10:17:38Z</time>
      </trkpt>
      <trkpt lat="49.46124" lon="2.03396">
        <ele>98.3</ele>
        <time>2023-06-10T10:17:44Z</time>
      </trkpt>
      <trkpt lat="49.46117" lon="2.03395">
        <ele>99.7</ele>
        <time>2023-06-10T10:17:50Z</time>
      </trkpt>
      <trkpt lat="49.4611" lon="2.03395">
        <ele>100.9</ele>
        <time>2023-06-10T10:17:56Z</time>
      </trkpt>
      <trkpt lat="49.46103" lon="2.03397">
        <ele>101.7</ele>
        <time>2023-06-10T10:18:02Z</time>
      </trkpt>
      <trkpt lat="49.46099" lon="2.03395">
        <ele>102.2</ele>
        <time>2023-06-10T10:18:07Z</time>
      </trkpt>
      <trkpt lat="49.46094" lon="2.03392">
        <ele>102.8</ele>
        <time>2023-06-10T10:18:12Z</time>
      </trkpt>
      <trkpt lat="49.46087" lon="2.0339">
        <ele>103.6</ele>
        <time>2023-06-10T10:18:18Z</time>
      </trkpt>
      <trkpt lat="49.46082" lon="2.03394">
        <ele>104.1</ele>
        <time>2023-06-10T10:18:24Z</time>
      </trkpt>
      <trkpt lat="49.46074" lon="2.03398">
        <ele>105</ele>
        <time>2023-06-10T10:18:30Z</time>
      </trkpt>
      <trkpt lat="49.46068" lon="2.03401">
        <ele>105.7</ele>
        <time>2023-06-10T10:18:36Z</time>
      </trkpt>
      <trkpt lat="49.46062" lon="2.03404">
        <ele>106.3</ele>
        <time>2023-06-10T10:18:41Z</time>
      </trkpt>
      <trkpt lat="49.46056" lon="2.03405">
        <ele>106.9</ele>
        <time>2023-06-10T10:18:47Z</time>
      </trkpt>
      <trkpt lat="49.46052" lon="2.03405">
        <ele>107.4</ele>
        <time>2023-06-10T10:18:52Z</time>
      </trkpt>
      <trkpt lat="49.46044" lon="2.03402">
        <ele>108.3</ele>
        <time>2023-06-10T10:18:58Z</time>
      </trkpt>
      <trkpt lat="49.46037" lon="2.03398">
        <ele>109</ele>
        <time>2023-06-10T10:19:03Z</time>
      </trkpt>
      <trkpt lat="49.46032" lon="2.03396">
        <ele>109.5</ele>
        <time>2023-06-10T10:19:09Z</time>
      </trkpt>
      <trkpt lat="49.46026" lon="2.03395">
        <ele>110.1</ele>
        <time>2023-06-10T10:19:15Z</time>
      </trkpt>
      <trkpt lat="49.4602" lon="2.03393">
        <ele>110.5</ele>
        <time>2023-06-10T10:19:21Z</time>
      </trkpt>
      <trkpt lat="49.46016" lon="2.0339">
        <ele>110.9</ele>
        <time>2023-06-10T10:19:26Z</time>
      </trkpt>
      <trkpt lat="49.46014" lon="2.03388">
        <ele>111</ele>
        <time>2023-06-10T10:19:31Z</time>
      </trkpt>
      <trkpt lat="49.46011" lon="2.03384">
        <ele>111.2</ele>
        <time>2023-06-10T10:19:37Z</time>
      </trkpt>
      <trkpt lat="49.46004" lon="2.03372">
        <ele>111.7</ele>
        <time>2023-06-10T10:19:42Z</time>
      </trkpt>
      <trkpt lat="49.45995" lon="2.03356">
        <ele>112.2</ele>
        <time>2023-06-10T10:19:48Z</time>
      </trkpt>
      <trkpt lat="49.45987" lon="2.03343">
        <ele>112.5</ele>
        <time>2023-06-10T10:19:54Z</time>
      </trkpt>
      <trkpt lat="49.45982" lon="2.03335">
        <ele>112.6</ele>
        <time>2023-06-10T10:19:59Z</time>
      </trkpt>
      <trkpt lat="49.45979" lon="2.03325">
        <ele>112.7</ele>
        <time>2023-06-10T10:20:05Z</time>
      </trkpt>
      <trkpt lat="49.45976" lon="2.0332">
        <ele>112.8</ele>
        <time>2023-06-10T10:20:11Z</time>
      </trkpt>
      <trkpt lat="49.45974" lon="2.03317">
        <ele>112.9</ele>
        <time>2023-06-10T10:20:16Z</time>
      </trkpt>
      <trkpt lat="49.45969" lon="2.03316">
        <ele>113.1</ele>
        <time>2023-06-10T10:20:21Z</time>
      </trkpt>
      <trkpt lat="49.45962" lon="2.03318">
        <ele>113.4</ele>
        <time>2023-06-10T10:20:27Z</time>
      </trkpt>
      <trkpt lat="49.45957" lon="2.03318">
        <ele>113.5</ele>
        <time>2023-06-10T10:20:32Z</time>
      </trkpt>
      <trkpt lat="49.45952" lon="2.03318">
        <ele>113.7</ele>
        <time>2023-06-10T10:20:38Z</time>
      </trkpt>
      <trkpt lat="49.45947" lon="2.03319">
        <ele>113.9</ele>
        <time>2023-06-10T10:20:43Z</time>
      </trkpt>
      <trkpt lat="49.45943" lon="2.03319">
        <ele>114</ele>
        <time>2023-06-10T10:20:49Z</time>
      </trkpt>
      <trkpt lat="49.45939" lon="2.03316">
        <ele>114.2</ele>
        <time>2023-06-10T10:20:55Z</time>
      </trkpt>
      <trkpt lat="49.45933" lon="2.03313">
        <ele>114.4</ele>
        <time>2023-06-10T10:21:01Z</time>
      </trkpt>
      <trkpt lat="49.45926" lon="2.03308">
        <ele>114.7</ele>
        <time>2023-06-10T10:21:07Z</time>
      </trkpt>
      <trkpt lat="49.45921" lon="2.03302">
        <ele>114.9</ele>
        <time>2023-06-10T10:21:13Z</time>
      </trkpt>
      <trkpt lat="49.45918" lon="2.03299">
        <ele>115</ele>
        <time>2023-06-10T10:21:18Z</time>
      </trkpt>
      <trkpt lat="49.45915" lon="2.03297">
        <ele>115.1</ele>
        <time>2023-06-10T10:21:23Z</time>
      </trkpt>
      <trkpt lat="49.45905" lon="2.0329">
        <ele>115.4</ele>
        <time>2023-06-10T10:21:28Z</time>
      </trkpt>
      <trkpt lat="49.45896" lon="2.03285">
        <ele>115.7</ele>
        <time>2023-06-10T10:21:34Z</time>
      </trkpt>
      <trkpt lat="49.45891" lon="2.03281">
        <ele>115.9</ele>
        <time>2023-06-10T10:21:39Z</time>
      </trkpt>
      <trkpt lat="49.45886" lon="2.03276">
        <ele>116.1</ele>
        <time>2023-06-10T10:21:45Z</time>
      </trkpt>
      <trkpt lat="49.45883" lon="2.03272">
        <ele>116.2</ele>
        <time>2023-06-10T10:21:51Z</time>
      </trkpt>
      <trkpt lat="49.45881" lon="2.0327">
        <ele>116.3</ele>
        <time>2023-06-10T10:21:56Z</time>
      </trkpt>
      <trkpt lat="49.45876" lon="2.03266">
        <ele>116.5</ele>
        <time>2023-06-10T10:22:02Z</time>
      </trkpt>
      <trkpt lat="49.45871" lon="2.0326">
        <ele>116.6</ele>
        <time>2023-06-10T10:22:07Z</time>
      </trkpt>
      <trkpt lat="49.45866" lon="2.03254">
        <ele>116.8</ele>
        <time>2023-06-10T10:22:13Z</time>
      </trkpt>
      <trkpt lat="49.45861" lon="2.03247">
        <ele>117</ele>
        <time>2023-06-10T10:22:19Z</time>
      </trkpt>
      <trkpt lat="49.45856" lon="2.03243">
        <ele>117.2</ele>
        <time>2023-06-10T10:22:25Z</time>
      </trkpt>
      <trkpt lat="49.45853" lon="2.03242">
        <ele>117.3</ele>
        <time>2023-06-10T10:22:30Z</time>
      </trkpt>
      <trkpt lat="49.45848" lon="2.0324">
        <ele>117.5</ele>
        <time>2023-06-10T10:22:36Z</time>
      </trkpt>
      <trkpt lat="49.45845" lon="2.03236">
        <ele>117.6</ele>
        <time>2023-06-10T10:22:42Z</time>
      </trkpt>
      <trkpt lat="49.4584" lon="2.03231">
        <ele>117.7</ele>
        <time>2023-06-10T10:22:48Z</time>
      </trkpt>
      <trkpt lat="49.45834" lon="2.03225">
        <ele>118</ele>
        <time>2023-06-10T10:22:53Z</time>
      </trkpt>
      <trkpt lat="49.45821" lon="2.03213">
        <ele>118.4</ele>
        <time>2023-06-10T10:22:59Z</time>
      </trkpt>
      <trkpt lat="49.45812" lon="2.03202">
        <ele>118.8</ele>
        <time>2023-06-10T10:23:05Z</time>
      </trkpt>
      <trkpt lat="49.45802" lon="2.0319">
        <ele>119.1</ele>
        <time>2023-06-10T10:23:10Z</time>
      </trkpt>
      <trkpt lat="49.45796" lon="2.03182">
        <ele>119.4</ele>
        <time>2023-06-10T10:23:16Z</time>
      </trkpt>
      <trkpt lat="49.45794" lon="2.03178">
        <ele>119.4</ele>
        <time>2023-06-10T10:23:21Z</time>
      </trkpt>
      <trkpt lat="49.4579" lon="2.03172">
        <ele>119.6</ele>
        <time>2023-06-10T10:23:26Z</time>
      </trkpt>
      <trkpt lat="49.45784" lon="2.03161">
        <ele>119.8</ele>
        <time>2023-06-10T10:23:32Z</time>
      </trkpt>
      <trkpt lat="49.45777" lon="2.03156">
        <ele>120</ele>
        <time>2023-06-10T10:23:38Z</time>
      </trkpt>
      <trkpt lat="49.45772" lon="2.03151">
        <ele>120.2</ele>
        <time>2023-06-10T10:23:43Z</time>
      </trkpt>
      <trkpt lat="49.45766" lon="2.03145">
        <ele>120.4</ele>
        <time>2023-06-10T10:23:48Z</time>
      </trkpt>
      <trkpt lat="49.45758" lon="2.03137">
        <ele>120.7</ele>
        <time>2023-06-10T10:23:54Z</time>
      </trkpt>
      <trkpt lat="49.45753" lon="2.03133">
        <ele>120.9</ele>
        <time>2023-06-10T10:23:59Z</time>
      </trkpt>
      <trkpt lat="49.45749" lon="2.0313">
        <ele>121</ele>
        <time>2023-06-10T10:24:04Z</time>
      </trkpt>
      <trkpt lat="49.45744" lon="2.0312">
        <ele>121.2</ele>
        <time>2023-06-10T10:24:10Z</time>
      </trkpt>
      <trkpt lat="49.45739" lon="2.03104">
        <ele>121.4</ele>
        <time>2023-06-10T10:24:16Z</time>
      </trkpt>
      <trkpt lat="49.45733" lon="2.03093">
        <ele>121.6</ele>
        <time>2023-06-10T10:24:22Z</time>
      </trkpt>
      <trkpt lat="49.45726" lon="2.0308">
        <ele>121.8</ele>
        <time>2023-06-10T10:24:27Z</time>
      </trkpt>
      <trkpt lat="49.45716" lon="2.03065">
        <ele>122.2</ele>
        <time>2023-06-10T10:24:33Z</time>
      </trkpt>
      <trkpt lat="49.45709" lon="2.03056">
        <ele>122.5</ele>
        <time>2023-06-10T10:24:38Z</time>
      </trkpt>
      <trkpt lat="49.45701" lon="2.0305">
        <ele>122.8</ele>
        <time>2023-06-10T10:24:44Z</time>
      </trkpt>
      <trkpt lat="49.45694" lon="2.03048">
        <ele>123</ele>
        <time>2023-06-10T10:24:49Z</time>
      </trkpt>
      <trkpt lat="49.45688" lon="2.03044">
        <ele>123</ele>
        <time>2023-06-10T10:24:55Z</time>
      </trkpt>
      <trkpt lat="49.45682" lon="2.03038">
        <ele>123</ele>
        <time>2023-06-10T10:25:00Z</time>
      </trkpt>
      <trkpt lat="49.45675" lon="2.0303">
        <ele>123</ele>
        <time>2023-06-10T10:25:06Z</time>
      </trkpt>
      <trkpt lat="49.45668" lon="2.03026">
        <ele>123.1</ele>
        <time>2023-06-10T10:25:11Z</time>
      </trkpt>
      <trkpt lat="49.45658" lon="2.03018">
        <ele>123.4</ele>
        <time>2023-06-10T10:25:17Z</time>
      </trkpt>
      <trkpt lat="49.45649" lon="2.03009">
        <ele>123.7</ele>
        <time>2023-06-10T10:25:22Z</time>
      </trkpt>
      <trkpt lat="49.45641" lon="2.03003">
        <ele>123.9</ele>
        <time>2023-06-10T10:25:27Z</time>
      </trkpt>
      <trkpt lat="49.45635" lon="2.03">
        <ele>124</ele>
        <time>2023-06-10T10:25:32Z</time>
      </trkpt>
      <trkpt lat="49.45629" lon="2.02992">
        <ele>124</ele>
        <time>2023-06-10T10:25:38Z</time>
      </trkpt>
      <trkpt lat="49.45625" lon="2.02983">
        <ele>124</ele>
        <time>2023-06-10T10:25:43Z</time>
      </trkpt>
      <trkpt lat="49.45617" lon="2.02967">
        <ele>124</ele>
        <time>2023-06-10T10:25:49Z</time>
      </trkpt>
      <trkpt lat="49.45611" lon="2.02956">
        <ele>124</ele>
        <time>2023-06-10T10:25:54Z</time>
      </trkpt>
      <trkpt lat="49.456" lon="2.02933">
        <ele>124.2</ele>
        <time>2023-06-10T10:26:00Z</time>
      </trkpt>
      <trkpt lat="49.45591" lon="2.02913">
        <ele>124.4</ele>
        <time>2023-06-10T10:26:05Z</time>
      </trkpt>
      <trkpt lat="49.45588" lon="2.02895">
        <ele>124.8</ele>
        <time>2023-06-10T10:26:11Z</time>
      </trkpt>
      <trkpt lat="49.45587" lon="2.02886">
        <ele>125</ele>
        <time>2023-06-10T10:26:17Z</time>
      </trkpt>
      <trkpt lat="49.45586" lon="2.02877">
        <ele>125</ele>
        <time>2023-06-10T10:26:22Z</time>
      </trkpt>
      <trkpt lat="49.45586" lon="2.02868">
        <ele>125</ele>
        <time>2023-06-10T10:26:28Z</time>
      </trkpt>
      <trkpt lat="49.45586" lon="2.0286">
        <ele>125</ele>
        <time>2023-06-10T10:26:34Z</time>
      </trkpt>
      <trkpt lat="49.45582" lon="2.02849">
        <ele>125.4</ele>
        <time>2023-06-10T10:26:40Z</time>
      </trkpt>
      <trkpt lat="49.45578" lon="2.02836">
        <ele>125.9</ele>
        <time>2023-06-10T10:26:46Z</time>
      </trkpt>
      <trkpt lat="49.45575" lon="2.02829">
        <ele>126</ele>
        <time>2023-06-10T10:26:51Z</time>
      </trkpt>
      <trkpt lat="49.45572" lon="2.0282">
        <ele>126</ele>
        <time>2023-06-10T10:26:57Z</time>
      </trkpt>
      <trkpt lat="49.45569" lon="2.02809">
        <ele>126</ele>
        <time>2023-06-10T10:27:03Z</time>
      </trkpt>
      <trkpt lat="49.45565" lon="2.02799">
        <ele>126.1</ele>
        <time>2023-06-10T10:27:09Z</time>
      </trkpt>
      <trkpt lat="49.45559" lon="2.02789">
        <ele>126.1</ele>
        <time>2023-06-10T10:27:15Z</time>
      </trkpt>
      <trkpt lat="49.45553" lon="2.0278">
        <ele>126</ele>
        <time>2023-06-10T10:27:20Z</time>
      </trkpt>
      <trkpt lat="49.45547" lon="2.02769">
        <ele>126.2</ele>
        <time>2023-06-10T10:27:26Z</time>
      </trkpt>
      <trkpt lat="49.45542" lon="2.02761">
        <ele>126.3</ele>
        <time>2023-06-10T10:27:32Z</time>
      </trkpt>
      <trkpt lat="49.45538" lon="2.02755">
        <ele>126.3</ele>
        <time>2023-06-10T10:27:37Z</time>
      </trkpt>
      <trkpt lat="49.45536" lon="2.02751">
        <ele>126.3</ele>
        <time>2023-06-10T10:27:43Z</time>
      </trkpt>
      <trkpt lat="49.45535" lon="2.02745">
        <ele>126.4</ele>
        <time>2023-06-10T10:27:49Z</time>
      </trkpt>
      <trkpt lat="49.45534" lon="2.0274">
        <ele>126.5</ele>
        <time>2023-06-10T10:27:54Z</time>
      </trkpt>
      <trkpt lat="49.45533" lon="2.02735">
        <ele>126.6</ele>
        <time>2023-06-10T10:27:59Z</time>
      </trkpt>
      <trkpt lat="49.45529" lon="2.02726">
        <ele>126.9</ele>
        <time>2023-06-10T10:28:05Z</time>
      </trkpt>
      <trkpt lat="49.45527" lon="2.0272">
        <ele>127</ele>
        <time>2023-06-10T10:28:10Z</time>
      </trkpt>
      <trkpt lat="49.45526" lon="2.02716">
        <ele>126.9</ele>
        <time>2023-06-10T10:28:16Z</time>
      </trkpt>
      <trkpt lat="49.45524" lon="2.02711">
        <ele>126.9</ele>
        <time>2023-06-10T10:28:21Z</time>
      </trkpt>
      <trkpt lat="49.45521" lon="2.02703">
        <ele>126.8</ele>
        <time>2023-06-10T10:28:26Z</time>
      </trkpt>
      <trkpt lat="49.45518" lon="2.02696">
        <ele>126.6</ele>
        <time>2023-06-10T10:28:32Z</time>
      </trkpt>
      <trkpt lat="49.45517" lon="2.02692">
        <ele>126.6</ele>
        <time>2023-06-10T10:28:38Z</time>
      </trkpt>
      <trkpt lat="49.45516" lon="2.02688">
        <ele>126.7</ele>
        <time>2023-06-10T10:28:43Z</time>
      </trkpt>
      <trkpt lat="49.45516" lon="2.02682">
        <ele>126.8</ele>
        <time>2023-06-10T10:28:49Z</time>
      </trkpt>
      <trkpt lat="49.45514" lon="2.02674">
        <ele>126.9</ele>
        <time>2023-06-10T10:28:55Z</time>
      </trkpt>
      <trkpt lat="49.45508" lon="2.02657">
        <ele>127.3</ele>
        <time>2023-06-10T10:29:01Z</time>
      </trkpt>
      <trkpt lat="49.45503" lon="2.02639">
        <ele>127.9</ele>
        <time>2023-06-10T10:29:06Z</time>
      </trkpt>
      <trkpt lat="49.45501" lon="2.02627">
        <ele>128</ele>
        <time>2023-06-10T10:29:12Z</time>
      </trkpt>
      <trkpt lat="49.45499" lon="2.02618">
        <ele>128</ele>
        <time>2023-06-10T10:29:17Z</time>
      </trkpt>
      <trkpt lat="49.45494" lon="2.02611">
        <ele>128</ele>
        <time>2023-06-10T10:29:23Z</time>
      </trkpt>
      <trkpt lat="49.45491" lon="2.02603">
        <ele>128</ele>
        <time>2023-06-10T10:29:28Z</time>
      </trkpt>
      <trkpt lat="49.45484" lon="2.02589">
        <ele>128</ele>
        <time>2023-06-10T10:29:34Z</time>
      </trkpt>
      <trkpt lat="49.45476" lon="2.02572">
        <ele>128.3</ele>
        <time>2023-06-10T10:29:39Z</time>
      </trkpt>
      <trkpt lat="49.4547" lon="2.02555">
        <ele>128.9</ele>
        <time>2023-06-10T10:29:44Z</time>
      </trkpt>
      <trkpt lat="49.45462" lon="2.02541">
        <ele>128.8</ele>
        <time>2023-06-10T10:29:50Z</time>
      </trkpt>
      <trkpt lat="49.45456" lon="2.02527">
        <ele>129</ele>
        <time>2023-06-10T10:29:55Z</time>
      </trkpt>
      <trkpt lat="49.45449" lon="2.02509">
        <ele>129</ele>
        <time>2023-06-10T10:30:01Z</time>
      </trkpt>
      <trkpt lat="49.45443" lon="2.02499">
        <ele>129</ele>
        <time>2023-06-10T10:30:06Z</time>
      </trkpt>
      <trkpt lat="49.45436" lon="2.02488">
        <ele>129</ele>
        <time>2023-06-10T10:30:12Z</time>
      </trkpt>
      <trkpt lat="49.45434" lon="2.02481">
        <ele>129</ele>
        <time>2023-06-10T10:30:17Z</time>
      </trkpt>
      <trkpt lat="49.45433" lon="2.02471">
        <ele>129</ele>
        <time>2023-06-10T10:30:23Z</time>
      </trkpt>
      <trkpt lat="49.4543" lon="2.02461">
        <ele>129.2</ele>
        <time>2023-06-10T10:30:28Z</time>
      </trkpt>
      <trkpt lat="49.45426" lon="2.02448">
        <ele>129.3</ele>
        <time>2023-06-10T10:30:34Z</time>
      </trkpt>
      <trkpt lat="49.45422" lon="2.02437">
        <ele>129.4</ele>
        <time>2023-06-10T10:30:39Z</time>
      </trkpt>
      <trkpt lat="49.45418" lon="2.02424">
        <ele>129.7</ele>
        <time>2023-06-10T10:30:45Z</time>
      </trkpt>
      <trkpt lat="49.45414" lon="2.02411">
        <ele>129.9</ele>
        <time>2023-06-10T10:30:51Z</time>
      </trkpt>
      <trkpt lat="49.45411" lon="2.02404">
        <ele>129.9</ele>
        <time>2023-06-10T10:30:56Z</time>
      </trkpt>
      <trkpt lat="49.45405" lon="2.0239">
        <ele>130</ele>
        <time>2023-06-10T10:31:02Z</time>
      </trkpt>
      <trkpt lat="49.45402" lon="2.02377">
        <ele>130</ele>
        <time>2023-06-10T10:31:07Z</time>
      </trkpt>
      <trkpt lat="49.45396" lon="2.02364">
        <ele>130</ele>
        <time>2023-06-10T10:31:13Z</time>
      </trkpt>
      <trkpt lat="49.45391" lon="2.02347">
        <ele>130</ele>
        <time>2023-06-10T10:31:19Z</time>
      </trkpt>
      <trkpt lat="49.45387" lon="2.02335">
        <ele>130</ele>
        <time>2023-06-10T10:31:25Z</time>
      </trkpt>
      <trkpt lat="49.45382" lon="2.02322">
        <ele>130</ele>
        <time>2023-06-10T10:31:31Z</time>
      </trkpt>
      <trkpt lat="49.45379" lon="2.02314">
        <ele>130</ele>
        <time>2023-06-10T10:31:36Z</time>
      </trkpt>
      <trkpt lat="49.45375" lon="2.02307">
        <ele>130</ele>
        <time>2023-06-10T10:31:42Z</time>
      </trkpt>
      <trkpt lat="49.45372" lon="2.023">
        <ele>130</ele>
        <time>2023-06-10T10:31:47Z</time>
      </trkpt>
      <trkpt lat="49.45365" lon="2.02284">
        <ele>130</ele>
        <time>2023-06-10T10:31:53Z</time>
      </trkpt>
      <trkpt lat="49.45361" lon="2.02276">
        <ele>130</ele>
        <time>2023-06-10T10:31:58Z</time>
      </trkpt>
      <trkpt lat="49.45356" lon="2.02269">
        <ele>129.9</ele>
        <time>2023-06-10T10:32:04Z</time>
      </trkpt>
      <trkpt lat="49.45353" lon="2.02261">
        <ele>129.9</ele>
        <time>2023-06-10T10:32:09Z</time>
      </trkpt>
      <trkpt lat="49.45348" lon="2.02248">
        <ele>130</ele>
        <time>2023-06-10T10:32:15Z</time>
      </trkpt>
      <trkpt lat="49.45344" lon="2.02236">
        <ele>130</ele>
        <time>2023-06-10T10:32:20Z</time>
      </trkpt>
      <trkpt lat="49.45338" lon="2.02226">
        <ele>130</ele>
        <time>2023-06-10T10:32:26Z</time>
      </trkpt>
      <trkpt lat="49.45334" lon="2.02211">
        <ele>130</ele>
        <time>2023-06-10T10:32:32Z</time>
      </trkpt>
      <trkpt lat="49.45332" lon="2.02202">
        <ele>130</ele>
        <time>2023-06-10T10:32:37Z</time>
      </trkpt>
      <trkpt lat="49.4533" lon="2.02192">
        <ele>130</ele>
        <time>2023-06-10T10:32:43Z</time>
      </trkpt>
      <trkpt lat="49.45328" lon="2.0218">
        <ele>130</ele>
        <time>2023-06-10T10:32:48Z</time>
      </trkpt>
      <trkpt lat="49.45322" lon="2.02167">
        <ele>130</ele>
        <time>2023-06-10T10:32:54Z</time>
      </trkpt>
      <trkpt lat="49.45315" lon="2.02158">
        <ele>130.2</ele>
        <time>2023-06-10T10:32:59Z</time>
      </trkpt>
      <trkpt lat="49.45309" lon="2.02148">
        <ele>130.6</ele>
        <time>2023-06-10T10:33:05Z</time>
      </trkpt>
      <trkpt lat="49.45304" lon="2.0214">
        <ele>130.9</ele>
        <time>2023-06-10T10:33:10Z</time>
      </trkpt>
      <trkpt lat="49.453" lon="2.02131">
        <ele>130.9</ele>
        <time>2023-06-10T10:33:15Z</time>
      </trkpt>
      <trkpt lat="49.45295" lon="2.02121">
        <ele>130.9</ele>
        <time>2023-06-10T10:33:20Z</time>
      </trkpt>
      <trkpt lat="49.45289" lon="2.02113">
        <ele>131</ele>
        <time>2023-06-10T10:33:26Z</time>
      </trkpt>
      <trkpt lat="49.45284" lon="2.02108">
        <ele>131</ele>
        <time>2023-06-10T10:33:31Z</time>
      </trkpt>
      <trkpt lat="49.45276" lon="2.02108">
        <ele>131</ele>
        <time>2023-06-10T10:33:37Z</time>
      </trkpt>
      <trkpt lat="49.45271" lon="2.02111">
        <ele>131</ele>
        <time>2023-06-10T10:33:42Z</time>
      </trkpt>
      <trkpt lat="49.45265" lon="2.02116">
        <ele>130.8</ele>
        <time>2023-06-10T10:33:48Z</time>
      </trkpt>
      <trkpt lat="49.45258" lon="2.0212">
        <ele>130.7</ele>
        <time>2023-06-10T10:33:54Z</time>
      </trkpt>
      <trkpt lat="49.45252" lon="2.02124">
        <ele>130.6</ele>
        <time>2023-06-10T10:33:59Z</time>
      </trkpt>
      <trkpt lat="49.45247" lon="2.02127">
        <ele>130.4</ele>
        <time>2023-06-10T10:34:04Z</time>
      </trkpt>
      <trkpt lat="49.45242" lon="2.02135">
        <ele>130.1</ele>
        <time>2023-06-10T10:34:10Z</time>
      </trkpt>
      <trkpt lat="49.45238" lon="2.02144">
        <ele>129.9</ele>
        <time>2023-06-10T10:34:15Z</time>
      </trkpt>
      <trkpt lat="49.45232" lon="2.02153">
        <ele>129.7</ele>
        <time>2023-06-10T10:34:21Z</time>
      </trkpt>
      <trkpt lat="49.45225" lon="2.02162">
        <ele>129.2</ele>
        <time>2023-06-10T10:34:26Z</time>
      </trkpt>
      <trkpt lat="49.45218" lon="2.02172">
        <ele>129.1</ele>
        <time>2023-06-10T10:34:31Z</time>
      </trkpt>
      <trkpt lat="49.45214" lon="2.02182">
        <ele>129.1</ele>
        <time>2023-06-10T10:34:36Z</time>
      </trkpt>
      <trkpt lat="49.45207" lon="2.02194">
        <ele>129</ele>
        <time>2023-06-10T10:34:42Z</time>
      </trkpt>
      <trkpt lat="49.452" lon="2.02207">
        <ele>128.7</ele>
        <time>2023-06-10T10:34:48Z</time>
      </trkpt>
      <trkpt lat="49.45195" lon="2.02214">
        <ele>128.3</ele>
        <time>2023-06-10T10:34:53Z</time>
      </trkpt>
      <trkpt lat="49.45189" lon="2.02224">
        <ele>128</ele>
        <time>2023-06-10T10:34:59Z</time>
      </trkpt>
      <trkpt lat="49.45183" lon="2.02235">
        <ele>128</ele>
        <time>2023-06-10T10:35:05Z</time>
      </trkpt>
      <trkpt lat="49.45178" lon="2.02245">
        <ele>128</ele>
        <time>2023-06-10T10:35:11Z</time>
      </trkpt>
      <trkpt lat="49.45174" lon="2.02255">
        <ele>128</ele>
        <time>2023-06-10T10:35:17Z</time>
      </trkpt>
      <trkpt lat="49.45168" lon="2.02265">
        <ele>128</ele>
        <time>2023-06-10T10:35:22Z</time>
      </trkpt>
      <trkpt lat="49.45161" lon="2.02273">
        <ele>128.4</ele>
        <time>2023-06-10T10:35:27Z</time>
      </trkpt>
      <trkpt lat="49.45155" lon="2.02283">
        <ele>128.8</ele>
        <time>2023-06-10T10:35:33Z</time>
      </trkpt>
      <trkpt lat="49.45148" lon="2.02295">
        <ele>128.9</ele>
        <time>2023-06-10T10:35:39Z</time>
      </trkpt>
      <trkpt lat="49.45143" lon="2.02304">
        <ele>128.9</ele>
        <time>2023-06-10T10:35:44Z</time>
      </trkpt>
      <trkpt lat="49.45138" lon="2.02314">
        <ele>129.1</ele>
        <time>2023-06-10T10:35:50Z</time>
      </trkpt>
      <trkpt lat="49.45132" lon="2.02324">
        <ele>129.5</ele>
        <time>2023-06-10T10:35:56Z</time>
      </trkpt>
      <trkpt lat="49.45127" lon="2.02333">
        <ele>129.9</ele>
        <time>2023-06-10T10:36:02Z</time>
      </trkpt>
      <trkpt lat="49.45122" lon="2.02341">
        <ele>130</ele>
        <time>2023-06-10T10:36:08Z</time>
      </trkpt>
      <trkpt lat="49.45118" lon="2.02348">
        <ele>130.1</ele>
        <time>2023-06-10T10:36:13Z</time>
      </trkpt>
      <trkpt lat="49.45114" lon="2.02357">
        <ele>130.1</ele>
        <time>2023-06-10T10:36:18Z</time>
      </trkpt>
      <trkpt lat="49.45107" lon="2.02369">
        <ele>130.5</ele>
        <time>2023-06-10T10:36:24Z</time>
      </trkpt>
      <trkpt lat="49.45102" lon="2.02379">
        <ele>130.9</ele>
        <time>2023-06-10T10:36:29Z</time>
      </trkpt>
      <trkpt lat="49.45096" lon="2.0239">
        <ele>131</ele>
        <time>2023-06-10T10:36:35Z</time>
      </trkpt>
      <trkpt lat="49.4509" lon="2.02402">
        <ele>130.9</ele>
        <time>2023-06-10T10:36:40Z</time>
      </trkpt>
      <trkpt lat="49.45083" lon="2.02414">
        <ele>131</ele>
        <time>2023-06-10T10:36:46Z</time>
      </trkpt>
      <trkpt lat="49.45075" lon="2.02424">
        <ele>131.3</ele>
        <time>2023-06-10T10:36:52Z</time>
      </trkpt>
      <trkpt lat="49.45069" lon="2.02432">
        <ele>131.5</ele>
        <time>2023-06-10T10:36:58Z</time>
      </trkpt>
      <trkpt lat="49.45064" lon="2.02439">
        <ele>131.7</ele>
        <time>2023-06-10T10:37:04Z</time>
      </trkpt>
      <trkpt lat="49.4506" lon="2.02443">
        <ele>131.8</ele>
        <time>2023-06-10T10:37:09Z</time>
      </trkpt>
      <trkpt lat="49.45057" lon="2.02449">
        <ele>131.8</ele>
        <time>2023-06-10T10:37:15Z</time>
      </trkpt>
      <trkpt lat="49.45054" lon="2.02456">
        <ele>131.6</ele>
        <time>2023-06-10T10:37:20Z</time>
      </trkpt>
      <trkpt lat="49.4505" lon="2.02463">
        <ele>131.4</ele>
        <time>2023-06-10T10:37:26Z</time>
      </trkpt>
      <trkpt lat="49.45045" lon="2.02468">
        <ele>131.5</ele>
        <time>2023-06-10T10:37:31Z</time>
      </trkpt>
      <trkpt lat="49.45037" lon="2.02477">
        <ele>131.5</ele>
        <time>2023-06-10T10:37:37Z</time>
      </trkpt>
      <trkpt lat="49.45033" lon="2.02486">
        <ele>131.4</ele>
        <time>2023-06-10T10:37:42Z</time>
      </trkpt>
      <trkpt lat="49.45028" lon="2.02497">
        <ele>131.1</ele>
        <time>2023-06-10T10:37:48Z</time>
      </trkpt>
      <trkpt lat="49.45025" lon="2.02504">
        <ele>131</ele>
        <time>2023-06-10T10:37:54Z</time>
      </trkpt>
      <trkpt lat="49.45019" lon="2.02515">
        <ele>131</ele>
        <time>2023-06-10T10:37:59Z</time>
      </trkpt>
      <trkpt lat="49.4501" lon="2.02528">
        <ele>131</ele>
        <time>2023-06-10T10:38:05Z</time>
      </trkpt>
      <trkpt lat="49.45002" lon="2.02542">
        <ele>130.5</ele>
        <time>2023-06-10T10:38:11Z</time>
      </trkpt>
      <trkpt lat="49.44996" lon="2.02551">
        <ele>130.2</ele>
        <time>2023-06-10T10:38:16Z</time>
      </trkpt>
      <trkpt lat="49.44992" lon="2.0256">
        <ele>129.9</ele>
        <time>2023-06-10T10:38:22Z</time>
      </trkpt>
      <trkpt lat="49.44987" lon="2.02568">
        <ele>129.5</ele>
        <time>2023-06-10T10:38:27Z</time>
      </trkpt>
      <trkpt lat="49.44983" lon="2.02577">
        <ele>129.2</ele>
        <time>2023-06-10T10:38:32Z</time>
      </trkpt>
      <trkpt lat="49.44977" lon="2.02585">
        <ele>129</ele>
        <time>2023-06-10T10:38:38Z</time>
      </trkpt>
      <trkpt lat="49.44972" lon="2.02593">
        <ele>129</ele>
        <time>2023-06-10T10:38:43Z</time>
      </trkpt>
      <trkpt lat="49.44965" lon="2.02601">
        <ele>129</ele>
        <time>2023-06-10T10:38:49Z</time>
      </trkpt>
      <trkpt lat="49.44959" lon="2.02608">
        <ele>129</ele>
        <time>2023-06-10T10:38:55Z</time>
      </trkpt>
      <trkpt lat="49.44952" lon="2.02619">
        <ele>128.7</ele>
        <time>2023-06-10T10:39:01Z</time>
      </trkpt>
      <trkpt lat="49.44947" lon="2.02627">
        <ele>128.4</ele>
        <time>2023-06-10T10:39:06Z</time>
      </trkpt>
      <trkpt lat="49.44941" lon="2.02638">
        <ele>127.9</ele>
        <time>2023-06-10T10:39:12Z</time>
      </trkpt>
      <trkpt lat="49.44935" lon="2.02647">
        <ele>127.5</ele>
        <time>2023-06-10T10:39:17Z</time>
      </trkpt>
      <trkpt lat="49.44929" lon="2.02657">
        <ele>127.1</ele>
        <time>2023-06-10T10:39:23Z</time>
      </trkpt>
      <trkpt lat="49.44923" lon="2.02667">
        <ele>127</ele>
        <time>2023-06-10T10:39:28Z</time>
      </trkpt>
      <trkpt lat="49.44916" lon="2.02678">
        <ele>126.1</ele>
        <time>2023-06-10T10:39:34Z</time>
      </trkpt>
      <trkpt lat="49.44911" lon="2.02684">
        <ele>125.3</ele>
        <time>2023-06-10T10:39:40Z</time>
      </trkpt>
      <trkpt lat="49.44907" lon="2.02691">
        <ele>124.5</ele>
        <time>2023-06-10T10:39:45Z</time>
      </trkpt>
      <trkpt lat="49.44902" lon="2.02699">
        <ele>123.6</ele>
        <time>2023-06-10T10:39:51Z</time>
      </trkpt>
      <trkpt lat="49.44898" lon="2.02705">
        <ele>123</ele>
        <time>2023-06-10T10:39:56Z</time>
      </trkpt>
      <trkpt lat="49.44894" lon="2.02711">
        <ele>122.2</ele>
        <time>2023-06-10T10:40:02Z</time>
      </trkpt>
      <trkpt lat="49.4489" lon="2.02716">
        <ele>121.6</ele>
        <time>2023-06-10T10:40:07Z</time>
      </trkpt>
      <trkpt lat="49.44883" lon="2.02722">
        <ele>120.2</ele>
        <time>2023-06-10T10:40:13Z</time>
      </trkpt>
      <trkpt lat="49.44878" lon="2.0273">
        <ele>119.1</ele>
        <time>2023-06-10T10:40:18Z</time>
      </trkpt>
      <trkpt lat="49.44873" lon="2.02737">
        <ele>118.1</ele>
        <time>2023-06-10T10:40:23Z</time>
      </trkpt>
      <trkpt lat="49.44865" lon="2.02745">
        <ele>116.7</ele>
        <time>2023-06-10T10:40:29Z</time>
      </trkpt>
      <trkpt lat="49.4486" lon="2.02752">
        <ele>115.9</ele>
        <time>2023-06-10T10:40:34Z</time>
      </trkpt>
      <trkpt lat="49.44855" lon="2.02757">
        <ele>115.7</ele>
        <time>2023-06-10T10:40:39Z</time>
      </trkpt>
      <trkpt lat="49.44851" lon="2.0276">
        <ele>115.7</ele>
        <time>2023-06-10T10:40:45Z</time>
      </trkpt>
      <trkpt lat="49.44849" lon="2.0276">
        <ele>115.7</ele>
        <time>2023-06-10T10:40:50Z</time>
      </trkpt>
      <trkpt lat="49.4485" lon="2.02762">
        <ele>115.7</ele>
        <time>2023-06-10T10:40:56Z</time>
      </trkpt>
      <trkpt lat="49.4485" lon="2.02764">
        <ele>115.7</ele>
        <time>2023-06-10T10:41:01Z</time>
      </trkpt>
      <trkpt lat="49.4485" lon="2.02768">
        <ele>115.7</ele>
        <time>2023-06-10T10:41:07Z</time>
      </trkpt>
      <trkpt lat="49.44851" lon="2.02771">
        <ele>115.7</ele>
        <time>2023-06-10T10:41:13Z</time>
      </trkpt>
      <trkpt lat="49.44853" lon="2.0277">
        <ele>115.6</ele>
        <time>2023-06-10T10:41:19Z</time>
      </trkpt>
      <trkpt lat="49.44853" lon="2.02766">
        <ele>115.6</ele>
        <time>2023-06-10T10:41:24Z</time>
      </trkpt>
      <trkpt lat="49.44851" lon="2.02761">
        <ele>115.7</ele>
        <time>2023-06-10T10:41:30Z</time>
      </trkpt>
      <trkpt lat="49.44849" lon="2.02759">
        <ele>115.7</ele>
        <time>2023-06-10T10:41:35Z</time>
      </trkpt>
      <trkpt lat="49.44846" lon="2.02755">
        <ele>115.6</ele>
        <time>2023-06-10T10:41:40Z</time>
      </trkpt>
      <trkpt lat="49.4484" lon="2.0275">
        <ele>115.3</ele>
        <time>2023-06-10T10:41:46Z</time>
      </trkpt>
      <trkpt lat="49.44836" lon="2.02741">
        <ele>115.4</ele>
        <time>2023-06-10T10:41:52Z</time>
      </trkpt>
      <trkpt lat="49.44833" lon="2.02729">
        <ele>115.8</ele>
        <time>2023-06-10T10:41:58Z</time>
      </trkpt>
      <trkpt lat="49.44831" lon="2.02716">
        <ele>116.5</ele>
        <time>2023-06-10T10:42:04Z</time>
      </trkpt>
      <trkpt lat="49.44828" lon="2.02709">
        <ele>117</ele>
        <time>2023-06-10T10:42:10Z</time>
      </trkpt>
      <trkpt lat="49.44823" lon="2.02703">
        <ele>117.4</ele>
        <time>2023-06-10T10:42:16Z</time>
      </trkpt>
      <trkpt lat="49.44821" lon="2.02696">
        <ele>117.5</ele>
        <time>2023-06-10T10:42:22Z</time>
      </trkpt>
      <trkpt lat="49.44819" lon="2.02689">
        <ele>117.5</ele>
        <time>2023-06-10T10:42:27Z</time>
      </trkpt>
      <trkpt lat="49.44815" lon="2.02679">
        <ele>117.5</ele>
        <time>2023-06-10T10:42:33Z</time>
      </trkpt>
      <trkpt lat="49.44812" lon="2.02674">
        <ele>117.4</ele>
        <time>2023-06-10T10:42:38Z</time>
      </trkpt>
      <trkpt lat="49.44809" lon="2.0267">
        <ele>117.2</ele>
        <time>2023-06-10T10:42:44Z</time>
      </trkpt>
      <trkpt lat="49.44806" lon="2.0266">
        <ele>117.3</ele>
        <time>2023-06-10T10:42:50Z</time>
      </trkpt>
      <trkpt lat="49.44803" lon="2.02647">
        <ele>118</ele>
        <time>2023-06-10T10:42:55Z</time>
      </trkpt>
      <trkpt lat="49.44796" lon="2.02636">
        <ele>118.7</ele>
        <time>2023-06-10T10:43:01Z</time>
      </trkpt>
      <trkpt lat="49.44794" lon="2.02629">
        <ele>118.9</ele>
        <time>2023-06-10T10:43:06Z</time>
      </trkpt>
      <trkpt lat="49.44789" lon="2.02621">
        <ele>119.1</ele>
        <time>2023-06-10T10:43:12Z</time>
      </trkpt>
      <trkpt lat="49.44788" lon="2.02614">
        <ele>119</ele>
        <time>2023-06-10T10:43:17Z</time>
      </trkpt>
      <trkpt lat="49.44786" lon="2.02608">
        <ele>119</ele>
        <time>2023-06-10T10:43:22Z</time>
      </trkpt>
      <trkpt lat="49.44781" lon="2.026">
        <ele>119.1</ele>
        <time>2023-06-10T10:43:28Z</time>
      </trkpt>
      <trkpt lat="49.44777" lon="2.02591">
        <ele>119.1</ele>
        <time>2023-06-10T10:43:33Z</time>
      </trkpt>
      <trkpt lat="49.44772" lon="2.02583">
        <ele>120.1</ele>
        <time>2023-06-10T10:43:39Z</time>
      </trkpt>
      <trkpt lat="49.44767" lon="2.02568">
        <ele>120.4</ele>
        <time>2023-06-10T10:43:45Z</time>
      </trkpt>
      <trkpt lat="49.44763" lon="2.02553">
        <ele>120.1</ele>
        <time>2023-06-10T10:43:50Z</time>
      </trkpt>
      <trkpt lat="49.44758" lon="2.02539">
        <ele>120.4</ele>
        <time>2023-06-10T10:43:56Z</time>
      </trkpt>
      <trkpt lat="49.44754" lon="2.0253">
        <ele>120.8</ele>
        <time>2023-06-10T10:44:01Z</time>
      </trkpt>
      <trkpt lat="49.4475" lon="2.02522">
        <ele>121.2</ele>
        <time>2023-06-10T10:44:06Z</time>
      </trkpt>
      <trkpt lat="49.44742" lon="2.02514">
        <ele>121.9</ele>
        <time>2023-06-10T10:44:12Z</time>
      </trkpt>
      <trkpt lat="49.44735" lon="2.02508">
        <ele>122.4</ele>
        <time>2023-06-10T10:44:17Z</time>
      </trkpt>
      <trkpt lat="49.44728" lon="2.02501">
        <ele>122.8</ele>
        <time>2023-06-10T10:44:23Z</time>
      </trkpt>
      <trkpt lat="49.4472" lon="2.02494">
        <ele>123.3</ele>
        <time>2023-06-10T10:44:29Z</time>
      </trkpt>
      <trkpt lat="49.44715" lon="2.0249">
        <ele>123.7</ele>
        <time>2023-06-10T10:44:34Z</time>
      </trkpt>
      <trkpt lat="49.44709" lon="2.02485">
        <ele>124</ele>
        <time>2023-06-10T10:44:40Z</time>
      </trkpt>
      <trkpt lat="49.44705" lon="2.02477">
        <ele>124</ele>
        <time>2023-06-10T10:44:45Z</time>
      </trkpt>
      <trkpt lat="49.44697" lon="2.02469">
        <ele>124.1</ele>
        <time>2023-06-10T10:44:51Z</time>
      </trkpt>
      <trkpt lat="49.44691" lon="2.02462">
        <ele>124.7</ele>
        <time>2023-06-10T10:44:57Z</time>
      </trkpt>
      <trkpt lat="49.44685" lon="2.02455">
        <ele>125.2</ele>
        <time>2023-06-10T10:45:03Z</time>
      </trkpt>
      <trkpt lat="49.44681" lon="2.02451">
        <ele>125.5</ele>
        <time>2023-06-10T10:45:09Z</time>
      </trkpt>
      <trkpt lat="49.44674" lon="2.02444">
        <ele>125.8</ele>
        <time>2023-06-10T10:45:15Z</time>
      </trkpt>
      <trkpt lat="49.44672" lon="2.0244">
        <ele>125.8</ele>
        <time>2023-06-10T10:45:20Z</time>
      </trkpt>
      <trkpt lat="49.44671" lon="2.02436">
        <ele>125.9</ele>
        <time>2023-06-10T10:45:26Z</time>
      </trkpt>
      <trkpt lat="49.44668" lon="2.02431">
        <ele>126</ele>
        <time>2023-06-10T10:45:32Z</time>
      </trkpt>
      <trkpt lat="49.44665" lon="2.02426">
        <ele>126.1</ele>
        <time>2023-06-10T10:45:37Z</time>
      </trkpt>
      <trkpt lat="49.44659" lon="2.02415">
        <ele>126.6</ele>
        <time>2023-06-10T10:45:43Z</time>
      </trkpt>
      <trkpt lat="49.44652" lon="2.02406">
        <ele>127.2</ele>
        <time>2023-06-10T10:45:49Z</time>
      </trkpt>
      <trkpt lat="49.44645" lon="2.024">
        <ele>127.7</ele>
        <time>2023-06-10T10:45:54Z</time>
      </trkpt>
      <trkpt lat="49.44635" lon="2.02391">
        <ele>128.3</ele>
        <time>2023-06-10T10:46:00Z</time>
      </trkpt>
      <trkpt lat="49.4463" lon="2.02386">
        <ele>128.7</ele>
        <time>2023-06-10T10:46:05Z</time>
      </trkpt>
      <trkpt lat="49.44627" lon="2.02385">
        <ele>129</ele>
        <time>2023-06-10T10:46:11Z</time>
      </trkpt>
      <trkpt lat="49.44623" lon="2.02383">
        <ele>129.3</ele>
        <time>2023-06-10T10:46:17Z</time>
      </trkpt>
      <trkpt lat="49.44619" lon="2.02378">
        <ele>129.5</ele>
        <time>2023-06-10T10:46:22Z</time>
      </trkpt>
      <trkpt lat="49.44617" lon="2.02371">
        <ele>129.7</ele>
        <time>2023-06-10T10:46:27Z</time>
      </trkpt>
      <trkpt lat="49.44612" lon="2.02363">
        <ele>130</ele>
        <time>2023-06-10T10:46:33Z</time>
      </trkpt>
      <trkpt lat="49.44608" lon="2.02354">
        <ele>130.5</ele>
        <time>2023-06-10T10:46:38Z</time>
      </trkpt>
      <trkpt lat="49.44606" lon="2.0234">
        <ele>131</ele>
        <time>2023-06-10T10:46:43Z</time>
      </trkpt>
      <trkpt lat="49.44603" lon="2.02325">
        <ele>131.5</ele>
        <time>2023-06-10T10:46:49Z</time>
      </trkpt>
      <trkpt lat="49.44599" lon="2.02316">
        <ele>131.8</ele>
        <time>2023-06-10T10:46:55Z</time>
      </trkpt>
      <trkpt lat="49.44593" lon="2.0231">
        <ele>131.9</ele>
        <time>2023-06-10T10:47:01Z</time>
      </trkpt>
      <trkpt lat="49.44589" lon="2.02308">
        <ele>132</ele>
        <time>2023-06-10T10:47:06Z</time>
      </trkpt>
      <trkpt lat="49.44584" lon="2.02301">
        <ele>132.3</ele>
        <time>2023-06-10T10:47:12Z</time>
      </trkpt>
      <trkpt lat="49.44577" lon="2.02293">
        <ele>133.1</ele>
        <time>2023-06-10T10:47:17Z</time>
      </trkpt>
      <trkpt lat="49.44571" lon="2.02276">
        <ele>134.1</ele>
        <time>2023-06-10T10:47:23Z</time>
      </trkpt>
      <trkpt lat="49.44563" lon="2.02257">
        <ele>134.8</ele>
        <time>2023-06-10T10:47:29Z</time>
      </trkpt>
      <trkpt lat="49.44552" lon="2.02236">
        <ele>135.5</ele>
        <time>2023-06-10T10:47:34Z</time>
      </trkpt>
      <trkpt lat="49.4454" lon="2.02212">
        <ele>136.7</ele>
        <time>2023-06-10T10:47:40Z</time>
      </trkpt>
      <trkpt lat="49.4453" lon="2.02196">
        <ele>137.9</ele>
        <time>2023-06-10T10:47:46Z</time>
      </trkpt>
      <trkpt lat="49.44526" lon="2.02187">
        <ele>138.3</ele>
        <time>2023-06-10T10:47:51Z</time>
      </trkpt>
      <trkpt lat="49.44523" lon="2.02178">
        <ele>138.6</ele>
        <time>2023-06-10T10:47:56Z</time>
      </trkpt>
      <trkpt lat="49.44519" lon="2.02167">
        <ele>139</ele>
        <time>2023-06-10T10:48:02Z</time>
      </trkpt>
      <trkpt lat="49.44514" lon="2.02156">
        <ele>139.4</ele>
        <time>2023-06-10T10:48:07Z</time>
      </trkpt>
      <trkpt lat="49.44511" lon="2.02145">
        <ele>139.8</ele>
        <time>2023-06-10T10:48:13Z</time>
      </trkpt>
      <trkpt lat="49.44507" lon="2.02139">
        <ele>140</ele>
        <time>2023-06-10T10:48:18Z</time>
      </trkpt>
      <trkpt lat="49.44504" lon="2.02134">
        <ele>140.2</ele>
        <time>2023-06-10T10:48:24Z</time>
      </trkpt>
      <trkpt lat="49.44501" lon="2.02128">
        <ele>140.4</ele>
        <time>2023-06-10T10:48:29Z</time>
      </trkpt>
      <trkpt lat="49.44496" lon="2.02116">
        <ele>141</ele>
        <time>2023-06-10T10:48:35Z</time>
      </trkpt>
      <trkpt lat="49.44488" lon="2.021">
        <ele>141.8</ele>
        <time>2023-06-10T10:48:41Z</time>
      </trkpt>
      <trkpt lat="49.44483" lon="2.0209">
        <ele>142.4</ele>
        <time>2023-06-10T10:48:46Z</time>
      </trkpt>
      <trkpt lat="49.44478" lon="2.02083">
        <ele>142.8</ele>
        <time>2023-06-10T10:48:51Z</time>
      </trkpt>
      <trkpt lat="49.44473" lon="2.02076">
        <ele>143</ele>
        <time>2023-06-10T10:48:57Z</time>
      </trkpt>
      <trkpt lat="49.44466" lon="2.02064">
        <ele>143.2</ele>
        <time>2023-06-10T10:49:03Z</time>
      </trkpt>
      <trkpt lat="49.44459" lon="2.02053">
        <ele>143.5</ele>
        <time>2023-06-10T10:49:09Z</time>
      </trkpt>
      <trkpt lat="49.44454" lon="2.02046">
        <ele>143.9</ele>
        <time>2023-06-10T10:49:14Z</time>
      </trkpt>
      <trkpt lat="49.44447" lon="2.02034">
        <ele>144.6</ele>
        <time>2023-06-10T10:49:20Z</time>
      </trkpt>
      <trkpt lat="49.44442" lon="2.02024">
        <ele>145</ele>
        <time>2023-06-10T10:49:25Z</time>
      </trkpt>
      <trkpt lat="49.44438" lon="2.02016">
        <ele>145.1</ele>
        <time>2023-06-10T10:49:30Z</time>
      </trkpt>
      <trkpt lat="49.44436" lon="2.02009">
        <ele>145.2</ele>
        <time>2023-06-10T10:49:36Z</time>
      </trkpt>
      <trkpt lat="49.44433" lon="2.02003">
        <ele>145.4</ele>
        <time>2023-06-10T10:49:41Z</time>
      </trkpt>
      <trkpt lat="49.44427" lon="2.01994">
        <ele>145.8</ele>
        <time>2023-06-10T10:49:46Z</time>
      </trkpt>
      <trkpt lat="49.44421" lon="2.01985">
        <ele>146.4</ele>
        <time>2023-06-10T10:49:51Z</time>
      </trkpt>
      <trkpt lat="49.44409" lon="2.01961">
        <ele>147.1</ele>
        <time>2023-06-10T10:49:57Z</time>
      </trkpt>
      <trkpt lat="49.44402" lon="2.01945">
        <ele>147.5</ele>
        <time>2023-06-10T10:50:03Z</time>
      </trkpt>
      <trkpt lat="49.444" lon="2.01938">
        <ele>147.8</ele>
        <time>2023-06-10T10:50:08Z</time>
      </trkpt>
      <trkpt lat="49.44398" lon="2.01934">
        <ele>148</ele>
        <time>2023-06-10T10:50:13Z</time>
      </trkpt>
      <trkpt lat="49.44396" lon="2.01926">
        <ele>148.4</ele>
        <time>2023-06-10T10:50:19Z</time>
      </trkpt>
      <trkpt lat="49.44393" lon="2.01912">
        <ele>148.9</ele>
        <time>2023-06-10T10:50:24Z</time>
      </trkpt>
      <trkpt lat="49.44385" lon="2.01895">
        <ele>149.1</ele>
        <time>2023-06-10T10:50:30Z</time>
      </trkpt>
      <trkpt lat="49.4438" lon="2.01885">
        <ele>149.4</ele>
        <time>2023-06-10T10:50:35Z</time>
      </trkpt>
      <trkpt lat="49.44375" lon="2.01872">
        <ele>150.1</ele>
        <time>2023-06-10T10:50:41Z</time>
      </trkpt>
      <trkpt lat="49.4437" lon="2.01862">
        <ele>150.6</ele>
        <time>2023-06-10T10:50:47Z</time>
      </trkpt>
      <trkpt lat="49.44363" lon="2.01853">
        <ele>150.9</ele>
        <time>2023-06-10T10:50:53Z</time>
      </trkpt>
      <trkpt lat="49.44359" lon="2.01843">
        <ele>151.1</ele>
        <time>2023-06-10T10:50:58Z</time>
      </trkpt>
      <trkpt lat="49.44355" lon="2.01834">
        <ele>151.2</ele>
        <time>2023-06-10T10:51:04Z</time>
      </trkpt>
      <trkpt lat="49.44352" lon="2.01825">
        <ele>151.6</ele>
        <time>2023-06-10T10:51:10Z</time>
      </trkpt>
      <trkpt lat="49.44346" lon="2.01813">
        <ele>152.3</ele>
        <time>2023-06-10T10:51:16Z</time>
      </trkpt>
      <trkpt lat="49.44341" lon="2.01803">
        <ele>152.8</ele>
        <time>2023-06-10T10:51:21Z</time>
      </trkpt>
      <trkpt lat="49.44336" lon="2.01795">
        <ele>153.3</ele>
        <time>2023-06-10T10:51:27Z</time>
      </trkpt>
      <trkpt lat="49.44334" lon="2.01788">
        <ele>153.6</ele>
        <time>2023-06-10T10:51:32Z</time>
      </trkpt>
      <trkpt lat="49.44329" lon="2.01779">
        <ele>154</ele>
        <time>2023-06-10T10:51:38Z</time>
      </trkpt>
      <trkpt lat="49.44325" lon="2.01773">
        <ele>154.1</ele>
        <time>2023-06-10T10:51:43Z</time>
      </trkpt>
      <trkpt lat="49.4432" lon="2.01761">
        <ele>154.3</ele>
        <time>2023-06-10T10:51:49Z</time>
      </trkpt>
      <trkpt lat="49.44317" lon="2.01755">
        <ele>154.5</ele>
        <time>2023-06-10T10:51:55Z</time>
      </trkpt>
      <trkpt lat="49.44313" lon="2.01745">
        <ele>154.9</ele>
        <time>2023-06-10T10:52:00Z</time>
      </trkpt>
      <trkpt lat="49.44309" lon="2.01738">
        <ele>155.3</ele>
        <time>2023-06-10T10:52:06Z</time>
      </trkpt>
      <trkpt lat="49.44307" lon="2.01733">
        <ele>155.6</ele>
        <time>2023-06-10T10:52:11Z</time>
      </trkpt>
      <trkpt lat="49.44305" lon="2.01729">
        <ele>155.8</ele>
        <time>2023-06-10T10:52:17Z</time>
      </trkpt>
      <trkpt lat="49.44304" lon="2.01727">
        <ele>155.9</ele>
        <time>2023-06-10T10:52:22Z</time>
      </trkpt>
      <trkpt lat="49.44303" lon="2.01726">
        <ele>155.9</ele>
        <time>2023-06-10T10:52:27Z</time>
      </trkpt>
      <trkpt lat="49.44303" lon="2.01727">
        <ele>155.9</ele>
        <time>2023-06-10T10:52:33Z</time>
      </trkpt>
      <trkpt lat="49.44302" lon="2.0173">
        <ele>155.8</ele>
        <time>2023-06-10T10:52:38Z</time>
      </trkpt>
      <trkpt lat="49.44302" lon="2.01732">
        <ele>155.8</ele>
        <time>2023-06-10T10:52:44Z</time>
      </trkpt>
      <trkpt lat="49.44302" lon="2.01732">
        <ele>155.8</ele>
        <time>2023-06-10T10:52:50Z</time>
      </trkpt>
      <trkpt lat="49.44303" lon="2.01731">
        <ele>155.8</ele>
        <time>2023-06-10T10:52:56Z</time>
      </trkpt>
      <trkpt lat="49.44304" lon="2.01731">
        <ele>155.7</ele>
        <time>2023-06-10T10:53:01Z</time>
      </trkpt>
      <trkpt lat="49.44304" lon="2.01731">
        <ele>155.7</ele>
        <time>2023-06-10T10:53:06Z</time>
      </trkpt>
      <trkpt lat="49.44305" lon="2.01732">
        <ele>155.7</ele>
        <time>2023-06-10T10:53:12Z</time>
      </trkpt>
      <trkpt lat="49.44306" lon="2.01733">
        <ele>155.6</ele>
        <time>2023-06-10T10:53:17Z</time>
      </trkpt>
      <trkpt lat="49.44306" lon="2.01738">
        <ele>155.4</ele>
        <time>2023-06-10T10:53:23Z</time>
      </trkpt>
      <trkpt lat="49.44306" lon="2.01741">
        <ele>155.3</ele>
        <time>2023-06-10T10:53:28Z</time>
      </trkpt>
      <trkpt lat="49.44306" lon="2.01741">
        <ele>155.3</ele>
        <time>2023-06-10T10:53:33Z</time>
      </trkpt>
      <trkpt lat="49.44305" lon="2.01746">
        <ele>155.1</ele>
        <time>2023-06-10T10:53:39Z</time>
      </trkpt>
      <trkpt lat="49.44306" lon="2.01748">
        <ele>155.1</ele>
        <time>2023-06-10T10:53:45Z</time>
      </trkpt>
      <trkpt lat="49.44308" lon="2.01748">
        <ele>155</ele>
        <time>2023-06-10T10:53:51Z</time>
      </trkpt>
      <trkpt lat="49.44309" lon="2.01747">
        <ele>155</ele>
        <time>2023-06-10T10:53:56Z</time>
      </trkpt>
      <trkpt lat="49.44309" lon="2.01745">
        <ele>155</ele>
        <time>2023-06-10T10:54:02Z</time>
      </trkpt>
      <trkpt lat="49.4431" lon="2.01744">
        <ele>155.1</ele>
        <time>2023-06-10T10:54:07Z</time>
      </trkpt>
      <trkpt lat="49.44311" lon="2.0174">
        <ele>155.2</ele>
        <time>2023-06-10T10:54:13Z</time>
      </trkpt>
      <trkpt lat="49.4431" lon="2.01732">
        <ele>155.5</ele>
        <time>2023-06-10T10:54:18Z</time>
      </trkpt>
      <trkpt lat="49.44311" lon="2.0172">
        <ele>155.8</ele>
        <time>2023-06-10T10:54:24Z</time>
      </trkpt>
      <trkpt lat="49.44314" lon="2.0171">
        <ele>155.7</ele>
        <time>2023-06-10T10:54:30Z</time>
      </trkpt>
      <trkpt lat="49.44317" lon="2.01703">
        <ele>155.6</ele>
        <time>2023-06-10T10:54:35Z</time>
      </trkpt>
      <trkpt lat="49.44322" lon="2.01697">
        <ele>155.4</ele>
        <time>2023-06-10T10:54:41Z</time>
      </trkpt>
      <trkpt lat="49.44328" lon="2.0169">
        <ele>155.2</ele>
        <time>2023-06-10T10:54:47Z</time>
      </trkpt>
      <trkpt lat="49.44334" lon="2.01685">
        <ele>155</ele>
        <time>2023-06-10T10:54:52Z</time>
      </trkpt>
      <trkpt lat="49.44339" lon="2.0168">
        <ele>154.8</ele>
        <time>2023-06-10T10:54:58Z</time>
      </trkpt>
      <trkpt lat="49.44345" lon="2.01676">
        <ele>154.6</ele>
        <time>2023-06-10T10:55:04Z</time>
      </trkpt>
      <trkpt lat="49.44351" lon="2.01675">
        <ele>154.4</ele>
        <time>2023-06-10T10:55:09Z</time>
      </trkpt>
      <trkpt lat="49.44355" lon="2.01674">
        <ele>154.2</ele>
        <time>2023-06-10T10:55:15Z</time>
      </trkpt>
      <trkpt lat="49.4436" lon="2.01671">
        <ele>154.1</ele>
        <time>2023-06-10T10:55:21Z</time>
      </trkpt>
      <trkpt lat="49.44368" lon="2.01664">
        <ele>153.8</ele>
        <time>2023-06-10T10:55:26Z</time>
      </trkpt>
      <trkpt lat="49.44374" lon="2.01654">
        <ele>153.5</ele>
        <time>2023-06-10T10:55:32Z</time>
      </trkpt>
      <trkpt lat="49.44379" lon="2.01645">
        <ele>153.4</ele>
        <time>2023-06-10T10:55:38Z</time>
      </trkpt>
      <trkpt lat="49.44383" lon="2.01637">
        <ele>153.2</ele>
        <time>2023-06-10T10:55:43Z</time>
      </trkpt>
      <trkpt lat="49.44385" lon="2.0162">
        <ele>153.2</ele>
        <time>2023-06-10T10:55:49Z</time>
      </trkpt>
      <trkpt lat="49.44386" lon="2.01605">
        <ele>153.2</ele>
        <time>2023-06-10T10:55:54Z</time>
      </trkpt>
      <trkpt lat="49.44386" lon="2.01586">
        <ele>153.2</ele>
        <time>2023-06-10T10:56:00Z</time>
      </trkpt>
      <trkpt lat="49.44385" lon="2.01569">
        <ele>153.3</ele>
        <time>2023-06-10T10:56:05Z</time>
      </trkpt>
      <trkpt lat="49.44382" lon="2.01549">
        <ele>153.7</ele>
        <time>2023-06-10T10:56:11Z</time>
      </trkpt>
      <trkpt lat="49.44381" lon="2.01535">
        <ele>154.1</ele>
        <time>2023-06-10T10:56:16Z</time>
      </trkpt>
      <trkpt lat="49.44381" lon="2.01523">
        <ele>154.3</ele>
        <time>2023-06-10T10:56:21Z</time>
      </trkpt>
      <trkpt lat="49.44384" lon="2.01512">
        <ele>154.2</ele>
        <time>2023-06-10T10:56:26Z</time>
      </trkpt>
      <trkpt lat="49.44387" lon="2.01502">
        <ele>154.1</ele>
        <time>2023-06-10T10:56:31Z</time>
      </trkpt>
      <trkpt lat="49.4439" lon="2.01491">
        <ele>154</ele>
        <time>2023-06-10T10:56:37Z</time>
      </trkpt>
      <trkpt lat="49.44392" lon="2.01481">
        <ele>153.9</ele>
        <time>2023-06-10T10:56:42Z</time>
      </trkpt>
      <trkpt lat="49.44396" lon="2.01468">
        <ele>153.9</ele>
        <time>2023-06-10T10:56:48Z</time>
      </trkpt>
      <trkpt lat="49.44398" lon="2.01457">
        <ele>154.2</ele>
        <time>2023-06-10T10:56:53Z</time>
      </trkpt>
      <trkpt lat="49.444" lon="2.01445">
        <ele>154.6</ele>
        <time>2023-06-10T10:56:58Z</time>
      </trkpt>
      <trkpt lat="49.44402" lon="2.01434">
        <ele>154.5</ele>
        <time>2023-06-10T10:57:03Z</time>
      </trkpt>
      <trkpt lat="49.44405" lon="2.01421">
        <ele>154.4</ele>
        <time>2023-06-10T10:57:09Z</time>
      </trkpt>
      <trkpt lat="49.44407" lon="2.01412">
        <ele>154.5</ele>
        <time>2023-06-10T10:57:14Z</time>
      </trkpt>
      <trkpt lat="49.4441" lon="2.01399">
        <ele>154.9</ele>
        <time>2023-06-10T10:57:20Z</time>
      </trkpt>
      <trkpt lat="49.44414" lon="2.01389">
        <ele>155.1</ele>
        <time>2023-06-10T10:57:25Z</time>
      </trkpt>
      <trkpt lat="49.44419" lon="2.01377">
        <ele>155.4</ele>
        <time>2023-06-10T10:57:31Z</time>
      </trkpt>
      <trkpt lat="49.44423" lon="2.01366">
        <ele>155.8</ele>
        <time>2023-06-10T10:57:36Z</time>
      </trkpt>
      <trkpt lat="49.44426" lon="2.01353">
        <ele>156.2</ele>
        <time>2023-06-10T10:57:42Z</time>
      </trkpt>
      <trkpt lat="49.44427" lon="2.01341">
        <ele>156.4</ele>
        <time>2023-06-10T10:57:47Z</time>
      </trkpt>
      <trkpt lat="49.44429" lon="2.01328">
        <ele>156.6</ele>
        <time>2023-06-10T10:57:53Z</time>
      </trkpt>
      <trkpt lat="49.44432" lon="2.01317">
        <ele>156.8</ele>
        <time>2023-06-10T10:57:59Z</time>
      </trkpt>
      <trkpt lat="49.44436" lon="2.01306">
        <ele>157</ele>
        <time>2023-06-10T10:58:04Z</time>
      </trkpt>
      <trkpt lat="49.44438" lon="2.01295">
        <ele>157.1</ele>
        <time>2023-06-10T10:58:09Z</time>
      </trkpt>
      <trkpt lat="49.4444" lon="2.01283">
        <ele>157.1</ele>
        <time>2023-06-10T10:58:14Z</time>
      </trkpt>
      <trkpt lat="49.44442" lon="2.01271">
        <ele>157.1</ele>
        <time>2023-06-10T10:58:20Z</time>
      </trkpt>
      <trkpt lat="49.44444" lon="2.01257">
        <ele>157</ele>
        <time>2023-06-10T10:58:26Z</time>
      </trkpt>
      <trkpt lat="49.44445" lon="2.01245">
        <ele>157.2</ele>
        <time>2023-06-10T10:58:32Z</time>
      </trkpt>
      <trkpt lat="49.44446" lon="2.01235">
        <ele>157.6</ele>
        <time>2023-06-10T10:58:37Z</time>
      </trkpt>
      <trkpt lat="49.44447" lon="2.01223">
        <ele>158.1</ele>
        <time>2023-06-10T10:58:43Z</time>
      </trkpt>
      <trkpt lat="49.44448" lon="2.01213">
        <ele>158.7</ele>
        <time>2023-06-10T10:58:48Z</time>
      </trkpt>
      <trkpt lat="49.44449" lon="2.012">
        <ele>159.5</ele>
        <time>2023-06-10T10:58:54Z</time>
      </trkpt>
      <trkpt lat="49.4445" lon="2.01189">
        <ele>159.8</ele>
        <time>2023-06-10T10:58:59Z</time>
      </trkpt>
      <trkpt lat="49.44452" lon="2.01173">
        <ele>159.9</ele>
        <time>2023-06-10T10:59:05Z</time>
      </trkpt>
      <trkpt lat="49.44452" lon="2.01162">
        <ele>160.2</ele>
        <time>2023-06-10T10:59:10Z</time>
      </trkpt>
      <trkpt lat="49.44452" lon="2.0115">
        <ele>160.6</ele>
        <time>2023-06-10T10:59:15Z</time>
      </trkpt>
      <trkpt lat="49.44452" lon="2.01137">
        <ele>161.1</ele>
        <time>2023-06-10T10:59:21Z</time>
      </trkpt>
      <trkpt lat="49.44453" lon="2.01126">
        <ele>161.5</ele>
        <time>2023-06-10T10:59:26Z</time>
      </trkpt>
      <trkpt lat="49.44453" lon="2.01113">
        <ele>161.9</ele>
        <time>2023-06-10T10:59:32Z</time>
      </trkpt>
      <trkpt lat="49.44453" lon="2.01102">
        <ele>162.2</ele>
        <time>2023-06-10T10:59:37Z</time>
      </trkpt>
      <trkpt lat="49.44453" lon="2.0109">
        <ele>162.5</ele>
        <time>2023-06-10T10:59:43Z</time>
      </trkpt>
      <trkpt lat="49.44455" lon="2.01079">
        <ele>162.7</ele>
        <time>2023-06-10T10:59:48Z</time>
      </trkpt>
      <trkpt lat="49.44457" lon="2.01067">
        <ele>162.8</ele>
        <time>2023-06-10T10:59:53Z</time>
      </trkpt>
      <trkpt lat="49.44458" lon="2.01055">
        <ele>163</ele>
        <time>2023-06-10T10:59:59Z</time>
      </trkpt>
      <trkpt lat="49.4446" lon="2.01041">
        <ele>163.5</ele>
        <time>2023-06-10T11:00:05Z</time>
      </trkpt>
      <trkpt lat="49.44461" lon="2.01032">
        <ele>163.8</ele>
        <time>2023-06-10T11:00:10Z</time>
      </trkpt>
      <trkpt lat="49.44459" lon="2.01022">
        <ele>164.1</ele>
        <time>2023-06-10T11:00:16Z</time>
      </trkpt>
      <trkpt lat="49.4446" lon="2.01008">
        <ele>164.3</ele>
        <time>2023-06-10T11:00:22Z</time>
      </trkpt>
      <trkpt lat="49.44462" lon="2.00995">
        <ele>164.5</ele>
        <time>2023-06-10T11:00:28Z</time>
      </trkpt>
      <trkpt lat="49.44462" lon="2.00985">
        <ele>164.7</ele>
        <time>2023-06-10T11:00:33Z</time>
      </trkpt>
      <trkpt lat="49.44463" lon="2.00974">
        <ele>165</ele>
        <time>2023-06-10T11:00:38Z</time>
      </trkpt>
      <trkpt lat="49.44464" lon="2.00967">
        <ele>165.2</ele>
        <time>2023-06-10T11:00:44Z</time>
      </trkpt>
      <trkpt lat="49.44465" lon="2.00965">
        <ele>165.3</ele>
        <time>2023-06-10T11:00:49Z</time>
      </trkpt>
      <trkpt lat="49.44462" lon="2.00961">
        <ele>165.4</ele>
        <time>2023-06-10T11:00:54Z</time>
      </trkpt>
      <trkpt lat="49.44456" lon="2.00959">
        <ele>165.5</ele>
        <time>2023-06-10T11:01:00Z</time>
      </trkpt>
      <trkpt lat="49.44449" lon="2.00958">
        <ele>165.5</ele>
        <time>2023-06-10T11:01:06Z</time>
      </trkpt>
      <trkpt lat="49.44441" lon="2.00956">
        <ele>165.6</ele>
        <time>2023-06-10T11:01:12Z</time>
      </trkpt>
      <trkpt lat="49.44434" lon="2.00957">
        <ele>165.5</ele>
        <time>2023-06-10T11:01:17Z</time>
      </trkpt>
      <trkpt lat="49.44428" lon="2.00958">
        <ele>165.5</ele>
        <time>2023-06-10T11:01:22Z</time>
      </trkpt>
      <trkpt lat="49.44423" lon="2.00952">
        <ele>165.7</ele>
        <time>2023-06-10T11:01:28Z</time>
      </trkpt>
      <trkpt lat="49.44419" lon="2.00948">
        <ele>165.9</ele>
        <time>2023-06-10T11:01:33Z</time>
      </trkpt>
      <trkpt lat="49.4441" lon="2.00948">
        <ele>165.9</ele>
        <time>2023-06-10T11:01:39Z</time>
      </trkpt>
      <trkpt lat="49.44403" lon="2.00945">
        <ele>166</ele>
        <time>2023-06-10T11:01:44Z</time>
      </trkpt>
      <trkpt lat="49.44394" lon="2.00943">
        <ele>166.1</ele>
        <time>2023-06-10T11:01:50Z</time>
      </trkpt>
      <trkpt lat="49.44389" lon="2.00942">
        <ele>166.1</ele>
        <time>2023-06-10T11:01:55Z</time>
      </trkpt>
      <trkpt lat="49.44382" lon="2.0094">
        <ele>166.1</ele>
        <time>2023-06-10T11:02:01Z</time>
      </trkpt>
      <trkpt lat="49.44377" lon="2.00938">
        <ele>166.2</ele>
        <time>2023-06-10T11:02:06Z</time>
      </trkpt>
      <trkpt lat="49.44368" lon="2.00934">
        <ele>166.4</ele>
        <time>2023-06-10T11:02:12Z</time>
      </trkpt>
      <trkpt lat="49.44356" lon="2.00933">
        <ele>166.5</ele>
        <time>2023-06-10T11:02:18Z</time>
      </trkpt>
      <trkpt lat="49.44345" lon="2.00933">
        <ele>166.7</ele>
        <time>2023-06-10T11:02:24Z</time>
      </trkpt>
      <trkpt lat="49.44336" lon="2.0093">
        <ele>167</ele>
        <time>2023-06-10T11:02:30Z</time>
      </trkpt>
      <trkpt lat="49.44326" lon="2.00925">
        <ele>167</ele>
        <time>2023-06-10T11:02:36Z</time>
      </trkpt>
      <trkpt lat="49.44318" lon="2.0092">
        <ele>167</ele>
        <time>2023-06-10T11:02:41Z</time>
      </trkpt>
      <trkpt lat="49.4431" lon="2.00916">
        <ele>167</ele>
        <time>2023-06-10T11:02:47Z</time>
      </trkpt>
      <trkpt lat="49.44304" lon="2.00913">
        <ele>167.1</ele>
        <time>2023-06-10T11:02:53Z</time>
      </trkpt>
      <trkpt lat="49.44298" lon="2.00909">
        <ele>167.3</ele>
        <time>2023-06-10T11:02:58Z</time>
      </trkpt>
      <trkpt lat="49.44291" lon="2.00904">
        <ele>167.5</ele>
        <time>2023-06-10T11:03:04Z</time>
      </trkpt>
      <trkpt lat="49.44285" lon="2.009">
        <ele>167.6</ele>
        <time>2023-06-10T11:03:09Z</time>
      </trkpt>
      <trkpt lat="49.44278" lon="2.00896">
        <ele>167.7</ele>
        <time>2023-06-10T11:03:14Z</time>
      </trkpt>
      <trkpt lat="49.44271" lon="2.00898">
        <ele>167.3</ele>
        <time>2023-06-10T11:03:20Z</time>
      </trkpt>
      <trkpt lat="49.44265" lon="2.00907">
        <ele>166.7</ele>
        <time>2023-06-10T11:03:26Z</time>
      </trkpt>
      <trkpt lat="49.44259" lon="2.00917">
        <ele>166.3</ele>
        <time>2023-06-10T11:03:31Z</time>
      </trkpt>
      <trkpt lat="49.44252" lon="2.00931">
        <ele>166.6</ele>
        <time>2023-06-10T11:03:37Z</time>
      </trkpt>
      <trkpt lat="49.44246" lon="2.00943">
        <ele>166.8</ele>
        <time>2023-06-10T11:03:42Z</time>
      </trkpt>
      <trkpt lat="49.44241" lon="2.00955">
        <ele>166.7</ele>
        <time>2023-06-10T11:03:47Z</time>
      </trkpt>
      <trkpt lat="49.44236" lon="2.00969">
        <ele>166.5</ele>
        <time>2023-06-10T11:03:53Z</time>
      </trkpt>
      <trkpt lat="49.44231" lon="2.00983">
        <ele>166.3</ele>
        <time>2023-06-10T11:03:59Z</time>
      </trkpt>
      <trkpt lat="49.44228" lon="2.00994">
        <ele>166.2</ele>
        <time>2023-06-10T11:04:04Z</time>
      </trkpt>
      <trkpt lat="49.44225" lon="2.01008">
        <ele>166.1</ele>
        <time>2023-06-10T11:04:10Z</time>
      </trkpt>
      <trkpt lat="49.44223" lon="2.01019">
        <ele>166</ele>
        <time>2023-06-10T11:04:15Z</time>
      </trkpt>
      <trkpt lat="49.4422" lon="2.01031">
        <ele>166</ele>
        <time>2023-06-10T11:04:21Z</time>
      </trkpt>
      <trkpt lat="49.44217" lon="2.01042">
        <ele>166</ele>
        <time>2023-06-10T11:04:26Z</time>
      </trkpt>
      <trkpt lat="49.44215" lon="2.01056">
        <ele>166</ele>
        <time>2023-06-10T11:04:32Z</time>
      </trkpt>
      <trkpt lat="49.44213" lon="2.01067">
        <ele>166</ele>
        <time>2023-06-10T11:04:37Z</time>
      </trkpt>
      <trkpt lat="49.4421" lon="2.0108">
        <ele>166</ele>
        <time>2023-06-10T11:04:43Z</time>
      </trkpt>
      <trkpt lat="49.44208" lon="2.0109">
        <ele>165.9</ele>
        <time>2023-06-10T11:04:48Z</time>
      </trkpt>
      <trkpt lat="49.44204" lon="2.01095">
        <ele>165.9</ele>
        <time>2023-06-10T11:04:54Z</time>
      </trkpt>
      <trkpt lat="49.442" lon="2.01097">
        <ele>165.9</ele>
        <time>2023-06-10T11:04:59Z</time>
      </trkpt>
      <trkpt lat="49.44192" lon="2.01097">
        <ele>165.9</ele>
        <time>2023-06-10T11:05:05Z</time>
      </trkpt>
      <trkpt lat="49.44183" lon="2.01094">
        <ele>165.4</ele>
        <time>2023-06-10T11:05:11Z</time>
      </trkpt>
      <trkpt lat="49.44178" lon="2.01093">
        <ele>165</ele>
        <time>2023-06-10T11:05:17Z</time>
      </trkpt>
      <trkpt lat="49.44173" lon="2.01094">
        <ele>164.7</ele>
        <time>2023-06-10T11:05:22Z</time>
      </trkpt>
      <trkpt lat="49.44166" lon="2.01094">
        <ele>164.4</ele>
        <time>2023-06-10T11:05:27Z</time>
      </trkpt>
      <trkpt lat="49.44156" lon="2.01091">
        <ele>164</ele>
        <time>2023-06-10T11:05:33Z</time>
      </trkpt>
      <trkpt lat="49.44148" lon="2.01091">
        <ele>163.8</ele>
        <time>2023-06-10T11:05:38Z</time>
      </trkpt>
      <trkpt lat="49.44139" lon="2.01091">
        <ele>163.6</ele>
        <time>2023-06-10T11:05:43Z</time>
      </trkpt>
      <trkpt lat="49.44131" lon="2.01091">
        <ele>163.1</ele>
        <time>2023-06-10T11:05:49Z</time>
      </trkpt>
      <trkpt lat="49.44123" lon="2.01093">
        <ele>162.7</ele>
        <time>2023-06-10T11:05:55Z</time>
      </trkpt>
      <trkpt lat="49.44116" lon="2.01094">
        <ele>162.4</ele>
        <time>2023-06-10T11:06:00Z</time>
      </trkpt>
      <trkpt lat="49.44107" lon="2.01096">
        <ele>161.9</ele>
        <time>2023-06-10T11:06:06Z</time>
      </trkpt>
      <trkpt lat="49.441" lon="2.01101">
        <ele>161.5</ele>
        <time>2023-06-10T11:06:11Z</time>
      </trkpt>
      <trkpt lat="49.44094" lon="2.01109">
        <ele>161.4</ele>
        <time>2023-06-10T11:06:17Z</time>
      </trkpt>
      <trkpt lat="49.44088" lon="2.01116">
        <ele>161.1</ele>
        <time>2023-06-10T11:06:22Z</time>
      </trkpt>
      <trkpt lat="49.44084" lon="2.01127">
        <ele>161.8</ele>
        <time>2023-06-10T11:06:28Z</time>
      </trkpt>
      <trkpt lat="49.4408" lon="2.01137">
        <ele>162.5</ele>
        <time>2023-06-10T11:06:33Z</time>
      </trkpt>
      <trkpt lat="49.44073" lon="2.01146">
        <ele>162.2</ele>
        <time>2023-06-10T11:06:39Z</time>
      </trkpt>
      <trkpt lat="49.44067" lon="2.01155">
        <ele>161.8</ele>
        <time>2023-06-10T11:06:45Z</time>
      </trkpt>
      <trkpt lat="49.44062" lon="2.01166">
        <ele>161.6</ele>
        <time>2023-06-10T11:06:50Z</time>
      </trkpt>
      <trkpt lat="49.44055" lon="2.01172">
        <ele>161.8</ele>
        <time>2023-06-10T11:06:56Z</time>
      </trkpt>
      <trkpt lat="49.4405" lon="2.01178">
        <ele>161.9</ele>
        <time>2023-06-10T11:07:02Z</time>
      </trkpt>
      <trkpt lat="49.44045" lon="2.01185">
        <ele>161.9</ele>
        <time>2023-06-10T11:07:07Z</time>
      </trkpt>
      <trkpt lat="49.4404" lon="2.01193">
        <ele>161.9</ele>
        <time>2023-06-10T11:07:12Z</time>
      </trkpt>
      <trkpt lat="49.44036" lon="2.01199">
        <ele>161.8</ele>
        <time>2023-06-10T11:07:18Z</time>
      </trkpt>
      <trkpt lat="49.44033" lon="2.01202">
        <ele>161.6</ele>
        <time>2023-06-10T11:07:23Z</time>
      </trkpt>
      <trkpt lat="49.44029" lon="2.01208">
        <ele>161.7</ele>
        <time>2023-06-10T11:07:29Z</time>
      </trkpt>
      <trkpt lat="49.44025" lon="2.01222">
        <ele>162.7</ele>
        <time>2023-06-10T11:07:35Z</time>
      </trkpt>
      <trkpt lat="49.4402" lon="2.01235">
        <ele>163.1</ele>
        <time>2023-06-10T11:07:41Z</time>
      </trkpt>
      <trkpt lat="49.44017" lon="2.01242">
        <ele>163.2</ele>
        <time>2023-06-10T11:07:46Z</time>
      </trkpt>
      <trkpt lat="49.44014" lon="2.01249">
        <ele>163.5</ele>
        <time>2023-06-10T11:07:51Z</time>
      </trkpt>
      <trkpt lat="49.4401" lon="2.01257">
        <ele>163.5</ele>
        <time>2023-06-10T11:07:57Z</time>
      </trkpt>
      <trkpt lat="49.44006" lon="2.01263">
        <ele>163.5</ele>
        <time>2023-06-10T11:08:03Z</time>
      </trkpt>
      <trkpt lat="49.44003" lon="2.01272">
        <ele>163.8</ele>
        <time>2023-06-10T11:08:09Z</time>
      </trkpt>
      <trkpt lat="49.43999" lon="2.01283">
        <ele>164.3</ele>
        <time>2023-06-10T11:08:15Z</time>
      </trkpt>
      <trkpt lat="49.43996" lon="2.01291">
        <ele>164.6</ele>
        <time>2023-06-10T11:08:20Z</time>
      </trkpt>
      <trkpt lat="49.43992" lon="2.01301">
        <ele>165</ele>
        <time>2023-06-10T11:08:26Z</time>
      </trkpt>
      <trkpt lat="49.43989" lon="2.01309">
        <ele>165.4</ele>
        <time>2023-06-10T11:08:31Z</time>
      </trkpt>
      <trkpt lat="49.43987" lon="2.01319">
        <ele>165.5</ele>
        <time>2023-06-10T11:08:36Z</time>
      </trkpt>
      <trkpt lat="49.43983" lon="2.01332">
        <ele>165.7</ele>
        <time>2023-06-10T11:08:42Z</time>
      </trkpt>
      <trkpt lat="49.43979" lon="2.01342">
        <ele>166.2</ele>
        <time>2023-06-10T11:08:48Z</time>
      </trkpt>
      <trkpt lat="49.43976" lon="2.01352">
        <ele>166.6</ele>
        <time>2023-06-10T11:08:54Z</time>
      </trkpt>
      <trkpt lat="49.43974" lon="2.01363">
        <ele>167.3</ele>
        <time>2023-06-10T11:09:00Z</time>
      </trkpt>
      <trkpt lat="49.43972" lon="2.01376">
        <ele>168.1</ele>
        <time>2023-06-10T11:09:06Z</time>
      </trkpt>
      <trkpt lat="49.4397" lon="2.01386">
        <ele>168.6</ele>
        <time>2023-06-10T11:09:12Z</time>
      </trkpt>
      <trkpt lat="49.43968" lon="2.01396">
        <ele>168.8</ele>
        <time>2023-06-10T11:09:17Z</time>
      </trkpt>
      <trkpt lat="49.43963" lon="2.01408">
        <ele>168.9</ele>
        <time>2023-06-10T11:09:23Z</time>
      </trkpt>
      <trkpt lat="49.43957" lon="2.0142">
        <ele>169.1</ele>
        <time>2023-06-10T11:09:29Z</time>
      </trkpt>
      <trkpt lat="49.43953" lon="2.01428">
        <ele>169.3</ele>
        <time>2023-06-10T11:09:34Z</time>
      </trkpt>
      <trkpt lat="49.43949" lon="2.01438">
        <ele>169.7</ele>
        <time>2023-06-10T11:09:40Z</time>
      </trkpt>
      <trkpt lat="49.43946" lon="2.01449">
        <ele>170.2</ele>
        <time>2023-06-10T11:09:45Z</time>
      </trkpt>
      <trkpt lat="49.43941" lon="2.01463">
        <ele>170.4</ele>
        <time>2023-06-10T11:09:51Z</time>
      </trkpt>
      <trkpt lat="49.43937" lon="2.01476">
        <ele>170.5</ele>
        <time>2023-06-10T11:09:57Z</time>
      </trkpt>
      <trkpt lat="49.43934" lon="2.01488">
        <ele>170.5</ele>
        <time>2023-06-10T11:10:03Z</time>
      </trkpt>
      <trkpt lat="49.4393" lon="2.01501">
        <ele>170.5</ele>
        <time>2023-06-10T11:10:09Z</time>
      </trkpt>
      <trkpt lat="49.43927" lon="2.01511">
        <ele>170.8</ele>
        <time>2023-06-10T11:10:15Z</time>
      </trkpt>
      <trkpt lat="49.43924" lon="2.01518">
        <ele>170.9</ele>
        <time>2023-06-10T11:10:20Z</time>
      </trkpt>
      <trkpt lat="49.43921" lon="2.01525">
        <ele>171</ele>
        <time>2023-06-10T11:10:25Z</time>
      </trkpt>
      <trkpt lat="49.43917" lon="2.01534">
        <ele>171.2</ele>
        <time>2023-06-10T11:10:30Z</time>
      </trkpt>
      <trkpt lat="49.43913" lon="2.01542">
        <ele>171.3</ele>
        <time>2023-06-10T11:10:35Z</time>
      </trkpt>
      <trkpt lat="49.43909" lon="2.01548">
        <ele>171.4</ele>
        <time>2023-06-10T11:10:41Z</time>
      </trkpt>
      <trkpt lat="49.43905" lon="2.01556">
        <ele>171.6</ele>
        <time>2023-06-10T11:10:47Z</time>
      </trkpt>
      <trkpt lat="49.439" lon="2.01565">
        <ele>171.6</ele>
        <time>2023-06-10T11:10:53Z</time>
      </trkpt>
      <trkpt lat="49.43896" lon="2.01574">
        <ele>171.7</ele>
        <time>2023-06-10T11:10:58Z</time>
      </trkpt>
      <trkpt lat="49.43889" lon="2.01584">
        <ele>172</ele>
        <time>2023-06-10T11:11:04Z</time>
      </trkpt>
      <trkpt lat="49.43883" lon="2.01593">
        <ele>171.6</ele>
        <time>2023-06-10T11:11:09Z</time>
      </trkpt>
      <trkpt lat="49.43877" lon="2.01602">
        <ele>171.4</ele>
        <time>2023-06-10T11:11:15Z</time>
      </trkpt>
      <trkpt lat="49.43873" lon="2.01609">
        <ele>171.4</ele>
        <time>2023-06-10T11:11:20Z</time>
      </trkpt>
      <trkpt lat="49.43868" lon="2.01619">
        <ele>171.5</ele>
        <time>2023-06-10T11:11:26Z</time>
      </trkpt>
      <trkpt lat="49.43862" lon="2.0163">
        <ele>171.7</ele>
        <time>2023-06-10T11:11:32Z</time>
      </trkpt>
      <trkpt lat="49.43859" lon="2.01636">
        <ele>171.7</ele>
        <time>2023-06-10T11:11:37Z</time>
      </trkpt>
      <trkpt lat="49.43856" lon="2.01643">
        <ele>171.7</ele>
        <time>2023-06-10T11:11:42Z</time>
      </trkpt>
      <trkpt lat="49.43852" lon="2.01651">
        <ele>171.8</ele>
        <time>2023-06-10T11:11:48Z</time>
      </trkpt>
      <trkpt lat="49.43848" lon="2.0166">
        <ele>171.8</ele>
        <time>2023-06-10T11:11:54Z</time>
      </trkpt>
      <trkpt lat="49.43843" lon="2.0167">
        <ele>171.8</ele>
        <time>2023-06-10T11:12:00Z</time>
      </trkpt>
      <trkpt lat="49.43838" lon="2.01677">
        <ele>171.7</ele>
        <time>2023-06-10T11:12:05Z</time>
      </trkpt>
      <trkpt lat="49.43833" lon="2.01686">
        <ele>171.7</ele>
        <time>2023-06-10T11:12:10Z</time>
      </trkpt>
      <trkpt lat="49.43828" lon="2.01695">
        <ele>171.7</ele>
        <time>2023-06-10T11:12:16Z</time>
      </trkpt>
      <trkpt lat="49.43823" lon="2.01702">
        <ele>171.7</ele>
        <time>2023-06-10T11:12:21Z</time>
      </trkpt>
      <trkpt lat="49.43816" lon="2.01712">
        <ele>171.8</ele>
        <time>2023-06-10T11:12:27Z</time>
      </trkpt>
      <trkpt lat="49.43812" lon="2.01719">
        <ele>172</ele>
        <time>2023-06-10T11:12:32Z</time>
      </trkpt>
      <trkpt lat="49.43809" lon="2.01726">
        <ele>172.2</ele>
        <time>2023-06-10T11:12:38Z</time>
      </trkpt>
      <trkpt lat="49.43806" lon="2.01732">
        <ele>172.4</ele>
        <time>2023-06-10T11:12:43Z</time>
      </trkpt>
      <trkpt lat="49.43803" lon="2.0174">
        <ele>172.4</ele>
        <time>2023-06-10T11:12:49Z</time>
      </trkpt>
      <trkpt lat="49.43799" lon="2.01751">
        <ele>172.3</ele>
        <time>2023-06-10T11:12:55Z</time>
      </trkpt>
      <trkpt lat="49.43798" lon="2.0176">
        <ele>172.2</ele>
        <time>2023-06-10T11:13:01Z</time>
      </trkpt>
      <trkpt lat="49.43793" lon="2.01771">
        <ele>172</ele>
        <time>2023-06-10T11:13:06Z</time>
      </trkpt>
      <trkpt lat="49.43787" lon="2.01783">
        <ele>171.7</ele>
        <time>2023-06-10T11:13:12Z</time>
      </trkpt>
      <trkpt lat="49.43783" lon="2.01793">
        <ele>171.4</ele>
        <time>2023-06-10T11:13:18Z</time>
      </trkpt>
      <trkpt lat="49.43779" lon="2.01802">
        <ele>171.1</ele>
        <time>2023-06-10T11:13:23Z</time>
      </trkpt>
      <trkpt lat="49.43775" lon="2.0181">
        <ele>171</ele>
        <time>2023-06-10T11:13:28Z</time>
      </trkpt>
      <trkpt lat="49.43771" lon="2.0182">
        <ele>171</ele>
        <time>2023-06-10T11:13:34Z</time>
      </trkpt>
      <trkpt lat="49.43768" lon="2.01826">
        <ele>171</ele>
        <time>2023-06-10T11:13:39Z</time>
      </trkpt>
      <trkpt lat="49.43764" lon="2.01832">
        <ele>171</ele>
        <time>2023-06-10T11:13:45Z</time>
      </trkpt>
      <trkpt lat="49.4376" lon="2.01842">
        <ele>171.2</ele>
        <time>2023-06-10T11:13:51Z</time>
      </trkpt>
      <trkpt lat="49.43755" lon="2.01851">
        <ele>171.1</ele>
        <time>2023-06-10T11:13:56Z</time>
      </trkpt>
      <trkpt lat="49.43752" lon="2.01861">
        <ele>171.2</ele>
        <time>2023-06-10T11:14:01Z</time>
      </trkpt>
      <trkpt lat="49.43749" lon="2.01872">
        <ele>171.2</ele>
        <time>2023-06-10T11:14:07Z</time>
      </trkpt>
      <trkpt lat="49.43744" lon="2.01883">
        <ele>171.2</ele>
        <time>2023-06-10T11:14:13Z</time>
      </trkpt>
      <trkpt lat="49.43739" lon="2.01892">
        <ele>170.9</ele>
        <time>2023-06-10T11:14:19Z</time>
      </trkpt>
      <trkpt lat="49.43735" lon="2.01901">
        <ele>170.9</ele>
        <time>2023-06-10T11:14:24Z</time>
      </trkpt>
      <trkpt lat="49.43732" lon="2.01913">
        <ele>170.9</ele>
        <time>2023-06-10T11:14:30Z</time>
      </trkpt>
      <trkpt lat="49.43728" lon="2.01922">
        <ele>170.9</ele>
        <time>2023-06-10T11:14:36Z</time>
      </trkpt>
      <trkpt lat="49.43721" lon="2.01929">
        <ele>170.8</ele>
        <time>2023-06-10T11:14:41Z</time>
      </trkpt>
      <trkpt lat="49.43717" lon="2.01939">
        <ele>171.1</ele>
        <time>2023-06-10T11:14:47Z</time>
      </trkpt>
      <trkpt lat="49.43714" lon="2.01945">
        <ele>171.1</ele>
        <time>2023-06-10T11:14:52Z</time>
      </trkpt>
      <trkpt lat="49.43707" lon="2.01951">
        <ele>170.6</ele>
        <time>2023-06-10T11:14:58Z</time>
      </trkpt>
      <trkpt lat="49.43703" lon="2.01957">
        <ele>170.4</ele>
        <time>2023-06-10T11:15:03Z</time>
      </trkpt>
      <trkpt lat="49.43698" lon="2.01964">
        <ele>170.1</ele>
        <time>2023-06-10T11:15:09Z</time>
      </trkpt>
      <trkpt lat="49.43694" lon="2.01972">
        <ele>169.9</ele>
        <time>2023-06-10T11:15:15Z</time>
      </trkpt>
      <trkpt lat="49.43689" lon="2.0198">
        <ele>169.9</ele>
        <time>2023-06-10T11:15:20Z</time>
      </trkpt>
      <trkpt lat="49.43684" lon="2.01987">
        <ele>169.7</ele>
        <time>2023-06-10T11:15:25Z</time>
      </trkpt>
      <trkpt lat="49.43678" lon="2.01998">
        <ele>169.6</ele>
        <time>2023-06-10T11:15:31Z</time>
      </trkpt>
      <trkpt lat="49.43673" lon="2.02006">
        <ele>169.3</ele>
        <time>2023-06-10T11:15:36Z</time>
      </trkpt>
      <trkpt lat="49.43669" lon="2.02016">
        <ele>169.4</ele>
        <time>2023-06-10T11:15:42Z</time>
      </trkpt>
      <trkpt lat="49.43663" lon="2.02023">
        <ele>169.3</ele>
        <time>2023-06-10T11:15:48Z</time>
      </trkpt>
      <trkpt lat="49.43657" lon="2.0203">
        <ele>169.1</ele>
        <time>2023-06-10T11:15:54Z</time>
      </trkpt>
      <trkpt lat="49.43651" lon="2.02034">
        <ele>168.8</ele>
        <time>2023-06-10T11:16:00Z</time>
      </trkpt>
      <trkpt lat="49.43643" lon="2.0204">
        <ele>168.4</ele>
        <time>2023-06-10T11:16:05Z</time>
      </trkpt>
      <trkpt lat="49.43638" lon="2.02047">
        <ele>168.2</ele>
        <time>2023-06-10T11:16:11Z</time>
      </trkpt>
      <trkpt lat="49.43632" lon="2.02051">
        <ele>167.7</ele>
        <time>2023-06-10T11:16:16Z</time>
      </trkpt>
      <trkpt lat="49.43627" lon="2.02056">
        <ele>167.3</ele>
        <time>2023-06-10T11:16:22Z</time>
      </trkpt>
      <trkpt lat="49.43626" lon="2.0206">
        <ele>167.3</ele>
        <time>2023-06-10T11:16:27Z</time>
      </trkpt>
      <trkpt lat="49.43625" lon="2.02061">
        <ele>167.3</ele>
        <time>2023-06-10T11:16:33Z</time>
      </trkpt>
      <trkpt lat="49.43625" lon="2.02061">
        <ele>167.3</ele>
        <time>2023-06-10T11:16:38Z</time>
      </trkpt>
      <trkpt lat="49.43624" lon="2.0206">
        <ele>167.1</ele>
        <time>2023-06-10T11:16:44Z</time>
      </trkpt>
      <trkpt lat="49.43622" lon="2.02061">
        <ele>166.9</ele>
        <time>2023-06-10T11:16:50Z</time>
      </trkpt>
      <trkpt lat="49.43621" lon="2.02062">
        <ele>166.8</ele>
        <time>2023-06-10T11:16:56Z</time>
      </trkpt>
      <trkpt lat="49.43621" lon="2.02062">
        <ele>166.8</ele>
        <time>2023-06-10T11:17:02Z</time>
      </trkpt>
      <trkpt lat="49.43621" lon="2.02062">
        <ele>166.8</ele>
        <time>2023-06-10T11:17:08Z</time>
      </trkpt>
      <trkpt lat="49.43621" lon="2.0206">
        <ele>166.7</ele>
        <time>2023-06-10T11:17:14Z</time>
      </trkpt>
      <trkpt lat="49.43621" lon="2.02059">
        <ele>166.7</ele>
        <time>2023-06-10T11:17:20Z</time>
      </trkpt>
      <trkpt lat="49.43621" lon="2.02059">
        <ele>166.6</ele>
        <time>2023-06-10T11:17:26Z</time>
      </trkpt>
      <trkpt lat="49.4362" lon="2.02058">
        <ele>166.4</ele>
        <time>2023-06-10T11:17:31Z</time>
      </trkpt>
      <trkpt lat="49.4362" lon="2.02058">
        <ele>166.3</ele>
        <time>2023-06-10T11:17:37Z</time>
      </trkpt>
      <trkpt lat="49.43619" lon="2.02057">
        <ele>166.3</ele>
        <time>2023-06-10T11:17:43Z</time>
      </trkpt>
      <trkpt lat="49.4362" lon="2.02057">
        <ele>166.4</ele>
        <time>2023-06-10T11:17:49Z</time>
      </trkpt>
      <trkpt lat="49.4362" lon="2.02059">
        <ele>166.5</ele>
        <time>2023-06-10T11:17:54Z</time>
      </trkpt>
      <trkpt lat="49.43618" lon="2.02064">
        <ele>166.4</ele>
        <time>2023-06-10T11:17:59Z</time>
      </trkpt>
      <trkpt lat="49.43613" lon="2.02072">
        <ele>166.4</ele>
        <time>2023-06-10T11:18:04Z</time>
      </trkpt>
      <trkpt lat="49.43609" lon="2.02077">
        <ele>166.3</ele>
        <time>2023-06-10T11:18:10Z</time>
      </trkpt>
      <trkpt lat="49.43607" lon="2.02086">
        <ele>166.6</ele>
        <time>2023-06-10T11:18:16Z</time>
      </trkpt>
      <trkpt lat="49.43604" lon="2.02092">
        <ele>166.5</ele>
        <time>2023-06-10T11:18:21Z</time>
      </trkpt>
      <trkpt lat="49.436" lon="2.02098">
        <ele>166.2</ele>
        <time>2023-06-10T11:18:27Z</time>
      </trkpt>
      <trkpt lat="49.43596" lon="2.02107">
        <ele>166</ele>
        <time>2023-06-10T11:18:33Z</time>
      </trkpt>
      <trkpt lat="49.4359" lon="2.02109">
        <ele>165</ele>
        <time>2023-06-10T11:18:38Z</time>
      </trkpt>
      <trkpt lat="49.43586" lon="2.0211">
        <ele>164.4</ele>
        <time>2023-06-10T11:18:43Z</time>
      </trkpt>
      <trkpt lat="49.43582" lon="2.02117">
        <ele>163.9</ele>
        <time>2023-06-10T11:18:49Z</time>
      </trkpt>
      <trkpt lat="49.43579" lon="2.0212">
        <ele>163.7</ele>
        <time>2023-06-10T11:18:55Z</time>
      </trkpt>
      <trkpt lat="49.43575" lon="2.02126">
        <ele>163.4</ele>
        <time>2023-06-10T11:19:01Z</time>
      </trkpt>
      <trkpt lat="49.43569" lon="2.0213">
        <ele>162.9</ele>
        <time>2023-06-10T11:19:06Z</time>
      </trkpt>
      <trkpt lat="49.43563" lon="2.02136">
        <ele>162.5</ele>
        <time>2023-06-10T11:19:12Z</time>
      </trkpt>
      <trkpt lat="49.4356" lon="2.02145">
        <ele>162.9</ele>
        <time>2023-06-10T11:19:18Z</time>
      </trkpt>
      <trkpt lat="49.43559" lon="2.02151">
        <ele>163.3</ele>
        <time>2023-06-10T11:19:24Z</time>
      </trkpt>
      <trkpt lat="49.43559" lon="2.02158">
        <ele>163.8</ele>
        <time>2023-06-10T11:19:30Z</time>
      </trkpt>
      <trkpt lat="49.43555" lon="2.02172">
        <ele>164.3</ele>
        <time>2023-06-10T11:19:36Z</time>
      </trkpt>
      <trkpt lat="49.43546" lon="2.02179">
        <ele>163.3</ele>
        <time>2023-06-10T11:19:42Z</time>
      </trkpt>
      <trkpt lat="49.4354" lon="2.02187">
        <ele>163</ele>
        <time>2023-06-10T11:19:48Z</time>
      </trkpt>
      <trkpt lat="49.43537" lon="2.02196">
        <ele>163.4</ele>
        <time>2023-06-10T11:19:53Z</time>
      </trkpt>
      <trkpt lat="49.43531" lon="2.02202">
        <ele>163.3</ele>
        <time>2023-06-10T11:19:59Z</time>
      </trkpt>
      <trkpt lat="49.43526" lon="2.02207">
        <ele>163</ele>
        <time>2023-06-10T11:20:04Z</time>
      </trkpt>
      <trkpt lat="49.4352" lon="2.02211">
        <ele>162.4</ele>
        <time>2023-06-10T11:20:10Z</time>
      </trkpt>
      <trkpt lat="49.43515" lon="2.02215">
        <ele>161.8</ele>
        <time>2023-06-10T11:20:15Z</time>
      </trkpt>
      <trkpt lat="49.43509" lon="2.02222">
        <ele>161</ele>
        <time>2023-06-10T11:20:21Z</time>
      </trkpt>
      <trkpt lat="49.43506" lon="2.02229">
        <ele>161</ele>
        <time>2023-06-10T11:20:26Z</time>
      </trkpt>
      <trkpt lat="49.43502" lon="2.02237">
        <ele>160.9</ele>
        <time>2023-06-10T11:20:32Z</time>
      </trkpt>
      <trkpt lat="49.43499" lon="2.02243">
        <ele>161.1</ele>
        <time>2023-06-10T11:20:37Z</time>
      </trkpt>
      <trkpt lat="49.43498" lon="2.02248">
        <ele>161.4</ele>
        <time>2023-06-10T11:20:42Z</time>
      </trkpt>
      <trkpt lat="49.43493" lon="2.02255">
        <ele>161</ele>
        <time>2023-06-10T11:20:48Z</time>
      </trkpt>
      <trkpt lat="49.43487" lon="2.02262">
        <ele>160.3</ele>
        <time>2023-06-10T11:20:54Z</time>
      </trkpt>
      <trkpt lat="49.43479" lon="2.02271">
        <ele>159.1</ele>
        <time>2023-06-10T11:20:59Z</time>
      </trkpt>
      <trkpt lat="49.43473" lon="2.02281">
        <ele>158.4</ele>
        <time>2023-06-10T11:21:05Z</time>
      </trkpt>
      <trkpt lat="49.43468" lon="2.02292">
        <ele>158.8</ele>
        <time>2023-06-10T11:21:10Z</time>
      </trkpt>
      <trkpt lat="49.43465" lon="2.02306">
        <ele>159.3</ele>
        <time>2023-06-10T11:21:15Z</time>
      </trkpt>
      <trkpt lat="49.43461" lon="2.02319">
        <ele>159</ele>
        <time>2023-06-10T11:21:21Z</time>
      </trkpt>
      <trkpt lat="49.43454" lon="2.02332">
        <ele>158.1</ele>
        <time>2023-06-10T11:21:27Z</time>
      </trkpt>
      <trkpt lat="49.43451" lon="2.02343">
        <ele>158</ele>
        <time>2023-06-10T11:21:33Z</time>
      </trkpt>
      <trkpt lat="49.43449" lon="2.02354">
        <ele>158.4</ele>
        <time>2023-06-10T11:21:39Z</time>
      </trkpt>
      <trkpt lat="49.43445" lon="2.02365">
        <ele>158.5</ele>
        <time>2023-06-10T11:21:45Z</time>
      </trkpt>
      <trkpt lat="49.43442" lon="2.02379">
        <ele>158.8</ele>
        <time>2023-06-10T11:21:51Z</time>
      </trkpt>
      <trkpt lat="49.43439" lon="2.02389">
        <ele>158.8</ele>
        <time>2023-06-10T11:21:57Z</time>
      </trkpt>
      <trkpt lat="49.43436" lon="2.02398">
        <ele>158.5</ele>
        <time>2023-06-10T11:22:03Z</time>
      </trkpt>
      <trkpt lat="49.43432" lon="2.02406">
        <ele>157.9</ele>
        <time>2023-06-10T11:22:08Z</time>
      </trkpt>
      <trkpt lat="49.43429" lon="2.02418">
        <ele>157.7</ele>
        <time>2023-06-10T11:22:14Z</time>
      </trkpt>
      <trkpt lat="49.43425" lon="2.02428">
        <ele>157.3</ele>
        <time>2023-06-10T11:22:20Z</time>
      </trkpt>
      <trkpt lat="49.43422" lon="2.02435">
        <ele>156.7</ele>
        <time>2023-06-10T11:22:25Z</time>
      </trkpt>
      <trkpt lat="49.43416" lon="2.02447">
        <ele>156</ele>
        <time>2023-06-10T11:22:31Z</time>
      </trkpt>
      <trkpt lat="49.43412" lon="2.02459">
        <ele>156.2</ele>
        <time>2023-06-10T11:22:37Z</time>
      </trkpt>
      <trkpt lat="49.4341" lon="2.02468">
        <ele>156.3</ele>
        <time>2023-06-10T11:22:42Z</time>
      </trkpt>
      <trkpt lat="49.43407" lon="2.02478">
        <ele>156.1</ele>
        <time>2023-06-10T11:22:48Z</time>
      </trkpt>
      <trkpt lat="49.43406" lon="2.02489">
        <ele>156.2</ele>
        <time>2023-06-10T11:22:54Z</time>
      </trkpt>
      <trkpt lat="49.43403" lon="2.02503">
        <ele>156.2</ele>
        <time>2023-06-10T11:22:59Z</time>
      </trkpt>
      <trkpt lat="49.43399" lon="2.02516">
        <ele>156.1</ele>
        <time>2023-06-10T11:23:05Z</time>
      </trkpt>
      <trkpt lat="49.43397" lon="2.02524">
        <ele>155.9</ele>
        <time>2023-06-10T11:23:10Z</time>
      </trkpt>
      <trkpt lat="49.43394" lon="2.02534">
        <ele>155.8</ele>
        <time>2023-06-10T11:23:15Z</time>
      </trkpt>
      <trkpt lat="49.43391" lon="2.02546">
        <ele>155.8</ele>
        <time>2023-06-10T11:23:21Z</time>
      </trkpt>
      <trkpt lat="49.4339" lon="2.02553">
        <ele>156.1</ele>
        <time>2023-06-10T11:23:27Z</time>
      </trkpt>
      <trkpt lat="49.43388" lon="2.0256">
        <ele>156</ele>
        <time>2023-06-10T11:23:32Z</time>
      </trkpt>
      <trkpt lat="49.43383" lon="2.02565">
        <ele>155.5</ele>
        <time>2023-06-10T11:23:37Z</time>
      </trkpt>
      <trkpt lat="49.43379" lon="2.02576">
        <ele>155.3</ele>
        <time>2023-06-10T11:23:43Z</time>
      </trkpt>
      <trkpt lat="49.43376" lon="2.02585">
        <ele>155.3</ele>
        <time>2023-06-10T11:23:49Z</time>
      </trkpt>
      <trkpt lat="49.43372" lon="2.02592">
        <ele>155</ele>
        <time>2023-06-10T11:23:54Z</time>
      </trkpt>
      <trkpt lat="49.43369" lon="2.02604">
        <ele>154.9</ele>
        <time>2023-06-10T11:24:00Z</time>
      </trkpt>
      <trkpt lat="49.43364" lon="2.02616">
        <ele>154.8</ele>
        <time>2023-06-10T11:24:06Z</time>
      </trkpt>
      <trkpt lat="49.43361" lon="2.02627">
        <ele>154.6</ele>
        <time>2023-06-10T11:24:11Z</time>
      </trkpt>
      <trkpt lat="49.4336" lon="2.02639">
        <ele>154.7</ele>
        <time>2023-06-10T11:24:17Z</time>
      </trkpt>
      <trkpt lat="49.43358" lon="2.0265">
        <ele>155.1</ele>
        <time>2023-06-10T11:24:22Z</time>
      </trkpt>
      <trkpt lat="49.43356" lon="2.0266">
        <ele>155.4</ele>
        <time>2023-06-10T11:24:27Z</time>
      </trkpt>
      <trkpt lat="49.43357" lon="2.02669">
        <ele>155.9</ele>
        <time>2023-06-10T11:24:33Z</time>
      </trkpt>
      <trkpt lat="49.43356" lon="2.02678">
        <ele>156.1</ele>
        <time>2023-06-10T11:24:39Z</time>
      </trkpt>
      <trkpt lat="49.43354" lon="2.02685">
        <ele>156</ele>
        <time>2023-06-10T11:24:45Z</time>
      </trkpt>
      <trkpt lat="49.43352" lon="2.02696">
        <ele>156.1</ele>
        <time>2023-06-10T11:24:50Z</time>
      </trkpt>
      <trkpt lat="49.4335" lon="2.02707">
        <ele>156.6</ele>
        <time>2023-06-10T11:24:55Z</time>
      </trkpt>
      <trkpt lat="49.4335" lon="2.02716">
        <ele>157.1</ele>
        <time>2023-06-10T11:25:00Z</time>
      </trkpt>
      <trkpt lat="49.43347" lon="2.02726">
        <ele>157.2</ele>
        <time>2023-06-10T11:25:06Z</time>
      </trkpt>
      <trkpt lat="49.43343" lon="2.02738">
        <ele>157.2</ele>
        <time>2023-06-10T11:25:12Z</time>
      </trkpt>
      <trkpt lat="49.4334" lon="2.02749">
        <ele>157.4</ele>
        <time>2023-06-10T11:25:17Z</time>
      </trkpt>
      <trkpt lat="49.43336" lon="2.02759">
        <ele>157.1</ele>
        <time>2023-06-10T11:25:22Z</time>
      </trkpt>
      <trkpt lat="49.43334" lon="2.02769">
        <ele>157.5</ele>
        <time>2023-06-10T11:25:28Z</time>
      </trkpt>
      <trkpt lat="49.43333" lon="2.02781">
        <ele>158.2</ele>
        <time>2023-06-10T11:25:34Z</time>
      </trkpt>
      <trkpt lat="49.4333" lon="2.02793">
        <ele>158.4</ele>
        <time>2023-06-10T11:25:39Z</time>
      </trkpt>
      <trkpt lat="49.43327" lon="2.02801">
        <ele>158.4</ele>
        <time>2023-06-10T11:25:44Z</time>
      </trkpt>
      <trkpt lat="49.43326" lon="2.0281">
        <ele>158.6</ele>
        <time>2023-06-10T11:25:49Z</time>
      </trkpt>
      <trkpt lat="49.43325" lon="2.0282">
        <ele>158.9</ele>
        <time>2023-06-10T11:25:55Z</time>
      </trkpt>
      <trkpt lat="49.43324" lon="2.02833">
        <ele>159.3</ele>
        <time>2023-06-10T11:26:01Z</time>
      </trkpt>
      <trkpt lat="49.43322" lon="2.02844">
        <ele>158.9</ele>
        <time>2023-06-10T11:26:06Z</time>
      </trkpt>
      <trkpt lat="49.4332" lon="2.02854">
        <ele>158.6</ele>
        <time>2023-06-10T11:26:12Z</time>
      </trkpt>
      <trkpt lat="49.4332" lon="2.02861">
        <ele>158.6</ele>
        <time>2023-06-10T11:26:17Z</time>
      </trkpt>
      <trkpt lat="49.43317" lon="2.02872">
        <ele>158.7</ele>
        <time>2023-06-10T11:26:23Z</time>
      </trkpt>
      <trkpt lat="49.43318" lon="2.02882">
        <ele>159.2</ele>
        <time>2023-06-10T11:26:29Z</time>
      </trkpt>
      <trkpt lat="49.43315" lon="2.02893">
        <ele>159.7</ele>
        <time>2023-06-10T11:26:34Z</time>
      </trkpt>
      <trkpt lat="49.43311" lon="2.02913">
        <ele>160.8</ele>
        <time>2023-06-10T11:26:40Z</time>
      </trkpt>
      <trkpt lat="49.43308" lon="2.02923">
        <ele>160.6</ele>
        <time>2023-06-10T11:26:46Z</time>
      </trkpt>
      <trkpt lat="49.43306" lon="2.02927">
        <ele>160.5</ele>
        <time>2023-06-10T11:26:51Z</time>
      </trkpt>
      <trkpt lat="49.43305" lon="2.02938">
        <ele>160.7</ele>
        <time>2023-06-10T11:26:57Z</time>
      </trkpt>
      <trkpt lat="49.43303" lon="2.02948">
        <ele>160.5</ele>
        <time>2023-06-10T11:27:03Z</time>
      </trkpt>
      <trkpt lat="49.43302" lon="2.02963">
        <ele>160.9</ele>
        <time>2023-06-10T11:27:09Z</time>
      </trkpt>
      <trkpt lat="49.43301" lon="2.02974">
        <ele>161.1</ele>
        <time>2023-06-10T11:27:14Z</time>
      </trkpt>
      <trkpt lat="49.43298" lon="2.02984">
        <ele>160.8</ele>
        <time>2023-06-10T11:27:20Z</time>
      </trkpt>
      <trkpt lat="49.43297" lon="2.02993">
        <ele>160.9</ele>
        <time>2023-06-10T11:27:25Z</time>
      </trkpt>
      <trkpt lat="49.43296" lon="2.03002">
        <ele>161.1</ele>
        <time>2023-06-10T11:27:30Z</time>
      </trkpt>
      <trkpt lat="49.43295" lon="2.03011">
        <ele>161.3</ele>
        <time>2023-06-10T11:27:35Z</time>
      </trkpt>
      <trkpt lat="49.43293" lon="2.03023">
        <ele>161.5</ele>
        <time>2023-06-10T11:27:41Z</time>
      </trkpt>
      <trkpt lat="49.43293" lon="2.03033">
        <ele>161.8</ele>
        <time>2023-06-10T11:27:46Z</time>
      </trkpt>
      <trkpt lat="49.43291" lon="2.03046">
        <ele>161.6</ele>
        <time>2023-06-10T11:27:52Z</time>
      </trkpt>
      <trkpt lat="49.43288" lon="2.03058">
        <ele>161.2</ele>
        <time>2023-06-10T11:27:58Z</time>
      </trkpt>
      <trkpt lat="49.43287" lon="2.0307">
        <ele>161.2</ele>
        <time>2023-06-10T11:28:04Z</time>
      </trkpt>
      <trkpt lat="49.43285" lon="2.03081">
        <ele>161.2</ele>
        <time>2023-06-10T11:28:09Z</time>
      </trkpt>
      <trkpt lat="49.43282" lon="2.03092">
        <ele>161.3</ele>
        <time>2023-06-10T11:28:15Z</time>
      </trkpt>
      <trkpt lat="49.4328" lon="2.03104">
        <ele>161.7</ele>
        <time>2023-06-10T11:28:21Z</time>
      </trkpt>
      <trkpt lat="49.43277" lon="2.03115">
        <ele>161.8</ele>
        <time>2023-06-10T11:28:27Z</time>
      </trkpt>
      <trkpt lat="49.43277" lon="2.03127">
        <ele>161.8</ele>
        <time>2023-06-10T11:28:33Z</time>
      </trkpt>
      <trkpt lat="49.43276" lon="2.03138">
        <ele>161.6</ele>
        <time>2023-06-10T11:28:38Z</time>
      </trkpt>
      <trkpt lat="49.43273" lon="2.03153">
        <ele>161</ele>
        <time>2023-06-10T11:28:44Z</time>
      </trkpt>
      <trkpt lat="49.43271" lon="2.03166">
        <ele>160.7</ele>
        <time>2023-06-10T11:28:50Z</time>
      </trkpt>
      <trkpt lat="49.4327" lon="2.03175">
        <ele>160.6</ele>
        <time>2023-06-10T11:28:56Z</time>
      </trkpt>
      <trkpt lat="49.43269" lon="2.03184">
        <ele>160.5</ele>
        <time>2023-06-10T11:29:01Z</time>
      </trkpt>
      <trkpt lat="49.43269" lon="2.03194">
        <ele>160.5</ele>
        <time>2023-06-10T11:29:06Z</time>
      </trkpt>
      <trkpt lat="49.43269" lon="2.03203">
        <ele>160.2</ele>
        <time>2023-06-10T11:29:11Z</time>
      </trkpt>
      <trkpt lat="49.43268" lon="2.03216">
        <ele>159.7</ele>
        <time>2023-06-10T11:29:17Z</time>
      </trkpt>
      <trkpt lat="49.43267" lon="2.03227">
        <ele>159.3</ele>
        <time>2023-06-10T11:29:22Z</time>
      </trkpt>
      <trkpt lat="49.43264" lon="2.0324">
        <ele>158.7</ele>
        <time>2023-06-10T11:29:28Z</time>
      </trkpt>
      <trkpt lat="49.43262" lon="2.03249">
        <ele>158.2</ele>
        <time>2023-06-10T11:29:33Z</time>
      </trkpt>
      <trkpt lat="49.43261" lon="2.03261">
        <ele>157.8</ele>
        <time>2023-06-10T11:29:39Z</time>
      </trkpt>
      <trkpt lat="49.43261" lon="2.03274">
        <ele>157.6</ele>
        <time>2023-06-10T11:29:45Z</time>
      </trkpt>
      <trkpt lat="49.43261" lon="2.03284">
        <ele>157.5</ele>
        <time>2023-06-10T11:29:51Z</time>
      </trkpt>
      <trkpt lat="49.4326" lon="2.03295">
        <ele>157.1</ele>
        <time>2023-06-10T11:29:56Z</time>
      </trkpt>
      <trkpt lat="49.43257" lon="2.03306">
        <ele>156.2</ele>
        <time>2023-06-10T11:30:02Z</time>
      </trkpt>
      <trkpt lat="49.43255" lon="2.03318">
        <ele>155.8</ele>
        <time>2023-06-10T11:30:07Z</time>
      </trkpt>
      <trkpt lat="49.43253" lon="2.03328">
        <ele>155.4</ele>
        <time>2023-06-10T11:30:12Z</time>
      </trkpt>
      <trkpt lat="49.43251" lon="2.03341">
        <ele>155.2</ele>
        <time>2023-06-10T11:30:18Z</time>
      </trkpt>
      <trkpt lat="49.4325" lon="2.03353">
        <ele>155</ele>
        <time>2023-06-10T11:30:24Z</time>
      </trkpt>
      <trkpt lat="49.43247" lon="2.03365">
        <ele>154.5</ele>
        <time>2023-06-10T11:30:30Z</time>
      </trkpt>
      <trkpt lat="49.43246" lon="2.03375">
        <ele>154.2</ele>
        <time>2023-06-10T11:30:35Z</time>
      </trkpt>
      <trkpt lat="49.43244" lon="2.03384">
        <ele>153.7</ele>
        <time>2023-06-10T11:30:40Z</time>
      </trkpt>
      <trkpt lat="49.43242" lon="2.03396">
        <ele>152.7</ele>
        <time>2023-06-10T11:30:46Z</time>
      </trkpt>
      <trkpt lat="49.43242" lon="2.03405">
        <ele>152.3</ele>
        <time>2023-06-10T11:30:51Z</time>
      </trkpt>
      <trkpt lat="49.43242" lon="2.03416">
        <ele>151.6</ele>
        <time>2023-06-10T11:30:57Z</time>
      </trkpt>
      <trkpt lat="49.43243" lon="2.03428">
        <ele>151.3</ele>
        <time>2023-06-10T11:31:03Z</time>
      </trkpt>
      <trkpt lat="49.43243" lon="2.03437">
        <ele>150.9</ele>
        <time>2023-06-10T11:31:08Z</time>
      </trkpt>
      <trkpt lat="49.43244" lon="2.03448">
        <ele>150.4</ele>
        <time>2023-06-10T11:31:14Z</time>
      </trkpt>
      <trkpt lat="49.43245" lon="2.03458">
        <ele>149.7</ele>
        <time>2023-06-10T11:31:19Z</time>
      </trkpt>
      <trkpt lat="49.43248" lon="2.03469">
        <ele>149</ele>
        <time>2023-06-10T11:31:25Z</time>
      </trkpt>
      <trkpt lat="49.4325" lon="2.03479">
        <ele>148.5</ele>
        <time>2023-06-10T11:31:30Z</time>
      </trkpt>
      <trkpt lat="49.4325" lon="2.0349">
        <ele>147.7</ele>
        <time>2023-06-10T11:31:36Z</time>
      </trkpt>
      <trkpt lat="49.43253" lon="2.03503">
        <ele>147</ele>
        <time>2023-06-10T11:31:42Z</time>
      </trkpt>
      <trkpt lat="49.43254" lon="2.03514">
        <ele>146.2</ele>
        <time>2023-06-10T11:31:47Z</time>
      </trkpt>
      <trkpt lat="49.43256" lon="2.03527">
        <ele>145.3</ele>
        <time>2023-06-10T11:31:53Z</time>
      </trkpt>
      <trkpt lat="49.43259" lon="2.03534">
        <ele>145</ele>
        <time>2023-06-10T11:31:58Z</time>
      </trkpt>
      <trkpt lat="49.43262" lon="2.0354">
        <ele>145.1</ele>
        <time>2023-06-10T11:32:03Z</time>
      </trkpt>
      <trkpt lat="49.43265" lon="2.03548">
        <ele>144.8</ele>
        <time>2023-06-10T11:32:08Z</time>
      </trkpt>
      <trkpt lat="49.43267" lon="2.0356">
        <ele>144</ele>
        <time>2023-06-10T11:32:14Z</time>
      </trkpt>
      <trkpt lat="49.43271" lon="2.03565">
        <ele>143.9</ele>
        <time>2023-06-10T11:32:19Z</time>
      </trkpt>
      <trkpt lat="49.43276" lon="2.03569">
        <ele>144.4</ele>
        <time>2023-06-10T11:32:24Z</time>
      </trkpt>
      <trkpt lat="49.43283" lon="2.03577">
        <ele>144.4</ele>
        <time>2023-06-10T11:32:30Z</time>
      </trkpt>
      <trkpt lat="49.43289" lon="2.03585">
        <ele>144.4</ele>
        <time>2023-06-10T11:32:35Z</time>
      </trkpt>
      <trkpt lat="49.43294" lon="2.03595">
        <ele>144.1</ele>
        <time>2023-06-10T11:32:41Z</time>
      </trkpt>
      <trkpt lat="49.43299" lon="2.03602">
        <ele>144.3</ele>
        <time>2023-06-10T11:32:46Z</time>
      </trkpt>
      <trkpt lat="49.43305" lon="2.03611">
        <ele>144.9</ele>
        <time>2023-06-10T11:32:52Z</time>
      </trkpt>
      <trkpt lat="49.43309" lon="2.0362">
        <ele>143.7</ele>
        <time>2023-06-10T11:32:57Z</time>
      </trkpt>
      <trkpt lat="49.43314" lon="2.0363">
        <ele>142.9</ele>
        <time>2023-06-10T11:33:03Z</time>
      </trkpt>
      <trkpt lat="49.43317" lon="2.03639">
        <ele>142.2</ele>
        <time>2023-06-10T11:33:08Z</time>
      </trkpt>
      <trkpt lat="49.43323" lon="2.03651">
        <ele>141.6</ele>
        <time>2023-06-10T11:33:14Z</time>
      </trkpt>
      <trkpt lat="49.43328" lon="2.0366">
        <ele>141.7</ele>
        <time>2023-06-10T11:33:20Z</time>
      </trkpt>
      <trkpt lat="49.43334" lon="2.03669">
        <ele>141.7</ele>
        <time>2023-06-10T11:33:25Z</time>
      </trkpt>
      <trkpt lat="49.43339" lon="2.03679">
        <ele>141.2</ele>
        <time>2023-06-10T11:33:30Z</time>
      </trkpt>
      <trkpt lat="49.43344" lon="2.0369">
        <ele>140.8</ele>
        <time>2023-06-10T11:33:36Z</time>
      </trkpt>
      <trkpt lat="49.43348" lon="2.03697">
        <ele>141</ele>
        <time>2023-06-10T11:33:41Z</time>
      </trkpt>
      <trkpt lat="49.4335" lon="2.03707">
        <ele>140.9</ele>
        <time>2023-06-10T11:33:47Z</time>
      </trkpt>
      <trkpt lat="49.43352" lon="2.03715">
        <ele>141.1</ele>
        <time>2023-06-10T11:33:52Z</time>
      </trkpt>
      <trkpt lat="49.43356" lon="2.03726">
        <ele>141.5</ele>
        <time>2023-06-10T11:33:58Z</time>
      </trkpt>
      <trkpt lat="49.4336" lon="2.03732">
        <ele>141.8</ele>
        <time>2023-06-10T11:34:03Z</time>
      </trkpt>
      <trkpt lat="49.43365" lon="2.03743">
        <ele>141.2</ele>
        <time>2023-06-10T11:34:09Z</time>
      </trkpt>
      <trkpt lat="49.43368" lon="2.03751">
        <ele>141</ele>
        <time>2023-06-10T11:34:14Z</time>
      </trkpt>
      <trkpt lat="49.4337" lon="2.03761">
        <ele>140.4</ele>
        <time>2023-06-10T11:34:19Z</time>
      </trkpt>
      <trkpt lat="49.43375" lon="2.03776">
        <ele>140.2</ele>
        <time>2023-06-10T11:34:25Z</time>
      </trkpt>
      <trkpt lat="49.43379" lon="2.03783">
        <ele>140.7</ele>
        <time>2023-06-10T11:34:30Z</time>
      </trkpt>
      <trkpt lat="49.43383" lon="2.03792">
        <ele>141.1</ele>
        <time>2023-06-10T11:34:35Z</time>
      </trkpt>
      <trkpt lat="49.43386" lon="2.03802">
        <ele>141.5</ele>
        <time>2023-06-10T11:34:41Z</time>
      </trkpt>
      <trkpt lat="49.43391" lon="2.0381">
        <ele>141.5</ele>
        <time>2023-06-10T11:34:46Z</time>
      </trkpt>
      <trkpt lat="49.43394" lon="2.03821">
        <ele>140.4</ele>
        <time>2023-06-10T11:34:52Z</time>
      </trkpt>
      <trkpt lat="49.43396" lon="2.03831">
        <ele>139.4</ele>
        <time>2023-06-10T11:34:57Z</time>
      </trkpt>
      <trkpt lat="49.434" lon="2.03842">
        <ele>138.8</ele>
        <time>2023-06-10T11:35:03Z</time>
      </trkpt>
      <trkpt lat="49.43402" lon="2.03855">
        <ele>138.3</ele>
        <time>2023-06-10T11:35:08Z</time>
      </trkpt>
      <trkpt lat="49.43407" lon="2.03867">
        <ele>138.4</ele>
        <time>2023-06-10T11:35:14Z</time>
      </trkpt>
      <trkpt lat="49.4341" lon="2.03874">
        <ele>138.7</ele>
        <time>2023-06-10T11:35:20Z</time>
      </trkpt>
      <trkpt lat="49.43413" lon="2.03883">
        <ele>138.6</ele>
        <time>2023-06-10T11:35:26Z</time>
      </trkpt>
      <trkpt lat="49.43416" lon="2.03894">
        <ele>138.4</ele>
        <time>2023-06-10T11:35:31Z</time>
      </trkpt>
      <trkpt lat="49.4342" lon="2.03906">
        <ele>137.5</ele>
        <time>2023-06-10T11:35:37Z</time>
      </trkpt>
      <trkpt lat="49.43421" lon="2.03918">
        <ele>136.5</ele>
        <time>2023-06-10T11:35:42Z</time>
      </trkpt>
      <trkpt lat="49.43423" lon="2.03927">
        <ele>136.1</ele>
        <time>2023-06-10T11:35:47Z</time>
      </trkpt>
      <trkpt lat="49.43428" lon="2.03933">
        <ele>136.4</ele>
        <time>2023-06-10T11:35:52Z</time>
      </trkpt>
      <trkpt lat="49.43435" lon="2.0394">
        <ele>137.3</ele>
        <time>2023-06-10T11:35:58Z</time>
      </trkpt>
      <trkpt lat="49.43438" lon="2.0395">
        <ele>137.4</ele>
        <time>2023-06-10T11:36:04Z</time>
      </trkpt>
      <trkpt lat="49.4344" lon="2.0396">
        <ele>137.5</ele>
        <time>2023-06-10T11:36:09Z</time>
      </trkpt>
      <trkpt lat="49.43444" lon="2.03973">
        <ele>137.8</ele>
        <time>2023-06-10T11:36:15Z</time>
      </trkpt>
      <trkpt lat="49.43447" lon="2.03985">
        <ele>136.9</ele>
        <time>2023-06-10T11:36:21Z</time>
      </trkpt>
      <trkpt lat="49.4345" lon="2.04">
        <ele>135.9</ele>
        <time>2023-06-10T11:36:27Z</time>
      </trkpt>
      <trkpt lat="49.43452" lon="2.04011">
        <ele>135.5</ele>
        <time>2023-06-10T11:36:33Z</time>
      </trkpt>
      <trkpt lat="49.43457" lon="2.04019">
        <ele>135.8</ele>
        <time>2023-06-10T11:36:38Z</time>
      </trkpt>
      <trkpt lat="49.4346" lon="2.04036">
        <ele>135.3</ele>
        <time>2023-06-10T11:36:44Z</time>
      </trkpt>
      <trkpt lat="49.43463" lon="2.04045">
        <ele>135.4</ele>
        <time>2023-06-10T11:36:50Z</time>
      </trkpt>
      <trkpt lat="49.43464" lon="2.04054">
        <ele>135.3</ele>
        <time>2023-06-10T11:36:55Z</time>
      </trkpt>
      <trkpt lat="49.43467" lon="2.04066">
        <ele>134.7</ele>
        <time>2023-06-10T11:37:01Z</time>
      </trkpt>
      <trkpt lat="49.43469" lon="2.04075">
        <ele>134.4</ele>
        <time>2023-06-10T11:37:06Z</time>
      </trkpt>
      <trkpt lat="49.43473" lon="2.04087">
        <ele>133.9</ele>
        <time>2023-06-10T11:37:12Z</time>
      </trkpt>
      <trkpt lat="49.43476" lon="2.04102">
        <ele>133.2</ele>
        <time>2023-06-10T11:37:18Z</time>
      </trkpt>
      <trkpt lat="49.43479" lon="2.04111">
        <ele>133</ele>
        <time>2023-06-10T11:37:23Z</time>
      </trkpt>
      <trkpt lat="49.43482" lon="2.04121">
        <ele>132.9</ele>
        <time>2023-06-10T11:37:28Z</time>
      </trkpt>
      <trkpt lat="49.43486" lon="2.04132">
        <ele>132.9</ele>
        <time>2023-06-10T11:37:34Z</time>
      </trkpt>
      <trkpt lat="49.4349" lon="2.04144">
        <ele>133</ele>
        <time>2023-06-10T11:37:40Z</time>
      </trkpt>
      <trkpt lat="49.43493" lon="2.04155">
        <ele>133.1</ele>
        <time>2023-06-10T11:37:45Z</time>
      </trkpt>
      <trkpt lat="49.43495" lon="2.04165">
        <ele>133.1</ele>
        <time>2023-06-10T11:37:50Z</time>
      </trkpt>
      <trkpt lat="49.43498" lon="2.04175">
        <ele>133</ele>
        <time>2023-06-10T11:37:56Z</time>
      </trkpt>
      <trkpt lat="49.43501" lon="2.04187">
        <ele>132.7</ele>
        <time>2023-06-10T11:38:02Z</time>
      </trkpt>
      <trkpt lat="49.43503" lon="2.04196">
        <ele>132.3</ele>
        <time>2023-06-10T11:38:07Z</time>
      </trkpt>
      <trkpt lat="49.43506" lon="2.04208">
        <ele>132.1</ele>
        <time>2023-06-10T11:38:12Z</time>
      </trkpt>
      <trkpt lat="49.43511" lon="2.04216">
        <ele>132.3</ele>
        <time>2023-06-10T11:38:18Z</time>
      </trkpt>
      <trkpt lat="49.43516" lon="2.04224">
        <ele>132.7</ele>
        <time>2023-06-10T11:38:24Z</time>
      </trkpt>
      <trkpt lat="49.4352" lon="2.04229">
        <ele>133.2</ele>
        <time>2023-06-10T11:38:30Z</time>
      </trkpt>
      <trkpt lat="49.43522" lon="2.04238">
        <ele>133</ele>
        <time>2023-06-10T11:38:36Z</time>
      </trkpt>
      <trkpt lat="49.43524" lon="2.04242">
        <ele>133</ele>
        <time>2023-06-10T11:38:42Z</time>
      </trkpt>
      <trkpt lat="49.43525" lon="2.04247">
        <ele>132.8</ele>
        <time>2023-06-10T11:38:47Z</time>
      </trkpt>
      <trkpt lat="49.43528" lon="2.04245">
        <ele>133.4</ele>
        <time>2023-06-10T11:38:53Z</time>
      </trkpt>
      <trkpt lat="49.43533" lon="2.0424">
        <ele>134.2</ele>
        <time>2023-06-10T11:38:58Z</time>
      </trkpt>
      <trkpt lat="49.4354" lon="2.04235">
        <ele>135.1</ele>
        <time>2023-06-10T11:39:04Z</time>
      </trkpt>
      <trkpt lat="49.43546" lon="2.04231">
        <ele>135.9</ele>
        <time>2023-06-10T11:39:10Z</time>
      </trkpt>
      <trkpt lat="49.43551" lon="2.04228">
        <ele>136.4</ele>
        <time>2023-06-10T11:39:15Z</time>
      </trkpt>
      <trkpt lat="49.43557" lon="2.04225">
        <ele>136.9</ele>
        <time>2023-06-10T11:39:21Z</time>
      </trkpt>
      <trkpt lat="49.43561" lon="2.04221">
        <ele>137.3</ele>
        <time>2023-06-10T11:39:26Z</time>
      </trkpt>
      <trkpt lat="49.43566" lon="2.04216">
        <ele>137.9</ele>
        <time>2023-06-10T11:39:32Z</time>
      </trkpt>
      <trkpt lat="49.43568" lon="2.04215">
        <ele>138.1</ele>
        <time>2023-06-10T11:39:37Z</time>
      </trkpt>
      <trkpt lat="49.4357" lon="2.04214">
        <ele>138.2</ele>
        <time>2023-06-10T11:39:42Z</time>
      </trkpt>
      <trkpt lat="49.43574" lon="2.04211">
        <ele>138.8</ele>
        <time>2023-06-10T11:39:48Z</time>
      </trkpt>
      <trkpt lat="49.43577" lon="2.04203">
        <ele>139.7</ele>
        <time>2023-06-10T11:39:53Z</time>
      </trkpt>
      <trkpt lat="49.43583" lon="2.04197">
        <ele>140.7</ele>
        <time>2023-06-10T11:39:59Z</time>
      </trkpt>
      <trkpt lat="49.43588" lon="2.04196">
        <ele>140.9</ele>
        <time>2023-06-10T11:40:04Z</time>
      </trkpt>
      <trkpt lat="49.43593" lon="2.04197">
        <ele>140.8</ele>
        <time>2023-06-10T11:40:10Z</time>
      </trkpt>
      <trkpt lat="49.43598" lon="2.04199">
        <ele>140.7</ele>
        <time>2023-06-10T11:40:16Z</time>
      </trkpt>
      <trkpt lat="49.43603" lon="2.04202">
        <ele>140.8</ele>
        <time>2023-06-10T11:40:22Z</time>
      </trkpt>
      <trkpt lat="49.43606" lon="2.04203">
        <ele>140.8</ele>
        <time>2023-06-10T11:40:27Z</time>
      </trkpt>
      <trkpt lat="49.43607" lon="2.04202">
        <ele>140.9</ele>
        <time>2023-06-10T11:40:32Z</time>
      </trkpt>
      <trkpt lat="49.43609" lon="2.04203">
        <ele>140.9</ele>
        <time>2023-06-10T11:40:38Z</time>
      </trkpt>
      <trkpt lat="49.43608" lon="2.04201">
        <ele>140.9</ele>
        <time>2023-06-10T11:40:43Z</time>
      </trkpt>
      <trkpt lat="49.43611" lon="2.04203">
        <ele>141</ele>
        <time>2023-06-10T11:40:48Z</time>
      </trkpt>
      <trkpt lat="49.43609" lon="2.04208">
        <ele>140.9</ele>
        <time>2023-06-10T11:40:54Z</time>
      </trkpt>
      <trkpt lat="49.43606" lon="2.04217">
        <ele>140.5</ele>
        <time>2023-06-10T11:41:00Z</time>
      </trkpt>
      <trkpt lat="49.43605" lon="2.04218">
        <ele>140.4</ele>
        <time>2023-06-10T11:41:05Z</time>
      </trkpt>
      <trkpt lat="49.43605" lon="2.04217">
        <ele>140.5</ele>
        <time>2023-06-10T11:41:14Z</time>
      </trkpt>
      <trkpt lat="49.43598" lon="2.04217">
        <ele>139.8</ele>
        <time>2023-06-10T12:13:04Z</time>
      </trkpt>
      <trkpt lat="49.43599" lon="2.04215">
        <ele>140</ele>
        <time>2023-06-10T12:13:10Z</time>
      </trkpt>
      <trkpt lat="49.43601" lon="2.0422">
        <ele>140</ele>
        <time>2023-06-10T12:13:16Z</time>
      </trkpt>
      <trkpt lat="49.43603" lon="2.04219">
        <ele>140.2</ele>
        <time>2023-06-10T12:13:21Z</time>
      </trkpt>
      <trkpt lat="49.43604" lon="2.04216">
        <ele>140.4</ele>
        <time>2023-06-10T12:13:26Z</time>
      </trkpt>
      <trkpt lat="49.43607" lon="2.04212">
        <ele>140.7</ele>
        <time>2023-06-10T12:13:32Z</time>
      </trkpt>
      <trkpt lat="49.43608" lon="2.04207">
        <ele>140.9</ele>
        <time>2023-06-10T12:13:37Z</time>
      </trkpt>
      <trkpt lat="49.43609" lon="2.04202">
        <ele>141</ele>
        <time>2023-06-10T12:13:43Z</time>
      </trkpt>
      <trkpt lat="49.43611" lon="2.04198">
        <ele>141</ele>
        <time>2023-06-10T12:13:49Z</time>
      </trkpt>
      <trkpt lat="49.43616" lon="2.04189">
        <ele>140.4</ele>
        <time>2023-06-10T12:13:54Z</time>
      </trkpt>
      <trkpt lat="49.43621" lon="2.04178">
        <ele>139.7</ele>
        <time>2023-06-10T12:14:00Z</time>
      </trkpt>
      <trkpt lat="49.43623" lon="2.04168">
        <ele>139.2</ele>
        <time>2023-06-10T12:14:06Z</time>
      </trkpt>
      <trkpt lat="49.43623" lon="2.04156">
        <ele>138.9</ele>
        <time>2023-06-10T12:14:12Z</time>
      </trkpt>
      <trkpt lat="49.43622" lon="2.04145">
        <ele>138.8</ele>
        <time>2023-06-10T12:14:17Z</time>
      </trkpt>
      <trkpt lat="49.43621" lon="2.04133">
        <ele>139</ele>
        <time>2023-06-10T12:14:23Z</time>
      </trkpt>
      <trkpt lat="49.43621" lon="2.0412">
        <ele>139.5</ele>
        <time>2023-06-10T12:14:29Z</time>
      </trkpt>
      <trkpt lat="49.43621" lon="2.04113">
        <ele>139.9</ele>
        <time>2023-06-10T12:14:35Z</time>
      </trkpt>
      <trkpt lat="49.43623" lon="2.04107">
        <ele>139.8</ele>
        <time>2023-06-10T12:14:40Z</time>
      </trkpt>
      <trkpt lat="49.43627" lon="2.04105">
        <ele>139.3</ele>
        <time>2023-06-10T12:14:46Z</time>
      </trkpt>
      <trkpt lat="49.43633" lon="2.04103">
        <ele>138.7</ele>
        <time>2023-06-10T12:14:51Z</time>
      </trkpt>
      <trkpt lat="49.4364" lon="2.041">
        <ele>137.9</ele>
        <time>2023-06-10T12:14:56Z</time>
      </trkpt>
      <trkpt lat="49.43645" lon="2.04095">
        <ele>137.4</ele>
        <time>2023-06-10T12:15:01Z</time>
      </trkpt>
      <trkpt lat="49.43652" lon="2.04095">
        <ele>136.8</ele>
        <time>2023-06-10T12:15:07Z</time>
      </trkpt>
      <trkpt lat="49.43657" lon="2.04095">
        <ele>136.3</ele>
        <time>2023-06-10T12:15:13Z</time>
      </trkpt>
      <trkpt lat="49.43664" lon="2.04095">
        <ele>135.7</ele>
        <time>2023-06-10T12:15:18Z</time>
      </trkpt>
      <trkpt lat="49.43671" lon="2.04095">
        <ele>135.8</ele>
        <time>2023-06-10T12:15:24Z</time>
      </trkpt>
      <trkpt lat="49.43677" lon="2.04095">
        <ele>136.2</ele>
        <time>2023-06-10T12:15:29Z</time>
      </trkpt>
      <trkpt lat="49.4368" lon="2.04103">
        <ele>136.5</ele>
        <time>2023-06-10T12:15:35Z</time>
      </trkpt>
      <trkpt lat="49.4368" lon="2.04112">
        <ele>136.5</ele>
        <time>2023-06-10T12:15:41Z</time>
      </trkpt>
      <trkpt lat="49.4368" lon="2.04117">
        <ele>136.5</ele>
        <time>2023-06-10T12:15:46Z</time>
      </trkpt>
      <trkpt lat="49.43681" lon="2.04125">
        <ele>136.5</ele>
        <time>2023-06-10T12:15:51Z</time>
      </trkpt>
      <trkpt lat="49.43681" lon="2.04134">
        <ele>136.5</ele>
        <time>2023-06-10T12:15:57Z</time>
      </trkpt>
      <trkpt lat="49.43681" lon="2.04143">
        <ele>136.4</ele>
        <time>2023-06-10T12:16:03Z</time>
      </trkpt>
      <trkpt lat="49.43681" lon="2.04158">
        <ele>136.1</ele>
        <time>2023-06-10T12:16:09Z</time>
      </trkpt>
      <trkpt lat="49.43681" lon="2.04176">
        <ele>135.8</ele>
        <time>2023-06-10T12:16:15Z</time>
      </trkpt>
      <trkpt lat="49.4368" lon="2.04187">
        <ele>135.6</ele>
        <time>2023-06-10T12:16:20Z</time>
      </trkpt>
      <trkpt lat="49.43679" lon="2.04197">
        <ele>135.5</ele>
        <time>2023-06-10T12:16:26Z</time>
      </trkpt>
      <trkpt lat="49.43679" lon="2.04203">
        <ele>135.4</ele>
        <time>2023-06-10T12:16:31Z</time>
      </trkpt>
      <trkpt lat="49.43679" lon="2.0421">
        <ele>135.2</ele>
        <time>2023-06-10T12:16:37Z</time>
      </trkpt>
      <trkpt lat="49.4368" lon="2.04219">
        <ele>135.1</ele>
        <time>2023-06-10T12:16:42Z</time>
      </trkpt>
      <trkpt lat="49.43681" lon="2.04231">
        <ele>135.1</ele>
        <time>2023-06-10T12:16:48Z</time>
      </trkpt>
      <trkpt lat="49.43683" lon="2.04242">
        <ele>135.2</ele>
        <time>2023-06-10T12:16:54Z</time>
      </trkpt>
      <trkpt lat="49.43686" lon="2.0425">
        <ele>135</ele>
        <time>2023-06-10T12:17:00Z</time>
      </trkpt>
      <trkpt lat="49.43687" lon="2.04259">
        <ele>134.8</ele>
        <time>2023-06-10T12:17:06Z</time>
      </trkpt>
      <trkpt lat="49.43687" lon="2.04267">
        <ele>134.8</ele>
        <time>2023-06-10T12:17:11Z</time>
      </trkpt>
      <trkpt lat="49.43688" lon="2.04271">
        <ele>134.7</ele>
        <time>2023-06-10T12:17:16Z</time>
      </trkpt>
      <trkpt lat="49.43688" lon="2.04276">
        <ele>134.7</ele>
        <time>2023-06-10T12:17:21Z</time>
      </trkpt>
      <trkpt lat="49.43691" lon="2.04287">
        <ele>134.7</ele>
        <time>2023-06-10T12:17:27Z</time>
      </trkpt>
      <trkpt lat="49.43693" lon="2.04294">
        <ele>134.7</ele>
        <time>2023-06-10T12:17:32Z</time>
      </trkpt>
      <trkpt lat="49.43691" lon="2.04307">
        <ele>135.3</ele>
        <time>2023-06-10T12:17:38Z</time>
      </trkpt>
      <trkpt lat="49.4369" lon="2.04323">
        <ele>135.4</ele>
        <time>2023-06-10T12:17:44Z</time>
      </trkpt>
      <trkpt lat="49.43692" lon="2.04336">
        <ele>135.2</ele>
        <time>2023-06-10T12:17:50Z</time>
      </trkpt>
      <trkpt lat="49.43695" lon="2.04347">
        <ele>134.9</ele>
        <time>2023-06-10T12:17:55Z</time>
      </trkpt>
      <trkpt lat="49.43695" lon="2.0436">
        <ele>134.9</ele>
        <time>2023-06-10T12:18:01Z</time>
      </trkpt>
      <trkpt lat="49.43692" lon="2.04369">
        <ele>135.2</ele>
        <time>2023-06-10T12:18:06Z</time>
      </trkpt>
      <trkpt lat="49.43689" lon="2.04379">
        <ele>135.5</ele>
        <time>2023-06-10T12:18:11Z</time>
      </trkpt>
      <trkpt lat="49.43688" lon="2.04389">
        <ele>135.7</ele>
        <time>2023-06-10T12:18:16Z</time>
      </trkpt>
      <trkpt lat="49.43689" lon="2.04399">
        <ele>135.6</ele>
        <time>2023-06-10T12:18:22Z</time>
      </trkpt>
      <trkpt lat="49.4369" lon="2.04407">
        <ele>135.4</ele>
        <time>2023-06-10T12:18:28Z</time>
      </trkpt>
      <trkpt lat="49.43693" lon="2.04416">
        <ele>135.2</ele>
        <time>2023-06-10T12:18:34Z</time>
      </trkpt>
      <trkpt lat="49.43694" lon="2.04424">
        <ele>135</ele>
        <time>2023-06-10T12:18:39Z</time>
      </trkpt>
      <trkpt lat="49.43698" lon="2.04434">
        <ele>134.6</ele>
        <time>2023-06-10T12:18:45Z</time>
      </trkpt>
      <trkpt lat="49.43701" lon="2.04444">
        <ele>134.3</ele>
        <time>2023-06-10T12:18:51Z</time>
      </trkpt>
      <trkpt lat="49.43704" lon="2.04453">
        <ele>134.1</ele>
        <time>2023-06-10T12:18:56Z</time>
      </trkpt>
      <trkpt lat="49.43707" lon="2.04464">
        <ele>134.1</ele>
        <time>2023-06-10T12:19:02Z</time>
      </trkpt>
      <trkpt lat="49.43705" lon="2.04476">
        <ele>134.4</ele>
        <time>2023-06-10T12:19:08Z</time>
      </trkpt>
      <trkpt lat="49.43705" lon="2.04485">
        <ele>134.2</ele>
        <time>2023-06-10T12:19:13Z</time>
      </trkpt>
      <trkpt lat="49.43706" lon="2.04496">
        <ele>133.9</ele>
        <time>2023-06-10T12:19:19Z</time>
      </trkpt>
      <trkpt lat="49.43706" lon="2.04505">
        <ele>133.7</ele>
        <time>2023-06-10T12:19:24Z</time>
      </trkpt>
      <trkpt lat="49.43706" lon="2.04515">
        <ele>133.7</ele>
        <time>2023-06-10T12:19:29Z</time>
      </trkpt>
      <trkpt lat="49.43707" lon="2.04527">
        <ele>133.7</ele>
        <time>2023-06-10T12:19:35Z</time>
      </trkpt>
      <trkpt lat="49.43708" lon="2.04537">
        <ele>133.5</ele>
        <time>2023-06-10T12:19:40Z</time>
      </trkpt>
      <trkpt lat="49.43709" lon="2.04547">
        <ele>133.4</ele>
        <time>2023-06-10T12:19:45Z</time>
      </trkpt>
      <trkpt lat="49.4371" lon="2.04557">
        <ele>133.3</ele>
        <time>2023-06-10T12:19:50Z</time>
      </trkpt>
      <trkpt lat="49.43713" lon="2.04567">
        <ele>133</ele>
        <time>2023-06-10T12:19:56Z</time>
      </trkpt>
      <trkpt lat="49.43716" lon="2.04576">
        <ele>132.7</ele>
        <time>2023-06-10T12:20:02Z</time>
      </trkpt>
      <trkpt lat="49.43717" lon="2.04585">
        <ele>132.5</ele>
        <time>2023-06-10T12:20:07Z</time>
      </trkpt>
      <trkpt lat="49.43719" lon="2.04596">
        <ele>132.3</ele>
        <time>2023-06-10T12:20:13Z</time>
      </trkpt>
      <trkpt lat="49.43721" lon="2.04606">
        <ele>132.2</ele>
        <time>2023-06-10T12:20:19Z</time>
      </trkpt>
      <trkpt lat="49.43721" lon="2.04614">
        <ele>132.2</ele>
        <time>2023-06-10T12:20:24Z</time>
      </trkpt>
      <trkpt lat="49.43722" lon="2.04624">
        <ele>132.5</ele>
        <time>2023-06-10T12:20:30Z</time>
      </trkpt>
      <trkpt lat="49.43723" lon="2.04632">
        <ele>132.7</ele>
        <time>2023-06-10T12:20:35Z</time>
      </trkpt>
      <trkpt lat="49.43724" lon="2.04644">
        <ele>132.7</ele>
        <time>2023-06-10T12:20:41Z</time>
      </trkpt>
      <trkpt lat="49.43725" lon="2.04655">
        <ele>132.5</ele>
        <time>2023-06-10T12:20:47Z</time>
      </trkpt>
      <trkpt lat="49.43725" lon="2.04668">
        <ele>132.5</ele>
        <time>2023-06-10T12:20:53Z</time>
      </trkpt>
      <trkpt lat="49.43725" lon="2.04681">
        <ele>132.4</ele>
        <time>2023-06-10T12:20:59Z</time>
      </trkpt>
      <trkpt lat="49.43725" lon="2.04691">
        <ele>132.3</ele>
        <time>2023-06-10T12:21:04Z</time>
      </trkpt>
      <trkpt lat="49.43725" lon="2.04696">
        <ele>132.4</ele>
        <time>2023-06-10T12:21:09Z</time>
      </trkpt>
      <trkpt lat="49.43726" lon="2.04701">
        <ele>132.2</ele>
        <time>2023-06-10T12:21:15Z</time>
      </trkpt>
      <trkpt lat="49.43728" lon="2.04708">
        <ele>131.7</ele>
        <time>2023-06-10T12:21:20Z</time>
      </trkpt>
      <trkpt lat="49.43731" lon="2.04717">
        <ele>131</ele>
        <time>2023-06-10T12:21:26Z</time>
      </trkpt>
      <trkpt lat="49.43734" lon="2.04728">
        <ele>130.4</ele>
        <time>2023-06-10T12:21:32Z</time>
      </trkpt>
      <trkpt lat="49.43736" lon="2.04739">
        <ele>129.7</ele>
        <time>2023-06-10T12:21:38Z</time>
      </trkpt>
      <trkpt lat="49.43734" lon="2.04751">
        <ele>129.8</ele>
        <time>2023-06-10T12:21:44Z</time>
      </trkpt>
      <trkpt lat="49.43731" lon="2.04764">
        <ele>130.4</ele>
        <time>2023-06-10T12:21:50Z</time>
      </trkpt>
      <trkpt lat="49.4373" lon="2.04774">
        <ele>130.7</ele>
        <time>2023-06-10T12:21:55Z</time>
      </trkpt>
      <trkpt lat="49.43728" lon="2.04787">
        <ele>131.1</ele>
        <time>2023-06-10T12:22:01Z</time>
      </trkpt>
      <trkpt lat="49.4373" lon="2.04797">
        <ele>130.8</ele>
        <time>2023-06-10T12:22:07Z</time>
      </trkpt>
      <trkpt lat="49.43732" lon="2.04807">
        <ele>130.6</ele>
        <time>2023-06-10T12:22:12Z</time>
      </trkpt>
      <trkpt lat="49.43731" lon="2.04818">
        <ele>130.7</ele>
        <time>2023-06-10T12:22:18Z</time>
      </trkpt>
      <trkpt lat="49.4373" lon="2.04829">
        <ele>130.8</ele>
        <time>2023-06-10T12:22:23Z</time>
      </trkpt>
      <trkpt lat="49.43729" lon="2.04842">
        <ele>130.8</ele>
        <time>2023-06-10T12:22:29Z</time>
      </trkpt>
      <trkpt lat="49.43727" lon="2.04853">
        <ele>130.7</ele>
        <time>2023-06-10T12:22:35Z</time>
      </trkpt>
      <trkpt lat="49.43725" lon="2.04862">
        <ele>130.7</ele>
        <time>2023-06-10T12:22:40Z</time>
      </trkpt>
      <trkpt lat="49.43723" lon="2.04873">
        <ele>130.9</ele>
        <time>2023-06-10T12:22:46Z</time>
      </trkpt>
      <trkpt lat="49.43723" lon="2.04882">
        <ele>131</ele>
        <time>2023-06-10T12:22:51Z</time>
      </trkpt>
      <trkpt lat="49.43722" lon="2.04894">
        <ele>131</ele>
        <time>2023-06-10T12:22:57Z</time>
      </trkpt>
      <trkpt lat="49.43722" lon="2.04908">
        <ele>131</ele>
        <time>2023-06-10T12:23:03Z</time>
      </trkpt>
      <trkpt lat="49.43724" lon="2.0492">
        <ele>130.7</ele>
        <time>2023-06-10T12:23:09Z</time>
      </trkpt>
      <trkpt lat="49.43725" lon="2.04932">
        <ele>130.2</ele>
        <time>2023-06-10T12:23:15Z</time>
      </trkpt>
      <trkpt lat="49.43725" lon="2.04944">
        <ele>129.8</ele>
        <time>2023-06-10T12:23:21Z</time>
      </trkpt>
      <trkpt lat="49.43725" lon="2.04955">
        <ele>129.8</ele>
        <time>2023-06-10T12:23:27Z</time>
      </trkpt>
      <trkpt lat="49.43724" lon="2.04962">
        <ele>129.8</ele>
        <time>2023-06-10T12:23:32Z</time>
      </trkpt>
      <trkpt lat="49.43726" lon="2.04974">
        <ele>129.6</ele>
        <time>2023-06-10T12:23:38Z</time>
      </trkpt>
      <trkpt lat="49.43726" lon="2.04982">
        <ele>129.2</ele>
        <time>2023-06-10T12:23:43Z</time>
      </trkpt>
      <trkpt lat="49.43726" lon="2.04991">
        <ele>129</ele>
        <time>2023-06-10T12:23:49Z</time>
      </trkpt>
      <trkpt lat="49.43726" lon="2.05">
        <ele>128.7</ele>
        <time>2023-06-10T12:23:54Z</time>
      </trkpt>
      <trkpt lat="49.43727" lon="2.0501">
        <ele>128.3</ele>
        <time>2023-06-10T12:23:59Z</time>
      </trkpt>
      <trkpt lat="49.43727" lon="2.05021">
        <ele>127.9</ele>
        <time>2023-06-10T12:24:05Z</time>
      </trkpt>
      <trkpt lat="49.43728" lon="2.05033">
        <ele>127.6</ele>
        <time>2023-06-10T12:24:11Z</time>
      </trkpt>
      <trkpt lat="49.43729" lon="2.05042">
        <ele>127.5</ele>
        <time>2023-06-10T12:24:16Z</time>
      </trkpt>
      <trkpt lat="49.43731" lon="2.05053">
        <ele>127.4</ele>
        <time>2023-06-10T12:24:22Z</time>
      </trkpt>
      <trkpt lat="49.43733" lon="2.05063">
        <ele>127</ele>
        <time>2023-06-10T12:24:27Z</time>
      </trkpt>
      <trkpt lat="49.43735" lon="2.05075">
        <ele>126.7</ele>
        <time>2023-06-10T12:24:33Z</time>
      </trkpt>
      <trkpt lat="49.43736" lon="2.05087">
        <ele>126.4</ele>
        <time>2023-06-10T12:24:39Z</time>
      </trkpt>
      <trkpt lat="49.43737" lon="2.05096">
        <ele>126</ele>
        <time>2023-06-10T12:24:44Z</time>
      </trkpt>
      <trkpt lat="49.43738" lon="2.05102">
        <ele>125.8</ele>
        <time>2023-06-10T12:24:50Z</time>
      </trkpt>
      <trkpt lat="49.43741" lon="2.05104">
        <ele>125.6</ele>
        <time>2023-06-10T12:24:56Z</time>
      </trkpt>
      <trkpt lat="49.43747" lon="2.05107">
        <ele>125.2</ele>
        <time>2023-06-10T12:25:02Z</time>
      </trkpt>
      <trkpt lat="49.43752" lon="2.05108">
        <ele>125</ele>
        <time>2023-06-10T12:25:07Z</time>
      </trkpt>
      <trkpt lat="49.43757" lon="2.0511">
        <ele>124.5</ele>
        <time>2023-06-10T12:25:13Z</time>
      </trkpt>
      <trkpt lat="49.43764" lon="2.0511">
        <ele>124</ele>
        <time>2023-06-10T12:25:19Z</time>
      </trkpt>
      <trkpt lat="49.43771" lon="2.05111">
        <ele>123.5</ele>
        <time>2023-06-10T12:25:24Z</time>
      </trkpt>
      <trkpt lat="49.43777" lon="2.05116">
        <ele>122.9</ele>
        <time>2023-06-10T12:25:30Z</time>
      </trkpt>
      <trkpt lat="49.43778" lon="2.05118">
        <ele>122.7</ele>
        <time>2023-06-10T12:25:36Z</time>
      </trkpt>
      <trkpt lat="49.43779" lon="2.05121">
        <ele>122.4</ele>
        <time>2023-06-10T12:25:42Z</time>
      </trkpt>
      <trkpt lat="49.43783" lon="2.05121">
        <ele>121.7</ele>
        <time>2023-06-10T12:25:47Z</time>
      </trkpt>
      <trkpt lat="49.4379" lon="2.05118">
        <ele>120.6</ele>
        <time>2023-06-10T12:25:53Z</time>
      </trkpt>
      <trkpt lat="49.43799" lon="2.05114">
        <ele>119.1</ele>
        <time>2023-06-10T12:25:59Z</time>
      </trkpt>
      <trkpt lat="49.43808" lon="2.05112">
        <ele>117.5</ele>
        <time>2023-06-10T12:26:05Z</time>
      </trkpt>
      <trkpt lat="49.43815" lon="2.0511">
        <ele>115.6</ele>
        <time>2023-06-10T12:26:11Z</time>
      </trkpt>
      <trkpt lat="49.43822" lon="2.05108">
        <ele>113.7</ele>
        <time>2023-06-10T12:26:17Z</time>
      </trkpt>
      <trkpt lat="49.4383" lon="2.0511">
        <ele>111.8</ele>
        <time>2023-06-10T12:26:23Z</time>
      </trkpt>
      <trkpt lat="49.43833" lon="2.05112">
        <ele>111.2</ele>
        <time>2023-06-10T12:26:29Z</time>
      </trkpt>
      <trkpt lat="49.43832" lon="2.05114">
        <ele>111.5</ele>
        <time>2023-06-10T12:26:34Z</time>
      </trkpt>
      <trkpt lat="49.43831" lon="2.05114">
        <ele>111.7</ele>
        <time>2023-06-10T12:26:39Z</time>
      </trkpt>
      <trkpt lat="49.43835" lon="2.05109">
        <ele>110.4</ele>
        <time>2023-06-10T12:26:45Z</time>
      </trkpt>
      <trkpt lat="49.43839" lon="2.05104">
        <ele>108.9</ele>
        <time>2023-06-10T12:26:51Z</time>
      </trkpt>
      <trkpt lat="49.43842" lon="2.05102">
        <ele>107.6</ele>
        <time>2023-06-10T12:26:56Z</time>
      </trkpt>
      <trkpt lat="49.43844" lon="2.05102">
        <ele>107</ele>
        <time>2023-06-10T12:27:02Z</time>
      </trkpt>
      <trkpt lat="49.43846" lon="2.05101">
        <ele>106</ele>
        <time>2023-06-10T12:27:08Z</time>
      </trkpt>
      <trkpt lat="49.43848" lon="2.05102">
        <ele>105.6</ele>
        <time>2023-06-10T12:27:13Z</time>
      </trkpt>
      <trkpt lat="49.4385" lon="2.05103">
        <ele>104.5</ele>
        <time>2023-06-10T12:27:18Z</time>
      </trkpt>
      <trkpt lat="49.43855" lon="2.05104">
        <ele>103</ele>
        <time>2023-06-10T12:27:23Z</time>
      </trkpt>
      <trkpt lat="49.4386" lon="2.05102">
        <ele>101.2</ele>
        <time>2023-06-10T12:27:29Z</time>
      </trkpt>
      <trkpt lat="49.43865" lon="2.05099">
        <ele>99.4</ele>
        <time>2023-06-10T12:27:34Z</time>
      </trkpt>
      <trkpt lat="49.43866" lon="2.05097">
        <ele>98.9</ele>
        <time>2023-06-10T12:27:39Z</time>
      </trkpt>
      <trkpt lat="49.43866" lon="2.05097">
        <ele>99.1</ele>
        <time>2023-06-10T12:27:44Z</time>
      </trkpt>
      <trkpt lat="49.43863" lon="2.05098">
        <ele>99.9</ele>
        <time>2023-06-10T12:27:49Z</time>
      </trkpt>
      <trkpt lat="49.43861" lon="2.05089">
        <ele>100.2</ele>
        <time>2023-06-10T12:27:55Z</time>
      </trkpt>
      <trkpt lat="49.43858" lon="2.05077">
        <ele>100.6</ele>
        <time>2023-06-10T12:28:01Z</time>
      </trkpt>
      <trkpt lat="49.43853" lon="2.05068">
        <ele>102</ele>
        <time>2023-06-10T12:28:06Z</time>
      </trkpt>
      <trkpt lat="49.43845" lon="2.05056">
        <ele>104.4</ele>
        <time>2023-06-10T12:28:12Z</time>
      </trkpt>
      <trkpt lat="49.4384" lon="2.05043">
        <ele>105.5</ele>
        <time>2023-06-10T12:28:18Z</time>
      </trkpt>
      <trkpt lat="49.43837" lon="2.05033">
        <ele>106.3</ele>
        <time>2023-06-10T12:28:23Z</time>
      </trkpt>
      <trkpt lat="49.43833" lon="2.05022">
        <ele>106.7</ele>
        <time>2023-06-10T12:28:28Z</time>
      </trkpt>
      <trkpt lat="49.43831" lon="2.0501">
        <ele>106.7</ele>
        <time>2023-06-10T12:28:34Z</time>
      </trkpt>
      <trkpt lat="49.43832" lon="2.04998">
        <ele>105.6</ele>
        <time>2023-06-10T12:28:40Z</time>
      </trkpt>
      <trkpt lat="49.43832" lon="2.04986">
        <ele>104.9</ele>
        <time>2023-06-10T12:28:46Z</time>
      </trkpt>
      <trkpt lat="49.43831" lon="2.04976">
        <ele>105</ele>
        <time>2023-06-10T12:28:51Z</time>
      </trkpt>
      <trkpt lat="49.4383" lon="2.04964">
        <ele>105.1</ele>
        <time>2023-06-10T12:28:57Z</time>
      </trkpt>
      <trkpt lat="49.43827" lon="2.04953">
        <ele>105.6</ele>
        <time>2023-06-10T12:29:03Z</time>
      </trkpt>
      <trkpt lat="49.43824" lon="2.04942">
        <ele>106.1</ele>
        <time>2023-06-10T12:29:08Z</time>
      </trkpt>
      <trkpt lat="49.43825" lon="2.04929">
        <ele>104.9</ele>
        <time>2023-06-10T12:29:14Z</time>
      </trkpt>
      <trkpt lat="49.43823" lon="2.04922">
        <ele>105</ele>
        <time>2023-06-10T12:29:19Z</time>
      </trkpt>
      <trkpt lat="49.4382" lon="2.0492">
        <ele>105.8</ele>
        <time>2023-06-10T12:29:25Z</time>
      </trkpt>
      <trkpt lat="49.43826" lon="2.04914">
        <ele>103.5</ele>
        <time>2023-06-10T12:29:31Z</time>
      </trkpt>
      <trkpt lat="49.43835" lon="2.04903">
        <ele>100.8</ele>
        <time>2023-06-10T12:29:36Z</time>
      </trkpt>
      <trkpt lat="49.43842" lon="2.04892">
        <ele>100.1</ele>
        <time>2023-06-10T12:29:42Z</time>
      </trkpt>
      <trkpt lat="49.43845" lon="2.04889">
        <ele>99.7</ele>
        <time>2023-06-10T12:29:48Z</time>
      </trkpt>
      <trkpt lat="49.43845" lon="2.04887">
        <ele>99.8</ele>
        <time>2023-06-10T12:29:53Z</time>
      </trkpt>
      <trkpt lat="49.43847" lon="2.04884">
        <ele>99.6</ele>
        <time>2023-06-10T12:29:59Z</time>
      </trkpt>
      <trkpt lat="49.43851" lon="2.04876">
        <ele>99.4</ele>
        <time>2023-06-10T12:30:05Z</time>
      </trkpt>
      <trkpt lat="49.43857" lon="2.04866">
        <ele>99.1</ele>
        <time>2023-06-10T12:30:10Z</time>
      </trkpt>
      <trkpt lat="49.43862" lon="2.04859">
        <ele>99.2</ele>
        <time>2023-06-10T12:30:15Z</time>
      </trkpt>
      <trkpt lat="49.43867" lon="2.04857">
        <ele>100.1</ele>
        <time>2023-06-10T12:30:21Z</time>
      </trkpt>
      <trkpt lat="49.43877" lon="2.04849">
        <ele>101.9</ele>
        <time>2023-06-10T12:30:27Z</time>
      </trkpt>
      <trkpt lat="49.43883" lon="2.04844">
        <ele>103.2</ele>
        <time>2023-06-10T12:30:32Z</time>
      </trkpt>
      <trkpt lat="49.4389" lon="2.04837">
        <ele>105</ele>
        <time>2023-06-10T12:30:38Z</time>
      </trkpt>
      <trkpt lat="49.43895" lon="2.0483">
        <ele>106.6</ele>
        <time>2023-06-10T12:30:43Z</time>
      </trkpt>
      <trkpt lat="49.43899" lon="2.04821">
        <ele>108.2</ele>
        <time>2023-06-10T12:30:49Z</time>
      </trkpt>
      <trkpt lat="49.439" lon="2.04816">
        <ele>109.1</ele>
        <time>2023-06-10T12:30:55Z</time>
      </trkpt>
      <trkpt lat="49.439" lon="2.04811">
        <ele>109.6</ele>
        <time>2023-06-10T12:31:01Z</time>
      </trkpt>
      <trkpt lat="49.43903" lon="2.04807">
        <ele>110.4</ele>
        <time>2023-06-10T12:31:07Z</time>
      </trkpt>
      <trkpt lat="49.43907" lon="2.04805">
        <ele>111.1</ele>
        <time>2023-06-10T12:31:12Z</time>
      </trkpt>
      <trkpt lat="49.43916" lon="2.04801">
        <ele>112.3</ele>
        <time>2023-06-10T12:31:17Z</time>
      </trkpt>
      <trkpt lat="49.43922" lon="2.04796">
        <ele>113.7</ele>
        <time>2023-06-10T12:31:23Z</time>
      </trkpt>
      <trkpt lat="49.43925" lon="2.04793">
        <ele>114.3</ele>
        <time>2023-06-10T12:31:28Z</time>
      </trkpt>
      <trkpt lat="49.4393" lon="2.04788">
        <ele>115.2</ele>
        <time>2023-06-10T12:31:34Z</time>
      </trkpt>
      <trkpt lat="49.43934" lon="2.04784">
        <ele>115.8</ele>
        <time>2023-06-10T12:31:39Z</time>
      </trkpt>
      <trkpt lat="49.4394" lon="2.04779">
        <ele>116.6</ele>
        <time>2023-06-10T12:31:45Z</time>
      </trkpt>
      <trkpt lat="49.43947" lon="2.04773">
        <ele>117.5</ele>
        <time>2023-06-10T12:31:50Z</time>
      </trkpt>
      <trkpt lat="49.43954" lon="2.04769">
        <ele>118.3</ele>
        <time>2023-06-10T12:31:56Z</time>
      </trkpt>
      <trkpt lat="49.4396" lon="2.04765">
        <ele>119</ele>
        <time>2023-06-10T12:32:02Z</time>
      </trkpt>
      <trkpt lat="49.43966" lon="2.04759">
        <ele>119.9</ele>
        <time>2023-06-10T12:32:07Z</time>
      </trkpt>
      <trkpt lat="49.43972" lon="2.04752">
        <ele>120.8</ele>
        <time>2023-06-10T12:32:12Z</time>
      </trkpt>
      <trkpt lat="49.43976" lon="2.04745">
        <ele>121.3</ele>
        <time>2023-06-10T12:32:18Z</time>
      </trkpt>
      <trkpt lat="49.4398" lon="2.04738">
        <ele>121.7</ele>
        <time>2023-06-10T12:32:23Z</time>
      </trkpt>
      <trkpt lat="49.43985" lon="2.04731">
        <ele>122.1</ele>
        <time>2023-06-10T12:32:29Z</time>
      </trkpt>
      <trkpt lat="49.43987" lon="2.04726">
        <ele>122.4</ele>
        <time>2023-06-10T12:32:34Z</time>
      </trkpt>
      <trkpt lat="49.43987" lon="2.04722">
        <ele>122.6</ele>
        <time>2023-06-10T12:32:40Z</time>
      </trkpt>
      <trkpt lat="49.43989" lon="2.04719">
        <ele>122.8</ele>
        <time>2023-06-10T12:32:45Z</time>
      </trkpt>
      <trkpt lat="49.43991" lon="2.04716">
        <ele>123.1</ele>
        <time>2023-06-10T12:32:51Z</time>
      </trkpt>
      <trkpt lat="49.43996" lon="2.04714">
        <ele>123.4</ele>
        <time>2023-06-10T12:32:57Z</time>
      </trkpt>
      <trkpt lat="49.43998" lon="2.04714">
        <ele>123.5</ele>
        <time>2023-06-10T12:33:02Z</time>
      </trkpt>
      <trkpt lat="49.44004" lon="2.04711">
        <ele>123.9</ele>
        <time>2023-06-10T12:33:08Z</time>
      </trkpt>
      <trkpt lat="49.4401" lon="2.04707">
        <ele>124.3</ele>
        <time>2023-06-10T12:33:13Z</time>
      </trkpt>
      <trkpt lat="49.44012" lon="2.04703">
        <ele>124.5</ele>
        <time>2023-06-10T12:33:18Z</time>
      </trkpt>
      <trkpt lat="49.44013" lon="2.04699">
        <ele>124.8</ele>
        <time>2023-06-10T12:33:24Z</time>
      </trkpt>
      <trkpt lat="49.44013" lon="2.04694">
        <ele>125</ele>
        <time>2023-06-10T12:33:29Z</time>
      </trkpt>
      <trkpt lat="49.44016" lon="2.04688">
        <ele>125.2</ele>
        <time>2023-06-10T12:33:35Z</time>
      </trkpt>
      <trkpt lat="49.44019" lon="2.04684">
        <ele>125.4</ele>
        <time>2023-06-10T12:33:41Z</time>
      </trkpt>
      <trkpt lat="49.44023" lon="2.04678">
        <ele>125.6</ele>
        <time>2023-06-10T12:33:46Z</time>
      </trkpt>
      <trkpt lat="49.44028" lon="2.0467">
        <ele>125.9</ele>
        <time>2023-06-10T12:33:52Z</time>
      </trkpt>
      <trkpt lat="49.44032" lon="2.04662">
        <ele>126.2</ele>
        <time>2023-06-10T12:33:58Z</time>
      </trkpt>
      <trkpt lat="49.44035" lon="2.04656">
        <ele>126.4</ele>
        <time>2023-06-10T12:34:03Z</time>
      </trkpt>
      <trkpt lat="49.44041" lon="2.0465">
        <ele>126.6</ele>
        <time>2023-06-10T12:34:09Z</time>
      </trkpt>
      <trkpt lat="49.44046" lon="2.04644">
        <ele>126.8</ele>
        <time>2023-06-10T12:34:15Z</time>
      </trkpt>
      <trkpt lat="49.4405" lon="2.04637">
        <ele>127</ele>
        <time>2023-06-10T12:34:20Z</time>
      </trkpt>
      <trkpt lat="49.44053" lon="2.04632">
        <ele>127</ele>
        <time>2023-06-10T12:34:25Z</time>
      </trkpt>
      <trkpt lat="49.44057" lon="2.04628">
        <ele>127</ele>
        <time>2023-06-10T12:34:30Z</time>
      </trkpt>
      <trkpt lat="49.44065" lon="2.04619">
        <ele>126.9</ele>
        <time>2023-06-10T12:34:36Z</time>
      </trkpt>
      <trkpt lat="49.44072" lon="2.04611">
        <ele>127</ele>
        <time>2023-06-10T12:34:42Z</time>
      </trkpt>
      <trkpt lat="49.44074" lon="2.04604">
        <ele>127.1</ele>
        <time>2023-06-10T12:34:47Z</time>
      </trkpt>
      <trkpt lat="49.44078" lon="2.04595">
        <ele>127.1</ele>
        <time>2023-06-10T12:34:53Z</time>
      </trkpt>
      <trkpt lat="49.44084" lon="2.04587">
        <ele>127</ele>
        <time>2023-06-10T12:34:58Z</time>
      </trkpt>
      <trkpt lat="49.44089" lon="2.04581">
        <ele>127.1</ele>
        <time>2023-06-10T12:35:03Z</time>
      </trkpt>
      <trkpt lat="49.44095" lon="2.04575">
        <ele>127.3</ele>
        <time>2023-06-10T12:35:09Z</time>
      </trkpt>
      <trkpt lat="49.441" lon="2.04568">
        <ele>127.5</ele>
        <time>2023-06-10T12:35:15Z</time>
      </trkpt>
      <trkpt lat="49.44108" lon="2.0456">
        <ele>127.8</ele>
        <time>2023-06-10T12:35:21Z</time>
      </trkpt>
      <trkpt lat="49.44113" lon="2.04552">
        <ele>127.9</ele>
        <time>2023-06-10T12:35:26Z</time>
      </trkpt>
      <trkpt lat="49.44118" lon="2.04542">
        <ele>127.9</ele>
        <time>2023-06-10T12:35:31Z</time>
      </trkpt>
      <trkpt lat="49.44123" lon="2.04531">
        <ele>127.9</ele>
        <time>2023-06-10T12:35:37Z</time>
      </trkpt>
      <trkpt lat="49.44127" lon="2.04524">
        <ele>128.1</ele>
        <time>2023-06-10T12:35:42Z</time>
      </trkpt>
      <trkpt lat="49.44131" lon="2.04516">
        <ele>128.1</ele>
        <time>2023-06-10T12:35:48Z</time>
      </trkpt>
      <trkpt lat="49.44137" lon="2.0451">
        <ele>128</ele>
        <time>2023-06-10T12:35:53Z</time>
      </trkpt>
      <trkpt lat="49.44146" lon="2.04501">
        <ele>127.7</ele>
        <time>2023-06-10T12:35:59Z</time>
      </trkpt>
      <trkpt lat="49.44153" lon="2.04493">
        <ele>127.7</ele>
        <time>2023-06-10T12:36:04Z</time>
      </trkpt>
      <trkpt lat="49.44159" lon="2.04485">
        <ele>127.8</ele>
        <time>2023-06-10T12:36:10Z</time>
      </trkpt>
      <trkpt lat="49.44164" lon="2.04479">
        <ele>127.8</ele>
        <time>2023-06-10T12:36:15Z</time>
      </trkpt>
      <trkpt lat="49.44171" lon="2.04472">
        <ele>127.9</ele>
        <time>2023-06-10T12:36:21Z</time>
      </trkpt>
      <trkpt lat="49.44175" lon="2.04462">
        <ele>127.7</ele>
        <time>2023-06-10T12:36:27Z</time>
      </trkpt>
      <trkpt lat="49.44177" lon="2.04456">
        <ele>127.6</ele>
        <time>2023-06-10T12:36:33Z</time>
      </trkpt>
      <trkpt lat="49.44176" lon="2.04456">
        <ele>127.7</ele>
        <time>2023-06-10T12:36:39Z</time>
      </trkpt>
      <trkpt lat="49.4417" lon="2.04461">
        <ele>127.9</ele>
        <time>2023-06-10T12:36:45Z</time>
      </trkpt>
      <trkpt lat="49.44162" lon="2.04469">
        <ele>128.2</ele>
        <time>2023-06-10T12:36:51Z</time>
      </trkpt>
      <trkpt lat="49.44155" lon="2.0448">
        <ele>128.2</ele>
        <time>2023-06-10T12:36:57Z</time>
      </trkpt>
      <trkpt lat="49.44147" lon="2.04491">
        <ele>128</ele>
        <time>2023-06-10T12:37:03Z</time>
      </trkpt>
      <trkpt lat="49.4414" lon="2.04499">
        <ele>128</ele>
        <time>2023-06-10T12:37:08Z</time>
      </trkpt>
      <trkpt lat="49.44134" lon="2.04507">
        <ele>128.1</ele>
        <time>2023-06-10T12:37:14Z</time>
      </trkpt>
      <trkpt lat="49.4413" lon="2.04514">
        <ele>128.2</ele>
        <time>2023-06-10T12:37:20Z</time>
      </trkpt>
      <trkpt lat="49.44127" lon="2.04519">
        <ele>128.1</ele>
        <time>2023-06-10T12:37:26Z</time>
      </trkpt>
      <trkpt lat="49.44125" lon="2.04522">
        <ele>128.1</ele>
        <time>2023-06-10T12:37:31Z</time>
      </trkpt>
      <trkpt lat="49.44125" lon="2.04524">
        <ele>128.1</ele>
        <time>2023-06-10T12:37:36Z</time>
      </trkpt>
      <trkpt lat="49.44126" lon="2.04527">
        <ele>128</ele>
        <time>2023-06-10T12:37:42Z</time>
      </trkpt>
      <trkpt lat="49.44131" lon="2.0453">
        <ele>127.9</ele>
        <time>2023-06-10T12:37:48Z</time>
      </trkpt>
      <trkpt lat="49.44135" lon="2.04535">
        <ele>127.8</ele>
        <time>2023-06-10T12:37:53Z</time>
      </trkpt>
      <trkpt lat="49.44143" lon="2.04544">
        <ele>127.4</ele>
        <time>2023-06-10T12:37:59Z</time>
      </trkpt>
      <trkpt lat="49.4415" lon="2.0455">
        <ele>127.1</ele>
        <time>2023-06-10T12:38:04Z</time>
      </trkpt>
      <trkpt lat="49.44158" lon="2.04555">
        <ele>127</ele>
        <time>2023-06-10T12:38:09Z</time>
      </trkpt>
      <trkpt lat="49.44164" lon="2.04561">
        <ele>126.8</ele>
        <time>2023-06-10T12:38:15Z</time>
      </trkpt>
      <trkpt lat="49.4417" lon="2.04569">
        <ele>126.4</ele>
        <time>2023-06-10T12:38:21Z</time>
      </trkpt>
      <trkpt lat="49.44177" lon="2.04577">
        <ele>125.9</ele>
        <time>2023-06-10T12:38:27Z</time>
      </trkpt>
      <trkpt lat="49.44182" lon="2.04582">
        <ele>125.5</ele>
        <time>2023-06-10T12:38:32Z</time>
      </trkpt>
      <trkpt lat="49.44188" lon="2.04587">
        <ele>125.1</ele>
        <time>2023-06-10T12:38:38Z</time>
      </trkpt>
      <trkpt lat="49.44194" lon="2.04592">
        <ele>124.7</ele>
        <time>2023-06-10T12:38:44Z</time>
      </trkpt>
      <trkpt lat="49.442" lon="2.04594">
        <ele>124.4</ele>
        <time>2023-06-10T12:38:50Z</time>
      </trkpt>
      <trkpt lat="49.44205" lon="2.04601">
        <ele>124</ele>
        <time>2023-06-10T12:38:56Z</time>
      </trkpt>
      <trkpt lat="49.44211" lon="2.04605">
        <ele>123.6</ele>
        <time>2023-06-10T12:39:02Z</time>
      </trkpt>
      <trkpt lat="49.44216" lon="2.04609">
        <ele>123.3</ele>
        <time>2023-06-10T12:39:07Z</time>
      </trkpt>
      <trkpt lat="49.44222" lon="2.04614">
        <ele>122.9</ele>
        <time>2023-06-10T12:39:13Z</time>
      </trkpt>
      <trkpt lat="49.44227" lon="2.04619">
        <ele>122.6</ele>
        <time>2023-06-10T12:39:18Z</time>
      </trkpt>
      <trkpt lat="49.4423" lon="2.04623">
        <ele>122.3</ele>
        <time>2023-06-10T12:39:24Z</time>
      </trkpt>
      <trkpt lat="49.44235" lon="2.04629">
        <ele>121.9</ele>
        <time>2023-06-10T12:39:30Z</time>
      </trkpt>
      <trkpt lat="49.44241" lon="2.04638">
        <ele>121.4</ele>
        <time>2023-06-10T12:39:36Z</time>
      </trkpt>
      <trkpt lat="49.44246" lon="2.04648">
        <ele>120.9</ele>
        <time>2023-06-10T12:39:41Z</time>
      </trkpt>
      <trkpt lat="49.4425" lon="2.04659">
        <ele>120.3</ele>
        <time>2023-06-10T12:39:46Z</time>
      </trkpt>
      <trkpt lat="49.44252" lon="2.04671">
        <ele>119.7</ele>
        <time>2023-06-10T12:39:52Z</time>
      </trkpt>
      <trkpt lat="49.44253" lon="2.04683">
        <ele>119.2</ele>
        <time>2023-06-10T12:39:57Z</time>
      </trkpt>
      <trkpt lat="49.44256" lon="2.04699">
        <ele>118.4</ele>
        <time>2023-06-10T12:40:03Z</time>
      </trkpt>
      <trkpt lat="49.4426" lon="2.04711">
        <ele>117.7</ele>
        <time>2023-06-10T12:40:09Z</time>
      </trkpt>
      <trkpt lat="49.44262" lon="2.0472">
        <ele>117.2</ele>
        <time>2023-06-10T12:40:14Z</time>
      </trkpt>
      <trkpt lat="49.44266" lon="2.04725">
        <ele>116.7</ele>
        <time>2023-06-10T12:40:20Z</time>
      </trkpt>
      <trkpt lat="49.44272" lon="2.0473">
        <ele>115.8</ele>
        <time>2023-06-10T12:40:26Z</time>
      </trkpt>
      <trkpt lat="49.44276" lon="2.04736">
        <ele>115.2</ele>
        <time>2023-06-10T12:40:31Z</time>
      </trkpt>
      <trkpt lat="49.4428" lon="2.04741">
        <ele>114.5</ele>
        <time>2023-06-10T12:40:36Z</time>
      </trkpt>
      <trkpt lat="49.44286" lon="2.04747">
        <ele>113.6</ele>
        <time>2023-06-10T12:40:42Z</time>
      </trkpt>
      <trkpt lat="49.44292" lon="2.04755">
        <ele>112.8</ele>
        <time>2023-06-10T12:40:47Z</time>
      </trkpt>
      <trkpt lat="49.44296" lon="2.04765">
        <ele>111.8</ele>
        <time>2023-06-10T12:40:53Z</time>
      </trkpt>
      <trkpt lat="49.44299" lon="2.04773">
        <ele>111</ele>
        <time>2023-06-10T12:40:59Z</time>
      </trkpt>
      <trkpt lat="49.44302" lon="2.0478">
        <ele>110.3</ele>
        <time>2023-06-10T12:41:05Z</time>
      </trkpt>
      <trkpt lat="49.44303" lon="2.04791">
        <ele>109.8</ele>
        <time>2023-06-10T12:41:10Z</time>
      </trkpt>
      <trkpt lat="49.44303" lon="2.048">
        <ele>109.5</ele>
        <time>2023-06-10T12:41:16Z</time>
      </trkpt>
      <trkpt lat="49.44304" lon="2.04804">
        <ele>109.2</ele>
        <time>2023-06-10T12:41:22Z</time>
      </trkpt>
      <trkpt lat="49.44309" lon="2.04807">
        <ele>108.3</ele>
        <time>2023-06-10T12:41:28Z</time>
      </trkpt>
      <trkpt lat="49.44311" lon="2.04809">
        <ele>107.8</ele>
        <time>2023-06-10T12:41:33Z</time>
      </trkpt>
      <trkpt lat="49.4431" lon="2.04809">
        <ele>107.9</ele>
        <time>2023-06-10T12:41:39Z</time>
      </trkpt>
      <trkpt lat="49.44307" lon="2.04809">
        <ele>108.4</ele>
        <time>2023-06-10T12:41:44Z</time>
      </trkpt>
      <trkpt lat="49.44304" lon="2.04809">
        <ele>108.8</ele>
        <time>2023-06-10T12:41:49Z</time>
      </trkpt>
      <trkpt lat="49.44301" lon="2.04812">
        <ele>108.8</ele>
        <time>2023-06-10T12:41:55Z</time>
      </trkpt>
      <trkpt lat="49.44304" lon="2.04815">
        <ele>108.2</ele>
        <time>2023-06-10T12:42:01Z</time>
      </trkpt>
      <trkpt lat="49.44305" lon="2.04817">
        <ele>107.8</ele>
        <time>2023-06-10T12:42:07Z</time>
      </trkpt>
      <trkpt lat="49.44303" lon="2.0482">
        <ele>107.9</ele>
        <time>2023-06-10T12:42:13Z</time>
      </trkpt>
      <trkpt lat="49.44301" lon="2.04824">
        <ele>107.6</ele>
        <time>2023-06-10T12:42:19Z</time>
      </trkpt>
      <trkpt lat="49.44299" lon="2.04831">
        <ele>107.2</ele>
        <time>2023-06-10T12:42:25Z</time>
      </trkpt>
      <trkpt lat="49.44297" lon="2.04838">
        <ele>106.7</ele>
        <time>2023-06-10T12:42:30Z</time>
      </trkpt>
      <trkpt lat="49.44297" lon="2.04842">
        <ele>106.2</ele>
        <time>2023-06-10T12:42:36Z</time>
      </trkpt>
      <trkpt lat="49.44298" lon="2.04845">
        <ele>105.7</ele>
        <time>2023-06-10T12:42:42Z</time>
      </trkpt>
      <trkpt lat="49.44297" lon="2.04847">
        <ele>105.7</ele>
        <time>2023-06-10T12:42:47Z</time>
      </trkpt>
      <trkpt lat="49.44298" lon="2.04849">
        <ele>105.3</ele>
        <time>2023-06-10T12:42:53Z</time>
      </trkpt>
      <trkpt lat="49.443" lon="2.04849">
        <ele>104.8</ele>
        <time>2023-06-10T12:42:59Z</time>
      </trkpt>
      <trkpt lat="49.44304" lon="2.04852">
        <ele>103.7</ele>
        <time>2023-06-10T12:43:05Z</time>
      </trkpt>
      <trkpt lat="49.44306" lon="2.04854">
        <ele>103</ele>
        <time>2023-06-10T12:43:11Z</time>
      </trkpt>
      <trkpt lat="49.44307" lon="2.04856">
        <ele>102.5</ele>
        <time>2023-06-10T12:43:17Z</time>
      </trkpt>
      <trkpt lat="49.44309" lon="2.04852">
        <ele>102.7</ele>
        <time>2023-06-10T12:43:23Z</time>
      </trkpt>
      <trkpt lat="49.44309" lon="2.04851">
        <ele>102.6</ele>
        <time>2023-06-10T12:43:29Z</time>
      </trkpt>
      <trkpt lat="49.44306" lon="2.0485">
        <ele>103.4</ele>
        <time>2023-06-10T12:43:35Z</time>
      </trkpt>
      <trkpt lat="49.44304" lon="2.04851">
        <ele>103.7</ele>
        <time>2023-06-10T12:43:40Z</time>
      </trkpt>
      <trkpt lat="49.44302" lon="2.04854">
        <ele>103.7</ele>
        <time>2023-06-10T12:43:46Z</time>
      </trkpt>
      <trkpt lat="49.44303" lon="2.04857">
        <ele>103.1</ele>
        <time>2023-06-10T12:43:52Z</time>
      </trkpt>
      <trkpt lat="49.44303" lon="2.04859">
        <ele>102.9</ele>
        <time>2023-06-10T12:43:58Z</time>
      </trkpt>
      <trkpt lat="49.44303" lon="2.04861">
        <ele>102.5</ele>
        <time>2023-06-10T12:44:04Z</time>
      </trkpt>
      <trkpt lat="49.44306" lon="2.04862">
        <ele>101.7</ele>
        <time>2023-06-10T12:44:10Z</time>
      </trkpt>
      <trkpt lat="49.44312" lon="2.04862">
        <ele>100.5</ele>
        <time>2023-06-10T12:44:16Z</time>
      </trkpt>
      <trkpt lat="49.44316" lon="2.04862">
        <ele>99.5</ele>
        <time>2023-06-10T12:44:22Z</time>
      </trkpt>
      <trkpt lat="49.4432" lon="2.04864">
        <ele>98.4</ele>
        <time>2023-06-10T12:44:27Z</time>
      </trkpt>
      <trkpt lat="49.44324" lon="2.04867">
        <ele>97.1</ele>
        <time>2023-06-10T12:44:33Z</time>
      </trkpt>
      <trkpt lat="49.44326" lon="2.04871">
        <ele>96.2</ele>
        <time>2023-06-10T12:44:39Z</time>
      </trkpt>
      <trkpt lat="49.44327" lon="2.04874">
        <ele>95.4</ele>
        <time>2023-06-10T12:44:44Z</time>
      </trkpt>
      <trkpt lat="49.44328" lon="2.0488">
        <ele>94.3</ele>
        <time>2023-06-10T12:44:50Z</time>
      </trkpt>
      <trkpt lat="49.44328" lon="2.04885">
        <ele>93.6</ele>
        <time>2023-06-10T12:44:56Z</time>
      </trkpt>
      <trkpt lat="49.44328" lon="2.04887">
        <ele>93.2</ele>
        <time>2023-06-10T12:45:02Z</time>
      </trkpt>
      <trkpt lat="49.4433" lon="2.0489">
        <ele>92.5</ele>
        <time>2023-06-10T12:45:07Z</time>
      </trkpt>
      <trkpt lat="49.44334" lon="2.04891">
        <ele>91.7</ele>
        <time>2023-06-10T12:45:13Z</time>
      </trkpt>
      <trkpt lat="49.44336" lon="2.04892">
        <ele>91.5</ele>
        <time>2023-06-10T12:45:19Z</time>
      </trkpt>
      <trkpt lat="49.4434" lon="2.04893">
        <ele>91</ele>
        <time>2023-06-10T12:45:25Z</time>
      </trkpt>
      <trkpt lat="49.44342" lon="2.04899">
        <ele>90.2</ele>
        <time>2023-06-10T12:45:30Z</time>
      </trkpt>
      <trkpt lat="49.44345" lon="2.04901">
        <ele>89.7</ele>
        <time>2023-06-10T12:45:36Z</time>
      </trkpt>
      <trkpt lat="49.44348" lon="2.04899">
        <ele>89.5</ele>
        <time>2023-06-10T12:45:41Z</time>
      </trkpt>
      <trkpt lat="49.44352" lon="2.04895">
        <ele>89.4</ele>
        <time>2023-06-10T12:45:46Z</time>
      </trkpt>
      <trkpt lat="49.44355" lon="2.04889">
        <ele>89.7</ele>
        <time>2023-06-10T12:45:51Z</time>
      </trkpt>
      <trkpt lat="49.44357" lon="2.04883">
        <ele>90.2</ele>
        <time>2023-06-10T12:45:57Z</time>
      </trkpt>
      <trkpt lat="49.44359" lon="2.04877">
        <ele>90.5</ele>
        <time>2023-06-10T12:46:03Z</time>
      </trkpt>
      <trkpt lat="49.44362" lon="2.04871">
        <ele>90.8</ele>
        <time>2023-06-10T12:46:08Z</time>
      </trkpt>
      <trkpt lat="49.44367" lon="2.04865">
        <ele>90.8</ele>
        <time>2023-06-10T12:46:13Z</time>
      </trkpt>
      <trkpt lat="49.44373" lon="2.04857">
        <ele>90.7</ele>
        <time>2023-06-10T12:46:19Z</time>
      </trkpt>
      <trkpt lat="49.44376" lon="2.04852">
        <ele>90.8</ele>
        <time>2023-06-10T12:46:25Z</time>
      </trkpt>
      <trkpt lat="49.44377" lon="2.04843">
        <ele>91.7</ele>
        <time>2023-06-10T12:46:31Z</time>
      </trkpt>
      <trkpt lat="49.44377" lon="2.04834">
        <ele>92.6</ele>
        <time>2023-06-10T12:46:36Z</time>
      </trkpt>
      <trkpt lat="49.44377" lon="2.04827">
        <ele>93.4</ele>
        <time>2023-06-10T12:46:42Z</time>
      </trkpt>
      <trkpt lat="49.44376" lon="2.0482">
        <ele>94.1</ele>
        <time>2023-06-10T12:46:47Z</time>
      </trkpt>
      <trkpt lat="49.44379" lon="2.04815">
        <ele>94.2</ele>
        <time>2023-06-10T12:46:52Z</time>
      </trkpt>
      <trkpt lat="49.44383" lon="2.04807">
        <ele>94.1</ele>
        <time>2023-06-10T12:46:57Z</time>
      </trkpt>
      <trkpt lat="49.44389" lon="2.04798">
        <ele>93.9</ele>
        <time>2023-06-10T12:47:03Z</time>
      </trkpt>
      <trkpt lat="49.44393" lon="2.04791">
        <ele>94.2</ele>
        <time>2023-06-10T12:47:08Z</time>
      </trkpt>
      <trkpt lat="49.44396" lon="2.04787">
        <ele>94.3</ele>
        <time>2023-06-10T12:47:13Z</time>
      </trkpt>
      <trkpt lat="49.444" lon="2.04782">
        <ele>94.4</ele>
        <time>2023-06-10T12:47:19Z</time>
      </trkpt>
      <trkpt lat="49.44407" lon="2.04775">
        <ele>94.4</ele>
        <time>2023-06-10T12:47:24Z</time>
      </trkpt>
      <trkpt lat="49.44415" lon="2.04766">
        <ele>94.5</ele>
        <time>2023-06-10T12:47:30Z</time>
      </trkpt>
      <trkpt lat="49.44422" lon="2.04759">
        <ele>94.6</ele>
        <time>2023-06-10T12:47:35Z</time>
      </trkpt>
      <trkpt lat="49.44428" lon="2.04756">
        <ele>94.6</ele>
        <time>2023-06-10T12:47:41Z</time>
      </trkpt>
      <trkpt lat="49.44433" lon="2.04756">
        <ele>94.3</ele>
        <time>2023-06-10T12:47:46Z</time>
      </trkpt>
      <trkpt lat="49.44443" lon="2.04753">
        <ele>93.8</ele>
        <time>2023-06-10T12:47:52Z</time>
      </trkpt>
      <trkpt lat="49.44451" lon="2.0475">
        <ele>93.8</ele>
        <time>2023-06-10T12:47:57Z</time>
      </trkpt>
      <trkpt lat="49.44461" lon="2.04747">
        <ele>93.9</ele>
        <time>2023-06-10T12:48:03Z</time>
      </trkpt>
      <trkpt lat="49.44464" lon="2.04745">
        <ele>94</ele>
        <time>2023-06-10T12:48:08Z</time>
      </trkpt>
      <trkpt lat="49.44472" lon="2.04739">
        <ele>94.2</ele>
        <time>2023-06-10T12:48:14Z</time>
      </trkpt>
      <trkpt lat="49.44477" lon="2.04735">
        <ele>94.1</ele>
        <time>2023-06-10T12:48:19Z</time>
      </trkpt>
      <trkpt lat="49.44483" lon="2.04729">
        <ele>94.4</ele>
        <time>2023-06-10T12:48:25Z</time>
      </trkpt>
      <trkpt lat="49.44487" lon="2.04725">
        <ele>94.6</ele>
        <time>2023-06-10T12:48:30Z</time>
      </trkpt>
      <trkpt lat="49.44496" lon="2.0472">
        <ele>94.5</ele>
        <time>2023-06-10T12:48:36Z</time>
      </trkpt>
      <trkpt lat="49.445" lon="2.04718">
        <ele>94.4</ele>
        <time>2023-06-10T12:48:41Z</time>
      </trkpt>
      <trkpt lat="49.44506" lon="2.04714">
        <ele>94.3</ele>
        <time>2023-06-10T12:48:47Z</time>
      </trkpt>
      <trkpt lat="49.44512" lon="2.04711">
        <ele>94.1</ele>
        <time>2023-06-10T12:48:52Z</time>
      </trkpt>
      <trkpt lat="49.44519" lon="2.04708">
        <ele>93.9</ele>
        <time>2023-06-10T12:48:58Z</time>
      </trkpt>
      <trkpt lat="49.44523" lon="2.04705">
        <ele>93.9</ele>
        <time>2023-06-10T12:49:03Z</time>
      </trkpt>
      <trkpt lat="49.44527" lon="2.04701">
        <ele>94.2</ele>
        <time>2023-06-10T12:49:09Z</time>
      </trkpt>
      <trkpt lat="49.44528" lon="2.04697">
        <ele>94.5</ele>
        <time>2023-06-10T12:49:15Z</time>
      </trkpt>
      <trkpt lat="49.4453" lon="2.04695">
        <ele>94.7</ele>
        <time>2023-06-10T12:49:20Z</time>
      </trkpt>
      <trkpt lat="49.44533" lon="2.04694">
        <ele>94.7</ele>
        <time>2023-06-10T12:49:26Z</time>
      </trkpt>
      <trkpt lat="49.44535" lon="2.04694">
        <ele>94.5</ele>
        <time>2023-06-10T12:49:31Z</time>
      </trkpt>
      <trkpt lat="49.44537" lon="2.04694">
        <ele>94.4</ele>
        <time>2023-06-10T12:49:36Z</time>
      </trkpt>
      <trkpt lat="49.4454" lon="2.04693">
        <ele>94.3</ele>
        <time>2023-06-10T12:49:42Z</time>
      </trkpt>
      <trkpt lat="49.44541" lon="2.04692">
        <ele>94.3</ele>
        <time>2023-06-10T12:49:47Z</time>
      </trkpt>
      <trkpt lat="49.4454" lon="2.0469">
        <ele>94.6</ele>
        <time>2023-06-10T12:49:53Z</time>
      </trkpt>
      <trkpt lat="49.44539" lon="2.04689">
        <ele>94.8</ele>
        <time>2023-06-10T12:49:58Z</time>
      </trkpt>
      <trkpt lat="49.44539" lon="2.0469">
        <ele>94.7</ele>
        <time>2023-06-10T12:50:03Z</time>
      </trkpt>
      <trkpt lat="49.44538" lon="2.04691">
        <ele>94.7</ele>
        <time>2023-06-10T12:50:09Z</time>
      </trkpt>
      <trkpt lat="49.44538" lon="2.04692">
        <ele>94.6</ele>
        <time>2023-06-10T12:50:14Z</time>
      </trkpt>
      <trkpt lat="49.44538" lon="2.04694">
        <ele>94.4</ele>
        <time>2023-06-10T12:50:20Z</time>
      </trkpt>
      <trkpt lat="49.4454" lon="2.04695">
        <ele>94</ele>
        <time>2023-06-10T12:50:26Z</time>
      </trkpt>
      <trkpt lat="49.44541" lon="2.04695">
        <ele>93.9</ele>
        <time>2023-06-10T12:50:31Z</time>
      </trkpt>
      <trkpt lat="49.44543" lon="2.04697">
        <ele>93.6</ele>
        <time>2023-06-10T12:50:37Z</time>
      </trkpt>
      <trkpt lat="49.44546" lon="2.04706">
        <ele>92.3</ele>
        <time>2023-06-10T12:50:43Z</time>
      </trkpt>
      <trkpt lat="49.44546" lon="2.04715">
        <ele>91.2</ele>
        <time>2023-06-10T12:50:48Z</time>
      </trkpt>
      <trkpt lat="49.44546" lon="2.04727">
        <ele>90.1</ele>
        <time>2023-06-10T12:50:54Z</time>
      </trkpt>
      <trkpt lat="49.44548" lon="2.0474">
        <ele>89.5</ele>
        <time>2023-06-10T12:51:00Z</time>
      </trkpt>
      <trkpt lat="49.44549" lon="2.04755">
        <ele>88.7</ele>
        <time>2023-06-10T12:51:06Z</time>
      </trkpt>
      <trkpt lat="49.44551" lon="2.04768">
        <ele>87.8</ele>
        <time>2023-06-10T12:51:11Z</time>
      </trkpt>
      <trkpt lat="49.44548" lon="2.04777">
        <ele>87.3</ele>
        <time>2023-06-10T12:51:17Z</time>
      </trkpt>
      <trkpt lat="49.44543" lon="2.04783">
        <ele>87.2</ele>
        <time>2023-06-10T12:51:22Z</time>
      </trkpt>
      <trkpt lat="49.44539" lon="2.0479">
        <ele>86.9</ele>
        <time>2023-06-10T12:51:27Z</time>
      </trkpt>
      <trkpt lat="49.44534" lon="2.04799">
        <ele>86.4</ele>
        <time>2023-06-10T12:51:33Z</time>
      </trkpt>
      <trkpt lat="49.44529" lon="2.04809">
        <ele>85.7</ele>
        <time>2023-06-10T12:51:39Z</time>
      </trkpt>
      <trkpt lat="49.44523" lon="2.04818">
        <ele>85.3</ele>
        <time>2023-06-10T12:51:45Z</time>
      </trkpt>
      <trkpt lat="49.44518" lon="2.04826">
        <ele>84.9</ele>
        <time>2023-06-10T12:51:50Z</time>
      </trkpt>
      <trkpt lat="49.44514" lon="2.04837">
        <ele>84.4</ele>
        <time>2023-06-10T12:51:56Z</time>
      </trkpt>
      <trkpt lat="49.4451" lon="2.04849">
        <ele>84.1</ele>
        <time>2023-06-10T12:52:02Z</time>
      </trkpt>
      <trkpt lat="49.44507" lon="2.04857">
        <ele>83.9</ele>
        <time>2023-06-10T12:52:07Z</time>
      </trkpt>
      <trkpt lat="49.44507" lon="2.04865">
        <ele>83.5</ele>
        <time>2023-06-10T12:52:12Z</time>
      </trkpt>
      <trkpt lat="49.44507" lon="2.04874">
        <ele>82.9</ele>
        <time>2023-06-10T12:52:18Z</time>
      </trkpt>
      <trkpt lat="49.44506" lon="2.04885">
        <ele>82.2</ele>
        <time>2023-06-10T12:52:24Z</time>
      </trkpt>
      <trkpt lat="49.44506" lon="2.04895">
        <ele>81.8</ele>
        <time>2023-06-10T12:52:29Z</time>
      </trkpt>
      <trkpt lat="49.44505" lon="2.04906">
        <ele>81.3</ele>
        <time>2023-06-10T12:52:34Z</time>
      </trkpt>
      <trkpt lat="49.44505" lon="2.04918">
        <ele>80.8</ele>
        <time>2023-06-10T12:52:39Z</time>
      </trkpt>
      <trkpt lat="49.44506" lon="2.04933">
        <ele>80.3</ele>
        <time>2023-06-10T12:52:45Z</time>
      </trkpt>
      <trkpt lat="49.44508" lon="2.04946">
        <ele>80</ele>
        <time>2023-06-10T12:52:50Z</time>
      </trkpt>
      <trkpt lat="49.44512" lon="2.04962">
        <ele>79.4</ele>
        <time>2023-06-10T12:52:56Z</time>
      </trkpt>
      <trkpt lat="49.44516" lon="2.04977">
        <ele>78.8</ele>
        <time>2023-06-10T12:53:02Z</time>
      </trkpt>
      <trkpt lat="49.44519" lon="2.04989">
        <ele>78.2</ele>
        <time>2023-06-10T12:53:07Z</time>
      </trkpt>
      <trkpt lat="49.44522" lon="2.05001">
        <ele>77.4</ele>
        <time>2023-06-10T12:53:12Z</time>
      </trkpt>
      <trkpt lat="49.44525" lon="2.05012">
        <ele>77.1</ele>
        <time>2023-06-10T12:53:18Z</time>
      </trkpt>
      <trkpt lat="49.44528" lon="2.05021">
        <ele>77</ele>
        <time>2023-06-10T12:53:23Z</time>
      </trkpt>
      <trkpt lat="49.44532" lon="2.05031">
        <ele>76.8</ele>
        <time>2023-06-10T12:53:29Z</time>
      </trkpt>
      <trkpt lat="49.44535" lon="2.05042">
        <ele>76.4</ele>
        <time>2023-06-10T12:53:35Z</time>
      </trkpt>
      <trkpt lat="49.44542" lon="2.0505">
        <ele>76.1</ele>
        <time>2023-06-10T12:53:41Z</time>
      </trkpt>
      <trkpt lat="49.44549" lon="2.05055">
        <ele>76</ele>
        <time>2023-06-10T12:53:47Z</time>
      </trkpt>
      <trkpt lat="49.44553" lon="2.0506">
        <ele>75.8</ele>
        <time>2023-06-10T12:53:52Z</time>
      </trkpt>
      <trkpt lat="49.44559" lon="2.05067">
        <ele>75.6</ele>
        <time>2023-06-10T12:53:58Z</time>
      </trkpt>
      <trkpt lat="49.44565" lon="2.05077">
        <ele>75.5</ele>
        <time>2023-06-10T12:54:04Z</time>
      </trkpt>
      <trkpt lat="49.44569" lon="2.05086">
        <ele>75.5</ele>
        <time>2023-06-10T12:54:09Z</time>
      </trkpt>
      <trkpt lat="49.44573" lon="2.05098">
        <ele>75.5</ele>
        <time>2023-06-10T12:54:15Z</time>
      </trkpt>
      <trkpt lat="49.44576" lon="2.0511">
        <ele>75.3</ele>
        <time>2023-06-10T12:54:21Z</time>
      </trkpt>
      <trkpt lat="49.44579" lon="2.05119">
        <ele>75.1</ele>
        <time>2023-06-10T12:54:26Z</time>
      </trkpt>
      <trkpt lat="49.4458" lon="2.05128">
        <ele>75</ele>
        <time>2023-06-10T12:54:31Z</time>
      </trkpt>
      <trkpt lat="49.44576" lon="2.05136">
        <ele>75</ele>
        <time>2023-06-10T12:54:37Z</time>
      </trkpt>
      <trkpt lat="49.44571" lon="2.05143">
        <ele>74.9</ele>
        <time>2023-06-10T12:54:42Z</time>
      </trkpt>
      <trkpt lat="49.44567" lon="2.05152">
        <ele>74.5</ele>
        <time>2023-06-10T12:54:47Z</time>
      </trkpt>
      <trkpt lat="49.44566" lon="2.05165">
        <ele>74</ele>
        <time>2023-06-10T12:54:52Z</time>
      </trkpt>
      <trkpt lat="49.44566" lon="2.05178">
        <ele>73.6</ele>
        <time>2023-06-10T12:54:57Z</time>
      </trkpt>
      <trkpt lat="49.44566" lon="2.05191">
        <ele>73.1</ele>
        <time>2023-06-10T12:55:03Z</time>
      </trkpt>
      <trkpt lat="49.44567" lon="2.05205">
        <ele>73</ele>
        <time>2023-06-10T12:55:09Z</time>
      </trkpt>
      <trkpt lat="49.44568" lon="2.05217">
        <ele>73</ele>
        <time>2023-06-10T12:55:15Z</time>
      </trkpt>
      <trkpt lat="49.44569" lon="2.05229">
        <ele>72.8</ele>
        <time>2023-06-10T12:55:20Z</time>
      </trkpt>
      <trkpt lat="49.44572" lon="2.05243">
        <ele>72.3</ele>
        <time>2023-06-10T12:55:26Z</time>
      </trkpt>
      <trkpt lat="49.44576" lon="2.05255">
        <ele>71.8</ele>
        <time>2023-06-10T12:55:32Z</time>
      </trkpt>
      <trkpt lat="49.44579" lon="2.05262">
        <ele>71.5</ele>
        <time>2023-06-10T12:55:38Z</time>
      </trkpt>
      <trkpt lat="49.44582" lon="2.05264">
        <ele>71.5</ele>
        <time>2023-06-10T12:55:43Z</time>
      </trkpt>
      <trkpt lat="49.44588" lon="2.05265">
        <ele>71.4</ele>
        <time>2023-06-10T12:55:49Z</time>
      </trkpt>
      <trkpt lat="49.44591" lon="2.05269">
        <ele>71.3</ele>
        <time>2023-06-10T12:55:54Z</time>
      </trkpt>
      <trkpt lat="49.44592" lon="2.05276">
        <ele>71.1</ele>
        <time>2023-06-10T12:55:59Z</time>
      </trkpt>
      <trkpt lat="49.44593" lon="2.05292">
        <ele>70</ele>
        <time>2023-06-10T12:56:05Z</time>
      </trkpt>
      <trkpt lat="49.44595" lon="2.05308">
        <ele>68.9</ele>
        <time>2023-06-10T12:56:11Z</time>
      </trkpt>
      <trkpt lat="49.44595" lon="2.05323">
        <ele>68.4</ele>
        <time>2023-06-10T12:56:17Z</time>
      </trkpt>
      <trkpt lat="49.44595" lon="2.05341">
        <ele>67.7</ele>
        <time>2023-06-10T12:56:22Z</time>
      </trkpt>
      <trkpt lat="49.44594" lon="2.05362">
        <ele>67</ele>
        <time>2023-06-10T12:56:28Z</time>
      </trkpt>
      <trkpt lat="49.44594" lon="2.05375">
        <ele>67</ele>
        <time>2023-06-10T12:56:33Z</time>
      </trkpt>
      <trkpt lat="49.44594" lon="2.05389">
        <ele>67</ele>
        <time>2023-06-10T12:56:39Z</time>
      </trkpt>
      <trkpt lat="49.44596" lon="2.054">
        <ele>67</ele>
        <time>2023-06-10T12:56:45Z</time>
      </trkpt>
      <trkpt lat="49.44597" lon="2.05411">
        <ele>67</ele>
        <time>2023-06-10T12:56:51Z</time>
      </trkpt>
      <trkpt lat="49.44592" lon="2.05421">
        <ele>67</ele>
        <time>2023-06-10T12:56:57Z</time>
      </trkpt>
      <trkpt lat="49.44584" lon="2.05429">
        <ele>67</ele>
        <time>2023-06-10T12:57:02Z</time>
      </trkpt>
      <trkpt lat="49.44575" lon="2.05436">
        <ele>67.2</ele>
        <time>2023-06-10T12:57:08Z</time>
      </trkpt>
      <trkpt lat="49.44567" lon="2.05442">
        <ele>67.5</ele>
        <time>2023-06-10T12:57:14Z</time>
      </trkpt>
      <trkpt lat="49.44561" lon="2.05443">
        <ele>67.8</ele>
        <time>2023-06-10T12:57:19Z</time>
      </trkpt>
      <trkpt lat="49.44553" lon="2.05446">
        <ele>67.9</ele>
        <time>2023-06-10T12:57:25Z</time>
      </trkpt>
      <trkpt lat="49.44547" lon="2.05448">
        <ele>67.6</ele>
        <time>2023-06-10T12:57:30Z</time>
      </trkpt>
      <trkpt lat="49.44538" lon="2.0545">
        <ele>67.3</ele>
        <time>2023-06-10T12:57:35Z</time>
      </trkpt>
      <trkpt lat="49.44528" lon="2.05454">
        <ele>67</ele>
        <time>2023-06-10T12:57:41Z</time>
      </trkpt>
      <trkpt lat="49.44522" lon="2.0546">
        <ele>67.1</ele>
        <time>2023-06-10T12:57:46Z</time>
      </trkpt>
      <trkpt lat="49.44515" lon="2.05467">
        <ele>67.4</ele>
        <time>2023-06-10T12:57:52Z</time>
      </trkpt>
      <trkpt lat="49.44509" lon="2.05472">
        <ele>67.7</ele>
        <time>2023-06-10T12:57:57Z</time>
      </trkpt>
      <trkpt lat="49.44501" lon="2.05477">
        <ele>67.8</ele>
        <time>2023-06-10T12:58:03Z</time>
      </trkpt>
      <trkpt lat="49.44496" lon="2.05481">
        <ele>67.6</ele>
        <time>2023-06-10T12:58:08Z</time>
      </trkpt>
      <trkpt lat="49.4449" lon="2.05484">
        <ele>67.4</ele>
        <time>2023-06-10T12:58:14Z</time>
      </trkpt>
      <trkpt lat="49.44484" lon="2.05486">
        <ele>67.2</ele>
        <time>2023-06-10T12:58:19Z</time>
      </trkpt>
      <trkpt lat="49.44476" lon="2.0549">
        <ele>67</ele>
        <time>2023-06-10T12:58:25Z</time>
      </trkpt>
      <trkpt lat="49.44472" lon="2.05491">
        <ele>67</ele>
        <time>2023-06-10T12:58:30Z</time>
      </trkpt>
      <trkpt lat="49.44465" lon="2.05495">
        <ele>67.2</ele>
        <time>2023-06-10T12:58:36Z</time>
      </trkpt>
      <trkpt lat="49.44457" lon="2.05501">
        <ele>67.5</ele>
        <time>2023-06-10T12:58:41Z</time>
      </trkpt>
      <trkpt lat="49.44449" lon="2.05507">
        <ele>67.6</ele>
        <time>2023-06-10T12:58:46Z</time>
      </trkpt>
      <trkpt lat="49.44439" lon="2.05515">
        <ele>67.4</ele>
        <time>2023-06-10T12:58:52Z</time>
      </trkpt>
      <trkpt lat="49.44433" lon="2.05522">
        <ele>67.1</ele>
        <time>2023-06-10T12:58:57Z</time>
      </trkpt>
      <trkpt lat="49.44425" lon="2.05529">
        <ele>67</ele>
        <time>2023-06-10T12:59:03Z</time>
      </trkpt>
      <trkpt lat="49.44418" lon="2.05534">
        <ele>67</ele>
        <time>2023-06-10T12:59:09Z</time>
      </trkpt>
      <trkpt lat="49.44413" lon="2.05539">
        <ele>67</ele>
        <time>2023-06-10T12:59:14Z</time>
      </trkpt>
      <trkpt lat="49.44406" lon="2.05544">
        <ele>67</ele>
        <time>2023-06-10T12:59:19Z</time>
      </trkpt>
      <trkpt lat="49.444" lon="2.05551">
        <ele>67</ele>
        <time>2023-06-10T12:59:25Z</time>
      </trkpt>
      <trkpt lat="49.44394" lon="2.05557">
        <ele>67</ele>
        <time>2023-06-10T12:59:30Z</time>
      </trkpt>
      <trkpt lat="49.4439" lon="2.05564">
        <ele>67</ele>
        <time>2023-06-10T12:59:36Z</time>
      </trkpt>
      <trkpt lat="49.44384" lon="2.05572">
        <ele>67.2</ele>
        <time>2023-06-10T12:59:41Z</time>
      </trkpt>
      <trkpt lat="49.44374" lon="2.05579">
        <ele>67.5</ele>
        <time>2023-06-10T12:59:47Z</time>
      </trkpt>
      <trkpt lat="49.44367" lon="2.05585">
        <ele>67.7</ele>
        <time>2023-06-10T12:59:52Z</time>
      </trkpt>
      <trkpt lat="49.44362" lon="2.05593">
        <ele>67.6</ele>
        <time>2023-06-10T12:59:58Z</time>
      </trkpt>
      <trkpt lat="49.44357" lon="2.056">
        <ele>67.3</ele>
        <time>2023-06-10T13:00:03Z</time>
      </trkpt>
      <trkpt lat="49.4435" lon="2.05605">
        <ele>67.1</ele>
        <time>2023-06-10T13:00:09Z</time>
      </trkpt>
      <trkpt lat="49.44347" lon="2.05611">
        <ele>67</ele>
        <time>2023-06-10T13:00:14Z</time>
      </trkpt>
      <trkpt lat="49.44341" lon="2.0562">
        <ele>67</ele>
        <time>2023-06-10T13:00:20Z</time>
      </trkpt>
      <trkpt lat="49.44335" lon="2.05625">
        <ele>67</ele>
        <time>2023-06-10T13:00:25Z</time>
      </trkpt>
      <trkpt lat="49.44326" lon="2.05634">
        <ele>67</ele>
        <time>2023-06-10T13:00:31Z</time>
      </trkpt>
      <trkpt lat="49.44317" lon="2.0564">
        <ele>67</ele>
        <time>2023-06-10T13:00:36Z</time>
      </trkpt>
      <trkpt lat="49.44308" lon="2.05648">
        <ele>67</ele>
        <time>2023-06-10T13:00:42Z</time>
      </trkpt>
      <trkpt lat="49.443" lon="2.05654">
        <ele>67</ele>
        <time>2023-06-10T13:00:48Z</time>
      </trkpt>
      <trkpt lat="49.44292" lon="2.0566">
        <ele>67</ele>
        <time>2023-06-10T13:00:53Z</time>
      </trkpt>
      <trkpt lat="49.44282" lon="2.05665">
        <ele>67</ele>
        <time>2023-06-10T13:00:59Z</time>
      </trkpt>
      <trkpt lat="49.44278" lon="2.05671">
        <ele>67</ele>
        <time>2023-06-10T13:01:04Z</time>
      </trkpt>
      <trkpt lat="49.44273" lon="2.05678">
        <ele>67</ele>
        <time>2023-06-10T13:01:10Z</time>
      </trkpt>
      <trkpt lat="49.44267" lon="2.05686">
        <ele>67</ele>
        <time>2023-06-10T13:01:15Z</time>
      </trkpt>
      <trkpt lat="49.44259" lon="2.05694">
        <ele>67</ele>
        <time>2023-06-10T13:01:21Z</time>
      </trkpt>
      <trkpt lat="49.44253" lon="2.05702">
        <ele>67</ele>
        <time>2023-06-10T13:01:27Z</time>
      </trkpt>
      <trkpt lat="49.44247" lon="2.05711">
        <ele>67</ele>
        <time>2023-06-10T13:01:32Z</time>
      </trkpt>
      <trkpt lat="49.4424" lon="2.0572">
        <ele>67</ele>
        <time>2023-06-10T13:01:38Z</time>
      </trkpt>
      <trkpt lat="49.44232" lon="2.05727">
        <ele>67</ele>
        <time>2023-06-10T13:01:44Z</time>
      </trkpt>
      <trkpt lat="49.44226" lon="2.05732">
        <ele>67</ele>
        <time>2023-06-10T13:01:50Z</time>
      </trkpt>
      <trkpt lat="49.44219" lon="2.05738">
        <ele>67</ele>
        <time>2023-06-10T13:01:56Z</time>
      </trkpt>
      <trkpt lat="49.4421" lon="2.05743">
        <ele>67</ele>
        <time>2023-06-10T13:02:02Z</time>
      </trkpt>
      <trkpt lat="49.44205" lon="2.05747">
        <ele>67</ele>
        <time>2023-06-10T13:02:07Z</time>
      </trkpt>
      <trkpt lat="49.44202" lon="2.05756">
        <ele>67</ele>
        <time>2023-06-10T13:02:12Z</time>
      </trkpt>
      <trkpt lat="49.44197" lon="2.05767">
        <ele>67</ele>
        <time>2023-06-10T13:02:18Z</time>
      </trkpt>
      <trkpt lat="49.44189" lon="2.05778">
        <ele>67</ele>
        <time>2023-06-10T13:02:24Z</time>
      </trkpt>
      <trkpt lat="49.44182" lon="2.0579">
        <ele>67.2</ele>
        <time>2023-06-10T13:02:30Z</time>
      </trkpt>
      <trkpt lat="49.44176" lon="2.05798">
        <ele>67.5</ele>
        <time>2023-06-10T13:02:35Z</time>
      </trkpt>
      <trkpt lat="49.4417" lon="2.05807">
        <ele>67.8</ele>
        <time>2023-06-10T13:02:41Z</time>
      </trkpt>
      <trkpt lat="49.44163" lon="2.05816">
        <ele>67.5</ele>
        <time>2023-06-10T13:02:47Z</time>
      </trkpt>
      <trkpt lat="49.44157" lon="2.05822">
        <ele>67.3</ele>
        <time>2023-06-10T13:02:52Z</time>
      </trkpt>
      <trkpt lat="49.44153" lon="2.0583">
        <ele>67.1</ele>
        <time>2023-06-10T13:02:57Z</time>
      </trkpt>
      <trkpt lat="49.44147" lon="2.05837">
        <ele>67.1</ele>
        <time>2023-06-10T13:03:03Z</time>
      </trkpt>
      <trkpt lat="49.4414" lon="2.05848">
        <ele>67.5</ele>
        <time>2023-06-10T13:03:09Z</time>
      </trkpt>
      <trkpt lat="49.44133" lon="2.0586">
        <ele>67.8</ele>
        <time>2023-06-10T13:03:15Z</time>
      </trkpt>
      <trkpt lat="49.44127" lon="2.05869">
        <ele>67.3</ele>
        <time>2023-06-10T13:03:21Z</time>
      </trkpt>
      <trkpt lat="49.44123" lon="2.05877">
        <ele>66.9</ele>
        <time>2023-06-10T13:03:26Z</time>
      </trkpt>
      <trkpt lat="49.44119" lon="2.05887">
        <ele>66.8</ele>
        <time>2023-06-10T13:03:32Z</time>
      </trkpt>
      <trkpt lat="49.44114" lon="2.05894">
        <ele>66.9</ele>
        <time>2023-06-10T13:03:37Z</time>
      </trkpt>
      <trkpt lat="49.4411" lon="2.059">
        <ele>67</ele>
        <time>2023-06-10T13:03:43Z</time>
      </trkpt>
      <trkpt lat="49.44106" lon="2.05909">
        <ele>67</ele>
        <time>2023-06-10T13:03:48Z</time>
      </trkpt>
      <trkpt lat="49.44101" lon="2.0592">
        <ele>66.9</ele>
        <time>2023-06-10T13:03:54Z</time>
      </trkpt>
      <trkpt lat="49.44095" lon="2.05928">
        <ele>66.8</ele>
        <time>2023-06-10T13:03:59Z</time>
      </trkpt>
      <trkpt lat="49.44092" lon="2.05937">
        <ele>66.8</ele>
        <time>2023-06-10T13:04:04Z</time>
      </trkpt>
      <trkpt lat="49.44088" lon="2.05948">
        <ele>66.8</ele>
        <time>2023-06-10T13:04:10Z</time>
      </trkpt>
      <trkpt lat="49.44087" lon="2.05957">
        <ele>66.9</ele>
        <time>2023-06-10T13:04:15Z</time>
      </trkpt>
      <trkpt lat="49.44087" lon="2.0597">
        <ele>66.9</ele>
        <time>2023-06-10T13:04:21Z</time>
      </trkpt>
      <trkpt lat="49.44087" lon="2.05982">
        <ele>66.9</ele>
        <time>2023-06-10T13:04:27Z</time>
      </trkpt>
      <trkpt lat="49.44087" lon="2.0599">
        <ele>66.9</ele>
        <time>2023-06-10T13:04:32Z</time>
      </trkpt>
      <trkpt lat="49.44087" lon="2.06001">
        <ele>66.9</ele>
        <time>2023-06-10T13:04:38Z</time>
      </trkpt>
      <trkpt lat="49.44086" lon="2.06017">
        <ele>67.4</ele>
        <time>2023-06-10T13:04:44Z</time>
      </trkpt>
      <trkpt lat="49.44085" lon="2.06032">
        <ele>67.7</ele>
        <time>2023-06-10T13:04:49Z</time>
      </trkpt>
      <trkpt lat="49.44084" lon="2.06045">
        <ele>67.4</ele>
        <time>2023-06-10T13:04:55Z</time>
      </trkpt>
      <trkpt lat="49.44087" lon="2.06052">
        <ele>67</ele>
        <time>2023-06-10T13:05:00Z</time>
      </trkpt>
      <trkpt lat="49.44094" lon="2.06058">
        <ele>66.7</ele>
        <time>2023-06-10T13:05:06Z</time>
      </trkpt>
      <trkpt lat="49.44098" lon="2.06063">
        <ele>66.6</ele>
        <time>2023-06-10T13:05:11Z</time>
      </trkpt>
      <trkpt lat="49.441" lon="2.06067">
        <ele>66.7</ele>
        <time>2023-06-10T13:05:16Z</time>
      </trkpt>
      <trkpt lat="49.441" lon="2.06069">
        <ele>66.7</ele>
        <time>2023-06-10T13:05:22Z</time>
      </trkpt>
      <trkpt lat="49.44106" lon="2.06069">
        <ele>66.6</ele>
        <time>2023-06-10T13:05:28Z</time>
      </trkpt>
      <trkpt lat="49.44111" lon="2.06067">
        <ele>66.4</ele>
        <time>2023-06-10T13:05:33Z</time>
      </trkpt>
      <trkpt lat="49.44111" lon="2.06066">
        <ele>66.4</ele>
        <time>2023-06-10T13:05:39Z</time>
      </trkpt>
      <trkpt lat="49.44111" lon="2.06066">
        <ele>66.4</ele>
        <time>2023-06-10T13:05:44Z</time>
      </trkpt>
      <trkpt lat="49.44111" lon="2.06066">
        <ele>66.4</ele>
        <time>2023-06-10T13:05:50Z</time>
      </trkpt>
      <trkpt lat="49.44111" lon="2.06068">
        <ele>66.5</ele>
        <time>2023-06-10T13:05:56Z</time>
      </trkpt>
      <trkpt lat="49.44111" lon="2.06069">
        <ele>66.5</ele>
        <time>2023-06-10T13:06:01Z</time>
      </trkpt>
      <trkpt lat="49.44111" lon="2.0607">
        <ele>66.5</ele>
        <time>2023-06-10T13:06:07Z</time>
      </trkpt>
      <trkpt lat="49.4411" lon="2.06068">
        <ele>66.5</ele>
        <time>2023-06-10T13:06:13Z</time>
      </trkpt>
      <trkpt lat="49.4411" lon="2.06073">
        <ele>66.7</ele>
        <time>2023-06-10T13:06:19Z</time>
      </trkpt>
      <trkpt lat="49.44109" lon="2.06076">
        <ele>66.8</ele>
        <time>2023-06-10T13:06:24Z</time>
      </trkpt>
      <trkpt lat="49.4411" lon="2.06076">
        <ele>66.8</ele>
        <time>2023-06-10T13:06:30Z</time>
      </trkpt>
      <trkpt lat="49.44111" lon="2.06076">
        <ele>66.7</ele>
        <time>2023-06-10T13:06:35Z</time>
      </trkpt>
      <trkpt lat="49.44114" lon="2.06076">
        <ele>66.7</ele>
        <time>2023-06-10T13:06:40Z</time>
      </trkpt>
      <trkpt lat="49.44115" lon="2.06077">
        <ele>66.6</ele>
        <time>2023-06-10T13:06:46Z</time>
      </trkpt>
      <trkpt lat="49.44115" lon="2.06078">
        <ele>66.7</ele>
        <time>2023-06-10T13:06:52Z</time>
      </trkpt>
      <trkpt lat="49.44115" lon="2.06078">
        <ele>66.7</ele>
        <time>2023-06-10T13:06:58Z</time>
      </trkpt>
      <trkpt lat="49.44115" lon="2.06079">
        <ele>66.7</ele>
        <time>2023-06-10T13:07:03Z</time>
      </trkpt>
      <trkpt lat="49.44115" lon="2.0608">
        <ele>66.7</ele>
        <time>2023-06-10T13:07:09Z</time>
      </trkpt>
      <trkpt lat="49.44115" lon="2.0608">
        <ele>66.7</ele>
        <time>2023-06-10T13:07:14Z</time>
      </trkpt>
      <trkpt lat="49.44115" lon="2.0608">
        <ele>66.7</ele>
        <time>2023-06-10T13:07:20Z</time>
      </trkpt>
      <trkpt lat="49.44115" lon="2.06079">
        <ele>66.7</ele>
        <time>2023-06-10T13:07:25Z</time>
      </trkpt>
      <trkpt lat="49.44115" lon="2.06079">
        <ele>66.7</ele>
        <time>2023-06-10T13:07:31Z</time>
      </trkpt>
      <trkpt lat="49.44115" lon="2.06077">
        <ele>66.6</ele>
        <time>2023-06-10T13:07:36Z</time>
      </trkpt>
      <trkpt lat="49.44117" lon="2.06073">
        <ele>66.5</ele>
        <time>2023-06-10T13:07:42Z</time>
      </trkpt>
      <trkpt lat="49.44123" lon="2.06073">
        <ele>66.3</ele>
        <time>2023-06-10T13:07:47Z</time>
      </trkpt>
      <trkpt lat="49.44126" lon="2.0607">
        <ele>66.2</ele>
        <time>2023-06-10T13:07:53Z</time>
      </trkpt>
      <trkpt lat="49.44128" lon="2.06067">
        <ele>66.2</ele>
        <time>2023-06-10T13:07:58Z</time>
      </trkpt>
      <trkpt lat="49.44131" lon="2.06065">
        <ele>66.1</ele>
        <time>2023-06-10T13:08:03Z</time>
      </trkpt>
      <trkpt lat="49.4414" lon="2.06061">
        <ele>66</ele>
        <time>2023-06-10T13:08:09Z</time>
      </trkpt>
      <trkpt lat="49.44147" lon="2.06056">
        <ele>66.3</ele>
        <time>2023-06-10T13:08:14Z</time>
      </trkpt>
      <trkpt lat="49.44155" lon="2.06052">
        <ele>66.5</ele>
        <time>2023-06-10T13:08:20Z</time>
      </trkpt>
      <trkpt lat="49.44163" lon="2.06049">
        <ele>66.7</ele>
        <time>2023-06-10T13:08:26Z</time>
      </trkpt>
      <trkpt lat="49.44172" lon="2.06047">
        <ele>66.6</ele>
        <time>2023-06-10T13:08:32Z</time>
      </trkpt>
      <trkpt lat="49.44176" lon="2.06046">
        <ele>66.4</ele>
        <time>2023-06-10T13:08:37Z</time>
      </trkpt>
      <trkpt lat="49.44179" lon="2.06043">
        <ele>66.3</ele>
        <time>2023-06-10T13:08:42Z</time>
      </trkpt>
      <trkpt lat="49.44186" lon="2.0604">
        <ele>66.1</ele>
        <time>2023-06-10T13:08:47Z</time>
      </trkpt>
      <trkpt lat="49.4419" lon="2.06039">
        <ele>66.1</ele>
        <time>2023-06-10T13:08:53Z</time>
      </trkpt>
      <trkpt lat="49.44193" lon="2.06037">
        <ele>66</ele>
        <time>2023-06-10T13:08:58Z</time>
      </trkpt>
      <trkpt lat="49.44199" lon="2.06034">
        <ele>66</ele>
        <time>2023-06-10T13:09:03Z</time>
      </trkpt>
      <trkpt lat="49.44206" lon="2.06029">
        <ele>66</ele>
        <time>2023-06-10T13:09:09Z</time>
      </trkpt>
      <trkpt lat="49.4422" lon="2.06022">
        <ele>66</ele>
        <time>2023-06-10T13:09:15Z</time>
      </trkpt>
      <trkpt lat="49.44226" lon="2.0602">
        <ele>66.1</ele>
        <time>2023-06-10T13:09:20Z</time>
      </trkpt>
      <trkpt lat="49.44227" lon="2.06016">
        <ele>66.1</ele>
        <time>2023-06-10T13:09:26Z</time>
      </trkpt>
      <trkpt lat="49.44231" lon="2.06012">
        <ele>66.1</ele>
        <time>2023-06-10T13:09:31Z</time>
      </trkpt>
      <trkpt lat="49.44237" lon="2.0601">
        <ele>66.2</ele>
        <time>2023-06-10T13:09:37Z</time>
      </trkpt>
      <trkpt lat="49.44242" lon="2.06008">
        <ele>66.2</ele>
        <time>2023-06-10T13:09:42Z</time>
      </trkpt>
      <trkpt lat="49.44247" lon="2.06007">
        <ele>66.2</ele>
        <time>2023-06-10T13:09:47Z</time>
      </trkpt>
      <trkpt lat="49.44253" lon="2.06005">
        <ele>66.2</ele>
        <time>2023-06-10T13:09:53Z</time>
      </trkpt>
      <trkpt lat="49.44258" lon="2.06">
        <ele>66</ele>
        <time>2023-06-10T13:09:58Z</time>
      </trkpt>
      <trkpt lat="49.44267" lon="2.05995">
        <ele>66</ele>
        <time>2023-06-10T13:10:04Z</time>
      </trkpt>
      <trkpt lat="49.44274" lon="2.05992">
        <ele>66</ele>
        <time>2023-06-10T13:10:09Z</time>
      </trkpt>
      <trkpt lat="49.44285" lon="2.05988">
        <ele>66.1</ele>
        <time>2023-06-10T13:10:15Z</time>
      </trkpt>
      <trkpt lat="49.44295" lon="2.05984">
        <ele>66.2</ele>
        <time>2023-06-10T13:10:20Z</time>
      </trkpt>
      <trkpt lat="49.44304" lon="2.05981">
        <ele>66.3</ele>
        <time>2023-06-10T13:10:25Z</time>
      </trkpt>
      <trkpt lat="49.44312" lon="2.05979">
        <ele>66.2</ele>
        <time>2023-06-10T13:10:31Z</time>
      </trkpt>
      <trkpt lat="49.44319" lon="2.05978">
        <ele>66.2</ele>
        <time>2023-06-10T13:10:36Z</time>
      </trkpt>
      <trkpt lat="49.44326" lon="2.05976">
        <ele>66.1</ele>
        <time>2023-06-10T13:10:42Z</time>
      </trkpt>
      <trkpt lat="49.44335" lon="2.05972">
        <ele>66.1</ele>
        <time>2023-06-10T13:10:47Z</time>
      </trkpt>
      <trkpt lat="49.44338" lon="2.0597">
        <ele>66.1</ele>
        <time>2023-06-10T13:10:52Z</time>
      </trkpt>
      <trkpt lat="49.44342" lon="2.05969">
        <ele>66.3</ele>
        <time>2023-06-10T13:10:58Z</time>
      </trkpt>
      <trkpt lat="49.44348" lon="2.05969">
        <ele>66.5</ele>
        <time>2023-06-10T13:11:03Z</time>
      </trkpt>
      <trkpt lat="49.44354" lon="2.05969">
        <ele>66.7</ele>
        <time>2023-06-10T13:11:08Z</time>
      </trkpt>
      <trkpt lat="49.4436" lon="2.05967">
        <ele>66.8</ele>
        <time>2023-06-10T13:11:13Z</time>
      </trkpt>
      <trkpt lat="49.44369" lon="2.05963">
        <ele>66.8</ele>
        <time>2023-06-10T13:11:19Z</time>
      </trkpt>
      <trkpt lat="49.44376" lon="2.05959">
        <ele>66.8</ele>
        <time>2023-06-10T13:11:24Z</time>
      </trkpt>
      <trkpt lat="49.44382" lon="2.05956">
        <ele>66.9</ele>
        <time>2023-06-10T13:11:30Z</time>
      </trkpt>
      <trkpt lat="49.4439" lon="2.0595">
        <ele>67</ele>
        <time>2023-06-10T13:11:36Z</time>
      </trkpt>
      <trkpt lat="49.44396" lon="2.05946">
        <ele>67</ele>
        <time>2023-06-10T13:11:42Z</time>
      </trkpt>
      <trkpt lat="49.444" lon="2.05942">
        <ele>66.9</ele>
        <time>2023-06-10T13:11:48Z</time>
      </trkpt>
      <trkpt lat="49.44407" lon="2.05939">
        <ele>66.8</ele>
        <time>2023-06-10T13:11:53Z</time>
      </trkpt>
      <trkpt lat="49.44417" lon="2.05933">
        <ele>66.6</ele>
        <time>2023-06-10T13:11:59Z</time>
      </trkpt>
      <trkpt lat="49.44433" lon="2.05926">
        <ele>66.5</ele>
        <time>2023-06-10T13:12:05Z</time>
      </trkpt>
      <trkpt lat="49.44451" lon="2.0592">
        <ele>66.9</ele>
        <time>2023-06-10T13:12:11Z</time>
      </trkpt>
      <trkpt lat="49.44465" lon="2.05913">
        <ele>67</ele>
        <time>2023-06-10T13:12:17Z</time>
      </trkpt>
      <trkpt lat="49.44476" lon="2.05907">
        <ele>66.9</ele>
        <time>2023-06-10T13:12:23Z</time>
      </trkpt>
      <trkpt lat="49.44487" lon="2.05903">
        <ele>66.7</ele>
        <time>2023-06-10T13:12:29Z</time>
      </trkpt>
      <trkpt lat="49.44497" lon="2.05899">
        <ele>66.7</ele>
        <time>2023-06-10T13:12:35Z</time>
      </trkpt>
      <trkpt lat="49.44504" lon="2.05894">
        <ele>66.8</ele>
        <time>2023-06-10T13:12:40Z</time>
      </trkpt>
      <trkpt lat="49.4451" lon="2.05891">
        <ele>66.9</ele>
        <time>2023-06-10T13:12:45Z</time>
      </trkpt>
      <trkpt lat="49.44516" lon="2.05888">
        <ele>67</ele>
        <time>2023-06-10T13:12:51Z</time>
      </trkpt>
      <trkpt lat="49.44523" lon="2.05885">
        <ele>67</ele>
        <time>2023-06-10T13:12:56Z</time>
      </trkpt>
      <trkpt lat="49.44533" lon="2.05879">
        <ele>66.9</ele>
        <time>2023-06-10T13:13:02Z</time>
      </trkpt>
      <trkpt lat="49.44541" lon="2.05876">
        <ele>66.8</ele>
        <time>2023-06-10T13:13:07Z</time>
      </trkpt>
      <trkpt lat="49.44551" lon="2.05872">
        <ele>66.5</ele>
        <time>2023-06-10T13:13:13Z</time>
      </trkpt>
      <trkpt lat="49.4456" lon="2.05867">
        <ele>66.2</ele>
        <time>2023-06-10T13:13:18Z</time>
      </trkpt>
      <trkpt lat="49.44567" lon="2.05862">
        <ele>66</ele>
        <time>2023-06-10T13:13:23Z</time>
      </trkpt>
      <trkpt lat="49.44574" lon="2.05858">
        <ele>66</ele>
        <time>2023-06-10T13:13:29Z</time>
      </trkpt>
      <trkpt lat="49.44578" lon="2.05855">
        <ele>66</ele>
        <time>2023-06-10T13:13:34Z</time>
      </trkpt>
      <trkpt lat="49.44584" lon="2.05851">
        <ele>66</ele>
        <time>2023-06-10T13:13:39Z</time>
      </trkpt>
      <trkpt lat="49.44591" lon="2.05847">
        <ele>66.3</ele>
        <time>2023-06-10T13:13:45Z</time>
      </trkpt>
      <trkpt lat="49.44598" lon="2.05845">
        <ele>66.5</ele>
        <time>2023-06-10T13:13:50Z</time>
      </trkpt>
      <trkpt lat="49.44606" lon="2.05845">
        <ele>66.8</ele>
        <time>2023-06-10T13:13:56Z</time>
      </trkpt>
      <trkpt lat="49.44609" lon="2.05848">
        <ele>66.9</ele>
        <time>2023-06-10T13:14:01Z</time>
      </trkpt>
      <trkpt lat="49.4461" lon="2.05853">
        <ele>67</ele>
        <time>2023-06-10T13:14:07Z</time>
      </trkpt>
      <trkpt lat="49.44611" lon="2.05856">
        <ele>67</ele>
        <time>2023-06-10T13:14:13Z</time>
      </trkpt>
      <trkpt lat="49.44612" lon="2.05857">
        <ele>67</ele>
        <time>2023-06-10T13:14:19Z</time>
      </trkpt>
      <trkpt lat="49.44612" lon="2.05857">
        <ele>67</ele>
        <time>2023-06-10T13:14:24Z</time>
      </trkpt>
      <trkpt lat="49.44611" lon="2.05859">
        <ele>67</ele>
        <time>2023-06-10T13:14:29Z</time>
      </trkpt>
      <trkpt lat="49.44609" lon="2.05861">
        <ele>66.9</ele>
        <time>2023-06-10T13:14:35Z</time>
      </trkpt>
      <trkpt lat="49.44608" lon="2.05863">
        <ele>66.9</ele>
        <time>2023-06-10T13:14:41Z</time>
      </trkpt>
      <trkpt lat="49.44609" lon="2.05863">
        <ele>66.9</ele>
        <time>2023-06-10T13:14:46Z</time>
      </trkpt>
      <trkpt lat="49.44609" lon="2.05863">
        <ele>66.9</ele>
        <time>2023-06-10T13:14:51Z</time>
      </trkpt>
      <trkpt lat="49.4461" lon="2.05863">
        <ele>66.9</ele>
        <time>2023-06-10T13:14:56Z</time>
      </trkpt>
      <trkpt lat="49.44609" lon="2.05863">
        <ele>66.9</ele>
        <time>2023-06-10T13:15:02Z</time>
      </trkpt>
      <trkpt lat="49.44609" lon="2.05863">
        <ele>66.9</ele>
        <time>2023-06-10T13:15:08Z</time>
      </trkpt>
      <trkpt lat="49.4461" lon="2.05865">
        <ele>67</ele>
        <time>2023-06-10T13:15:13Z</time>
      </trkpt>
      <trkpt lat="49.44614" lon="2.05864">
        <ele>67</ele>
        <time>2023-06-10T13:15:19Z</time>
      </trkpt>
      <trkpt lat="49.44619" lon="2.05862">
        <ele>67</ele>
        <time>2023-06-10T13:15:24Z</time>
      </trkpt>
      <trkpt lat="49.44624" lon="2.05858">
        <ele>67</ele>
        <time>2023-06-10T13:15:29Z</time>
      </trkpt>
      <trkpt lat="49.4463" lon="2.05855">
        <ele>67</ele>
        <time>2023-06-10T13:15:35Z</time>
      </trkpt>
      <trkpt lat="49.44638" lon="2.05851">
        <ele>67</ele>
        <time>2023-06-10T13:15:41Z</time>
      </trkpt>
      <trkpt lat="49.4465" lon="2.05847">
        <ele>67</ele>
        <time>2023-06-10T13:15:47Z</time>
      </trkpt>
      <trkpt lat="49.4466" lon="2.05844">
        <ele>67</ele>
        <time>2023-06-10T13:15:52Z</time>
      </trkpt>
      <trkpt lat="49.4467" lon="2.05842">
        <ele>67</ele>
        <time>2023-06-10T13:15:57Z</time>
      </trkpt>
      <trkpt lat="49.4468" lon="2.05838">
        <ele>67</ele>
        <time>2023-06-10T13:16:03Z</time>
      </trkpt>
      <trkpt lat="49.44688" lon="2.05834">
        <ele>67</ele>
        <time>2023-06-10T13:16:09Z</time>
      </trkpt>
      <trkpt lat="49.44694" lon="2.05831">
        <ele>67.1</ele>
        <time>2023-06-10T13:16:15Z</time>
      </trkpt>
      <trkpt lat="49.44701" lon="2.05828">
        <ele>67.1</ele>
        <time>2023-06-10T13:16:20Z</time>
      </trkpt>
      <trkpt lat="49.4471" lon="2.05824">
        <ele>67.2</ele>
        <time>2023-06-10T13:16:26Z</time>
      </trkpt>
      <trkpt lat="49.44719" lon="2.05818">
        <ele>67.1</ele>
        <time>2023-06-10T13:16:31Z</time>
      </trkpt>
      <trkpt lat="49.44727" lon="2.05813">
        <ele>67</ele>
        <time>2023-06-10T13:16:37Z</time>
      </trkpt>
      <trkpt lat="49.44734" lon="2.05809">
        <ele>67</ele>
        <time>2023-06-10T13:16:43Z</time>
      </trkpt>
      <trkpt lat="49.4474" lon="2.05805">
        <ele>67</ele>
        <time>2023-06-10T13:16:48Z</time>
      </trkpt>
      <trkpt lat="49.44747" lon="2.05799">
        <ele>67</ele>
        <time>2023-06-10T13:16:54Z</time>
      </trkpt>
      <trkpt lat="49.44753" lon="2.05796">
        <ele>67</ele>
        <time>2023-06-10T13:16:59Z</time>
      </trkpt>
      <trkpt lat="49.44763" lon="2.05792">
        <ele>67</ele>
        <time>2023-06-10T13:17:05Z</time>
      </trkpt>
      <trkpt lat="49.44771" lon="2.05789">
        <ele>67</ele>
        <time>2023-06-10T13:17:10Z</time>
      </trkpt>
      <trkpt lat="49.44778" lon="2.05784">
        <ele>67</ele>
        <time>2023-06-10T13:17:16Z</time>
      </trkpt>
      <trkpt lat="49.44783" lon="2.05782">
        <ele>67</ele>
        <time>2023-06-10T13:17:21Z</time>
      </trkpt>
      <trkpt lat="49.44791" lon="2.0578">
        <ele>67</ele>
        <time>2023-06-10T13:17:26Z</time>
      </trkpt>
      <trkpt lat="49.44798" lon="2.05776">
        <ele>67.1</ele>
        <time>2023-06-10T13:17:31Z</time>
      </trkpt>
      <trkpt lat="49.44805" lon="2.05772">
        <ele>67.4</ele>
        <time>2023-06-10T13:17:36Z</time>
      </trkpt>
      <trkpt lat="49.44812" lon="2.05768">
        <ele>67.9</ele>
        <time>2023-06-10T13:17:41Z</time>
      </trkpt>
      <trkpt lat="49.44821" lon="2.05767">
        <ele>68.2</ele>
        <time>2023-06-10T13:17:47Z</time>
      </trkpt>
      <trkpt lat="49.44827" lon="2.05766">
        <ele>68.4</ele>
        <time>2023-06-10T13:17:53Z</time>
      </trkpt>
      <trkpt lat="49.44829" lon="2.05769">
        <ele>68.5</ele>
        <time>2023-06-10T13:17:59Z</time>
      </trkpt>
      <trkpt lat="49.44832" lon="2.05777">
        <ele>68.9</ele>
        <time>2023-06-10T13:18:04Z</time>
      </trkpt>
      <trkpt lat="49.44834" lon="2.05781">
        <ele>68.8</ele>
        <time>2023-06-10T13:18:10Z</time>
      </trkpt>
      <trkpt lat="49.44838" lon="2.05789">
        <ele>68.4</ele>
        <time>2023-06-10T13:18:16Z</time>
      </trkpt>
      <trkpt lat="49.4484" lon="2.05796">
        <ele>68.2</ele>
        <time>2023-06-10T13:18:21Z</time>
      </trkpt>
      <trkpt lat="49.44844" lon="2.05798">
        <ele>68.1</ele>
        <time>2023-06-10T13:18:26Z</time>
      </trkpt>
      <trkpt lat="49.44849" lon="2.058">
        <ele>68</ele>
        <time>2023-06-10T13:18:32Z</time>
      </trkpt>
      <trkpt lat="49.4485" lon="2.05804">
        <ele>68</ele>
        <time>2023-06-10T13:18:38Z</time>
      </trkpt>
      <trkpt lat="49.44848" lon="2.05811">
        <ele>68</ele>
        <time>2023-06-10T13:18:43Z</time>
      </trkpt>
      <trkpt lat="49.44851" lon="2.05822">
        <ele>68.2</ele>
        <time>2023-06-10T13:18:48Z</time>
      </trkpt>
      <trkpt lat="49.44856" lon="2.05839">
        <ele>68.6</ele>
        <time>2023-06-10T13:18:54Z</time>
      </trkpt>
      <trkpt lat="49.44859" lon="2.05855">
        <ele>68.8</ele>
        <time>2023-06-10T13:18:59Z</time>
      </trkpt>
      <trkpt lat="49.44861" lon="2.05871">
        <ele>68.6</ele>
        <time>2023-06-10T13:19:05Z</time>
      </trkpt>
      <trkpt lat="49.44864" lon="2.05887">
        <ele>68</ele>
        <time>2023-06-10T13:19:11Z</time>
      </trkpt>
      <trkpt lat="49.44866" lon="2.059">
        <ele>67.9</ele>
        <time>2023-06-10T13:19:16Z</time>
      </trkpt>
      <trkpt lat="49.44867" lon="2.05912">
        <ele>68</ele>
        <time>2023-06-10T13:19:21Z</time>
      </trkpt>
      <trkpt lat="49.44869" lon="2.05928">
        <ele>67.7</ele>
        <time>2023-06-10T13:19:27Z</time>
      </trkpt>
      <trkpt lat="49.44872" lon="2.05935">
        <ele>67.6</ele>
        <time>2023-06-10T13:19:33Z</time>
      </trkpt>
      <trkpt lat="49.44876" lon="2.05944">
        <ele>67.5</ele>
        <time>2023-06-10T13:19:39Z</time>
      </trkpt>
      <trkpt lat="49.44879" lon="2.05956">
        <ele>67.6</ele>
        <time>2023-06-10T13:19:45Z</time>
      </trkpt>
      <trkpt lat="49.44885" lon="2.0597">
        <ele>67.9</ele>
        <time>2023-06-10T13:19:51Z</time>
      </trkpt>
      <trkpt lat="49.44888" lon="2.05981">
        <ele>68</ele>
        <time>2023-06-10T13:19:56Z</time>
      </trkpt>
      <trkpt lat="49.44886" lon="2.05996">
        <ele>67.9</ele>
        <time>2023-06-10T13:20:02Z</time>
      </trkpt>
      <trkpt lat="49.44882" lon="2.06002">
        <ele>67.8</ele>
        <time>2023-06-10T13:20:08Z</time>
      </trkpt>
      <trkpt lat="49.44876" lon="2.06002">
        <ele>67.6</ele>
        <time>2023-06-10T13:20:13Z</time>
      </trkpt>
      <trkpt lat="49.44871" lon="2.06006">
        <ele>67.5</ele>
        <time>2023-06-10T13:20:19Z</time>
      </trkpt>
      <trkpt lat="49.44866" lon="2.0601">
        <ele>67.5</ele>
        <time>2023-06-10T13:20:24Z</time>
      </trkpt>
      <trkpt lat="49.44864" lon="2.06013">
        <ele>67.5</ele>
        <time>2023-06-10T13:20:29Z</time>
      </trkpt>
      <trkpt lat="49.44861" lon="2.06017">
        <ele>67.6</ele>
        <time>2023-06-10T13:20:35Z</time>
      </trkpt>
      <trkpt lat="49.44855" lon="2.06023">
        <ele>67.8</ele>
        <time>2023-06-10T13:20:40Z</time>
      </trkpt>
      <trkpt lat="49.44849" lon="2.06028">
        <ele>68</ele>
        <time>2023-06-10T13:20:45Z</time>
      </trkpt>
      <trkpt lat="49.44843" lon="2.06033">
        <ele>68</ele>
        <time>2023-06-10T13:20:51Z</time>
      </trkpt>
      <trkpt lat="49.44835" lon="2.06039">
        <ele>68</ele>
        <time>2023-06-10T13:20:57Z</time>
      </trkpt>
      <trkpt lat="49.44832" lon="2.06049">
        <ele>68</ele>
        <time>2023-06-10T13:21:03Z</time>
      </trkpt>
      <trkpt lat="49.44829" lon="2.06055">
        <ele>67.8</ele>
        <time>2023-06-10T13:21:09Z</time>
      </trkpt>
      <trkpt lat="49.44823" lon="2.06061">
        <ele>67.6</ele>
        <time>2023-06-10T13:21:15Z</time>
      </trkpt>
      <trkpt lat="49.44816" lon="2.06065">
        <ele>67.4</ele>
        <time>2023-06-10T13:21:20Z</time>
      </trkpt>
      <trkpt lat="49.4481" lon="2.06069">
        <ele>67.1</ele>
        <time>2023-06-10T13:21:26Z</time>
      </trkpt>
      <trkpt lat="49.44804" lon="2.06072">
        <ele>67</ele>
        <time>2023-06-10T13:21:32Z</time>
      </trkpt>
      <trkpt lat="49.44798" lon="2.06073">
        <ele>67.1</ele>
        <time>2023-06-10T13:21:38Z</time>
      </trkpt>
      <trkpt lat="49.44792" lon="2.06074">
        <ele>67.2</ele>
        <time>2023-06-10T13:21:44Z</time>
      </trkpt>
      <trkpt lat="49.44783" lon="2.06075">
        <ele>67.2</ele>
        <time>2023-06-10T13:21:49Z</time>
      </trkpt>
      <trkpt lat="49.44773" lon="2.06075">
        <ele>67.3</ele>
        <time>2023-06-10T13:21:55Z</time>
      </trkpt>
      <trkpt lat="49.44767" lon="2.06078">
        <ele>67.2</ele>
        <time>2023-06-10T13:22:01Z</time>
      </trkpt>
      <trkpt lat="49.44761" lon="2.06079">
        <ele>67.2</ele>
        <time>2023-06-10T13:22:06Z</time>
      </trkpt>
      <trkpt lat="49.44746" lon="2.06076">
        <ele>67.3</ele>
        <time>2023-06-10T13:22:12Z</time>
      </trkpt>
      <trkpt lat="49.44738" lon="2.06076">
        <ele>67.2</ele>
        <time>2023-06-10T13:22:17Z</time>
      </trkpt>
      <trkpt lat="49.44728" lon="2.06077">
        <ele>67.2</ele>
        <time>2023-06-10T13:22:23Z</time>
      </trkpt>
      <trkpt lat="49.44718" lon="2.06077">
        <ele>67.2</ele>
        <time>2023-06-10T13:22:28Z</time>
      </trkpt>
      <trkpt lat="49.44707" lon="2.06075">
        <ele>67.3</ele>
        <time>2023-06-10T13:22:33Z</time>
      </trkpt>
      <trkpt lat="49.44694" lon="2.06075">
        <ele>67.3</ele>
        <time>2023-06-10T13:22:39Z</time>
      </trkpt>
      <trkpt lat="49.44681" lon="2.06073">
        <ele>67.5</ele>
        <time>2023-06-10T13:22:45Z</time>
      </trkpt>
      <trkpt lat="49.44669" lon="2.06073">
        <ele>67.6</ele>
        <time>2023-06-10T13:22:51Z</time>
      </trkpt>
      <trkpt lat="49.4466" lon="2.0608">
        <ele>67.9</ele>
        <time>2023-06-10T13:22:56Z</time>
      </trkpt>
      <trkpt lat="49.44656" lon="2.06085">
        <ele>67.9</ele>
        <time>2023-06-10T13:23:02Z</time>
      </trkpt>
      <trkpt lat="49.44655" lon="2.06083">
        <ele>68</ele>
        <time>2023-06-10T13:23:07Z</time>
      </trkpt>
      <trkpt lat="49.4465" lon="2.06079">
        <ele>67.8</ele>
        <time>2023-06-10T13:23:13Z</time>
      </trkpt>
      <trkpt lat="49.44648" lon="2.0608">
        <ele>67.9</ele>
        <time>2023-06-10T13:23:19Z</time>
      </trkpt>
      <trkpt lat="49.44643" lon="2.06074">
        <ele>67.7</ele>
        <time>2023-06-10T13:23:25Z</time>
      </trkpt>
      <trkpt lat="49.44634" lon="2.06058">
        <ele>67.1</ele>
        <time>2023-06-10T13:23:30Z</time>
      </trkpt>
      <trkpt lat="49.44627" lon="2.06042">
        <ele>67</ele>
        <time>2023-06-10T13:23:36Z</time>
      </trkpt>
      <trkpt lat="49.4462" lon="2.06036">
        <ele>67</ele>
        <time>2023-06-10T13:23:42Z</time>
      </trkpt>
      <trkpt lat="49.44613" lon="2.06033">
        <ele>67</ele>
        <time>2023-06-10T13:23:48Z</time>
      </trkpt>
      <trkpt lat="49.44606" lon="2.06031">
        <ele>67</ele>
        <time>2023-06-10T13:23:53Z</time>
      </trkpt>
      <trkpt lat="49.44598" lon="2.06028">
        <ele>67</ele>
        <time>2023-06-10T13:23:58Z</time>
      </trkpt>
      <trkpt lat="49.4459" lon="2.0603">
        <ele>67</ele>
        <time>2023-06-10T13:24:04Z</time>
      </trkpt>
      <trkpt lat="49.44584" lon="2.06033">
        <ele>67</ele>
        <time>2023-06-10T13:24:09Z</time>
      </trkpt>
      <trkpt lat="49.44575" lon="2.06039">
        <ele>67</ele>
        <time>2023-06-10T13:24:14Z</time>
      </trkpt>
      <trkpt lat="49.44565" lon="2.06043">
        <ele>67</ele>
        <time>2023-06-10T13:24:20Z</time>
      </trkpt>
      <trkpt lat="49.4456" lon="2.06045">
        <ele>67</ele>
        <time>2023-06-10T13:24:26Z</time>
      </trkpt>
      <trkpt lat="49.44556" lon="2.06046">
        <ele>67</ele>
        <time>2023-06-10T13:24:32Z</time>
      </trkpt>
      <trkpt lat="49.44552" lon="2.06047">
        <ele>67</ele>
        <time>2023-06-10T13:24:38Z</time>
      </trkpt>
      <trkpt lat="49.44551" lon="2.0605">
        <ele>67</ele>
        <time>2023-06-10T13:24:43Z</time>
      </trkpt>
      <trkpt lat="49.44553" lon="2.06054">
        <ele>67</ele>
        <time>2023-06-10T13:24:49Z</time>
      </trkpt>
      <trkpt lat="49.44555" lon="2.06053">
        <ele>67</ele>
        <time>2023-06-10T13:24:54Z</time>
      </trkpt>
      <trkpt lat="49.44554" lon="2.06052">
        <ele>67</ele>
        <time>2023-06-10T13:25:00Z</time>
      </trkpt>
      <trkpt lat="49.44546" lon="2.0605">
        <ele>67</ele>
        <time>2023-06-10T13:25:05Z</time>
      </trkpt>
      <trkpt lat="49.44541" lon="2.06052">
        <ele>67</ele>
        <time>2023-06-10T13:25:11Z</time>
      </trkpt>
      <trkpt lat="49.44535" lon="2.06055">
        <ele>67</ele>
        <time>2023-06-10T13:25:17Z</time>
      </trkpt>
      <trkpt lat="49.44529" lon="2.06059">
        <ele>67</ele>
        <time>2023-06-10T13:25:22Z</time>
      </trkpt>
      <trkpt lat="49.44525" lon="2.06061">
        <ele>67</ele>
        <time>2023-06-10T13:25:28Z</time>
      </trkpt>
      <trkpt lat="49.44522" lon="2.06063">
        <ele>67</ele>
        <time>2023-06-10T13:25:33Z</time>
      </trkpt>
      <trkpt lat="49.44516" lon="2.06068">
        <ele>67</ele>
        <time>2023-06-10T13:25:39Z</time>
      </trkpt>
      <trkpt lat="49.44509" lon="2.06071">
        <ele>67</ele>
        <time>2023-06-10T13:25:44Z</time>
      </trkpt>
      <trkpt lat="49.445" lon="2.06076">
        <ele>67</ele>
        <time>2023-06-10T13:25:50Z</time>
      </trkpt>
      <trkpt lat="49.44496" lon="2.06078">
        <ele>67</ele>
        <time>2023-06-10T13:25:55Z</time>
      </trkpt>
      <trkpt lat="49.44491" lon="2.06079">
        <ele>67</ele>
        <time>2023-06-10T13:26:00Z</time>
      </trkpt>
      <trkpt lat="49.44484" lon="2.06083">
        <ele>67</ele>
        <time>2023-06-10T13:26:06Z</time>
      </trkpt>
      <trkpt lat="49.44476" lon="2.06086">
        <ele>67</ele>
        <time>2023-06-10T13:26:11Z</time>
      </trkpt>
      <trkpt lat="49.44468" lon="2.06091">
        <ele>66.8</ele>
        <time>2023-06-10T13:26:17Z</time>
      </trkpt>
      <trkpt lat="49.44459" lon="2.06095">
        <ele>66.5</ele>
        <time>2023-06-10T13:26:23Z</time>
      </trkpt>
      <trkpt lat="49.44451" lon="2.06099">
        <ele>66.2</ele>
        <time>2023-06-10T13:26:28Z</time>
      </trkpt>
      <trkpt lat="49.44442" lon="2.06102">
        <ele>66</ele>
        <time>2023-06-10T13:26:34Z</time>
      </trkpt>
      <trkpt lat="49.44434" lon="2.06106">
        <ele>66</ele>
        <time>2023-06-10T13:26:40Z</time>
      </trkpt>
      <trkpt lat="49.44427" lon="2.06111">
        <ele>66</ele>
        <time>2023-06-10T13:26:45Z</time>
      </trkpt>
      <trkpt lat="49.44421" lon="2.06116">
        <ele>66.2</ele>
        <time>2023-06-10T13:26:50Z</time>
      </trkpt>
      <trkpt lat="49.44415" lon="2.06121">
        <ele>66.4</ele>
        <time>2023-06-10T13:26:56Z</time>
      </trkpt>
      <trkpt lat="49.4441" lon="2.06125">
        <ele>66.4</ele>
        <time>2023-06-10T13:27:02Z</time>
      </trkpt>
      <trkpt lat="49.44405" lon="2.06129">
        <ele>66.4</ele>
        <time>2023-06-10T13:27:07Z</time>
      </trkpt>
      <trkpt lat="49.444" lon="2.06134">
        <ele>66.3</ele>
        <time>2023-06-10T13:27:12Z</time>
      </trkpt>
      <trkpt lat="49.44393" lon="2.06141">
        <ele>66.2</ele>
        <time>2023-06-10T13:27:18Z</time>
      </trkpt>
      <trkpt lat="49.44389" lon="2.06144">
        <ele>66.2</ele>
        <time>2023-06-10T13:27:23Z</time>
      </trkpt>
      <trkpt lat="49.44385" lon="2.06149">
        <ele>66.4</ele>
        <time>2023-06-10T13:27:29Z</time>
      </trkpt>
      <trkpt lat="49.44382" lon="2.06155">
        <ele>66.6</ele>
        <time>2023-06-10T13:27:34Z</time>
      </trkpt>
      <trkpt lat="49.44379" lon="2.0616">
        <ele>66.8</ele>
        <time>2023-06-10T13:27:39Z</time>
      </trkpt>
      <trkpt lat="49.44377" lon="2.06162">
        <ele>66.8</ele>
        <time>2023-06-10T13:27:45Z</time>
      </trkpt>
      <trkpt lat="49.44375" lon="2.06164">
        <ele>66.9</ele>
        <time>2023-06-10T13:27:51Z</time>
      </trkpt>
      <trkpt lat="49.44373" lon="2.06166">
        <ele>67</ele>
        <time>2023-06-10T13:27:57Z</time>
      </trkpt>
      <trkpt lat="49.4437" lon="2.0617">
        <ele>66.9</ele>
        <time>2023-06-10T13:28:03Z</time>
      </trkpt>
      <trkpt lat="49.44362" lon="2.06166">
        <ele>67</ele>
        <time>2023-06-10T13:28:08Z</time>
      </trkpt>
      <trkpt lat="49.44348" lon="2.06158">
        <ele>66.8</ele>
        <time>2023-06-10T13:28:14Z</time>
      </trkpt>
      <trkpt lat="49.44335" lon="2.06156">
        <ele>67</ele>
        <time>2023-06-10T13:28:19Z</time>
      </trkpt>
      <trkpt lat="49.44322" lon="2.06156">
        <ele>67</ele>
        <time>2023-06-10T13:28:25Z</time>
      </trkpt>
      <trkpt lat="49.44312" lon="2.06158">
        <ele>67</ele>
        <time>2023-06-10T13:28:30Z</time>
      </trkpt>
      <trkpt lat="49.443" lon="2.06162">
        <ele>67</ele>
        <time>2023-06-10T13:28:36Z</time>
      </trkpt>
      <trkpt lat="49.4429" lon="2.06167">
        <ele>67</ele>
        <time>2023-06-10T13:28:42Z</time>
      </trkpt>
      <trkpt lat="49.44283" lon="2.06172">
        <ele>67</ele>
        <time>2023-06-10T13:28:47Z</time>
      </trkpt>
      <trkpt lat="49.44276" lon="2.06176">
        <ele>67</ele>
        <time>2023-06-10T13:28:53Z</time>
      </trkpt>
      <trkpt lat="49.44267" lon="2.06178">
        <ele>67</ele>
        <time>2023-06-10T13:28:59Z</time>
      </trkpt>
      <trkpt lat="49.4426" lon="2.0618">
        <ele>67</ele>
        <time>2023-06-10T13:29:04Z</time>
      </trkpt>
      <trkpt lat="49.44252" lon="2.06181">
        <ele>67</ele>
        <time>2023-06-10T13:29:10Z</time>
      </trkpt>
      <trkpt lat="49.44244" lon="2.06184">
        <ele>67</ele>
        <time>2023-06-10T13:29:15Z</time>
      </trkpt>
      <trkpt lat="49.44237" lon="2.06188">
        <ele>67</ele>
        <time>2023-06-10T13:29:21Z</time>
      </trkpt>
      <trkpt lat="49.4423" lon="2.06191">
        <ele>67</ele>
        <time>2023-06-10T13:29:26Z</time>
      </trkpt>
      <trkpt lat="49.44224" lon="2.06194">
        <ele>67</ele>
        <time>2023-06-10T13:29:32Z</time>
      </trkpt>
      <trkpt lat="49.44219" lon="2.06197">
        <ele>67</ele>
        <time>2023-06-10T13:29:37Z</time>
      </trkpt>
      <trkpt lat="49.44214" lon="2.06202">
        <ele>67</ele>
        <time>2023-06-10T13:29:42Z</time>
      </trkpt>
      <trkpt lat="49.44209" lon="2.06206">
        <ele>67</ele>
        <time>2023-06-10T13:29:48Z</time>
      </trkpt>
      <trkpt lat="49.44204" lon="2.06208">
        <ele>67</ele>
        <time>2023-06-10T13:29:54Z</time>
      </trkpt>
      <trkpt lat="49.44201" lon="2.06211">
        <ele>67</ele>
        <time>2023-06-10T13:29:59Z</time>
      </trkpt>
      <trkpt lat="49.44195" lon="2.06212">
        <ele>67</ele>
        <time>2023-06-10T13:30:05Z</time>
      </trkpt>
      <trkpt lat="49.44187" lon="2.06213">
        <ele>67.2</ele>
        <time>2023-06-10T13:30:11Z</time>
      </trkpt>
      <trkpt lat="49.4418" lon="2.06216">
        <ele>67.4</ele>
        <time>2023-06-10T13:30:16Z</time>
      </trkpt>
      <trkpt lat="49.44172" lon="2.06218">
        <ele>67.7</ele>
        <time>2023-06-10T13:30:21Z</time>
      </trkpt>
      <trkpt lat="49.44163" lon="2.0622">
        <ele>67.8</ele>
        <time>2023-06-10T13:30:27Z</time>
      </trkpt>
      <trkpt lat="49.44155" lon="2.06221">
        <ele>67.6</ele>
        <time>2023-06-10T13:30:33Z</time>
      </trkpt>
      <trkpt lat="49.44148" lon="2.06222">
        <ele>67.3</ele>
        <time>2023-06-10T13:30:39Z</time>
      </trkpt>
      <trkpt lat="49.44142" lon="2.06224">
        <ele>67.1</ele>
        <time>2023-06-10T13:30:45Z</time>
      </trkpt>
      <trkpt lat="49.44136" lon="2.06226">
        <ele>66.9</ele>
        <time>2023-06-10T13:30:51Z</time>
      </trkpt>
      <trkpt lat="49.4413" lon="2.06223">
        <ele>67</ele>
        <time>2023-06-10T13:30:56Z</time>
      </trkpt>
      <trkpt lat="49.44124" lon="2.06224">
        <ele>67</ele>
        <time>2023-06-10T13:31:02Z</time>
      </trkpt>
      <trkpt lat="49.4412" lon="2.06225">
        <ele>66.9</ele>
        <time>2023-06-10T13:31:07Z</time>
      </trkpt>
      <trkpt lat="49.44114" lon="2.06228">
        <ele>66.8</ele>
        <time>2023-06-10T13:31:13Z</time>
      </trkpt>
      <trkpt lat="49.44108" lon="2.06229">
        <ele>66.8</ele>
        <time>2023-06-10T13:31:19Z</time>
      </trkpt>
      <trkpt lat="49.44098" lon="2.06228">
        <ele>66.9</ele>
        <time>2023-06-10T13:31:25Z</time>
      </trkpt>
      <trkpt lat="49.44086" lon="2.06225">
        <ele>67</ele>
        <time>2023-06-10T13:31:31Z</time>
      </trkpt>
      <trkpt lat="49.44074" lon="2.06224">
        <ele>67</ele>
        <time>2023-06-10T13:31:37Z</time>
      </trkpt>
      <trkpt lat="49.44065" lon="2.06224">
        <ele>67</ele>
        <time>2023-06-10T13:31:43Z</time>
      </trkpt>
      <trkpt lat="49.44058" lon="2.06225">
        <ele>67</ele>
        <time>2023-06-10T13:31:48Z</time>
      </trkpt>
      <trkpt lat="49.44051" lon="2.06226">
        <ele>67</ele>
        <time>2023-06-10T13:31:54Z</time>
      </trkpt>
      <trkpt lat="49.44044" lon="2.06227">
        <ele>67</ele>
        <time>2023-06-10T13:32:00Z</time>
      </trkpt>
      <trkpt lat="49.44038" lon="2.06228">
        <ele>67</ele>
        <time>2023-06-10T13:32:05Z</time>
      </trkpt>
      <trkpt lat="49.44033" lon="2.0623">
        <ele>67</ele>
        <time>2023-06-10T13:32:10Z</time>
      </trkpt>
      <trkpt lat="49.44025" lon="2.06231">
        <ele>67</ele>
        <time>2023-06-10T13:32:16Z</time>
      </trkpt>
      <trkpt lat="49.44017" lon="2.06229">
        <ele>67</ele>
        <time>2023-06-10T13:32:21Z</time>
      </trkpt>
      <trkpt lat="49.44006" lon="2.06227">
        <ele>67</ele>
        <time>2023-06-10T13:32:27Z</time>
      </trkpt>
      <trkpt lat="49.44" lon="2.06227">
        <ele>67</ele>
        <time>2023-06-10T13:32:32Z</time>
      </trkpt>
      <trkpt lat="49.43993" lon="2.06229">
        <ele>67</ele>
        <time>2023-06-10T13:32:38Z</time>
      </trkpt>
      <trkpt lat="49.43987" lon="2.06231">
        <ele>67</ele>
        <time>2023-06-10T13:32:43Z</time>
      </trkpt>
      <trkpt lat="49.43981" lon="2.06233">
        <ele>67</ele>
        <time>2023-06-10T13:32:49Z</time>
      </trkpt>
      <trkpt lat="49.43975" lon="2.06234">
        <ele>67</ele>
        <time>2023-06-10T13:32:54Z</time>
      </trkpt>
      <trkpt lat="49.43969" lon="2.06235">
        <ele>67</ele>
        <time>2023-06-10T13:33:00Z</time>
      </trkpt>
      <trkpt lat="49.43965" lon="2.06235">
        <ele>67</ele>
        <time>2023-06-10T13:33:05Z</time>
      </trkpt>
      <trkpt lat="49.43962" lon="2.06235">
        <ele>67</ele>
        <time>2023-06-10T13:33:10Z</time>
      </trkpt>
      <trkpt lat="49.43959" lon="2.06237">
        <ele>67</ele>
        <time>2023-06-10T13:33:15Z</time>
      </trkpt>
      <trkpt lat="49.43954" lon="2.06241">
        <ele>67</ele>
        <time>2023-06-10T13:33:21Z</time>
      </trkpt>
      <trkpt lat="49.43948" lon="2.06238">
        <ele>67</ele>
        <time>2023-06-10T13:33:27Z</time>
      </trkpt>
      <trkpt lat="49.4394" lon="2.06237">
        <ele>67</ele>
        <time>2023-06-10T13:33:32Z</time>
      </trkpt>
      <trkpt lat="49.43929" lon="2.06235">
        <ele>67</ele>
        <time>2023-06-10T13:33:38Z</time>
      </trkpt>
      <trkpt lat="49.43918" lon="2.06228">
        <ele>67</ele>
        <time>2023-06-10T13:33:43Z</time>
      </trkpt>
      <trkpt lat="49.43906" lon="2.06224">
        <ele>67</ele>
        <time>2023-06-10T13:33:49Z</time>
      </trkpt>
      <trkpt lat="49.43899" lon="2.06225">
        <ele>67</ele>
        <time>2023-06-10T13:33:55Z</time>
      </trkpt>
      <trkpt lat="49.43894" lon="2.06227">
        <ele>67</ele>
        <time>2023-06-10T13:34:00Z</time>
      </trkpt>
      <trkpt lat="49.43889" lon="2.06232">
        <ele>67</ele>
        <time>2023-06-10T13:34:05Z</time>
      </trkpt>
      <trkpt lat="49.43883" lon="2.0624">
        <ele>66.9</ele>
        <time>2023-06-10T13:34:10Z</time>
      </trkpt>
      <trkpt lat="49.43878" lon="2.06248">
        <ele>67</ele>
        <time>2023-06-10T13:34:16Z</time>
      </trkpt>
      <trkpt lat="49.43873" lon="2.06255">
        <ele>67</ele>
        <time>2023-06-10T13:34:21Z</time>
      </trkpt>
      <trkpt lat="49.43867" lon="2.06261">
        <ele>67</ele>
        <time>2023-06-10T13:34:27Z</time>
      </trkpt>
      <trkpt lat="49.43861" lon="2.06268">
        <ele>67</ele>
        <time>2023-06-10T13:34:33Z</time>
      </trkpt>
      <trkpt lat="49.43859" lon="2.06274">
        <ele>67</ele>
        <time>2023-06-10T13:34:39Z</time>
      </trkpt>
      <trkpt lat="49.43861" lon="2.06279">
        <ele>67</ele>
        <time>2023-06-10T13:34:45Z</time>
      </trkpt>
      <trkpt lat="49.43864" lon="2.06281">
        <ele>67</ele>
        <time>2023-06-10T13:34:51Z</time>
      </trkpt>
      <trkpt lat="49.4387" lon="2.06282">
        <ele>67</ele>
        <time>2023-06-10T13:34:57Z</time>
      </trkpt>
      <trkpt lat="49.43879" lon="2.06283">
        <ele>66.9</ele>
        <time>2023-06-10T13:35:03Z</time>
      </trkpt>
      <trkpt lat="49.43887" lon="2.06284">
        <ele>66.8</ele>
        <time>2023-06-10T13:35:08Z</time>
      </trkpt>
      <trkpt lat="49.43897" lon="2.06285">
        <ele>66.8</ele>
        <time>2023-06-10T13:35:14Z</time>
      </trkpt>
      <trkpt lat="49.43907" lon="2.06285">
        <ele>66.9</ele>
        <time>2023-06-10T13:35:20Z</time>
      </trkpt>
      <trkpt lat="49.43915" lon="2.06285">
        <ele>67</ele>
        <time>2023-06-10T13:35:25Z</time>
      </trkpt>
      <trkpt lat="49.43924" lon="2.06285">
        <ele>67</ele>
        <time>2023-06-10T13:35:31Z</time>
      </trkpt>
      <trkpt lat="49.43932" lon="2.06285">
        <ele>67</ele>
        <time>2023-06-10T13:35:37Z</time>
      </trkpt>
      <trkpt lat="49.43938" lon="2.06286">
        <ele>67</ele>
        <time>2023-06-10T13:35:43Z</time>
      </trkpt>
      <trkpt lat="49.43943" lon="2.06289">
        <ele>67</ele>
        <time>2023-06-10T13:35:49Z</time>
      </trkpt>
      <trkpt lat="49.43948" lon="2.06298">
        <ele>66.9</ele>
        <time>2023-06-10T13:35:55Z</time>
      </trkpt>
      <trkpt lat="49.43954" lon="2.0631">
        <ele>66.7</ele>
        <time>2023-06-10T13:36:01Z</time>
      </trkpt>
      <trkpt lat="49.43958" lon="2.06321">
        <ele>66.5</ele>
        <time>2023-06-10T13:36:06Z</time>
      </trkpt>
      <trkpt lat="49.43963" lon="2.06331">
        <ele>66.3</ele>
        <time>2023-06-10T13:36:12Z</time>
      </trkpt>
      <trkpt lat="49.43967" lon="2.06339">
        <ele>66.2</ele>
        <time>2023-06-10T13:36:17Z</time>
      </trkpt>
      <trkpt lat="49.43973" lon="2.06351">
        <ele>66</ele>
        <time>2023-06-10T13:36:23Z</time>
      </trkpt>
      <trkpt lat="49.43979" lon="2.06363">
        <ele>66</ele>
        <time>2023-06-10T13:36:29Z</time>
      </trkpt>
      <trkpt lat="49.43984" lon="2.06373">
        <ele>66</ele>
        <time>2023-06-10T13:36:34Z</time>
      </trkpt>
      <trkpt lat="49.4399" lon="2.06384">
        <ele>66</ele>
        <time>2023-06-10T13:36:40Z</time>
      </trkpt>
      <trkpt lat="49.43995" lon="2.06392">
        <ele>66</ele>
        <time>2023-06-10T13:36:45Z</time>
      </trkpt>
      <trkpt lat="49.43999" lon="2.064">
        <ele>66</ele>
        <time>2023-06-10T13:36:51Z</time>
      </trkpt>
      <trkpt lat="49.44002" lon="2.06408">
        <ele>66</ele>
        <time>2023-06-10T13:36:56Z</time>
      </trkpt>
      <trkpt lat="49.44007" lon="2.06415">
        <ele>66</ele>
        <time>2023-06-10T13:37:02Z</time>
      </trkpt>
      <trkpt lat="49.44014" lon="2.06418">
        <ele>66</ele>
        <time>2023-06-10T13:37:07Z</time>
      </trkpt>
      <trkpt lat="49.44022" lon="2.06417">
        <ele>66</ele>
        <time>2023-06-10T13:37:13Z</time>
      </trkpt>
      <trkpt lat="49.4403" lon="2.06411">
        <ele>66</ele>
        <time>2023-06-10T13:37:19Z</time>
      </trkpt>
      <trkpt lat="49.44034" lon="2.06405">
        <ele>66</ele>
        <time>2023-06-10T13:37:24Z</time>
      </trkpt>
      <trkpt lat="49.44038" lon="2.064">
        <ele>66</ele>
        <time>2023-06-10T13:37:29Z</time>
      </trkpt>
      <trkpt lat="49.44044" lon="2.06394">
        <ele>66</ele>
        <time>2023-06-10T13:37:35Z</time>
      </trkpt>
      <trkpt lat="49.44054" lon="2.06393">
        <ele>66</ele>
        <time>2023-06-10T13:37:41Z</time>
      </trkpt>
      <trkpt lat="49.44064" lon="2.06388">
        <ele>66</ele>
        <time>2023-06-10T13:37:47Z</time>
      </trkpt>
      <trkpt lat="49.44073" lon="2.06387">
        <ele>66</ele>
        <time>2023-06-10T13:37:52Z</time>
      </trkpt>
      <trkpt lat="49.4408" lon="2.06384">
        <ele>66</ele>
        <time>2023-06-10T13:37:58Z</time>
      </trkpt>
      <trkpt lat="49.44087" lon="2.06382">
        <ele>66</ele>
        <time>2023-06-10T13:38:04Z</time>
      </trkpt>
      <trkpt lat="49.44094" lon="2.0638">
        <ele>66</ele>
        <time>2023-06-10T13:38:09Z</time>
      </trkpt>
      <trkpt lat="49.44103" lon="2.06378">
        <ele>66</ele>
        <time>2023-06-10T13:38:15Z</time>
      </trkpt>
      <trkpt lat="49.44109" lon="2.06383">
        <ele>66</ele>
        <time>2023-06-10T13:38:20Z</time>
      </trkpt>
      <trkpt lat="49.44112" lon="2.06393">
        <ele>66</ele>
        <time>2023-06-10T13:38:25Z</time>
      </trkpt>
      <trkpt lat="49.44115" lon="2.06402">
        <ele>66</ele>
        <time>2023-06-10T13:38:30Z</time>
      </trkpt>
      <trkpt lat="49.44119" lon="2.06411">
        <ele>66</ele>
        <time>2023-06-10T13:38:35Z</time>
      </trkpt>
      <trkpt lat="49.44122" lon="2.0642">
        <ele>66</ele>
        <time>2023-06-10T13:38:41Z</time>
      </trkpt>
      <trkpt lat="49.44126" lon="2.0643">
        <ele>66</ele>
        <time>2023-06-10T13:38:47Z</time>
      </trkpt>
      <trkpt lat="49.44129" lon="2.06436">
        <ele>66</ele>
        <time>2023-06-10T13:38:52Z</time>
      </trkpt>
      <trkpt lat="49.44132" lon="2.06445">
        <ele>66</ele>
        <time>2023-06-10T13:38:57Z</time>
      </trkpt>
      <trkpt lat="49.44134" lon="2.06459">
        <ele>66</ele>
        <time>2023-06-10T13:39:03Z</time>
      </trkpt>
      <trkpt lat="49.44135" lon="2.06473">
        <ele>66</ele>
        <time>2023-06-10T13:39:09Z</time>
      </trkpt>
      <trkpt lat="49.44139" lon="2.06487">
        <ele>66</ele>
        <time>2023-06-10T13:39:15Z</time>
      </trkpt>
      <trkpt lat="49.44141" lon="2.06501">
        <ele>66</ele>
        <time>2023-06-10T13:39:21Z</time>
      </trkpt>
      <trkpt lat="49.44144" lon="2.06511">
        <ele>66.3</ele>
        <time>2023-06-10T13:39:26Z</time>
      </trkpt>
      <trkpt lat="49.44148" lon="2.06521">
        <ele>66.5</ele>
        <time>2023-06-10T13:39:32Z</time>
      </trkpt>
      <trkpt lat="49.44149" lon="2.06527">
        <ele>66.6</ele>
        <time>2023-06-10T13:39:38Z</time>
      </trkpt>
      <trkpt lat="49.44152" lon="2.06534">
        <ele>66.4</ele>
        <time>2023-06-10T13:39:43Z</time>
      </trkpt>
      <trkpt lat="49.44153" lon="2.06545">
        <ele>66.2</ele>
        <time>2023-06-10T13:39:49Z</time>
      </trkpt>
      <trkpt lat="49.44153" lon="2.06551">
        <ele>66.1</ele>
        <time>2023-06-10T13:39:55Z</time>
      </trkpt>
      <trkpt lat="49.44153" lon="2.06554">
        <ele>66</ele>
        <time>2023-06-10T13:40:00Z</time>
      </trkpt>
      <trkpt lat="49.44152" lon="2.06555">
        <ele>66</ele>
        <time>2023-06-10T13:40:06Z</time>
      </trkpt>
      <trkpt lat="49.44152" lon="2.06556">
        <ele>66</ele>
        <time>2023-06-10T13:40:11Z</time>
      </trkpt>
      <trkpt lat="49.44154" lon="2.06553">
        <ele>66</ele>
        <time>2023-06-10T13:40:17Z</time>
      </trkpt>
      <trkpt lat="49.44154" lon="2.06552">
        <ele>66.1</ele>
        <time>2023-06-10T13:40:23Z</time>
      </trkpt>
      <trkpt lat="49.44152" lon="2.06553">
        <ele>66.1</ele>
        <time>2023-06-10T13:40:29Z</time>
      </trkpt>
      <trkpt lat="49.44151" lon="2.06554">
        <ele>66</ele>
        <time>2023-06-10T13:40:34Z</time>
      </trkpt>
      <trkpt lat="49.44151" lon="2.06554">
        <ele>66</ele>
        <time>2023-06-10T13:40:40Z</time>
      </trkpt>
      <trkpt lat="49.44149" lon="2.06552">
        <ele>66.1</ele>
        <time>2023-06-10T13:40:46Z</time>
      </trkpt>
      <trkpt lat="49.44145" lon="2.06551">
        <ele>66.1</ele>
        <time>2023-06-10T13:40:51Z</time>
      </trkpt>
      <trkpt lat="49.44142" lon="2.0655">
        <ele>66.2</ele>
        <time>2023-06-10T13:40:56Z</time>
      </trkpt>
      <trkpt lat="49.44143" lon="2.0655">
        <ele>66.2</ele>
        <time>2023-06-10T13:41:02Z</time>
      </trkpt>
      <trkpt lat="49.44144" lon="2.0655">
        <ele>66.2</ele>
        <time>2023-06-10T13:41:08Z</time>
      </trkpt>
      <trkpt lat="49.44146" lon="2.06551">
        <ele>66.1</ele>
        <time>2023-06-10T13:41:13Z</time>
      </trkpt>
      <trkpt lat="49.44147" lon="2.06549">
        <ele>66.2</ele>
        <time>2023-06-10T13:41:19Z</time>
      </trkpt>
      <trkpt lat="49.44147" lon="2.06551">
        <ele>66.1</ele>
        <time>2023-06-10T13:41:25Z</time>
      </trkpt>
      <trkpt lat="49.44145" lon="2.06553">
        <ele>66.1</ele>
        <time>2023-06-10T13:41:31Z</time>
      </trkpt>
      <trkpt lat="49.44145" lon="2.06555">
        <ele>66</ele>
        <time>2023-06-10T13:41:36Z</time>
      </trkpt>
      <trkpt lat="49.44145" lon="2.06559">
        <ele>66</ele>
        <time>2023-06-10T13:41:42Z</time>
      </trkpt>
      <trkpt lat="49.44144" lon="2.06562">
        <ele>66</ele>
        <time>2023-06-10T13:41:48Z</time>
      </trkpt>
      <trkpt lat="49.44148" lon="2.06566">
        <ele>66.1</ele>
        <time>2023-06-10T13:41:53Z</time>
      </trkpt>
      <trkpt lat="49.44154" lon="2.06574">
        <ele>66.4</ele>
        <time>2023-06-10T13:41:58Z</time>
      </trkpt>
      <trkpt lat="49.44163" lon="2.06583">
        <ele>66.8</ele>
        <time>2023-06-10T13:42:04Z</time>
      </trkpt>
      <trkpt lat="49.44163" lon="2.06592">
        <ele>67.1</ele>
        <time>2023-06-10T13:42:10Z</time>
      </trkpt>
      <trkpt lat="49.44162" lon="2.06605">
        <ele>67.5</ele>
        <time>2023-06-10T13:42:16Z</time>
      </trkpt>
      <trkpt lat="49.44157" lon="2.06615">
        <ele>67.3</ele>
        <time>2023-06-10T13:42:22Z</time>
      </trkpt>
      <trkpt lat="49.44154" lon="2.06616">
        <ele>67.1</ele>
        <time>2023-06-10T13:42:27Z</time>
      </trkpt>
      <trkpt lat="49.4415" lon="2.0662">
        <ele>66.8</ele>
        <time>2023-06-10T13:42:32Z</time>
      </trkpt>
      <trkpt lat="49.44142" lon="2.0663">
        <ele>66.8</ele>
        <time>2023-06-10T13:42:38Z</time>
      </trkpt>
      <trkpt lat="49.44135" lon="2.06636">
        <ele>66.9</ele>
        <time>2023-06-10T13:42:44Z</time>
      </trkpt>
      <trkpt lat="49.44128" lon="2.06646">
        <ele>67.2</ele>
        <time>2023-06-10T13:42:49Z</time>
      </trkpt>
      <trkpt lat="49.44122" lon="2.06654">
        <ele>67.2</ele>
        <time>2023-06-10T13:42:54Z</time>
      </trkpt>
      <trkpt lat="49.44116" lon="2.06662">
        <ele>67.2</ele>
        <time>2023-06-10T13:42:59Z</time>
      </trkpt>
      <trkpt lat="49.44109" lon="2.06671">
        <ele>67.1</ele>
        <time>2023-06-10T13:43:05Z</time>
      </trkpt>
      <trkpt lat="49.44102" lon="2.06678">
        <ele>67.3</ele>
        <time>2023-06-10T13:43:10Z</time>
      </trkpt>
      <trkpt lat="49.44094" lon="2.06682">
        <ele>67.2</ele>
        <time>2023-06-10T13:43:16Z</time>
      </trkpt>
      <trkpt lat="49.44087" lon="2.06689">
        <ele>67.1</ele>
        <time>2023-06-10T13:43:22Z</time>
      </trkpt>
      <trkpt lat="49.44082" lon="2.06696">
        <ele>67</ele>
        <time>2023-06-10T13:43:27Z</time>
      </trkpt>
      <trkpt lat="49.44076" lon="2.06706">
        <ele>66.8</ele>
        <time>2023-06-10T13:43:33Z</time>
      </trkpt>
      <trkpt lat="49.4407" lon="2.06713">
        <ele>66.9</ele>
        <time>2023-06-10T13:43:38Z</time>
      </trkpt>
      <trkpt lat="49.44064" lon="2.06722">
        <ele>67</ele>
        <time>2023-06-10T13:43:44Z</time>
      </trkpt>
      <trkpt lat="49.44058" lon="2.06729">
        <ele>66.8</ele>
        <time>2023-06-10T13:43:50Z</time>
      </trkpt>
      <trkpt lat="49.4406" lon="2.06733">
        <ele>66.7</ele>
        <time>2023-06-10T13:43:56Z</time>
      </trkpt>
      <trkpt lat="49.44065" lon="2.0674">
        <ele>66.6</ele>
        <time>2023-06-10T13:44:01Z</time>
      </trkpt>
      <trkpt lat="49.4407" lon="2.06748">
        <ele>66.6</ele>
        <time>2023-06-10T13:44:06Z</time>
      </trkpt>
      <trkpt lat="49.44075" lon="2.06754">
        <ele>66.8</ele>
        <time>2023-06-10T13:44:11Z</time>
      </trkpt>
      <trkpt lat="49.44079" lon="2.06763">
        <ele>67.3</ele>
        <time>2023-06-10T13:44:17Z</time>
      </trkpt>
      <trkpt lat="49.44084" lon="2.06772">
        <ele>67.8</ele>
        <time>2023-06-10T13:44:22Z</time>
      </trkpt>
      <trkpt lat="49.44089" lon="2.0678">
        <ele>68</ele>
        <time>2023-06-10T13:44:27Z</time>
      </trkpt>
      <trkpt lat="49.44095" lon="2.06793">
        <ele>68</ele>
        <time>2023-06-10T13:44:33Z</time>
      </trkpt>
      <trkpt lat="49.44101" lon="2.06803">
        <ele>68</ele>
        <time>2023-06-10T13:44:38Z</time>
      </trkpt>
      <trkpt lat="49.44107" lon="2.0681">
        <ele>67.8</ele>
        <time>2023-06-10T13:44:43Z</time>
      </trkpt>
      <trkpt lat="49.44115" lon="2.06817">
        <ele>67.7</ele>
        <time>2023-06-10T13:44:49Z</time>
      </trkpt>
      <trkpt lat="49.44118" lon="2.06827">
        <ele>67.4</ele>
        <time>2023-06-10T13:44:54Z</time>
      </trkpt>
      <trkpt lat="49.44123" lon="2.06839">
        <ele>67.3</ele>
        <time>2023-06-10T13:45:00Z</time>
      </trkpt>
      <trkpt lat="49.44124" lon="2.06847">
        <ele>67.2</ele>
        <time>2023-06-10T13:45:05Z</time>
      </trkpt>
      <trkpt lat="49.44127" lon="2.06856">
        <ele>67.3</ele>
        <time>2023-06-10T13:45:11Z</time>
      </trkpt>
      <trkpt lat="49.44133" lon="2.06864">
        <ele>67.5</ele>
        <time>2023-06-10T13:45:17Z</time>
      </trkpt>
      <trkpt lat="49.4414" lon="2.06873">
        <ele>67.6</ele>
        <time>2023-06-10T13:45:23Z</time>
      </trkpt>
      <trkpt lat="49.44146" lon="2.06878">
        <ele>67.6</ele>
        <time>2023-06-10T13:45:28Z</time>
      </trkpt>
      <trkpt lat="49.44152" lon="2.06885">
        <ele>67.5</ele>
        <time>2023-06-10T13:45:34Z</time>
      </trkpt>
      <trkpt lat="49.44156" lon="2.06892">
        <ele>67.5</ele>
        <time>2023-06-10T13:45:40Z</time>
      </trkpt>
      <trkpt lat="49.44158" lon="2.06898">
        <ele>67.4</ele>
        <time>2023-06-10T13:45:45Z</time>
      </trkpt>
      <trkpt lat="49.44159" lon="2.06912">
        <ele>66.9</ele>
        <time>2023-06-10T13:45:51Z</time>
      </trkpt>
      <trkpt lat="49.44161" lon="2.06925">
        <ele>66.8</ele>
        <time>2023-06-10T13:45:56Z</time>
      </trkpt>
      <trkpt lat="49.44166" lon="2.06939">
        <ele>67</ele>
        <time>2023-06-10T13:46:02Z</time>
      </trkpt>
      <trkpt lat="49.4417" lon="2.06949">
        <ele>66.9</ele>
        <time>2023-06-10T13:46:07Z</time>
      </trkpt>
      <trkpt lat="49.44174" lon="2.06958">
        <ele>66.6</ele>
        <time>2023-06-10T13:46:12Z</time>
      </trkpt>
      <trkpt lat="49.44176" lon="2.06969">
        <ele>66.4</ele>
        <time>2023-06-10T13:46:18Z</time>
      </trkpt>
      <trkpt lat="49.44179" lon="2.06979">
        <ele>66.6</ele>
        <time>2023-06-10T13:46:24Z</time>
      </trkpt>
      <trkpt lat="49.44186" lon="2.06988">
        <ele>66.9</ele>
        <time>2023-06-10T13:46:30Z</time>
      </trkpt>
      <trkpt lat="49.44193" lon="2.06996">
        <ele>67</ele>
        <time>2023-06-10T13:46:35Z</time>
      </trkpt>
      <trkpt lat="49.442" lon="2.07005">
        <ele>66.7</ele>
        <time>2023-06-10T13:46:40Z</time>
      </trkpt>
      <trkpt lat="49.44207" lon="2.07018">
        <ele>66.5</ele>
        <time>2023-06-10T13:46:46Z</time>
      </trkpt>
      <trkpt lat="49.4421" lon="2.07031">
        <ele>66.6</ele>
        <time>2023-06-10T13:46:52Z</time>
      </trkpt>
      <trkpt lat="49.44214" lon="2.07042">
        <ele>66.7</ele>
        <time>2023-06-10T13:46:58Z</time>
      </trkpt>
      <trkpt lat="49.44218" lon="2.07051">
        <ele>66.8</ele>
        <time>2023-06-10T13:47:04Z</time>
      </trkpt>
      <trkpt lat="49.44221" lon="2.07061">
        <ele>67</ele>
        <time>2023-06-10T13:47:09Z</time>
      </trkpt>
      <trkpt lat="49.44227" lon="2.07071">
        <ele>67</ele>
        <time>2023-06-10T13:47:14Z</time>
      </trkpt>
      <trkpt lat="49.44234" lon="2.07083">
        <ele>67</ele>
        <time>2023-06-10T13:47:20Z</time>
      </trkpt>
      <trkpt lat="49.44238" lon="2.07092">
        <ele>67</ele>
        <time>2023-06-10T13:47:25Z</time>
      </trkpt>
      <trkpt lat="49.44242" lon="2.07098">
        <ele>67</ele>
        <time>2023-06-10T13:47:30Z</time>
      </trkpt>
      <trkpt lat="49.44244" lon="2.07107">
        <ele>67</ele>
        <time>2023-06-10T13:47:35Z</time>
      </trkpt>
      <trkpt lat="49.44242" lon="2.07121">
        <ele>67.2</ele>
        <time>2023-06-10T13:47:41Z</time>
      </trkpt>
      <trkpt lat="49.44237" lon="2.07137">
        <ele>67.9</ele>
        <time>2023-06-10T13:47:47Z</time>
      </trkpt>
      <trkpt lat="49.44232" lon="2.07153">
        <ele>68.3</ele>
        <time>2023-06-10T13:47:53Z</time>
      </trkpt>
      <trkpt lat="49.44227" lon="2.07166">
        <ele>68.7</ele>
        <time>2023-06-10T13:47:58Z</time>
      </trkpt>
      <trkpt lat="49.44223" lon="2.07176">
        <ele>69.3</ele>
        <time>2023-06-10T13:48:03Z</time>
      </trkpt>
      <trkpt lat="49.44219" lon="2.07185">
        <ele>69.6</ele>
        <time>2023-06-10T13:48:08Z</time>
      </trkpt>
      <trkpt lat="49.44214" lon="2.07196">
        <ele>69.7</ele>
        <time>2023-06-10T13:48:14Z</time>
      </trkpt>
      <trkpt lat="49.4421" lon="2.07207">
        <ele>69.6</ele>
        <time>2023-06-10T13:48:19Z</time>
      </trkpt>
      <trkpt lat="49.4421" lon="2.07219">
        <ele>69.6</ele>
        <time>2023-06-10T13:48:25Z</time>
      </trkpt>
      <trkpt lat="49.44213" lon="2.0723">
        <ele>69.4</ele>
        <time>2023-06-10T13:48:31Z</time>
      </trkpt>
      <trkpt lat="49.44217" lon="2.07238">
        <ele>69</ele>
        <time>2023-06-10T13:48:36Z</time>
      </trkpt>
      <trkpt lat="49.44221" lon="2.07247">
        <ele>68.3</ele>
        <time>2023-06-10T13:48:42Z</time>
      </trkpt>
      <trkpt lat="49.44219" lon="2.07255">
        <ele>68.2</ele>
        <time>2023-06-10T13:48:48Z</time>
      </trkpt>
      <trkpt lat="49.44214" lon="2.07261">
        <ele>68.4</ele>
        <time>2023-06-10T13:48:53Z</time>
      </trkpt>
      <trkpt lat="49.44207" lon="2.0727">
        <ele>68.3</ele>
        <time>2023-06-10T13:48:59Z</time>
      </trkpt>
      <trkpt lat="49.44201" lon="2.07275">
        <ele>68.1</ele>
        <time>2023-06-10T13:49:04Z</time>
      </trkpt>
      <trkpt lat="49.44193" lon="2.07281">
        <ele>68</ele>
        <time>2023-06-10T13:49:10Z</time>
      </trkpt>
      <trkpt lat="49.44187" lon="2.07285">
        <ele>68.2</ele>
        <time>2023-06-10T13:49:15Z</time>
      </trkpt>
      <trkpt lat="49.44181" lon="2.07291">
        <ele>68.3</ele>
        <time>2023-06-10T13:49:20Z</time>
      </trkpt>
      <trkpt lat="49.44174" lon="2.07297">
        <ele>68.2</ele>
        <time>2023-06-10T13:49:26Z</time>
      </trkpt>
      <trkpt lat="49.44168" lon="2.07302">
        <ele>68.1</ele>
        <time>2023-06-10T13:49:32Z</time>
      </trkpt>
      <trkpt lat="49.44164" lon="2.07308">
        <ele>68</ele>
        <time>2023-06-10T13:49:37Z</time>
      </trkpt>
      <trkpt lat="49.4416" lon="2.07314">
        <ele>68</ele>
        <time>2023-06-10T13:49:42Z</time>
      </trkpt>
      <trkpt lat="49.44155" lon="2.07322">
        <ele>68</ele>
        <time>2023-06-10T13:49:48Z</time>
      </trkpt>
      <trkpt lat="49.44148" lon="2.07325">
        <ele>68</ele>
        <time>2023-06-10T13:49:53Z</time>
      </trkpt>
      <trkpt lat="49.44143" lon="2.07326">
        <ele>68</ele>
        <time>2023-06-10T13:49:59Z</time>
      </trkpt>
      <trkpt lat="49.44143" lon="2.07332">
        <ele>68</ele>
        <time>2023-06-10T13:50:05Z</time>
      </trkpt>
      <trkpt lat="49.44145" lon="2.0734">
        <ele>68.3</ele>
        <time>2023-06-10T13:50:10Z</time>
      </trkpt>
      <trkpt lat="49.44149" lon="2.07349">
        <ele>68.8</ele>
        <time>2023-06-10T13:50:16Z</time>
      </trkpt>
      <trkpt lat="49.44155" lon="2.0735">
        <ele>68.9</ele>
        <time>2023-06-10T13:50:21Z</time>
      </trkpt>
      <trkpt lat="49.44159" lon="2.07349">
        <ele>69</ele>
        <time>2023-06-10T13:50:27Z</time>
      </trkpt>
      <trkpt lat="49.44159" lon="2.07349">
        <ele>68.9</ele>
        <time>2023-06-10T13:50:33Z</time>
      </trkpt>
      <trkpt lat="49.4416" lon="2.07347">
        <ele>68.9</ele>
        <time>2023-06-10T13:50:38Z</time>
      </trkpt>
      <trkpt lat="49.44167" lon="2.07347">
        <ele>69</ele>
        <time>2023-06-10T13:50:44Z</time>
      </trkpt>
      <trkpt lat="49.44176" lon="2.07347">
        <ele>69.3</ele>
        <time>2023-06-10T13:50:50Z</time>
      </trkpt>
      <trkpt lat="49.44182" lon="2.07352">
        <ele>69.7</ele>
        <time>2023-06-10T13:50:55Z</time>
      </trkpt>
      <trkpt lat="49.44185" lon="2.07357">
        <ele>69.9</ele>
        <time>2023-06-10T13:51:01Z</time>
      </trkpt>
    </trkseg>
  </trk>
</gpx>